Wetterdaten: Freitag, 29.12.2017
Datum Zeit Temp. A. Temp. A. max Feuchte A. Luftdruck Regen Wind Richtung Richtung Sonnenschein ET UV Solar Taupunkt Windchill Windböen
29.12.2017 00:00 -3,9 °C -3,9 °C 90 % 1010,4 hPa 0,0 mm 12,9 km/h (3 Bft) W-SW 249 ° 0 min 0,000 mm 0,0 UV-I 0 W/m² -5,3 °C -8,8 °C 20,9 km/h (4 Bft)
29.12.2017 00:01 -4,0 °C -3,9 °C 90 % 1010,4 hPa 0,0 mm 14,3 km/h (3 Bft) W 261 ° 0 min 0,000 mm 0,0 UV-I 0 W/m² -5,4 °C -9,2 °C 24,1 km/h (4 Bft)
29.12.2017 00:02 -4,0 °C -3,9 °C 90 % 1010,4 hPa 0,0 mm 16,5 km/h (3 Bft) W 281 ° 0 min 0,000 mm 0,0 UV-I 0 W/m² -5,4 °C -9,7 °C 22,5 km/h (4 Bft)
29.12.2017 00:03 -4,0 °C -4,0 °C 91 % 1010,4 hPa 0,0 mm 11,1 km/h (2 Bft) W-SW 243 ° 0 min 0,000 mm 0,0 UV-I 0 W/m² -5,2 °C -8,4 °C 17,7 km/h (3 Bft)
29.12.2017 00:04 -4,0 °C -4,0 °C 91 % 1010,4 hPa 0,0 mm 8,1 km/h (2 Bft) W 270 ° 0 min 0,000 mm 0,0 UV-I 0 W/m² -5,2 °C -7,5 °C 14,5 km/h (3 Bft)
29.12.2017 00:05 -4,0 °C -4,0 °C 91 % 1010,4 hPa 0,0 mm 14,8 km/h (3 Bft) W 267 ° 0 min 0,000 mm 0,0 UV-I 0 W/m² -5,2 °C -9,3 °C 20,9 km/h (4 Bft)
29.12.2017 00:06 -4,0 °C -4,0 °C 91 % 1010,4 hPa 0,0 mm 13,1 km/h (3 Bft) W 274 ° 0 min 0,000 mm 0,0 UV-I 0 W/m² -5,2 °C -8,9 °C 16,1 km/h (3 Bft)
29.12.2017 00:07 -4,0 °C -4,0 °C 91 % 1010,4 hPa 0,0 mm 11,5 km/h (2 Bft) W-NW 295 ° 0 min 0,000 mm 0,0 UV-I 0 W/m² -5,2 °C -8,5 °C 14,5 km/h (3 Bft)
29.12.2017 00:08 -4,1 °C -4,0 °C 91 % 1010,4 hPa 0,0 mm 11,5 km/h (2 Bft) W 276 ° 0 min 0,000 mm 0,0 UV-I 0 W/m² -5,3 °C -8,6 °C 19,3 km/h (3 Bft)
29.12.2017 00:09 -4,1 °C -4,0 °C 91 % 1010,4 hPa 0,0 mm 7,3 km/h (2 Bft) W-SW 252 ° 0 min 0,000 mm 0,0 UV-I 0 W/m² -5,3 °C -7,3 °C 11,3 km/h (2 Bft)
29.12.2017 00:10 -4,1 °C -4,0 °C 91 % 1010,4 hPa 0,0 mm 12,5 km/h (3 Bft) W 269 ° 0 min 0,000 mm 0,0 UV-I 0 W/m² -5,3 °C -8,9 °C 19,3 km/h (3 Bft)
29.12.2017 00:11 -4,1 °C -4,0 °C 91 % 1010,4 hPa 0,0 mm 13,2 km/h (3 Bft) W-SW 252 ° 0 min 0,000 mm 0,0 UV-I 0 W/m² -5,3 °C -9,1 °C 16,1 km/h (3 Bft)
29.12.2017 00:12 -4,1 °C -4,1 °C 91 % 1010,4 hPa 0,0 mm 15,7 km/h (3 Bft) W 273 ° 0 min 0,000 mm 0,0 UV-I 0 W/m² -5,3 °C -9,6 °C 22,5 km/h (4 Bft)
29.12.2017 00:13 -4,1 °C -4,1 °C 91 % 1010,4 hPa 0,0 mm 10,3 km/h (2 Bft) W-SW 256 ° 0 min 0,000 mm 0,0 UV-I 0 W/m² -5,3 °C -8,3 °C 16,1 km/h (3 Bft)
29.12.2017 00:14 -4,1 °C -4,1 °C 91 % 1010,5 hPa 0,0 mm 11,1 km/h (2 Bft) SW 229 ° 0 min 0,000 mm 0,0 UV-I 0 W/m² -5,3 °C -8,5 °C 16,1 km/h (3 Bft)
29.12.2017 00:15 -4,1 °C -4,1 °C 91 % 1010,5 hPa 0,0 mm 11,5 km/h (2 Bft) W 269 ° 0 min 0,000 mm 0,0 UV-I 0 W/m² -5,3 °C -8,6 °C 17,7 km/h (3 Bft)
29.12.2017 00:16 -4,1 °C -4,1 °C 91 % 1010,5 hPa 0,0 mm 8,8 km/h (2 Bft) W 269 ° 0 min 0,000 mm 0,0 UV-I 0 W/m² -5,3 °C -7,8 °C 12,9 km/h (3 Bft)
29.12.2017 00:17 -4,1 °C -4,1 °C 91 % 1010,5 hPa 0,0 mm 6,8 km/h (2 Bft) W 259 ° 0 min 0,000 mm 0,0 UV-I 0 W/m² -5,3 °C -7,1 °C 11,3 km/h (2 Bft)
29.12.2017 00:18 -4,1 °C -4,1 °C 91 % 1010,5 hPa 0,0 mm 9,4 km/h (2 Bft) W-SW 257 ° 0 min 0,000 mm 0,0 UV-I 0 W/m² -5,3 °C -8,0 °C 12,9 km/h (3 Bft)
29.12.2017 00:19 -4,1 °C -4,1 °C 91 % 1010,5 hPa 0,0 mm 14,9 km/h (3 Bft) SW 234 ° 0 min 0,000 mm 0,0 UV-I 0 W/m² -5,3 °C -9,5 °C 24,1 km/h (4 Bft)
29.12.2017 00:20 -4,1 °C -4,1 °C 91 % 1010,5 hPa 0,0 mm 8,6 km/h (2 Bft) W 263 ° 0 min 0,000 mm 0,0 UV-I 0 W/m² -5,3 °C -7,8 °C 12,9 km/h (3 Bft)
29.12.2017 00:21 -4,1 °C -4,1 °C 91 % 1010,6 hPa 0,0 mm 8,9 km/h (2 Bft) W-SW 252 ° 0 min 0,000 mm 0,0 UV-I 0 W/m² -5,3 °C -7,9 °C 16,1 km/h (3 Bft)
29.12.2017 00:22 -4,1 °C -4,1 °C 91 % 1010,6 hPa 0,0 mm 12,7 km/h (3 Bft) W-SW 246 ° 0 min 0,000 mm 0,0 UV-I 0 W/m² -5,3 °C -8,9 °C 19,3 km/h (3 Bft)
29.12.2017 00:23 -4,1 °C -4,1 °C 91 % 1010,6 hPa 0,0 mm 9,5 km/h (2 Bft) W 271 ° 0 min 0,000 mm 0,0 UV-I 0 W/m² -5,3 °C -8,1 °C 16,1 km/h (3 Bft)
29.12.2017 00:24 -4,1 °C -4,1 °C 91 % 1010,5 hPa 0,0 mm 12,9 km/h (3 Bft) W-NW 286 ° 0 min 0,000 mm 0,0 UV-I 0 W/m² -5,3 °C -9,0 °C 16,1 km/h (3 Bft)
29.12.2017 00:25 -4,1 °C -4,1 °C 91 % 1010,5 hPa 0,0 mm 10,0 km/h (2 Bft) SW 236 ° 0 min 0,000 mm 0,0 UV-I 0 W/m² -5,3 °C -8,2 °C 12,9 km/h (3 Bft)
29.12.2017 00:26 -4,1 °C -4,1 °C 91 % 1010,6 hPa 0,0 mm 9,4 km/h (2 Bft) W-NW 288 ° 0 min 0,000 mm 0,0 UV-I 0 W/m² -5,3 °C -8,0 °C 16,1 km/h (3 Bft)
29.12.2017 00:27 -4,1 °C -4,1 °C 91 % 1010,6 hPa 0,0 mm 13,9 km/h (3 Bft) W-SW 243 ° 0 min 0,000 mm 0,0 UV-I 0 W/m² -5,3 °C -9,2 °C 19,3 km/h (3 Bft)
29.12.2017 00:28 -4,1 °C -4,1 °C 91 % 1010,6 hPa 0,0 mm 7,9 km/h (2 Bft) W 270 ° 0 min 0,000 mm 0,0 UV-I 0 W/m² -5,3 °C -7,5 °C 12,9 km/h (3 Bft)
29.12.2017 00:29 -4,1 °C -4,1 °C 91 % 1010,6 hPa 0,0 mm 15,1 km/h (3 Bft) W 269 ° 0 min 0,000 mm 0,0 UV-I 0 W/m² -5,3 °C -9,5 °C 22,5 km/h (4 Bft)
29.12.2017 00:30 -4,1 °C -4,1 °C 91 % 1010,6 hPa 0,0 mm 12,2 km/h (2 Bft) W-NW 292 ° 0 min 0,000 mm 0,0 UV-I 0 W/m² -5,3 °C -8,8 °C 17,7 km/h (3 Bft)
29.12.2017 00:31 -4,1 °C -4,1 °C 91 % 1010,6 hPa 0,0 mm 10,3 km/h (2 Bft) W 275 ° 0 min 0,000 mm 0,0 UV-I 0 W/m² -5,3 °C -8,3 °C 14,5 km/h (3 Bft)
29.12.2017 00:32 -4,1 °C -4,1 °C 91 % 1010,6 hPa 0,0 mm 14,1 km/h (3 Bft) NW 304 ° 0 min 0,000 mm 0,0 UV-I 0 W/m² -5,3 °C -9,3 °C 22,5 km/h (4 Bft)
29.12.2017 00:33 -4,1 °C -4,1 °C 91 % 1010,6 hPa 0,0 mm 17,5 km/h (3 Bft) W 265 ° 0 min 0,000 mm 0,0 UV-I 0 W/m² -5,3 °C -10,0 °C 24,1 km/h (4 Bft)
29.12.2017 00:34 -4,1 °C -4,1 °C 91 % 1010,6 hPa 0,0 mm 12,9 km/h (3 Bft) W-SW 250 ° 0 min 0,000 mm 0,0 UV-I 0 W/m² -5,3 °C -9,0 °C 20,9 km/h (4 Bft)
29.12.2017 00:35 -4,1 °C -4,1 °C 91 % 1010,6 hPa 0,0 mm 12,1 km/h (2 Bft) W-NW 286 ° 0 min 0,000 mm 0,0 UV-I 0 W/m² -5,3 °C -8,8 °C 19,3 km/h (3 Bft)
29.12.2017 00:36 -4,1 °C -4,1 °C 91 % 1010,7 hPa 0,0 mm 13,2 km/h (3 Bft) W 265 ° 0 min 0,000 mm 0,0 UV-I 0 W/m² -5,3 °C -9,1 °C 17,7 km/h (3 Bft)
29.12.2017 00:37 -4,1 °C -4,1 °C 91 % 1010,7 hPa 0,0 mm 12,0 km/h (2 Bft) W-SW 244 ° 0 min 0,000 mm 0,0 UV-I 0 W/m² -5,3 °C -8,8 °C 19,3 km/h (3 Bft)
29.12.2017 00:38 -4,1 °C -4,1 °C 91 % 1010,7 hPa 0,0 mm 9,7 km/h (2 Bft) W 273 ° 0 min 0,000 mm 0,0 UV-I 0 W/m² -5,3 °C -8,1 °C 12,9 km/h (3 Bft)
29.12.2017 00:39 -4,1 °C -4,1 °C 91 % 1010,7 hPa 0,0 mm 14,0 km/h (3 Bft) W-SW 257 ° 0 min 0,000 mm 0,0 UV-I 0 W/m² -5,3 °C -9,3 °C 24,1 km/h (4 Bft)
29.12.2017 00:40 -4,1 °C -4,1 °C 91 % 1010,7 hPa 0,0 mm 16,2 km/h (3 Bft) W 271 ° 0 min 0,000 mm 0,0 UV-I 0 W/m² -5,3 °C -9,7 °C 20,9 km/h (4 Bft)
29.12.2017 00:41 -4,1 °C -4,1 °C 91 % 1010,7 hPa 0,0 mm 16,9 km/h (3 Bft) W 264 ° 0 min 0,000 mm 0,0 UV-I 0 W/m² -5,3 °C -9,9 °C 20,9 km/h (4 Bft)
29.12.2017 00:42 -4,1 °C -4,1 °C 91 % 1010,7 hPa 0,0 mm 12,1 km/h (2 Bft) W 273 ° 0 min 0,000 mm 0,0 UV-I 0 W/m² -5,3 °C -8,8 °C 14,5 km/h (3 Bft)
29.12.2017 00:43 -4,1 °C -4,1 °C 91 % 1010,7 hPa 0,0 mm 8,0 km/h (2 Bft) W 274 ° 0 min 0,000 mm 0,0 UV-I 0 W/m² -5,3 °C -7,6 °C 12,9 km/h (3 Bft)
29.12.2017 00:44 -4,1 °C -4,1 °C 91 % 1010,7 hPa 0,0 mm 11,9 km/h (2 Bft) W-SW 240 ° 0 min 0,000 mm 0,0 UV-I 0 W/m² -5,3 °C -8,7 °C 14,5 km/h (3 Bft)
29.12.2017 00:45 -4,1 °C -4,1 °C 91 % 1010,8 hPa 0,0 mm 14,2 km/h (3 Bft) NW 307 ° 0 min 0,000 mm 0,0 UV-I 0 W/m² -5,3 °C -9,3 °C 20,9 km/h (4 Bft)
29.12.2017 00:46 -4,1 °C -4,1 °C 91 % 1010,7 hPa 0,0 mm 11,7 km/h (2 Bft) SW 223 ° 0 min 0,000 mm 0,0 UV-I 0 W/m² -5,3 °C -8,7 °C 17,7 km/h (3 Bft)
29.12.2017 00:47 -4,1 °C -4,1 °C 91 % 1010,8 hPa 0,0 mm 11,7 km/h (2 Bft) W 280 ° 0 min 0,000 mm 0,0 UV-I 0 W/m² -5,3 °C -8,7 °C 14,5 km/h (3 Bft)
29.12.2017 00:48 -4,1 °C -4,1 °C 91 % 1010,8 hPa 0,0 mm 10,3 km/h (2 Bft) W-SW 240 ° 0 min 0,000 mm 0,0 UV-I 0 W/m² -5,3 °C -8,3 °C 17,7 km/h (3 Bft)
29.12.2017 00:49 -4,1 °C -4,1 °C 91 % 1010,8 hPa 0,0 mm 11,7 km/h (2 Bft) W-SW 248 ° 0 min 0,000 mm 0,0 UV-I 0 W/m² -5,3 °C -8,7 °C 17,7 km/h (3 Bft)
29.12.2017 00:50 -4,1 °C -4,1 °C 91 % 1010,7 hPa 0,0 mm 14,2 km/h (3 Bft) W-NW 298 ° 0 min 0,000 mm 0,0 UV-I 0 W/m² -5,3 °C -9,3 °C 17,7 km/h (3 Bft)
29.12.2017 00:51 -4,1 °C -4,1 °C 91 % 1010,7 hPa 0,0 mm 13,3 km/h (3 Bft) W 259 ° 0 min 0,000 mm 0,0 UV-I 0 W/m² -5,3 °C -9,1 °C 16,1 km/h (3 Bft)
29.12.2017 00:52 -4,1 °C -4,1 °C 91 % 1010,8 hPa 0,0 mm 12,2 km/h (2 Bft) W-NW 299 ° 0 min 0,000 mm 0,0 UV-I 0 W/m² -5,3 °C -8,8 °C 16,1 km/h (3 Bft)
29.12.2017 00:53 -4,1 °C -4,1 °C 91 % 1010,8 hPa 0,0 mm 10,0 km/h (2 Bft) W 259 ° 0 min 0,000 mm 0,0 UV-I 0 W/m² -5,3 °C -8,2 °C 19,3 km/h (3 Bft)
29.12.2017 00:54 -4,1 °C -4,1 °C 91 % 1010,8 hPa 0,0 mm 12,5 km/h (3 Bft) W-SW 245 ° 0 min 0,000 mm 0,0 UV-I 0 W/m² -5,3 °C -8,9 °C 17,7 km/h (3 Bft)
29.12.2017 00:55 -4,1 °C -4,1 °C 91 % 1010,8 hPa 0,0 mm 11,4 km/h (2 Bft) W 271 ° 0 min 0,000 mm 0,0 UV-I 0 W/m² -5,3 °C -8,6 °C 16,1 km/h (3 Bft)
29.12.2017 00:56 -4,1 °C -4,1 °C 91 % 1010,8 hPa 0,0 mm 8,5 km/h (2 Bft) W-SW 253 ° 0 min 0,000 mm 0,0 UV-I 0 W/m² -5,3 °C -7,7 °C 12,9 km/h (3 Bft)
29.12.2017 00:57 -4,1 °C -4,1 °C 91 % 1010,9 hPa 0,0 mm 6,4 km/h (2 Bft) W-SW 254 ° 0 min 0,000 mm 0,0 UV-I 0 W/m² -5,3 °C -6,9 °C 12,9 km/h (3 Bft)
29.12.2017 00:58 -4,1 °C -4,1 °C 91 % 1010,9 hPa 0,0 mm 6,2 km/h (2 Bft) W 270 ° 0 min 0,000 mm 0,0 UV-I 0 W/m² -5,3 °C -6,8 °C 11,3 km/h (2 Bft)
29.12.2017 00:59 -4,1 °C -4,1 °C 91 % 1010,9 hPa 0,0 mm 8,7 km/h (2 Bft) W 268 ° 0 min 0,000 mm 0,0 UV-I 0 W/m² -5,3 °C -7,8 °C 12,9 km/h (3 Bft)
29.12.2017 01:00 -4,1 °C -4,1 °C 91 % 1010,9 hPa 0,0 mm 6,6 km/h (2 Bft) W-NW 284 ° 0 min 0,000 mm 0,0 UV-I 0 W/m² -5,3 °C -7,0 °C 9,7 km/h (2 Bft)
29.12.2017 01:01 -4,1 °C -4,1 °C 91 % 1010,9 hPa 0,0 mm 7,3 km/h (2 Bft) W 266 ° 0 min 0,000 mm 0,0 UV-I 0 W/m² -5,3 °C -7,3 °C 11,3 km/h (2 Bft)
29.12.2017 01:02 -4,1 °C -4,1 °C 91 % 1010,9 hPa 0,0 mm 14,6 km/h (3 Bft) W 273 ° 0 min 0,000 mm 0,0 UV-I 0 W/m² -5,3 °C -9,4 °C 20,9 km/h (4 Bft)
29.12.2017 01:03 -4,1 °C -4,1 °C 91 % 1010,9 hPa 0,0 mm 14,8 km/h (3 Bft) W 265 ° 0 min 0,000 mm 0,0 UV-I 0 W/m² -5,3 °C -9,4 °C 20,9 km/h (4 Bft)
29.12.2017 01:04 -4,1 °C -4,1 °C 91 % 1010,9 hPa 0,0 mm 10,9 km/h (2 Bft) W 279 ° 0 min 0,000 mm 0,0 UV-I 0 W/m² -5,3 °C -8,5 °C 14,5 km/h (3 Bft)
29.12.2017 01:05 -4,1 °C -4,1 °C 91 % 1011,0 hPa 0,0 mm 12,3 km/h (3 Bft) W-NW 290 ° 0 min 0,000 mm 0,0 UV-I 0 W/m² -5,3 °C -8,8 °C 19,3 km/h (3 Bft)
29.12.2017 01:06 -4,1 °C -4,1 °C 91 % 1011,0 hPa 0,0 mm 9,3 km/h (2 Bft) W-SW 238 ° 0 min 0,000 mm 0,0 UV-I 0 W/m² -5,3 °C -8,0 °C 17,7 km/h (3 Bft)
29.12.2017 01:07 -4,1 °C -4,1 °C 91 % 1011,0 hPa 0,0 mm 9,7 km/h (2 Bft) W-SW 246 ° 0 min 0,000 mm 0,0 UV-I 0 W/m² -5,3 °C -8,1 °C 14,5 km/h (3 Bft)
29.12.2017 01:08 -4,1 °C -4,1 °C 91 % 1010,9 hPa 0,0 mm 11,7 km/h (2 Bft) W-SW 255 ° 0 min 0,000 mm 0,0 UV-I 0 W/m² -5,3 °C -8,7 °C 17,7 km/h (3 Bft)
29.12.2017 01:09 -4,1 °C -4,1 °C 91 % 1010,9 hPa 0,0 mm 13,0 km/h (3 Bft) W-NW 284 ° 0 min 0,000 mm 0,0 UV-I 0 W/m² -5,3 °C -9,0 °C 19,3 km/h (3 Bft)
29.12.2017 01:10 -4,1 °C -4,1 °C 91 % 1010,9 hPa 0,0 mm 12,3 km/h (3 Bft) W 267 ° 0 min 0,000 mm 0,0 UV-I 0 W/m² -5,3 °C -8,8 °C 16,1 km/h (3 Bft)
29.12.2017 01:11 -4,1 °C -4,1 °C 91 % 1010,9 hPa 0,0 mm 8,5 km/h (2 Bft) W 270 ° 0 min 0,000 mm 0,0 UV-I 0 W/m² -5,3 °C -7,7 °C 12,9 km/h (3 Bft)
29.12.2017 01:12 -4,1 °C -4,1 °C 91 % 1011,0 hPa 0,0 mm 12,0 km/h (2 Bft) W 273 ° 0 min 0,000 mm 0,0 UV-I 0 W/m² -5,3 °C -8,8 °C 17,7 km/h (3 Bft)
29.12.2017 01:13 -4,1 °C -4,1 °C 91 % 1011,0 hPa 0,0 mm 12,9 km/h (3 Bft) W 267 ° 0 min 0,000 mm 0,0 UV-I 0 W/m² -5,3 °C -9,0 °C 17,7 km/h (3 Bft)
29.12.2017 01:14 -4,1 °C -4,1 °C 91 % 1011,0 hPa 0,0 mm 12,2 km/h (2 Bft) SW 229 ° 0 min 0,000 mm 0,0 UV-I 0 W/m² -5,3 °C -8,8 °C 17,7 km/h (3 Bft)
29.12.2017 01:15 -4,1 °C -4,0 °C 91 % 1011,0 hPa 0,0 mm 14,8 km/h (3 Bft) W 259 ° 0 min 0,000 mm 0,0 UV-I 0 W/m² -5,3 °C -9,4 °C 17,7 km/h (3 Bft)
29.12.2017 01:16 -4,1 °C -4,1 °C 91 % 1011,1 hPa 0,0 mm 14,5 km/h (3 Bft) SW 234 ° 0 min 0,000 mm 0,0 UV-I 0 W/m² -5,3 °C -9,4 °C 19,3 km/h (3 Bft)
29.12.2017 01:17 -4,1 °C -4,1 °C 91 % 1011,1 hPa 0,0 mm 9,4 km/h (2 Bft) W 271 ° 0 min 0,000 mm 0,0 UV-I 0 W/m² -5,3 °C -8,0 °C 14,5 km/h (3 Bft)
29.12.2017 01:18 -4,1 °C -4,1 °C 91 % 1011,1 hPa 0,0 mm 18,3 km/h (3 Bft) SW 235 ° 0 min 0,000 mm 0,0 UV-I 0 W/m² -5,3 °C -10,1 °C 27,4 km/h (4 Bft)
29.12.2017 01:19 -4,1 °C -4,0 °C 90 % 1011,1 hPa 0,0 mm 16,9 km/h (3 Bft) W 265 ° 0 min 0,000 mm 0,0 UV-I 0 W/m² -5,5 °C -9,9 °C 24,1 km/h (4 Bft)
29.12.2017 01:20 -4,1 °C -4,0 °C 90 % 1011,1 hPa 0,0 mm 14,6 km/h (3 Bft) W 262 ° 0 min 0,000 mm 0,0 UV-I 0 W/m² -5,5 °C -9,4 °C 17,7 km/h (3 Bft)
29.12.2017 01:21 -4,0 °C -4,0 °C 90 % 1011,1 hPa 0,0 mm 10,8 km/h (2 Bft) W-NW 289 ° 0 min 0,000 mm 0,0 UV-I 0 W/m² -5,4 °C -8,3 °C 16,1 km/h (3 Bft)
29.12.2017 01:22 -4,0 °C -4,0 °C 90 % 1011,1 hPa 0,0 mm 11,5 km/h (2 Bft) W 269 ° 0 min 0,000 mm 0,0 UV-I 0 W/m² -5,4 °C -8,5 °C 14,5 km/h (3 Bft)
29.12.2017 01:23 -4,0 °C -4,0 °C 90 % 1011,1 hPa 0,0 mm 15,9 km/h (3 Bft) W 263 ° 0 min 0,000 mm 0,0 UV-I 0 W/m² -5,4 °C -9,5 °C 20,9 km/h (4 Bft)
29.12.2017 01:24 -3,9 °C -3,9 °C 90 % 1011,1 hPa 0,0 mm 15,9 km/h (3 Bft) W 263 ° 0 min 0,000 mm 0,0 UV-I 0 W/m² -5,3 °C -9,4 °C 19,3 km/h (3 Bft)
29.12.2017 01:25 -3,9 °C -3,9 °C 90 % 1011,2 hPa 0,0 mm 15,8 km/h (3 Bft) W-SW 255 ° 0 min 0,000 mm 0,0 UV-I 0 W/m² -5,3 °C -9,4 °C 24,1 km/h (4 Bft)
29.12.2017 01:26 -3,9 °C -3,9 °C 90 % 1011,1 hPa 0,0 mm 12,0 km/h (2 Bft) W 278 ° 0 min 0,000 mm 0,0 UV-I 0 W/m² -5,3 °C -8,5 °C 17,7 km/h (3 Bft)
29.12.2017 01:27 -3,9 °C -3,9 °C 90 % 1011,1 hPa 0,0 mm 10,1 km/h (2 Bft) W 274 ° 0 min 0,000 mm 0,0 UV-I 0 W/m² -5,3 °C -8,0 °C 14,5 km/h (3 Bft)
29.12.2017 01:28 -3,9 °C -3,9 °C 90 % 1011,1 hPa 0,0 mm 21,2 km/h (4 Bft) W 280 ° 0 min 0,000 mm 0,0 UV-I 0 W/m² -5,3 °C -10,4 °C 30,6 km/h (5 Bft)
29.12.2017 01:29 -3,9 °C -3,9 °C 90 % 1011,2 hPa 0,0 mm 13,0 km/h (3 Bft) W-SW 257 ° 0 min 0,000 mm 0,0 UV-I 0 W/m² -5,3 °C -8,8 °C 19,3 km/h (3 Bft)
29.12.2017 01:30 -3,9 °C -3,9 °C 90 % 1011,2 hPa 0,0 mm 13,7 km/h (3 Bft) W 271 ° 0 min 0,000 mm 0,0 UV-I 0 W/m² -5,3 °C -8,9 °C 19,3 km/h (3 Bft)
29.12.2017 01:31 -3,9 °C -3,9 °C 89 % 1011,2 hPa 0,0 mm 11,1 km/h (2 Bft) W-SW 253 ° 0 min 0,000 mm 0,0 UV-I 0 W/m² -5,4 °C -8,3 °C 12,9 km/h (3 Bft)
29.12.2017 01:32 -3,9 °C -3,9 °C 89 % 1011,2 hPa 0,0 mm 11,1 km/h (2 Bft) W 263 ° 0 min 0,000 mm 0,0 UV-I 0 W/m² -5,4 °C -8,3 °C 12,9 km/h (3 Bft)
29.12.2017 01:33 -3,9 °C -3,9 °C 89 % 1011,2 hPa 0,0 mm 15,6 km/h (3 Bft) W-SW 252 ° 0 min 0,000 mm 0,0 UV-I 0 W/m² -5,4 °C -9,4 °C 22,5 km/h (4 Bft)
29.12.2017 01:34 -3,9 °C -3,9 °C 89 % 1011,2 hPa 0,0 mm 16,4 km/h (3 Bft) W-SW 253 ° 0 min 0,000 mm 0,0 UV-I 0 W/m² -5,4 °C -9,5 °C 22,5 km/h (4 Bft)
29.12.2017 01:35 -3,9 °C -3,9 °C 89 % 1011,2 hPa 0,0 mm 15,2 km/h (3 Bft) W 264 ° 0 min 0,000 mm 0,0 UV-I 0 W/m² -5,4 °C -9,3 °C 17,7 km/h (3 Bft)
29.12.2017 01:36 -3,9 °C -3,9 °C 89 % 1011,2 hPa 0,0 mm 10,8 km/h (2 Bft) W 262 ° 0 min 0,000 mm 0,0 UV-I 0 W/m² -5,4 °C -8,2 °C 20,9 km/h (4 Bft)
29.12.2017 01:37 -3,9 °C -3,9 °C 89 % 1011,2 hPa 0,0 mm 9,7 km/h (2 Bft) W-SW 248 ° 0 min 0,000 mm 0,0 UV-I 0 W/m² -5,4 °C -7,9 °C 17,7 km/h (3 Bft)
29.12.2017 01:38 -3,9 °C -3,9 °C 89 % 1011,2 hPa 0,0 mm 9,7 km/h (2 Bft) W 267 ° 0 min 0,000 mm 0,0 UV-I 0 W/m² -5,4 °C -7,9 °C 16,1 km/h (3 Bft)
29.12.2017 01:39 -4,0 °C -3,9 °C 89 % 1011,2 hPa 0,0 mm 12,6 km/h (3 Bft) W-SW 248 ° 0 min 0,000 mm 0,0 UV-I 0 W/m² -5,5 °C -8,8 °C 17,7 km/h (3 Bft)
29.12.2017 01:40 -3,9 °C -3,9 °C 89 % 1011,2 hPa 0,0 mm 9,9 km/h (2 Bft) SW 228 ° 0 min 0,000 mm 0,0 UV-I 0 W/m² -5,4 °C -7,9 °C 14,5 km/h (3 Bft)
29.12.2017 01:41 -4,0 °C -3,9 °C 89 % 1011,2 hPa 0,0 mm 13,5 km/h (3 Bft) W-SW 252 ° 0 min 0,000 mm 0,0 UV-I 0 W/m² -5,5 °C -9,0 °C 19,3 km/h (3 Bft)
29.12.2017 01:42 -4,0 °C -3,9 °C 89 % 1011,3 hPa 0,0 mm 15,2 km/h (3 Bft) W 281 ° 0 min 0,000 mm 0,0 UV-I 0 W/m² -5,5 °C -9,4 °C 19,3 km/h (3 Bft)
29.12.2017 01:43 -4,0 °C -3,9 °C 89 % 1011,3 hPa 0,0 mm 14,9 km/h (3 Bft) W 269 ° 0 min 0,000 mm 0,0 UV-I 0 W/m² -5,5 °C -9,3 °C 20,9 km/h (4 Bft)
29.12.2017 01:44 -4,0 °C -4,0 °C 89 % 1011,3 hPa 0,0 mm 14,5 km/h (3 Bft) W 259 ° 0 min 0,000 mm 0,0 UV-I 0 W/m² -5,5 °C -9,2 °C 19,3 km/h (3 Bft)
29.12.2017 01:45 -4,0 °C -4,0 °C 89 % 1011,3 hPa 0,0 mm 11,8 km/h (2 Bft) W 267 ° 0 min 0,000 mm 0,0 UV-I 0 W/m² -5,5 °C -8,6 °C 14,5 km/h (3 Bft)
29.12.2017 01:46 -4,0 °C -4,0 °C 89 % 1011,3 hPa 0,0 mm 10,7 km/h (2 Bft) W-SW 252 ° 0 min 0,000 mm 0,0 UV-I 0 W/m² -5,5 °C -8,3 °C 16,1 km/h (3 Bft)
29.12.2017 01:47 -4,1 °C -4,0 °C 89 % 1011,3 hPa 0,0 mm 10,1 km/h (2 Bft) W-NW 285 ° 0 min 0,000 mm 0,0 UV-I 0 W/m² -5,6 °C -8,2 °C 14,5 km/h (3 Bft)
29.12.2017 01:48 -4,1 °C -4,1 °C 89 % 1011,3 hPa 0,0 mm 8,9 km/h (2 Bft) W-SW 253 ° 0 min 0,000 mm 0,0 UV-I 0 W/m² -5,6 °C -7,9 °C 17,7 km/h (3 Bft)
29.12.2017 01:49 -4,1 °C -4,1 °C 89 % 1011,4 hPa 0,0 mm 12,5 km/h (3 Bft) W 260 ° 0 min 0,000 mm 0,0 UV-I 0 W/m² -5,6 °C -8,9 °C 17,7 km/h (3 Bft)
29.12.2017 01:50 -4,1 °C -4,1 °C 89 % 1011,4 hPa 0,0 mm 13,1 km/h (3 Bft) W-SW 241 ° 0 min 0,000 mm 0,0 UV-I 0 W/m² -5,6 °C -9,0 °C 19,3 km/h (3 Bft)
29.12.2017 01:51 -4,1 °C -4,1 °C 89 % 1011,4 hPa 0,0 mm 14,4 km/h (3 Bft) W-SW 257 ° 0 min 0,000 mm 0,0 UV-I 0 W/m² -5,6 °C -9,3 °C 17,7 km/h (3 Bft)
29.12.2017 01:52 -4,1 °C -4,1 °C 88 % 1011,4 hPa 0,0 mm 12,8 km/h (3 Bft) W-SW 244 ° 0 min 0,000 mm 0,0 UV-I 0 W/m² -5,8 °C -9,0 °C 17,7 km/h (3 Bft)
29.12.2017 01:53 -4,1 °C -4,1 °C 88 % 1011,4 hPa 0,0 mm 12,7 km/h (3 Bft) W-SW 248 ° 0 min 0,000 mm 0,0 UV-I 0 W/m² -5,8 °C -8,9 °C 24,1 km/h (4 Bft)
29.12.2017 01:54 -4,1 °C -4,1 °C 88 % 1011,5 hPa 0,0 mm 9,7 km/h (2 Bft) W-SW 244 ° 0 min 0,000 mm 0,0 UV-I 0 W/m² -5,8 °C -8,1 °C 19,3 km/h (3 Bft)
29.12.2017 01:55 -4,1 °C -4,1 °C 88 % 1011,5 hPa 0,0 mm 14,5 km/h (3 Bft) W-SW 240 ° 0 min 0,000 mm 0,0 UV-I 0 W/m² -5,8 °C -9,4 °C 19,3 km/h (3 Bft)
29.12.2017 01:56 -4,2 °C -4,1 °C 88 % 1011,5 hPa 0,0 mm 10,5 km/h (2 Bft) W 263 ° 0 min 0,000 mm 0,0 UV-I 0 W/m² -5,9 °C -8,5 °C 14,5 km/h (3 Bft)
29.12.2017 01:57 -4,2 °C -4,2 °C 88 % 1011,4 hPa 0,0 mm 15,8 km/h (3 Bft) W-SW 248 ° 0 min 0,000 mm 0,0 UV-I 0 W/m² -5,9 °C -9,8 °C 20,9 km/h (4 Bft)
29.12.2017 01:58 -4,2 °C -4,2 °C 88 % 1011,5 hPa 0,0 mm 10,5 km/h (2 Bft) W 263 ° 0 min 0,000 mm 0,0 UV-I 0 W/m² -5,9 °C -8,5 °C 14,5 km/h (3 Bft)
29.12.2017 01:59 -4,2 °C -4,2 °C 88 % 1011,5 hPa 0,0 mm 11,9 km/h (2 Bft) W-NW 289 ° 0 min 0,000 mm 0,0 UV-I 0 W/m² -5,9 °C -8,9 °C 19,3 km/h (3 Bft)
29.12.2017 02:00 -4,2 °C -4,2 °C 88 % 1011,5 hPa 0,0 mm 9,6 km/h (2 Bft) W 263 ° 0 min 0,000 mm 0,0 UV-I 0 W/m² -5,9 °C -8,2 °C 14,5 km/h (3 Bft)
29.12.2017 02:01 -4,2 °C -4,2 °C 88 % 1011,5 hPa 0,0 mm 8,6 km/h (2 Bft) W 260 ° 0 min 0,000 mm 0,0 UV-I 0 W/m² -5,9 °C -7,9 °C 12,9 km/h (3 Bft)
29.12.2017 02:02 -4,3 °C -4,2 °C 88 % 1011,5 hPa 0,0 mm 11,0 km/h (2 Bft) W-SW 254 ° 0 min 0,000 mm 0,0 UV-I 0 W/m² -6,0 °C -8,7 °C 19,3 km/h (3 Bft)
29.12.2017 02:03 -4,3 °C -4,2 °C 88 % 1011,5 hPa 0,0 mm 16,4 km/h (3 Bft) W 268 ° 0 min 0,000 mm 0,0 UV-I 0 W/m² -6,0 °C -10,0 °C 20,9 km/h (4 Bft)
29.12.2017 02:04 -4,3 °C -4,3 °C 88 % 1011,5 hPa 0,0 mm 9,3 km/h (2 Bft) W 275 ° 0 min 0,000 mm 0,0 UV-I 0 W/m² -6,0 °C -8,2 °C 14,5 km/h (3 Bft)
29.12.2017 02:05 -4,3 °C -4,3 °C 88 % 1011,6 hPa 0,0 mm 13,5 km/h (3 Bft) W 279 ° 0 min 0,000 mm 0,0 UV-I 0 W/m² -6,0 °C -9,4 °C 17,7 km/h (3 Bft)
29.12.2017 02:06 -4,3 °C -4,3 °C 88 % 1011,5 hPa 0,0 mm 13,4 km/h (3 Bft) W 267 ° 0 min 0,000 mm 0,0 UV-I 0 W/m² -6,0 °C -9,4 °C 17,7 km/h (3 Bft)
29.12.2017 02:07 -4,3 °C -4,3 °C 88 % 1011,6 hPa 0,0 mm 13,1 km/h (3 Bft) W-SW 254 ° 0 min 0,000 mm 0,0 UV-I 0 W/m² -6,0 °C -9,3 °C 17,7 km/h (3 Bft)
29.12.2017 02:08 -4,3 °C -4,3 °C 88 % 1011,6 hPa 0,0 mm 9,4 km/h (2 Bft) W-SW 244 ° 0 min 0,000 mm 0,0 UV-I 0 W/m² -6,0 °C -8,3 °C 12,9 km/h (3 Bft)
29.12.2017 02:09 -4,3 °C -4,3 °C 88 % 1011,6 hPa 0,0 mm 8,6 km/h (2 Bft) W-SW 255 ° 0 min 0,000 mm 0,0 UV-I 0 W/m² -6,0 °C -8,0 °C 14,5 km/h (3 Bft)
29.12.2017 02:10 -4,4 °C -4,3 °C 88 % 1011,6 hPa 0,0 mm 7,4 km/h (2 Bft) W 280 ° 0 min 0,000 mm 0,0 UV-I 0 W/m² -6,1 °C -7,7 °C 12,9 km/h (3 Bft)
29.12.2017 02:11 -4,4 °C -4,4 °C 88 % 1011,7 hPa 0,0 mm 15,2 km/h (3 Bft) W 260 ° 0 min 0,000 mm 0,0 UV-I 0 W/m² -6,1 °C -9,9 °C 19,3 km/h (3 Bft)
29.12.2017 02:12 -4,4 °C -4,4 °C 88 % 1011,6 hPa 0,0 mm 11,2 km/h (2 Bft) SW 229 ° 0 min 0,000 mm 0,0 UV-I 0 W/m² -6,1 °C -8,9 °C 19,3 km/h (3 Bft)
29.12.2017 02:13 -4,4 °C -4,4 °C 88 % 1011,7 hPa 0,0 mm 8,0 km/h (2 Bft) W-SW 249 ° 0 min 0,000 mm 0,0 UV-I 0 W/m² -6,1 °C -7,9 °C 11,3 km/h (2 Bft)
29.12.2017 02:14 -4,4 °C -4,4 °C 88 % 1011,7 hPa 0,0 mm 10,1 km/h (2 Bft) W-SW 248 ° 0 min 0,000 mm 0,0 UV-I 0 W/m² -6,1 °C -8,6 °C 16,1 km/h (3 Bft)
29.12.2017 02:15 -4,4 °C -4,4 °C 88 % 1011,7 hPa 0,0 mm 13,5 km/h (3 Bft) W 265 ° 0 min 0,000 mm 0,0 UV-I 0 W/m² -6,1 °C -9,5 °C 19,3 km/h (3 Bft)
29.12.2017 02:16 -4,4 °C -4,4 °C 88 % 1011,8 hPa 0,0 mm 10,7 km/h (2 Bft) W-SW 253 ° 0 min 0,000 mm 0,0 UV-I 0 W/m² -6,1 °C -8,8 °C 14,5 km/h (3 Bft)
29.12.2017 02:17 -4,5 °C -4,4 °C 88 % 1011,8 hPa 0,0 mm 9,3 km/h (2 Bft) W 261 ° 0 min 0,000 mm 0,0 UV-I 0 W/m² -6,2 °C -8,5 °C 14,5 km/h (3 Bft)
29.12.2017 02:18 -4,5 °C -4,5 °C 88 % 1011,7 hPa 0,0 mm 12,2 km/h (2 Bft) W-SW 252 ° 0 min 0,000 mm 0,0 UV-I 0 W/m² -6,2 °C -9,3 °C 16,1 km/h (3 Bft)
29.12.2017 02:19 -4,5 °C -4,5 °C 88 % 1011,9 hPa 0,0 mm 10,7 km/h (2 Bft) W-SW 255 ° 0 min 0,000 mm 0,0 UV-I 0 W/m² -6,2 °C -8,9 °C 12,9 km/h (3 Bft)
29.12.2017 02:20 -4,6 °C -4,5 °C 88 % 1011,9 hPa 0,0 mm 9,7 km/h (2 Bft) W-NW 284 ° 0 min 0,000 mm 0,0 UV-I 0 W/m² -6,3 °C -8,7 °C 16,1 km/h (3 Bft)
29.12.2017 02:21 -4,5 °C -4,5 °C 88 % 1011,8 hPa 0,0 mm 12,6 km/h (3 Bft) W 269 ° 0 min 0,000 mm 0,0 UV-I 0 W/m² -6,2 °C -9,4 °C 16,1 km/h (3 Bft)
29.12.2017 02:22 -4,6 °C -4,5 °C 88 % 1011,9 hPa 0,0 mm 9,3 km/h (2 Bft) W-SW 247 ° 0 min 0,000 mm 0,0 UV-I 0 W/m² -6,3 °C -8,6 °C 12,9 km/h (3 Bft)
29.12.2017 02:23 -4,6 °C -4,6 °C 88 % 1011,9 hPa 0,0 mm 8,0 km/h (2 Bft) W-SW 258 ° 0 min 0,000 mm 0,0 UV-I 0 W/m² -6,3 °C -8,1 °C 14,5 km/h (3 Bft)
29.12.2017 02:24 -4,6 °C -4,6 °C 88 % 1011,9 hPa 0,0 mm 9,5 km/h (2 Bft) W-SW 247 ° 0 min 0,000 mm 0,0 UV-I 0 W/m² -6,3 °C -8,7 °C 14,5 km/h (3 Bft)
29.12.2017 02:25 -4,6 °C -4,6 °C 88 % 1011,9 hPa 0,0 mm 9,4 km/h (2 Bft) W 261 ° 0 min 0,000 mm 0,0 UV-I 0 W/m² -6,3 °C -8,6 °C 16,1 km/h (3 Bft)
29.12.2017 02:26 -4,6 °C -4,6 °C 88 % 1011,9 hPa 0,0 mm 6,6 km/h (2 Bft) W-SW 250 ° 0 min 0,000 mm 0,0 UV-I 0 W/m² -6,3 °C -7,6 °C 14,5 km/h (3 Bft)
29.12.2017 02:27 -4,6 °C -4,6 °C 88 % 1011,9 hPa 0,0 mm 7,4 km/h (2 Bft) W-NW 288 ° 0 min 0,000 mm 0,0 UV-I 0 W/m² -6,3 °C -7,9 °C 11,3 km/h (2 Bft)
29.12.2017 02:28 -4,7 °C -4,6 °C 88 % 1011,9 hPa 0,0 mm 11,4 km/h (2 Bft) W-SW 243 ° 0 min 0,000 mm 0,0 UV-I 0 W/m² -6,4 °C -9,3 °C 16,1 km/h (3 Bft)
29.12.2017 02:29 -4,7 °C -4,6 °C 88 % 1011,9 hPa 0,0 mm 6,6 km/h (2 Bft) W-SW 252 ° 0 min 0,000 mm 0,0 UV-I 0 W/m² -6,4 °C -7,7 °C 9,7 km/h (2 Bft)
29.12.2017 02:30 -4,7 °C -4,6 °C 88 % 1011,9 hPa 0,0 mm 6,9 km/h (2 Bft) W 273 ° 0 min 0,000 mm 0,0 UV-I 0 W/m² -6,4 °C -7,8 °C 12,9 km/h (3 Bft)
29.12.2017 02:31 -4,7 °C -4,6 °C 89 % 1012,0 hPa 0,0 mm 8,2 km/h (2 Bft) W-SW 238 ° 0 min 0,000 mm 0,0 UV-I 0 W/m² -6,2 °C -8,3 °C 16,1 km/h (3 Bft)
29.12.2017 02:32 -4,7 °C -4,7 °C 89 % 1012,0 hPa 0,0 mm 8,2 km/h (2 Bft) W 265 ° 0 min 0,000 mm 0,0 UV-I 0 W/m² -6,2 °C -8,3 °C 12,9 km/h (3 Bft)
29.12.2017 02:33 -4,7 °C -4,7 °C 89 % 1012,0 hPa 0,0 mm 8,6 km/h (2 Bft) W-SW 247 ° 0 min 0,000 mm 0,0 UV-I 0 W/m² -6,2 °C -8,5 °C 12,9 km/h (3 Bft)
29.12.2017 02:34 -4,7 °C -4,7 °C 89 % 1012,0 hPa 0,0 mm 6,1 km/h (2 Bft) W-SW 244 ° 0 min 0,000 mm 0,0 UV-I 0 W/m² -6,2 °C -7,5 °C 12,9 km/h (3 Bft)
29.12.2017 02:35 -4,7 °C -4,7 °C 89 % 1012,0 hPa 0,0 mm 6,4 km/h (2 Bft) W-SW 257 ° 0 min 0,000 mm 0,0 UV-I 0 W/m² -6,2 °C -7,6 °C 9,7 km/h (2 Bft)
29.12.2017 02:36 -4,7 °C -4,7 °C 89 % 1012,1 hPa 0,0 mm 4,8 km/h (1 Bft) S-SW 193 ° 0 min 0,000 mm 0,0 UV-I 0 W/m² -6,2 °C -6,8 °C 8,0 km/h (2 Bft)
29.12.2017 02:37 -4,7 °C -4,7 °C 89 % 1012,1 hPa 0,0 mm 5,2 km/h (1 Bft) W 263 ° 0 min 0,000 mm 0,0 UV-I 0 W/m² -6,2 °C -7,0 °C 9,7 km/h (2 Bft)
29.12.2017 02:38 -4,7 °C -4,7 °C 89 % 1012,1 hPa 0,0 mm 9,7 km/h (2 Bft) W 259 ° 0 min 0,000 mm 0,0 UV-I 0 W/m² -6,2 °C -8,8 °C 16,1 km/h (3 Bft)
29.12.2017 02:39 -4,7 °C -4,7 °C 89 % 1012,1 hPa 0,0 mm 7,2 km/h (2 Bft) W 278 ° 0 min 0,000 mm 0,0 UV-I 0 W/m² -6,2 °C -7,9 °C 12,9 km/h (3 Bft)
29.12.2017 02:40 -4,8 °C -4,7 °C 89 % 1012,1 hPa 0,0 mm 9,9 km/h (2 Bft) W-SW 254 ° 0 min 0,000 mm 0,0 UV-I 0 W/m² -6,3 °C -9,0 °C 16,1 km/h (3 Bft)
29.12.2017 02:41 -4,8 °C -4,7 °C 89 % 1012,1 hPa 0,0 mm 8,2 km/h (2 Bft) W-SW 250 ° 0 min 0,000 mm 0,0 UV-I 0 W/m² -6,3 °C -8,4 °C 14,5 km/h (3 Bft)
29.12.2017 02:42 -4,8 °C -4,7 °C 89 % 1012,0 hPa 0,0 mm 10,2 km/h (2 Bft) W-NW 284 ° 0 min 0,000 mm 0,0 UV-I 0 W/m² -6,3 °C -9,1 °C 17,7 km/h (3 Bft)
29.12.2017 02:43 -4,8 °C -4,7 °C 89 % 1012,0 hPa 0,0 mm 11,8 km/h (2 Bft) W 272 ° 0 min 0,000 mm 0,0 UV-I 0 W/m² -6,3 °C -9,6 °C 16,1 km/h (3 Bft)
29.12.2017 02:44 -4,8 °C -4,8 °C 89 % 1012,0 hPa 0,0 mm 6,8 km/h (2 Bft) W-SW 243 ° 0 min 0,000 mm 0,0 UV-I 0 W/m² -6,3 °C -7,9 °C 12,9 km/h (3 Bft)
29.12.2017 02:45 -4,8 °C -4,8 °C 89 % 1012,0 hPa 0,0 mm 5,4 km/h (1 Bft) SW 235 ° 0 min 0,000 mm 0,0 UV-I 0 W/m² -6,3 °C -7,2 °C 9,7 km/h (2 Bft)
29.12.2017 02:46 -4,8 °C -4,8 °C 89 % 1012,0 hPa 0,0 mm 5,9 km/h (2 Bft) W-SW 254 ° 0 min 0,000 mm 0,0 UV-I 0 W/m² -6,3 °C -7,5 °C 12,9 km/h (3 Bft)
29.12.2017 02:47 -4,8 °C -4,8 °C 88 % 1012,1 hPa 0,0 mm 8,0 km/h (2 Bft) W 264 ° 0 min 0,000 mm 0,0 UV-I 0 W/m² -6,5 °C -8,4 °C 12,9 km/h (3 Bft)
29.12.2017 02:48 -4,8 °C -4,8 °C 88 % 1012,1 hPa 0,0 mm 4,4 km/h (1 Bft) W-SW 250 ° 0 min 0,000 mm 0,0 UV-I 0 W/m² -6,5 °C -4,8 °C 6,4 km/h (2 Bft)
29.12.2017 02:49 -4,8 °C -4,8 °C 88 % 1012,1 hPa 0,0 mm 5,6 km/h (1 Bft) W-SW 244 ° 0 min 0,000 mm 0,0 UV-I 0 W/m² -6,5 °C -7,3 °C 9,7 km/h (2 Bft)
29.12.2017 02:50 -4,8 °C -4,8 °C 88 % 1012,1 hPa 0,0 mm 5,6 km/h (1 Bft) W-SW 252 ° 0 min 0,000 mm 0,0 UV-I 0 W/m² -6,5 °C -7,3 °C 8,0 km/h (2 Bft)
29.12.2017 02:51 -4,8 °C -4,8 °C 88 % 1012,2 hPa 0,0 mm 7,2 km/h (2 Bft) W-SW 253 ° 0 min 0,000 mm 0,0 UV-I 0 W/m² -6,5 °C -8,1 °C 11,3 km/h (2 Bft)
29.12.2017 02:52 -4,8 °C -4,8 °C 88 % 1012,2 hPa 0,0 mm 6,4 km/h (2 Bft) W 276 ° 0 min 0,000 mm 0,0 UV-I 0 W/m² -6,5 °C -7,7 °C 11,3 km/h (2 Bft)
29.12.2017 02:53 -4,9 °C -4,8 °C 88 % 1012,2 hPa 0,0 mm 9,1 km/h (2 Bft) S-SW 209 ° 0 min 0,000 mm 0,0 UV-I 0 W/m² -6,6 °C -8,9 °C 17,7 km/h (3 Bft)
29.12.2017 02:54 -4,9 °C -4,9 °C 88 % 1012,2 hPa 0,0 mm 6,0 km/h (2 Bft) W-SW 252 ° 0 min 0,000 mm 0,0 UV-I 0 W/m² -6,6 °C -7,7 °C 9,7 km/h (2 Bft)
29.12.2017 02:55 -4,9 °C -4,9 °C 88 % 1012,2 hPa 0,0 mm 8,4 km/h (2 Bft) W-SW 250 ° 0 min 0,000 mm 0,0 UV-I 0 W/m² -6,6 °C -8,6 °C 11,3 km/h (2 Bft)
29.12.2017 02:56 -4,9 °C -4,9 °C 88 % 1012,2 hPa 0,0 mm 4,3 km/h (1 Bft) W 261 ° 0 min 0,000 mm 0,0 UV-I 0 W/m² -6,6 °C -4,9 °C 6,4 km/h (2 Bft)
29.12.2017 02:57 -4,9 °C -4,9 °C 88 % 1012,3 hPa 0,0 mm 7,8 km/h (2 Bft) W 260 ° 0 min 0,000 mm 0,0 UV-I 0 W/m² -6,6 °C -8,4 °C 12,9 km/h (3 Bft)
29.12.2017 02:58 -4,9 °C -4,9 °C 88 % 1012,3 hPa 0,0 mm 9,6 km/h (2 Bft) W-SW 238 ° 0 min 0,000 mm 0,0 UV-I 0 W/m² -6,6 °C -9,0 °C 14,5 km/h (3 Bft)
29.12.2017 02:59 -4,9 °C -4,9 °C 88 % 1012,3 hPa 0,0 mm 5,9 km/h (2 Bft) W 272 ° 0 min 0,000 mm 0,0 UV-I 0 W/m² -6,6 °C -7,6 °C 9,7 km/h (2 Bft)
29.12.2017 03:00 -4,9 °C -4,9 °C 88 % 1012,3 hPa 0,0 mm 3,5 km/h (1 Bft) W-SW 252 ° 0 min 0,000 mm 0,0 UV-I 0 W/m² -6,6 °C -4,9 °C 6,4 km/h (2 Bft)
29.12.2017 03:01 -4,9 °C -4,9 °C 88 % 1012,3 hPa 0,0 mm 3,6 km/h (1 Bft) W 269 ° 0 min 0,000 mm 0,0 UV-I 0 W/m² -6,6 °C -4,9 °C 6,4 km/h (2 Bft)
29.12.2017 03:02 -4,9 °C -4,9 °C 88 % 1012,3 hPa 0,0 mm 4,8 km/h (1 Bft) W 273 ° 0 min 0,000 mm 0,0 UV-I 0 W/m² -6,6 °C -7,0 °C 9,7 km/h (2 Bft)
29.12.2017 03:03 -4,9 °C -4,9 °C 88 % 1012,3 hPa 0,0 mm 4,5 km/h (1 Bft) W 265 ° 0 min 0,000 mm 0,0 UV-I 0 W/m² -6,6 °C -4,9 °C 9,7 km/h (2 Bft)
29.12.2017 03:04 -5,0 °C -4,9 °C 88 % 1012,3 hPa 0,0 mm 3,8 km/h (1 Bft) W 261 ° 0 min 0,000 mm 0,0 UV-I 0 W/m² -6,7 °C -5,0 °C 9,7 km/h (2 Bft)
29.12.2017 03:05 -5,0 °C -5,0 °C 88 % 1012,3 hPa 0,0 mm 7,5 km/h (2 Bft) W 271 ° 0 min 0,000 mm 0,0 UV-I 0 W/m² -6,7 °C -8,4 °C 11,3 km/h (2 Bft)
29.12.2017 03:06 -5,1 °C -5,0 °C 88 % 1012,3 hPa 0,0 mm 6,2 km/h (2 Bft) W-SW 256 ° 0 min 0,000 mm 0,0 UV-I 0 W/m² -6,8 °C -8,0 °C 11,3 km/h (2 Bft)
29.12.2017 03:07 -5,1 °C -5,0 °C 88 % 1012,4 hPa 0,0 mm 3,7 km/h (1 Bft) W-SW 252 ° 0 min 0,000 mm 0,0 UV-I 0 W/m² -6,8 °C -5,1 °C 9,7 km/h (2 Bft)
29.12.2017 03:08 -5,1 °C -5,1 °C 88 % 1012,4 hPa 0,0 mm 4,5 km/h (1 Bft) W 276 ° 0 min 0,000 mm 0,0 UV-I 0 W/m² -6,8 °C -5,1 °C 6,4 km/h (2 Bft)
29.12.2017 03:09 -5,1 °C -5,1 °C 88 % 1012,4 hPa 0,0 mm 2,7 km/h (1 Bft) W 275 ° 0 min 0,000 mm 0,0 UV-I 0 W/m² -6,8 °C -5,1 °C 4,8 km/h (1 Bft)
29.12.2017 03:10 -5,1 °C -5,1 °C 88 % 1012,4 hPa 0,0 mm 1,1 km/h (1 Bft) W 275 ° 0 min 0,000 mm 0,0 UV-I 0 W/m² -6,8 °C -5,1 °C 3,2 km/h (1 Bft)
29.12.2017 03:11 -5,1 °C -5,1 °C 88 % 1012,5 hPa 0,0 mm 1,6 km/h (1 Bft) W-SW 251 ° 0 min 0,000 mm 0,0 UV-I 0 W/m² -6,8 °C -5,1 °C 3,2 km/h (1 Bft)
29.12.2017 03:12 -5,1 °C -5,1 °C 88 % 1012,5 hPa 0,0 mm 1,6 km/h (1 Bft) W-SW 251 ° 0 min 0,000 mm 0,0 UV-I 0 W/m² -6,8 °C -5,1 °C 3,2 km/h (1 Bft)
29.12.2017 03:13 -5,1 °C -5,1 °C 88 % 1012,5 hPa 0,0 mm 4,0 km/h (1 Bft) S-SW 210 ° 0 min 0,000 mm 0,0 UV-I 0 W/m² -6,8 °C -5,1 °C 6,4 km/h (2 Bft)
29.12.2017 03:14 -5,1 °C -5,1 °C 88 % 1012,4 hPa 0,0 mm 6,1 km/h (2 Bft) SW 229 ° 0 min 0,000 mm 0,0 UV-I 0 W/m² -6,8 °C -7,9 °C 11,3 km/h (2 Bft)
29.12.2017 03:15 -5,2 °C -5,1 °C 88 % 1012,4 hPa 0,0 mm 5,4 km/h (1 Bft) W-SW 257 ° 0 min 0,000 mm 0,0 UV-I 0 W/m² -6,9 °C -7,7 °C 8,0 km/h (2 Bft)
29.12.2017 03:16 -5,2 °C -5,2 °C 88 % 1012,5 hPa 0,0 mm 5,4 km/h (1 Bft) W-SW 250 ° 0 min 0,000 mm 0,0 UV-I 0 W/m² -6,9 °C -7,7 °C 9,7 km/h (2 Bft)
29.12.2017 03:17 -5,2 °C -5,2 °C 89 % 1012,5 hPa 0,0 mm 0,6 km/h (0 Bft) W-SW 250 ° 0 min 0,000 mm 0,0 UV-I 0 W/m² -6,7 °C -5,2 °C 1,6 km/h (1 Bft)
29.12.2017 03:18 -5,2 °C -5,2 °C 89 % 1012,6 hPa 0,0 mm 2,6 km/h (1 Bft) W 270 ° 0 min 0,000 mm 0,0 UV-I 0 W/m² -6,7 °C -5,2 °C 4,8 km/h (1 Bft)
29.12.2017 03:19 -5,2 °C -5,2 °C 88 % 1012,5 hPa 0,0 mm 2,5 km/h (1 Bft) W 261 ° 0 min 0,000 mm 0,0 UV-I 0 W/m² -6,9 °C -5,2 °C 4,8 km/h (1 Bft)
29.12.2017 03:20 -5,2 °C -5,2 °C 89 % 1012,5 hPa 0,0 mm 1,8 km/h (1 Bft) W-SW 254 ° 0 min 0,000 mm 0,0 UV-I 0 W/m² -6,7 °C -5,2 °C 4,8 km/h (1 Bft)
29.12.2017 03:21 -5,2 °C -5,2 °C 88 % 1012,5 hPa 0,0 mm 3,5 km/h (1 Bft) W-SW 238 ° 0 min 0,000 mm 0,0 UV-I 0 W/m² -6,9 °C -5,2 °C 4,8 km/h (1 Bft)
29.12.2017 03:22 -5,2 °C -5,2 °C 88 % 1012,6 hPa 0,0 mm 4,7 km/h (1 Bft) W 263 ° 0 min 0,000 mm 0,0 UV-I 0 W/m² -6,9 °C -7,3 °C 9,7 km/h (2 Bft)
29.12.2017 03:23 -5,2 °C -5,2 °C 89 % 1012,6 hPa 0,0 mm 6,6 km/h (2 Bft) W 275 ° 0 min 0,000 mm 0,0 UV-I 0 W/m² -6,7 °C -8,3 °C 9,7 km/h (2 Bft)
29.12.2017 03:24 -5,2 °C -5,2 °C 89 % 1012,6 hPa 0,0 mm 4,0 km/h (1 Bft) W-NW 286 ° 0 min 0,000 mm 0,0 UV-I 0 W/m² -6,7 °C -5,2 °C 6,4 km/h (2 Bft)
29.12.2017 03:25 -5,2 °C -5,2 °C 89 % 1012,7 hPa 0,0 mm 3,6 km/h (1 Bft) W-SW 246 ° 0 min 0,000 mm 0,0 UV-I 0 W/m² -6,7 °C -5,2 °C 6,4 km/h (2 Bft)
29.12.2017 03:26 -5,2 °C -5,2 °C 89 % 1012,7 hPa 0,0 mm 1,4 km/h (1 Bft) W-SW 246 ° 0 min 0,000 mm 0,0 UV-I 0 W/m² -6,7 °C -5,2 °C 3,2 km/h (1 Bft)
29.12.2017 03:27 -5,2 °C -5,2 °C 89 % 1012,7 hPa 0,0 mm 0,9 km/h (0 Bft) W-SW 246 ° 0 min 0,000 mm 0,0 UV-I 0 W/m² -6,7 °C -5,2 °C 1,6 km/h (1 Bft)
29.12.2017 03:28 -5,2 °C -5,2 °C 89 % 1012,7 hPa 0,0 mm 0,9 km/h (0 Bft) W-SW 246 ° 0 min 0,000 mm 0,0 UV-I 0 W/m² -6,7 °C -5,2 °C 1,6 km/h (1 Bft)
29.12.2017 03:29 -5,3 °C -5,2 °C 88 % 1012,7 hPa 0,0 mm 2,2 km/h (1 Bft) W-SW 246 ° 0 min 0,000 mm 0,0 UV-I 0 W/m² -7,0 °C -5,3 °C 3,2 km/h (1 Bft)
29.12.2017 03:30 -5,3 °C -5,3 °C 88 % 1012,7 hPa 0,0 mm 1,9 km/h (1 Bft) W-SW 246 ° 0 min 0,000 mm 0,0 UV-I 0 W/m² -7,0 °C -5,3 °C 4,8 km/h (1 Bft)
29.12.2017 03:31 -5,3 °C -5,3 °C 89 % 1012,7 hPa 0,0 mm 3,0 km/h (1 Bft) W 265 ° 0 min 0,000 mm 0,0 UV-I 0 W/m² -6,8 °C -5,3 °C 6,4 km/h (2 Bft)
29.12.2017 03:32 -5,3 °C -5,3 °C 89 % 1012,7 hPa 0,0 mm 6,7 km/h (2 Bft) W 259 ° 0 min 0,000 mm 0,0 UV-I 0 W/m² -6,8 °C -8,4 °C 11,3 km/h (2 Bft)
29.12.2017 03:33 -5,3 °C -5,3 °C 89 % 1012,7 hPa 0,0 mm 1,4 km/h (1 Bft) W 259 ° 0 min 0,000 mm 0,0 UV-I 0 W/m² -6,8 °C -5,3 °C 4,8 km/h (1 Bft)
29.12.2017 03:34 -5,3 °C -5,3 °C 89 % 1012,7 hPa 0,0 mm 6,2 km/h (2 Bft) W 275 ° 0 min 0,000 mm 0,0 UV-I 0 W/m² -6,8 °C -8,2 °C 16,1 km/h (3 Bft)
29.12.2017 03:35 -5,3 °C -5,3 °C 89 % 1012,8 hPa 0,0 mm 9,4 km/h (2 Bft) W 271 ° 0 min 0,000 mm 0,0 UV-I 0 W/m² -6,8 °C -9,5 °C 16,1 km/h (3 Bft)
29.12.2017 03:36 -5,3 °C -5,3 °C 89 % 1012,8 hPa 0,0 mm 5,6 km/h (1 Bft) W 271 ° 0 min 0,000 mm 0,0 UV-I 0 W/m² -6,8 °C -7,9 °C 6,4 km/h (2 Bft)
29.12.2017 03:37 -5,4 °C -5,3 °C 89 % 1012,8 hPa 0,0 mm 10,5 km/h (2 Bft) W-SW 250 ° 0 min 0,000 mm 0,0 UV-I 0 W/m² -6,9 °C -9,9 °C 16,1 km/h (3 Bft)
29.12.2017 03:38 -5,3 °C -5,3 °C 89 % 1012,7 hPa 0,0 mm 5,7 km/h (1 Bft) W-SW 257 ° 0 min 0,000 mm 0,0 UV-I 0 W/m² -6,8 °C -8,0 °C 9,7 km/h (2 Bft)
29.12.2017 03:39 -5,4 °C -5,3 °C 89 % 1012,7 hPa 0,0 mm 5,5 km/h (1 Bft) W 265 ° 0 min 0,000 mm 0,0 UV-I 0 W/m² -6,9 °C -8,0 °C 8,0 km/h (2 Bft)
29.12.2017 03:40 -5,4 °C -5,3 °C 89 % 1012,8 hPa 0,0 mm 6,4 km/h (2 Bft) SW 217 ° 0 min 0,000 mm 0,0 UV-I 0 W/m² -6,9 °C -8,4 °C 12,9 km/h (3 Bft)
29.12.2017 03:41 -5,3 °C -5,3 °C 89 % 1012,8 hPa 0,0 mm 6,1 km/h (2 Bft) W-NW 297 ° 0 min 0,000 mm 0,0 UV-I 0 W/m² -6,8 °C -8,2 °C 11,3 km/h (2 Bft)
29.12.2017 03:42 -5,4 °C -5,3 °C 89 % 1012,8 hPa 0,0 mm 5,2 km/h (1 Bft) W 265 ° 0 min 0,000 mm 0,0 UV-I 0 W/m² -6,9 °C -7,8 °C 8,0 km/h (2 Bft)
29.12.2017 03:43 -5,4 °C -5,3 °C 89 % 1012,8 hPa 0,0 mm 9,1 km/h (2 Bft) W 268 ° 0 min 0,000 mm 0,0 UV-I 0 W/m² -6,9 °C -9,5 °C 12,9 km/h (3 Bft)
29.12.2017 03:44 -5,4 °C -5,4 °C 89 % 1012,8 hPa 0,0 mm 6,2 km/h (2 Bft) W-SW 254 ° 0 min 0,000 mm 0,0 UV-I 0 W/m² -6,9 °C -8,3 °C 11,3 km/h (2 Bft)
29.12.2017 03:45 -5,4 °C -5,4 °C 89 % 1012,8 hPa 0,0 mm 5,4 km/h (1 Bft) W-SW 251 ° 0 min 0,000 mm 0,0 UV-I 0 W/m² -6,9 °C -7,9 °C 9,7 km/h (2 Bft)
29.12.2017 03:46 -5,4 °C -5,3 °C 89 % 1012,8 hPa 0,0 mm 7,2 km/h (2 Bft) W 259 ° 0 min 0,000 mm 0,0 UV-I 0 W/m² -6,9 °C -8,8 °C 11,3 km/h (2 Bft)
29.12.2017 03:47 -5,4 °C -5,3 °C 89 % 1012,9 hPa 0,0 mm 6,6 km/h (2 Bft) W-SW 248 ° 0 min 0,000 mm 0,0 UV-I 0 W/m² -6,9 °C -8,5 °C 11,3 km/h (2 Bft)
29.12.2017 03:48 -5,4 °C -5,4 °C 89 % 1012,8 hPa 0,0 mm 8,4 km/h (2 Bft) W-SW 248 ° 0 min 0,000 mm 0,0 UV-I 0 W/m² -6,9 °C -9,2 °C 12,9 km/h (3 Bft)
29.12.2017 03:49 -5,4 °C -5,4 °C 89 % 1012,8 hPa 0,0 mm 5,5 km/h (1 Bft) W-SW 257 ° 0 min 0,000 mm 0,0 UV-I 0 W/m² -6,9 °C -8,0 °C 8,0 km/h (2 Bft)
29.12.2017 03:50 -5,4 °C -5,4 °C 89 % 1012,9 hPa 0,0 mm 10,7 km/h (2 Bft) W-SW 257 ° 0 min 0,000 mm 0,0 UV-I 0 W/m² -6,9 °C -10,0 °C 14,5 km/h (3 Bft)
29.12.2017 03:51 -5,4 °C -5,4 °C 89 % 1012,9 hPa 0,0 mm 6,8 km/h (2 Bft) SW 234 ° 0 min 0,000 mm 0,0 UV-I 0 W/m² -6,9 °C -8,6 °C 9,7 km/h (2 Bft)
29.12.2017 03:52 -5,4 °C -5,3 °C 89 % 1012,9 hPa 0,0 mm 3,7 km/h (1 Bft) SW 219 ° 0 min 0,000 mm 0,0 UV-I 0 W/m² -6,9 °C -5,4 °C 6,4 km/h (2 Bft)
29.12.2017 03:53 -5,3 °C -5,3 °C 89 % 1012,9 hPa 0,0 mm 4,0 km/h (1 Bft) SW 221 ° 0 min 0,000 mm 0,0 UV-I 0 W/m² -6,8 °C -5,3 °C 6,4 km/h (2 Bft)
29.12.2017 03:54 -5,3 °C -5,3 °C 89 % 1012,9 hPa 0,0 mm 3,2 km/h (1 Bft) SW 224 ° 0 min 0,000 mm 0,0 UV-I 0 W/m² -6,8 °C -5,3 °C 4,8 km/h (1 Bft)
29.12.2017 03:55 -5,4 °C -5,3 °C 89 % 1012,9 hPa 0,0 mm 6,8 km/h (2 Bft) S-SW 198 ° 0 min 0,000 mm 0,0 UV-I 0 W/m² -6,9 °C -8,6 °C 9,7 km/h (2 Bft)
29.12.2017 03:56 -5,3 °C -5,3 °C 89 % 1012,9 hPa 0,0 mm 3,2 km/h (1 Bft) W-SW 247 ° 0 min 0,000 mm 0,0 UV-I 0 W/m² -6,8 °C -5,3 °C 6,4 km/h (2 Bft)
29.12.2017 03:57 -5,3 °C -5,3 °C 89 % 1012,9 hPa 0,0 mm 6,4 km/h (2 Bft) S-SW 205 ° 0 min 0,000 mm 0,0 UV-I 0 W/m² -6,8 °C -8,3 °C 9,7 km/h (2 Bft)
29.12.2017 03:58 -5,3 °C -5,3 °C 89 % 1012,9 hPa 0,0 mm 7,3 km/h (2 Bft) S-SW 200 ° 0 min 0,000 mm 0,0 UV-I 0 W/m² -6,8 °C -8,7 °C 9,7 km/h (2 Bft)
29.12.2017 03:59 -5,3 °C -5,3 °C 89 % 1012,9 hPa 0,0 mm 5,4 km/h (1 Bft) SW 224 ° 0 min 0,000 mm 0,0 UV-I 0 W/m² -6,8 °C -7,8 °C 9,7 km/h (2 Bft)
29.12.2017 04:00 -5,3 °C -5,3 °C 89 % 1012,9 hPa 0,0 mm 5,4 km/h (1 Bft) SW 225 ° 0 min 0,000 mm 0,0 UV-I 0 W/m² -6,8 °C -7,8 °C 11,3 km/h (2 Bft)
29.12.2017 04:01 -5,3 °C -5,3 °C 89 % 1013,0 hPa 0,0 mm 4,8 km/h (1 Bft) SW 214 ° 0 min 0,000 mm 0,0 UV-I 0 W/m² -6,8 °C -7,5 °C 8,0 km/h (2 Bft)
29.12.2017 04:02 -5,3 °C -5,3 °C 89 % 1013,0 hPa 0,0 mm 6,0 km/h (2 Bft) S-SW 209 ° 0 min 0,000 mm 0,0 UV-I 0 W/m² -6,8 °C -8,1 °C 8,0 km/h (2 Bft)
29.12.2017 04:03 -5,3 °C -5,3 °C 89 % 1013,0 hPa 0,0 mm 5,2 km/h (1 Bft) SW 215 ° 0 min 0,000 mm 0,0 UV-I 0 W/m² -6,8 °C -7,7 °C 11,3 km/h (2 Bft)
29.12.2017 04:04 -5,3 °C -5,3 °C 89 % 1013,0 hPa 0,0 mm 8,7 km/h (2 Bft) SW 222 ° 0 min 0,000 mm 0,0 UV-I 0 W/m² -6,8 °C -9,2 °C 12,9 km/h (3 Bft)
29.12.2017 04:05 -5,3 °C -5,3 °C 89 % 1013,0 hPa 0,0 mm 6,2 km/h (2 Bft) SW 219 ° 0 min 0,000 mm 0,0 UV-I 0 W/m² -6,8 °C -8,2 °C 8,0 km/h (2 Bft)
29.12.2017 04:06 -5,3 °C -5,3 °C 89 % 1013,0 hPa 0,0 mm 8,5 km/h (2 Bft) S-SW 201 ° 0 min 0,000 mm 0,0 UV-I 0 W/m² -6,8 °C -9,1 °C 12,9 km/h (3 Bft)
29.12.2017 04:07 -5,3 °C -5,3 °C 89 % 1013,0 hPa 0,0 mm 9,6 km/h (2 Bft) S-SW 199 ° 0 min 0,000 mm 0,0 UV-I 0 W/m² -6,8 °C -9,5 °C 12,9 km/h (3 Bft)
29.12.2017 04:08 -5,3 °C -5,3 °C 89 % 1013,0 hPa 0,0 mm 8,4 km/h (2 Bft) W-SW 243 ° 0 min 0,000 mm 0,0 UV-I 0 W/m² -6,8 °C -9,1 °C 14,5 km/h (3 Bft)
29.12.2017 04:09 -5,3 °C -5,2 °C 89 % 1013,0 hPa 0,0 mm 5,8 km/h (2 Bft) S-SW 198 ° 0 min 0,000 mm 0,0 UV-I 0 W/m² -6,8 °C -8,0 °C 8,0 km/h (2 Bft)
29.12.2017 04:10 -5,3 °C -5,3 °C 89 % 1013,0 hPa 0,0 mm 5,1 km/h (1 Bft) S-SW 213 ° 0 min 0,000 mm 0,0 UV-I 0 W/m² -6,8 °C -7,7 °C 8,0 km/h (2 Bft)
29.12.2017 04:11 -5,3 °C -5,3 °C 89 % 1013,0 hPa 0,0 mm 3,8 km/h (1 Bft) S 190 ° 0 min 0,000 mm 0,0 UV-I 0 W/m² -6,8 °C -5,3 °C 6,4 km/h (2 Bft)
29.12.2017 04:12 -5,3 °C -5,2 °C 89 % 1013,1 hPa 0,0 mm 3,9 km/h (1 Bft) S-SW 209 ° 0 min 0,000 mm 0,0 UV-I 0 W/m² -6,8 °C -5,3 °C 6,4 km/h (2 Bft)
29.12.2017 04:13 -5,3 °C -5,3 °C 89 % 1013,0 hPa 0,0 mm 5,2 km/h (1 Bft) S-SW 202 ° 0 min 0,000 mm 0,0 UV-I 0 W/m² -6,8 °C -7,7 °C 11,3 km/h (2 Bft)
29.12.2017 04:14 -5,3 °C -5,3 °C 89 % 1013,1 hPa 0,0 mm 5,6 km/h (1 Bft) S 188 ° 0 min 0,000 mm 0,0 UV-I 0 W/m² -6,8 °C -7,9 °C 11,3 km/h (2 Bft)
29.12.2017 04:15 -5,3 °C -5,3 °C 89 % 1013,0 hPa 0,0 mm 4,4 km/h (1 Bft) S-SW 201 ° 0 min 0,000 mm 0,0 UV-I 0 W/m² -6,8 °C -5,3 °C 8,0 km/h (2 Bft)
29.12.2017 04:16 -5,3 °C -5,3 °C 89 % 1013,0 hPa 0,0 mm 4,0 km/h (1 Bft) S 187 ° 0 min 0,000 mm 0,0 UV-I 0 W/m² -6,8 °C -5,3 °C 8,0 km/h (2 Bft)
29.12.2017 04:17 -5,3 °C -5,3 °C 89 % 1013,0 hPa 0,0 mm 6,0 km/h (2 Bft) S-SW 206 ° 0 min 0,000 mm 0,0 UV-I 0 W/m² -6,8 °C -8,1 °C 8,0 km/h (2 Bft)
29.12.2017 04:18 -5,3 °C -5,3 °C 88 % 1013,1 hPa 0,0 mm 5,6 km/h (1 Bft) S-SW 210 ° 0 min 0,000 mm 0,0 UV-I 0 W/m² -7,0 °C -7,9 °C 6,4 km/h (2 Bft)
29.12.2017 04:19 -5,3 °C -5,3 °C 89 % 1013,1 hPa 0,0 mm 9,7 km/h (2 Bft) S-SW 192 ° 0 min 0,000 mm 0,0 UV-I 0 W/m² -6,8 °C -9,6 °C 16,1 km/h (3 Bft)
29.12.2017 04:20 -5,3 °C -5,3 °C 89 % 1013,1 hPa 0,0 mm 4,7 km/h (1 Bft) S-SW 203 ° 0 min 0,000 mm 0,0 UV-I 0 W/m² -6,8 °C -7,4 °C 11,3 km/h (2 Bft)
29.12.2017 04:21 -5,4 °C -5,3 °C 89 % 1013,1 hPa 0,0 mm 3,8 km/h (1 Bft) SW 216 ° 0 min 0,000 mm 0,0 UV-I 0 W/m² -6,9 °C -5,4 °C 4,8 km/h (1 Bft)
29.12.2017 04:22 -5,3 °C -5,3 °C 89 % 1013,1 hPa 0,0 mm 2,7 km/h (1 Bft) SW 216 ° 0 min 0,000 mm 0,0 UV-I 0 W/m² -6,8 °C -5,3 °C 4,8 km/h (1 Bft)
29.12.2017 04:23 -5,4 °C -5,3 °C 89 % 1013,1 hPa 0,0 mm 3,3 km/h (1 Bft) SW 219 ° 0 min 0,000 mm 0,0 UV-I 0 W/m² -6,9 °C -5,4 °C 4,8 km/h (1 Bft)
29.12.2017 04:24 -5,3 °C -5,3 °C 89 % 1013,1 hPa 0,0 mm 3,8 km/h (1 Bft) S-SW 202 ° 0 min 0,000 mm 0,0 UV-I 0 W/m² -6,8 °C -5,3 °C 4,8 km/h (1 Bft)
29.12.2017 04:25 -5,4 °C -5,3 °C 89 % 1013,1 hPa 0,0 mm 2,7 km/h (1 Bft) S-SW 192 ° 0 min 0,000 mm 0,0 UV-I 0 W/m² -6,9 °C -5,4 °C 3,2 km/h (1 Bft)
29.12.2017 04:26 -5,4 °C -5,3 °C 89 % 1013,1 hPa 0,0 mm 3,0 km/h (1 Bft) SW 214 ° 0 min 0,000 mm 0,0 UV-I 0 W/m² -6,9 °C -5,4 °C 4,8 km/h (1 Bft)
29.12.2017 04:27 -5,4 °C -5,4 °C 89 % 1013,2 hPa 0,0 mm 3,8 km/h (1 Bft) S-SW 209 ° 0 min 0,000 mm 0,0 UV-I 0 W/m² -6,9 °C -5,4 °C 6,4 km/h (2 Bft)
29.12.2017 04:28 -5,4 °C -5,3 °C 89 % 1013,2 hPa 0,0 mm 3,7 km/h (1 Bft) SW 214 ° 0 min 0,000 mm 0,0 UV-I 0 W/m² -6,9 °C -5,4 °C 8,0 km/h (2 Bft)
29.12.2017 04:29 -5,4 °C -5,4 °C 89 % 1013,1 hPa 0,0 mm 4,8 km/h (1 Bft) S-SW 201 ° 0 min 0,000 mm 0,0 UV-I 0 W/m² -6,9 °C -7,6 °C 8,0 km/h (2 Bft)
29.12.2017 04:30 -5,4 °C -5,4 °C 89 % 1013,1 hPa 0,0 mm 5,1 km/h (1 Bft) SW 232 ° 0 min 0,000 mm 0,0 UV-I 0 W/m² -6,9 °C -7,8 °C 6,4 km/h (2 Bft)
29.12.2017 04:31 -5,4 °C -5,4 °C 89 % 1013,2 hPa 0,0 mm 4,2 km/h (1 Bft) S-SW 207 ° 0 min 0,000 mm 0,0 UV-I 0 W/m² -6,9 °C -5,4 °C 6,4 km/h (2 Bft)
29.12.2017 04:32 -5,4 °C -5,4 °C 89 % 1013,2 hPa 0,0 mm 5,0 km/h (1 Bft) S-SW 209 ° 0 min 0,000 mm 0,0 UV-I 0 W/m² -6,9 °C -7,7 °C 9,7 km/h (2 Bft)
29.12.2017 04:33 -5,4 °C -5,4 °C 89 % 1013,2 hPa 0,0 mm 5,3 km/h (1 Bft) S 188 ° 0 min 0,000 mm 0,0 UV-I 0 W/m² -6,9 °C -7,9 °C 8,0 km/h (2 Bft)
29.12.2017 04:34 -5,4 °C -5,4 °C 89 % 1013,2 hPa 0,0 mm 2,8 km/h (1 Bft) S 186 ° 0 min 0,000 mm 0,0 UV-I 0 W/m² -6,9 °C -5,4 °C 4,8 km/h (1 Bft)
29.12.2017 04:35 -5,4 °C -5,4 °C 89 % 1013,3 hPa 0,0 mm 6,2 km/h (2 Bft) S-SW 212 ° 0 min 0,000 mm 0,0 UV-I 0 W/m² -6,9 °C -8,3 °C 9,7 km/h (2 Bft)
29.12.2017 04:36 -5,4 °C -5,4 °C 89 % 1013,3 hPa 0,0 mm 4,0 km/h (1 Bft) S-SW 196 ° 0 min 0,000 mm 0,0 UV-I 0 W/m² -6,9 °C -5,4 °C 8,0 km/h (2 Bft)
29.12.2017 04:37 -5,4 °C -5,4 °C 89 % 1013,3 hPa 0,0 mm 6,2 km/h (2 Bft) SW 217 ° 0 min 0,000 mm 0,0 UV-I 0 W/m² -6,9 °C -8,3 °C 8,0 km/h (2 Bft)
29.12.2017 04:38 -5,4 °C -5,4 °C 89 % 1013,3 hPa 0,0 mm 1,7 km/h (1 Bft) SW 217 ° 0 min 0,000 mm 0,0 UV-I 0 W/m² -6,9 °C -5,4 °C 4,8 km/h (1 Bft)
29.12.2017 04:39 -5,4 °C -5,4 °C 89 % 1013,3 hPa 0,0 mm 5,0 km/h (1 Bft) SW 233 ° 0 min 0,000 mm 0,0 UV-I 0 W/m² -6,9 °C -7,7 °C 8,0 km/h (2 Bft)
29.12.2017 04:40 -5,4 °C -5,4 °C 89 % 1013,4 hPa 0,0 mm 4,3 km/h (1 Bft) SW 217 ° 0 min 0,000 mm 0,0 UV-I 0 W/m² -6,9 °C -5,4 °C 4,8 km/h (1 Bft)
29.12.2017 04:41 -5,4 °C -5,4 °C 89 % 1013,4 hPa 0,0 mm 5,1 km/h (1 Bft) S-SW 198 ° 0 min 0,000 mm 0,0 UV-I 0 W/m² -6,9 °C -7,8 °C 11,3 km/h (2 Bft)
29.12.2017 04:42 -5,4 °C -5,4 °C 89 % 1013,4 hPa 0,0 mm 4,6 km/h (1 Bft) S-SW 207 ° 0 min 0,000 mm 0,0 UV-I 0 W/m² -6,9 °C -7,5 °C 8,0 km/h (2 Bft)
29.12.2017 04:43 -5,4 °C -5,4 °C 89 % 1013,4 hPa 0,0 mm 3,7 km/h (1 Bft) S-SW 194 ° 0 min 0,000 mm 0,0 UV-I 0 W/m² -6,9 °C -5,4 °C 4,8 km/h (1 Bft)
29.12.2017 04:44 -5,4 °C -5,4 °C 89 % 1013,4 hPa 0,0 mm 2,7 km/h (1 Bft) S-SW 193 ° 0 min 0,000 mm 0,0 UV-I 0 W/m² -6,9 °C -5,4 °C 4,8 km/h (1 Bft)
29.12.2017 04:45 -5,4 °C -5,4 °C 89 % 1013,4 hPa 0,0 mm 1,3 km/h (1 Bft) S-SW 193 ° 0 min 0,000 mm 0,0 UV-I 0 W/m² -6,9 °C -5,4 °C 3,2 km/h (1 Bft)
29.12.2017 04:46 -5,4 °C -5,4 °C 89 % 1013,4 hPa 0,0 mm 0,7 km/h (0 Bft) S-SW 193 ° 0 min 0,000 mm 0,0 UV-I 0 W/m² -6,9 °C -5,4 °C 1,6 km/h (1 Bft)
29.12.2017 04:47 -5,4 °C -5,4 °C 89 % 1013,4 hPa 0,0 mm 0,9 km/h (0 Bft) S-SW 193 ° 0 min 0,000 mm 0,0 UV-I 0 W/m² -6,9 °C -5,4 °C 3,2 km/h (1 Bft)
29.12.2017 04:48 -5,4 °C -5,4 °C 89 % 1013,4 hPa 0,0 mm 2,0 km/h (1 Bft) S-SW 193 ° 0 min 0,000 mm 0,0 UV-I 0 W/m² -6,9 °C -5,4 °C 3,2 km/h (1 Bft)
29.12.2017 04:49 -5,4 °C -5,4 °C 89 % 1013,4 hPa 0,0 mm 2,1 km/h (1 Bft) S-SW 193 ° 0 min 0,000 mm 0,0 UV-I 0 W/m² -6,9 °C -5,4 °C 3,2 km/h (1 Bft)
29.12.2017 04:50 -5,4 °C -5,4 °C 89 % 1013,4 hPa 0,0 mm 1,6 km/h (1 Bft) S-SW 193 ° 0 min 0,000 mm 0,0 UV-I 0 W/m² -6,9 °C -5,4 °C 3,2 km/h (1 Bft)
29.12.2017 04:51 -5,4 °C -5,4 °C 89 % 1013,4 hPa 0,0 mm 1,1 km/h (1 Bft) S-SW 193 ° 0 min 0,000 mm 0,0 UV-I 0 W/m² -6,9 °C -5,4 °C 3,2 km/h (1 Bft)
29.12.2017 04:52 -5,4 °C -5,4 °C 89 % 1013,4 hPa 0,0 mm 1,1 km/h (1 Bft) S-SW 193 ° 0 min 0,000 mm 0,0 UV-I 0 W/m² -6,9 °C -5,4 °C 3,2 km/h (1 Bft)
29.12.2017 04:53 -5,4 °C -5,4 °C 89 % 1013,5 hPa 0,0 mm 4,9 km/h (1 Bft) S-SW 196 ° 0 min 0,000 mm 0,0 UV-I 0 W/m² -6,9 °C -7,7 °C 9,7 km/h (2 Bft)
29.12.2017 04:54 -5,4 °C -5,4 °C 89 % 1013,5 hPa 0,0 mm 8,1 km/h (2 Bft) S-SW 209 ° 0 min 0,000 mm 0,0 UV-I 0 W/m² -6,9 °C -9,1 °C 11,3 km/h (2 Bft)
29.12.2017 04:55 -5,4 °C -5,4 °C 89 % 1013,5 hPa 0,0 mm 8,7 km/h (2 Bft) S-SW 196 ° 0 min 0,000 mm 0,0 UV-I 0 W/m² -6,9 °C -9,3 °C 12,9 km/h (3 Bft)
29.12.2017 04:56 -5,5 °C -5,4 °C 89 % 1013,5 hPa 0,0 mm 2,3 km/h (1 Bft) S-SW 209 ° 0 min 0,000 mm 0,0 UV-I 0 W/m² -7,0 °C -5,5 °C 6,4 km/h (2 Bft)
29.12.2017 04:57 -5,5 °C -5,4 °C 89 % 1013,5 hPa 0,0 mm 6,4 km/h (2 Bft) S-SW 202 ° 0 min 0,000 mm 0,0 UV-I 0 W/m² -7,0 °C -8,5 °C 12,9 km/h (3 Bft)
29.12.2017 04:58 -5,5 °C -5,5 °C 89 % 1013,5 hPa 0,0 mm 5,4 km/h (1 Bft) S-SW 200 ° 0 min 0,000 mm 0,0 UV-I 0 W/m² -7,0 °C -8,0 °C 8,0 km/h (2 Bft)
29.12.2017 04:59 -5,5 °C -5,5 °C 89 % 1013,5 hPa 0,0 mm 4,4 km/h (1 Bft) S 170 ° 0 min 0,000 mm 0,0 UV-I 0 W/m² -7,0 °C -5,5 °C 8,0 km/h (2 Bft)
29.12.2017 05:00 -5,6 °C -5,5 °C 89 % 1013,5 hPa 0,0 mm 3,0 km/h (1 Bft) S 170 ° 0 min 0,000 mm 0,0 UV-I 0 W/m² -7,1 °C -5,6 °C 6,4 km/h (2 Bft)
29.12.2017 05:01 -5,5 °C -5,5 °C 89 % 1013,5 hPa 0,0 mm 6,0 km/h (2 Bft) S-SW 198 ° 0 min 0,000 mm 0,0 UV-I 0 W/m² -7,0 °C -8,3 °C 9,7 km/h (2 Bft)
29.12.2017 05:02 -5,5 °C -5,4 °C 89 % 1013,5 hPa 0,0 mm 5,4 km/h (1 Bft) S 189 ° 0 min 0,000 mm 0,0 UV-I 0 W/m² -7,0 °C -8,0 °C 6,4 km/h (2 Bft)
29.12.2017 05:03 -5,5 °C -5,5 °C 89 % 1013,5 hPa 0,0 mm 6,1 km/h (2 Bft) S-SW 199 ° 0 min 0,000 mm 0,0 UV-I 0 W/m² -7,0 °C -8,4 °C 8,0 km/h (2 Bft)
29.12.2017 05:04 -5,5 °C -5,4 °C 89 % 1013,5 hPa 0,0 mm 5,2 km/h (1 Bft) S 186 ° 0 min 0,000 mm 0,0 UV-I 0 W/m² -7,0 °C -7,9 °C 6,4 km/h (2 Bft)
29.12.2017 05:05 -5,5 °C -5,4 °C 89 % 1013,5 hPa 0,0 mm 7,4 km/h (2 Bft) S 179 ° 0 min 0,000 mm 0,0 UV-I 0 W/m² -7,0 °C -9,0 °C 9,7 km/h (2 Bft)
29.12.2017 05:06 -5,5 °C -5,5 °C 89 % 1013,6 hPa 0,0 mm 3,8 km/h (1 Bft) S 179 ° 0 min 0,000 mm 0,0 UV-I 0 W/m² -7,0 °C -5,5 °C 4,8 km/h (1 Bft)
29.12.2017 05:07 -5,5 °C -5,5 °C 89 % 1013,6 hPa 0,0 mm 2,8 km/h (1 Bft) S-SW 207 ° 0 min 0,000 mm 0,0 UV-I 0 W/m² -7,0 °C -5,5 °C 4,8 km/h (1 Bft)
29.12.2017 05:08 -5,5 °C -5,5 °C 89 % 1013,5 hPa 0,0 mm 3,2 km/h (1 Bft) S-SW 212 ° 0 min 0,000 mm 0,0 UV-I 0 W/m² -7,0 °C -5,5 °C 6,4 km/h (2 Bft)
29.12.2017 05:09 -5,5 °C -5,5 °C 89 % 1013,5 hPa 0,0 mm 3,9 km/h (1 Bft) S-SO 163 ° 0 min 0,000 mm 0,0 UV-I 0 W/m² -7,0 °C -5,5 °C 6,4 km/h (2 Bft)
29.12.2017 05:10 -5,5 °C -5,5 °C 89 % 1013,5 hPa 0,0 mm 4,5 km/h (1 Bft) S-SW 207 ° 0 min 0,000 mm 0,0 UV-I 0 W/m² -7,0 °C -5,5 °C 8,0 km/h (2 Bft)
29.12.2017 05:11 -5,5 °C -5,5 °C 89 % 1013,5 hPa 0,0 mm 4,4 km/h (1 Bft) S-SW 207 ° 0 min 0,000 mm 0,0 UV-I 0 W/m² -7,0 °C -5,5 °C 6,4 km/h (2 Bft)
29.12.2017 05:12 -5,5 °C -5,5 °C 89 % 1013,5 hPa 0,0 mm 3,7 km/h (1 Bft) S-SW 198 ° 0 min 0,000 mm 0,0 UV-I 0 W/m² -7,0 °C -5,5 °C 8,0 km/h (2 Bft)
29.12.2017 05:13 -5,5 °C -5,5 °C 89 % 1013,5 hPa 0,0 mm 6,6 km/h (2 Bft) S-SW 200 ° 0 min 0,000 mm 0,0 UV-I 0 W/m² -7,0 °C -8,6 °C 9,7 km/h (2 Bft)
29.12.2017 05:14 -5,5 °C -5,5 °C 89 % 1013,5 hPa 0,0 mm 5,1 km/h (1 Bft) S-SW 200 ° 0 min 0,000 mm 0,0 UV-I 0 W/m² -7,0 °C -7,9 °C 9,7 km/h (2 Bft)
29.12.2017 05:15 -5,5 °C -5,5 °C 89 % 1013,5 hPa 0,0 mm 3,8 km/h (1 Bft) S-SW 200 ° 0 min 0,000 mm 0,0 UV-I 0 W/m² -7,0 °C -5,5 °C 6,4 km/h (2 Bft)
29.12.2017 05:16 -5,5 °C -5,5 °C 89 % 1013,5 hPa 0,0 mm 3,3 km/h (1 Bft) S-SW 196 ° 0 min 0,000 mm 0,0 UV-I 0 W/m² -7,0 °C -5,5 °C 4,8 km/h (1 Bft)
29.12.2017 05:17 -5,5 °C -5,5 °C 89 % 1013,5 hPa 0,0 mm 3,3 km/h (1 Bft) S-SW 213 ° 0 min 0,000 mm 0,0 UV-I 0 W/m² -7,0 °C -5,5 °C 4,8 km/h (1 Bft)
29.12.2017 05:18 -5,6 °C -5,5 °C 89 % 1013,5 hPa 0,0 mm 5,4 km/h (1 Bft) S-SW 206 ° 0 min 0,000 mm 0,0 UV-I 0 W/m² -7,1 °C -8,2 °C 8,0 km/h (2 Bft)
29.12.2017 05:19 -5,6 °C -5,5 °C 89 % 1013,6 hPa 0,0 mm 5,0 km/h (1 Bft) S-SW 200 ° 0 min 0,000 mm 0,0 UV-I 0 W/m² -7,1 °C -7,9 °C 6,4 km/h (2 Bft)
29.12.2017 05:20 -5,6 °C -5,5 °C 89 % 1013,6 hPa 0,0 mm 7,1 km/h (2 Bft) S-SW 199 ° 0 min 0,000 mm 0,0 UV-I 0 W/m² -7,1 °C -9,0 °C 9,7 km/h (2 Bft)
29.12.2017 05:21 -5,5 °C -5,5 °C 89 % 1013,6 hPa 0,0 mm 7,9 km/h (2 Bft) S-SW 196 ° 0 min 0,000 mm 0,0 UV-I 0 W/m² -7,0 °C -9,2 °C 8,0 km/h (2 Bft)
29.12.2017 05:22 -5,6 °C -5,5 °C 89 % 1013,6 hPa 0,0 mm 4,4 km/h (1 Bft) S-SW 192 ° 0 min 0,000 mm 0,0 UV-I 0 W/m² -7,1 °C -5,6 °C 4,8 km/h (1 Bft)
29.12.2017 05:23 -5,6 °C -5,6 °C 89 % 1013,6 hPa 0,0 mm 5,8 km/h (2 Bft) S-SW 202 ° 0 min 0,000 mm 0,0 UV-I 0 W/m² -7,1 °C -8,4 °C 8,0 km/h (2 Bft)
29.12.2017 05:24 -5,5 °C -5,5 °C 89 % 1013,6 hPa 0,0 mm 4,1 km/h (1 Bft) S-SW 202 ° 0 min 0,000 mm 0,0 UV-I 0 W/m² -7,0 °C -5,5 °C 4,8 km/h (1 Bft)
29.12.2017 05:25 -5,6 °C -5,5 °C 89 % 1013,6 hPa 0,0 mm 4,0 km/h (1 Bft) S-SW 202 ° 0 min 0,000 mm 0,0 UV-I 0 W/m² -7,1 °C -5,6 °C 4,8 km/h (1 Bft)
29.12.2017 05:26 -5,6 °C -5,6 °C 89 % 1013,6 hPa 0,0 mm 4,1 km/h (1 Bft) S-SW 210 ° 0 min 0,000 mm 0,0 UV-I 0 W/m² -7,1 °C -5,6 °C 4,8 km/h (1 Bft)
29.12.2017 05:27 -5,6 °C -5,6 °C 89 % 1013,7 hPa 0,0 mm 4,0 km/h (1 Bft) S 182 ° 0 min 0,000 mm 0,0 UV-I 0 W/m² -7,1 °C -5,6 °C 4,8 km/h (1 Bft)
29.12.2017 05:28 -5,6 °C -5,6 °C 89 % 1013,7 hPa 0,0 mm 4,0 km/h (1 Bft) S 182 ° 0 min 0,000 mm 0,0 UV-I 0 W/m² -7,1 °C -5,6 °C 4,8 km/h (1 Bft)
29.12.2017 05:29 -5,6 °C -5,6 °C 89 % 1013,7 hPa 0,0 mm 4,0 km/h (1 Bft) S 184 ° 0 min 0,000 mm 0,0 UV-I 0 W/m² -7,1 °C -5,6 °C 6,4 km/h (2 Bft)
29.12.2017 05:30 -5,6 °C -5,6 °C 89 % 1013,7 hPa 0,0 mm 5,0 km/h (1 Bft) S 184 ° 0 min 0,000 mm 0,0 UV-I 0 W/m² -7,1 °C -7,9 °C 8,0 km/h (2 Bft)
29.12.2017 05:31 -5,6 °C -5,6 °C 89 % 1013,6 hPa 0,0 mm 3,8 km/h (1 Bft) S-SW 192 ° 0 min 0,000 mm 0,0 UV-I 0 W/m² -7,1 °C -5,6 °C 6,4 km/h (2 Bft)
29.12.2017 05:32 -5,6 °C -5,6 °C 89 % 1013,6 hPa 0,0 mm 5,8 km/h (2 Bft) SW 234 ° 0 min 0,000 mm 0,0 UV-I 0 W/m² -7,1 °C -8,4 °C 8,0 km/h (2 Bft)
29.12.2017 05:33 -5,6 °C -5,6 °C 89 % 1013,7 hPa 0,0 mm 4,2 km/h (1 Bft) SW 220 ° 0 min 0,000 mm 0,0 UV-I 0 W/m² -7,1 °C -5,6 °C 6,4 km/h (2 Bft)
29.12.2017 05:34 -5,6 °C -5,6 °C 89 % 1013,6 hPa 0,0 mm 2,5 km/h (1 Bft) SW 214 ° 0 min 0,000 mm 0,0 UV-I 0 W/m² -7,1 °C -5,6 °C 6,4 km/h (2 Bft)
29.12.2017 05:35 -5,6 °C -5,6 °C 89 % 1013,7 hPa 0,0 mm 3,4 km/h (1 Bft) SW 215 ° 0 min 0,000 mm 0,0 UV-I 0 W/m² -7,1 °C -5,6 °C 6,4 km/h (2 Bft)
29.12.2017 05:36 -5,6 °C -5,6 °C 89 % 1013,7 hPa 0,0 mm 3,1 km/h (1 Bft) S-SW 206 ° 0 min 0,000 mm 0,0 UV-I 0 W/m² -7,1 °C -5,6 °C 4,8 km/h (1 Bft)
29.12.2017 05:37 -5,6 °C -5,6 °C 89 % 1013,7 hPa 0,0 mm 2,1 km/h (1 Bft) S-SW 206 ° 0 min 0,000 mm 0,0 UV-I 0 W/m² -7,1 °C -5,6 °C 4,8 km/h (1 Bft)
29.12.2017 05:38 -5,6 °C -5,5 °C 89 % 1013,7 hPa 0,0 mm 5,1 km/h (1 Bft) SW 216 ° 0 min 0,000 mm 0,0 UV-I 0 W/m² -7,1 °C -8,0 °C 6,4 km/h (2 Bft)
29.12.2017 05:39 -5,5 °C -5,5 °C 89 % 1013,7 hPa 0,0 mm 4,5 km/h (1 Bft) S-SW 209 ° 0 min 0,000 mm 0,0 UV-I 0 W/m² -7,0 °C -5,5 °C 6,4 km/h (2 Bft)
29.12.2017 05:40 -5,5 °C -5,5 °C 89 % 1013,8 hPa 0,0 mm 3,4 km/h (1 Bft) S-SW 209 ° 0 min 0,000 mm 0,0 UV-I 0 W/m² -7,0 °C -5,5 °C 4,8 km/h (1 Bft)
29.12.2017 05:41 -5,5 °C -5,4 °C 89 % 1013,7 hPa 0,0 mm 5,3 km/h (1 Bft) S-SW 201 ° 0 min 0,000 mm 0,0 UV-I 0 W/m² -7,0 °C -8,0 °C 8,0 km/h (2 Bft)
29.12.2017 05:42 -5,5 °C -5,5 °C 89 % 1013,7 hPa 0,0 mm 3,4 km/h (1 Bft) S-SW 212 ° 0 min 0,000 mm 0,0 UV-I 0 W/m² -7,0 °C -5,5 °C 6,4 km/h (2 Bft)
29.12.2017 05:43 -5,5 °C -5,5 °C 89 % 1013,7 hPa 0,0 mm 5,4 km/h (1 Bft) S-SW 207 ° 0 min 0,000 mm 0,0 UV-I 0 W/m² -7,0 °C -8,0 °C 8,0 km/h (2 Bft)
29.12.2017 05:44 -5,5 °C -5,5 °C 89 % 1013,7 hPa 0,0 mm 4,6 km/h (1 Bft) S-SW 213 ° 0 min 0,000 mm 0,0 UV-I 0 W/m² -7,0 °C -7,6 °C 6,4 km/h (2 Bft)
29.12.2017 05:45 -5,5 °C -5,4 °C 89 % 1013,7 hPa 0,0 mm 5,6 km/h (1 Bft) S-SW 198 ° 0 min 0,000 mm 0,0 UV-I 0 W/m² -7,0 °C -8,1 °C 8,0 km/h (2 Bft)
29.12.2017 05:46 -5,4 °C -5,4 °C 89 % 1013,6 hPa 0,0 mm 4,6 km/h (1 Bft) S-SW 210 ° 0 min 0,000 mm 0,0 UV-I 0 W/m² -6,9 °C -7,5 °C 8,0 km/h (2 Bft)
29.12.2017 05:47 -5,4 °C -5,4 °C 89 % 1013,7 hPa 0,0 mm 4,7 km/h (1 Bft) S-SW 205 ° 0 min 0,000 mm 0,0 UV-I 0 W/m² -6,9 °C -7,5 °C 8,0 km/h (2 Bft)
29.12.2017 05:48 -5,4 °C -5,4 °C 89 % 1013,7 hPa 0,0 mm 4,4 km/h (1 Bft) S-SW 213 ° 0 min 0,000 mm 0,0 UV-I 0 W/m² -6,9 °C -5,4 °C 6,4 km/h (2 Bft)
29.12.2017 05:49 -5,4 °C -5,4 °C 89 % 1013,7 hPa 0,0 mm 3,2 km/h (1 Bft) SW 214 ° 0 min 0,000 mm 0,0 UV-I 0 W/m² -6,9 °C -5,4 °C 4,8 km/h (1 Bft)
29.12.2017 05:50 -5,4 °C -5,4 °C 89 % 1013,7 hPa 0,0 mm 5,2 km/h (1 Bft) S-SW 201 ° 0 min 0,000 mm 0,0 UV-I 0 W/m² -6,9 °C -7,8 °C 8,0 km/h (2 Bft)
29.12.2017 05:51 -5,4 °C -5,4 °C 89 % 1013,8 hPa 0,0 mm 2,1 km/h (1 Bft) S-SW 192 ° 0 min 0,000 mm 0,0 UV-I 0 W/m² -6,9 °C -5,4 °C 3,2 km/h (1 Bft)
29.12.2017 05:52 -5,4 °C -5,4 °C 89 % 1013,7 hPa 0,0 mm 2,3 km/h (1 Bft) S-SW 192 ° 0 min 0,000 mm 0,0 UV-I 0 W/m² -6,9 °C -5,4 °C 4,8 km/h (1 Bft)
29.12.2017 05:53 -5,4 °C -5,4 °C 89 % 1013,8 hPa 0,0 mm 4,6 km/h (1 Bft) S-SW 200 ° 0 min 0,000 mm 0,0 UV-I 0 W/m² -6,9 °C -7,5 °C 6,4 km/h (2 Bft)
29.12.2017 05:54 -5,4 °C -5,4 °C 88 % 1013,8 hPa 0,0 mm 2,7 km/h (1 Bft) S-SW 200 ° 0 min 0,000 mm 0,0 UV-I 0 W/m² -7,1 °C -5,4 °C 4,8 km/h (1 Bft)
29.12.2017 05:55 -5,4 °C -5,4 °C 88 % 1013,8 hPa 0,0 mm 2,5 km/h (1 Bft) S-SW 200 ° 0 min 0,000 mm 0,0 UV-I 0 W/m² -7,1 °C -5,4 °C 4,8 km/h (1 Bft)
29.12.2017 05:56 -5,4 °C -5,4 °C 88 % 1013,8 hPa 0,0 mm 2,4 km/h (1 Bft) S-SW 200 ° 0 min 0,000 mm 0,0 UV-I 0 W/m² -7,1 °C -5,4 °C 4,8 km/h (1 Bft)
29.12.2017 05:57 -5,4 °C -5,4 °C 88 % 1013,9 hPa 0,0 mm 3,4 km/h (1 Bft) S-SW 200 ° 0 min 0,000 mm 0,0 UV-I 0 W/m² -7,1 °C -5,4 °C 4,8 km/h (1 Bft)
29.12.2017 05:58 -5,4 °C -5,4 °C 88 % 1013,9 hPa 0,0 mm 3,4 km/h (1 Bft) S-SW 200 ° 0 min 0,000 mm 0,0 UV-I 0 W/m² -7,1 °C -5,4 °C 4,8 km/h (1 Bft)
29.12.2017 05:59 -5,4 °C -5,4 °C 88 % 1014,0 hPa 0,0 mm 4,4 km/h (1 Bft) S-SW 200 ° 0 min 0,000 mm 0,0 UV-I 0 W/m² -7,1 °C -5,4 °C 6,4 km/h (2 Bft)
29.12.2017 06:00 -5,4 °C -5,3 °C 88 % 1013,9 hPa 0,0 mm 3,2 km/h (1 Bft) S 188 ° 0 min 0,000 mm 0,0 UV-I 0 W/m² -7,1 °C -5,4 °C 4,8 km/h (1 Bft)
29.12.2017 06:01 -5,3 °C -5,3 °C 88 % 1013,9 hPa 0,0 mm 3,9 km/h (1 Bft) S-SW 198 ° 0 min 0,000 mm 0,0 UV-I 0 W/m² -7,0 °C -5,3 °C 4,8 km/h (1 Bft)
29.12.2017 06:02 -5,4 °C -5,3 °C 88 % 1013,9 hPa 0,0 mm 3,7 km/h (1 Bft) S-SW 199 ° 0 min 0,000 mm 0,0 UV-I 0 W/m² -7,1 °C -5,4 °C 6,4 km/h (2 Bft)
29.12.2017 06:03 -5,3 °C -5,3 °C 88 % 1013,9 hPa 0,0 mm 4,3 km/h (1 Bft) S-SW 199 ° 0 min 0,000 mm 0,0 UV-I 0 W/m² -7,0 °C -5,3 °C 6,4 km/h (2 Bft)
29.12.2017 06:04 -5,4 °C -5,3 °C 88 % 1013,9 hPa 0,0 mm 4,7 km/h (1 Bft) S-SW 196 ° 0 min 0,000 mm 0,0 UV-I 0 W/m² -7,1 °C -7,5 °C 6,4 km/h (2 Bft)
29.12.2017 06:05 -5,3 °C -5,3 °C 88 % 1013,9 hPa 0,0 mm 4,4 km/h (1 Bft) S-SW 197 ° 0 min 0,000 mm 0,0 UV-I 0 W/m² -7,0 °C -5,3 °C 4,8 km/h (1 Bft)
29.12.2017 06:06 -5,4 °C -5,3 °C 88 % 1013,9 hPa 0,0 mm 5,2 km/h (1 Bft) S 188 ° 0 min 0,000 mm 0,0 UV-I 0 W/m² -7,1 °C -7,8 °C 6,4 km/h (2 Bft)
29.12.2017 06:07 -5,4 °C -5,4 °C 88 % 1013,9 hPa 0,0 mm 4,7 km/h (1 Bft) S-SW 193 ° 0 min 0,000 mm 0,0 UV-I 0 W/m² -7,1 °C -7,5 °C 6,4 km/h (2 Bft)
29.12.2017 06:08 -5,4 °C -5,4 °C 88 % 1013,9 hPa 0,0 mm 4,2 km/h (1 Bft) S-SW 200 ° 0 min 0,000 mm 0,0 UV-I 0 W/m² -7,1 °C -5,4 °C 6,4 km/h (2 Bft)
29.12.2017 06:09 -5,4 °C -5,4 °C 88 % 1013,9 hPa 0,0 mm 2,7 km/h (1 Bft) S-SW 200 ° 0 min 0,000 mm 0,0 UV-I 0 W/m² -7,1 °C -5,4 °C 4,8 km/h (1 Bft)
29.12.2017 06:10 -5,4 °C -5,4 °C 88 % 1013,9 hPa 0,0 mm 2,3 km/h (1 Bft) S-SW 192 ° 0 min 0,000 mm 0,0 UV-I 0 W/m² -7,1 °C -5,4 °C 4,8 km/h (1 Bft)
29.12.2017 06:11 -5,4 °C -5,4 °C 88 % 1013,9 hPa 0,0 mm 3,4 km/h (1 Bft) S-SW 193 ° 0 min 0,000 mm 0,0 UV-I 0 W/m² -7,1 °C -5,4 °C 4,8 km/h (1 Bft)
29.12.2017 06:12 -5,4 °C -5,4 °C 88 % 1013,9 hPa 0,0 mm 2,8 km/h (1 Bft) S-SW 192 ° 0 min 0,000 mm 0,0 UV-I 0 W/m² -7,1 °C -5,4 °C 6,4 km/h (2 Bft)
29.12.2017 06:13 -5,4 °C -5,4 °C 88 % 1013,9 hPa 0,0 mm 4,8 km/h (1 Bft) S-SW 203 ° 0 min 0,000 mm 0,0 UV-I 0 W/m² -7,1 °C -7,6 °C 6,4 km/h (2 Bft)
29.12.2017 06:14 -5,4 °C -5,4 °C 87 % 1013,9 hPa 0,0 mm 4,1 km/h (1 Bft) S-SW 205 ° 0 min 0,000 mm 0,0 UV-I 0 W/m² -7,2 °C -5,4 °C 8,0 km/h (2 Bft)
29.12.2017 06:15 -5,5 °C -5,4 °C 87 % 1013,9 hPa 0,0 mm 5,9 km/h (2 Bft) S-SO 167 ° 0 min 0,000 mm 0,0 UV-I 0 W/m² -7,3 °C -8,3 °C 8,0 km/h (2 Bft)
29.12.2017 06:16 -5,5 °C -5,5 °C 87 % 1014,0 hPa 0,0 mm 3,5 km/h (1 Bft) S-SO 168 ° 0 min 0,000 mm 0,0 UV-I 0 W/m² -7,3 °C -5,5 °C 8,0 km/h (2 Bft)
29.12.2017 06:17 -5,5 °C -5,5 °C 88 % 1014,0 hPa 0,0 mm 3,4 km/h (1 Bft) S 169 ° 0 min 0,000 mm 0,0 UV-I 0 W/m² -7,2 °C -5,5 °C 6,4 km/h (2 Bft)
29.12.2017 06:18 -5,6 °C -5,5 °C 88 % 1013,9 hPa 0,0 mm 3,2 km/h (1 Bft) S 169 ° 0 min 0,000 mm 0,0 UV-I 0 W/m² -7,3 °C -5,6 °C 6,4 km/h (2 Bft)
29.12.2017 06:19 -5,6 °C -5,6 °C 88 % 1013,9 hPa 0,0 mm 3,1 km/h (1 Bft) S 178 ° 0 min 0,000 mm 0,0 UV-I 0 W/m² -7,3 °C -5,6 °C 6,4 km/h (2 Bft)
29.12.2017 06:20 -5,6 °C -5,6 °C 88 % 1013,9 hPa 0,0 mm 2,1 km/h (1 Bft) S 178 ° 0 min 0,000 mm 0,0 UV-I 0 W/m² -7,3 °C -5,6 °C 4,8 km/h (1 Bft)
29.12.2017 06:21 -5,6 °C -5,6 °C 88 % 1013,9 hPa 0,0 mm 1,5 km/h (1 Bft) S 178 ° 0 min 0,000 mm 0,0 UV-I 0 W/m² -7,3 °C -5,6 °C 1,6 km/h (1 Bft)
29.12.2017 06:22 -5,6 °C -5,6 °C 88 % 1013,9 hPa 0,0 mm 1,3 km/h (1 Bft) S 178 ° 0 min 0,000 mm 0,0 UV-I 0 W/m² -7,3 °C -5,6 °C 3,2 km/h (1 Bft)
29.12.2017 06:23 -5,6 °C -5,6 °C 88 % 1013,9 hPa 0,0 mm 0,1 km/h (0 Bft) S 178 ° 0 min 0,000 mm 0,0 UV-I 0 W/m² -7,3 °C -5,6 °C 1,6 km/h (1 Bft)
29.12.2017 06:24 -5,6 °C -5,6 °C 88 % 1013,9 hPa 0,0 mm 2,0 km/h (1 Bft) S 178 ° 0 min 0,000 mm 0,0 UV-I 0 W/m² -7,3 °C -5,6 °C 3,2 km/h (1 Bft)
29.12.2017 06:25 -5,6 °C -5,6 °C 88 % 1013,9 hPa 0,0 mm 1,8 km/h (1 Bft) S 178 ° 0 min 0,000 mm 0,0 UV-I 0 W/m² -7,3 °C -5,6 °C 3,2 km/h (1 Bft)
29.12.2017 06:26 -5,7 °C -5,6 °C 88 % 1013,9 hPa 0,0 mm 1,7 km/h (1 Bft) S 178 ° 0 min 0,000 mm 0,0 UV-I 0 W/m² -7,4 °C -5,7 °C 3,2 km/h (1 Bft)
29.12.2017 06:27 -5,7 °C -5,7 °C 88 % 1013,9 hPa 0,0 mm 2,1 km/h (1 Bft) S 178 ° 0 min 0,000 mm 0,0 UV-I 0 W/m² -7,4 °C -5,7 °C 3,2 km/h (1 Bft)
29.12.2017 06:28 -5,7 °C -5,7 °C 88 % 1013,9 hPa 0,0 mm 1,8 km/h (1 Bft) S 178 ° 0 min 0,000 mm 0,0 UV-I 0 W/m² -7,4 °C -5,7 °C 3,2 km/h (1 Bft)
29.12.2017 06:29 -5,7 °C -5,7 °C 89 % 1013,9 hPa 0,0 mm 0,6 km/h (0 Bft) S 178 ° 0 min 0,000 mm 0,0 UV-I 0 W/m² -7,2 °C -5,7 °C 3,2 km/h (1 Bft)
29.12.2017 06:30 -5,7 °C -5,7 °C 89 % 1013,9 hPa 0,0 mm 2,1 km/h (1 Bft) S 178 ° 0 min 0,000 mm 0,0 UV-I 0 W/m² -7,2 °C -5,7 °C 3,2 km/h (1 Bft)
29.12.2017 06:31 -5,7 °C -5,7 °C 89 % 1013,9 hPa 0,0 mm 2,5 km/h (1 Bft) S 178 ° 0 min 0,000 mm 0,0 UV-I 0 W/m² -7,2 °C -5,7 °C 3,2 km/h (1 Bft)
29.12.2017 06:32 -5,7 °C -5,7 °C 89 % 1014,0 hPa 0,0 mm 1,8 km/h (1 Bft) S 178 ° 0 min 0,000 mm 0,0 UV-I 0 W/m² -7,2 °C -5,7 °C 3,2 km/h (1 Bft)
29.12.2017 06:33 -5,7 °C -5,7 °C 89 % 1014,0 hPa 0,0 mm 0,9 km/h (0 Bft) S 178 ° 0 min 0,000 mm 0,0 UV-I 0 W/m² -7,2 °C -5,7 °C 1,6 km/h (1 Bft)
29.12.2017 06:34 -5,7 °C -5,7 °C 89 % 1014,0 hPa 0,0 mm 0,8 km/h (0 Bft) S 178 ° 0 min 0,000 mm 0,0 UV-I 0 W/m² -7,2 °C -5,7 °C 1,6 km/h (1 Bft)
29.12.2017 06:35 -5,8 °C -5,7 °C 89 % 1014,0 hPa 0,0 mm 1,5 km/h (1 Bft) S 178 ° 0 min 0,000 mm 0,0 UV-I 0 W/m² -7,3 °C -5,8 °C 1,6 km/h (1 Bft)
29.12.2017 06:36 -5,7 °C -5,7 °C 89 % 1014,1 hPa 0,0 mm 0,5 km/h (0 Bft) S 178 ° 0 min 0,000 mm 0,0 UV-I 0 W/m² -7,2 °C -5,7 °C 1,6 km/h (1 Bft)
29.12.2017 06:37 -5,8 °C -5,7 °C 89 % 1014,1 hPa 0,0 mm 0,0 km/h (0 Bft) S 178 ° 0 min 0,000 mm 0,0 UV-I 0 W/m² -7,3 °C -5,8 °C 0,0 km/h (0 Bft)
29.12.2017 06:38 -5,7 °C -5,7 °C 89 % 1014,1 hPa 0,0 mm 0,0 km/h (0 Bft) S 178 ° 0 min 0,000 mm 0,0 UV-I 0 W/m² -7,2 °C -5,7 °C 0,0 km/h (0 Bft)
29.12.2017 06:39 -5,8 °C -5,7 °C 89 % 1014,1 hPa 0,0 mm 0,0 km/h (0 Bft) S 178 ° 0 min 0,000 mm 0,0 UV-I 0 W/m² -7,3 °C -5,8 °C 0,0 km/h (0 Bft)
29.12.2017 06:40 -5,8 °C -5,8 °C 89 % 1014,1 hPa 0,0 mm 0,0 km/h (0 Bft) S 178 ° 0 min 0,000 mm 0,0 UV-I 0 W/m² -7,3 °C -5,8 °C 0,0 km/h (0 Bft)
29.12.2017 06:41 -5,8 °C -5,8 °C 89 % 1014,1 hPa 0,0 mm 0,0 km/h (0 Bft) S 178 ° 0 min 0,000 mm 0,0 UV-I 0 W/m² -7,3 °C -5,8 °C 0,0 km/h (0 Bft)
29.12.2017 06:42 -5,8 °C -5,8 °C 89 % 1014,1 hPa 0,0 mm 0,0 km/h (0 Bft) S 178 ° 0 min 0,000 mm 0,0 UV-I 0 W/m² -7,3 °C -5,8 °C 0,0 km/h (0 Bft)
29.12.2017 06:43 -5,8 °C -5,8 °C 89 % 1014,1 hPa 0,0 mm 0,0 km/h (0 Bft) S 178 ° 0 min 0,000 mm 0,0 UV-I 0 W/m² -7,3 °C -5,8 °C 0,0 km/h (0 Bft)
29.12.2017 06:44 -5,8 °C -5,8 °C 89 % 1014,1 hPa 0,0 mm 0,0 km/h (0 Bft) S 178 ° 0 min 0,000 mm 0,0 UV-I 0 W/m² -7,3 °C -5,8 °C 0,0 km/h (0 Bft)
29.12.2017 06:45 -5,8 °C -5,8 °C 90 % 1014,2 hPa 0,0 mm 0,0 km/h (0 Bft) S 178 ° 0 min 0,000 mm 0,0 UV-I 0 W/m² -7,2 °C -5,8 °C 0,0 km/h (0 Bft)
29.12.2017 06:46 -5,8 °C -5,8 °C 90 % 1014,2 hPa 0,0 mm 0,0 km/h (0 Bft) S 178 ° 0 min 0,000 mm 0,0 UV-I 0 W/m² -7,2 °C -5,8 °C 0,0 km/h (0 Bft)
29.12.2017 06:47 -5,8 °C -5,8 °C 89 % 1014,2 hPa 0,0 mm 0,0 km/h (0 Bft) S 178 ° 0 min 0,000 mm 0,0 UV-I 0 W/m² -7,3 °C -5,8 °C 0,0 km/h (0 Bft)
29.12.2017 06:48 -5,8 °C -5,8 °C 89 % 1014,1 hPa 0,0 mm 0,0 km/h (0 Bft) S 178 ° 0 min 0,000 mm 0,0 UV-I 0 W/m² -7,3 °C -5,8 °C 0,0 km/h (0 Bft)
29.12.2017 06:49 -5,8 °C -5,8 °C 89 % 1014,1 hPa 0,0 mm 0,0 km/h (0 Bft) S 178 ° 0 min 0,000 mm 0,0 UV-I 0 W/m² -7,3 °C -5,8 °C 0,0 km/h (0 Bft)
29.12.2017 06:50 -5,8 °C -5,8 °C 89 % 1014,1 hPa 0,0 mm 0,0 km/h (0 Bft) S 178 ° 0 min 0,000 mm 0,0 UV-I 0 W/m² -7,3 °C -5,8 °C 0,0 km/h (0 Bft)
29.12.2017 06:51 -5,8 °C -5,8 °C 89 % 1014,1 hPa 0,0 mm 0,4 km/h (0 Bft) S 178 ° 0 min 0,000 mm 0,0 UV-I 0 W/m² -7,3 °C -5,8 °C 1,6 km/h (1 Bft)
29.12.2017 06:52 -5,8 °C -5,8 °C 89 % 1014,1 hPa 0,0 mm 0,7 km/h (0 Bft) S 178 ° 0 min 0,000 mm 0,0 UV-I 0 W/m² -7,3 °C -5,8 °C 1,6 km/h (1 Bft)
29.12.2017 06:53 -5,9 °C -5,8 °C 89 % 1014,1 hPa 0,0 mm 0,0 km/h (0 Bft) S 178 ° 0 min 0,000 mm 0,0 UV-I 0 W/m² -7,4 °C -5,9 °C 0,0 km/h (0 Bft)
29.12.2017 06:54 -5,9 °C -5,8 °C 89 % 1014,1 hPa 0,0 mm 0,0 km/h (0 Bft) S 178 ° 0 min 0,000 mm 0,0 UV-I 0 W/m² -7,4 °C -5,9 °C 0,0 km/h (0 Bft)
29.12.2017 06:55 -5,9 °C -5,8 °C 90 % 1014,1 hPa 0,0 mm 0,0 km/h (0 Bft) S 178 ° 0 min 0,000 mm 0,0 UV-I 0 W/m² -7,3 °C -5,9 °C 0,0 km/h (0 Bft)
29.12.2017 06:56 -5,8 °C -5,8 °C 90 % 1014,1 hPa 0,0 mm 0,0 km/h (0 Bft) S 178 ° 0 min 0,000 mm 0,0 UV-I 0 W/m² -7,2 °C -5,8 °C 0,0 km/h (0 Bft)
29.12.2017 06:57 -5,9 °C -5,8 °C 90 % 1014,1 hPa 0,0 mm 0,0 km/h (0 Bft) S 178 ° 0 min 0,000 mm 0,0 UV-I 0 W/m² -7,3 °C -5,9 °C 0,0 km/h (0 Bft)
29.12.2017 06:58 -5,9 °C -5,8 °C 90 % 1014,1 hPa 0,0 mm 0,0 km/h (0 Bft) S 178 ° 0 min 0,000 mm 0,0 UV-I 0 W/m² -7,3 °C -5,9 °C 0,0 km/h (0 Bft)
29.12.2017 06:59 -5,9 °C -5,9 °C 90 % 1014,1 hPa 0,0 mm 0,0 km/h (0 Bft) S 178 ° 0 min 0,000 mm 0,0 UV-I 0 W/m² -7,3 °C -5,9 °C 0,0 km/h (0 Bft)
29.12.2017 07:00 -5,9 °C -5,9 °C 90 % 1014,1 hPa 0,0 mm 0,0 km/h (0 Bft) S 178 ° 0 min 0,000 mm 0,0 UV-I 0 W/m² -7,3 °C -5,9 °C 0,0 km/h (0 Bft)
29.12.2017 07:01 -5,9 °C -5,9 °C 90 % 1014,1 hPa 0,0 mm 0,0 km/h (0 Bft) S 178 ° 0 min 0,000 mm 0,0 UV-I 0 W/m² -7,3 °C -5,9 °C 0,0 km/h (0 Bft)
29.12.2017 07:02 -5,9 °C -5,9 °C 89 % 1014,1 hPa 0,0 mm 0,0 km/h (0 Bft) S 178 ° 0 min 0,000 mm 0,0 UV-I 0 W/m² -7,4 °C -5,9 °C 0,0 km/h (0 Bft)
29.12.2017 07:03 -5,9 °C -5,9 °C 89 % 1014,1 hPa 0,0 mm 0,0 km/h (0 Bft) S 178 ° 0 min 0,000 mm 0,0 UV-I 0 W/m² -7,4 °C -5,9 °C 0,0 km/h (0 Bft)
29.12.2017 07:04 -5,9 °C -5,9 °C 89 % 1014,1 hPa 0,0 mm 0,0 km/h (0 Bft) S 178 ° 0 min 0,000 mm 0,0 UV-I 0 W/m² -7,4 °C -5,9 °C 0,0 km/h (0 Bft)
29.12.2017 07:05 -5,9 °C -5,9 °C 89 % 1014,1 hPa 0,0 mm 0,0 km/h (0 Bft) S 178 ° 0 min 0,000 mm 0,0 UV-I 0 W/m² -7,4 °C -5,9 °C 0,0 km/h (0 Bft)
29.12.2017 07:06 -6,0 °C -5,9 °C 89 % 1014,1 hPa 0,0 mm 0,0 km/h (0 Bft) S 178 ° 0 min 0,000 mm 0,0 UV-I 0 W/m² -7,5 °C -6,0 °C 0,0 km/h (0 Bft)
29.12.2017 07:07 -6,0 °C -6,0 °C 89 % 1014,1 hPa 0,0 mm 1,3 km/h (1 Bft) S 178 ° 0 min 0,000 mm 0,0 UV-I 0 W/m² -7,5 °C -6,0 °C 1,6 km/h (1 Bft)
29.12.2017 07:08 -6,0 °C -6,0 °C 89 % 1014,1 hPa 0,0 mm 1,0 km/h (0 Bft) S 178 ° 0 min 0,000 mm 0,0 UV-I 0 W/m² -7,5 °C -6,0 °C 1,6 km/h (1 Bft)
29.12.2017 07:09 -6,1 °C -6,0 °C 89 % 1014,0 hPa 0,0 mm 0,1 km/h (0 Bft) S 178 ° 0 min 0,000 mm 0,0 UV-I 0 W/m² -7,6 °C -6,1 °C 1,6 km/h (1 Bft)
29.12.2017 07:10 -6,1 °C -6,0 °C 89 % 1014,0 hPa 0,0 mm 2,3 km/h (1 Bft) S-SW 198 ° 0 min 0,000 mm 0,0 UV-I 0 W/m² -7,6 °C -6,1 °C 4,8 km/h (1 Bft)
29.12.2017 07:11 -6,1 °C -6,1 °C 89 % 1014,0 hPa 0,0 mm 3,3 km/h (1 Bft) S-SW 205 ° 0 min 0,000 mm 0,0 UV-I 0 W/m² -7,6 °C -6,1 °C 4,8 km/h (1 Bft)
29.12.2017 07:12 -6,1 °C -6,1 °C 89 % 1014,0 hPa 0,0 mm 4,2 km/h (1 Bft) S-SW 204 ° 0 min 0,000 mm 0,0 UV-I 0 W/m² -7,6 °C -6,1 °C 6,4 km/h (2 Bft)
29.12.2017 07:13 -6,1 °C -6,1 °C 90 % 1014,0 hPa 0,0 mm 2,4 km/h (1 Bft) S-SW 204 ° 0 min 0,000 mm 0,0 UV-I 0 W/m² -7,5 °C -6,1 °C 4,8 km/h (1 Bft)
29.12.2017 07:14 -6,1 °C -6,1 °C 90 % 1014,0 hPa 0,0 mm 2,3 km/h (1 Bft) S-SW 204 ° 0 min 0,000 mm 0,0 UV-I 0 W/m² -7,5 °C -6,1 °C 3,2 km/h (1 Bft)
29.12.2017 07:15 -6,1 °C -6,1 °C 90 % 1014,0 hPa 0,0 mm 1,3 km/h (1 Bft) S-SW 204 ° 0 min 0,000 mm 0,0 UV-I 0 W/m² -7,5 °C -6,1 °C 3,2 km/h (1 Bft)
29.12.2017 07:16 -6,1 °C -6,1 °C 90 % 1014,0 hPa 0,0 mm 0,6 km/h (0 Bft) S-SW 204 ° 0 min 0,000 mm 0,0 UV-I 0 W/m² -7,5 °C -6,1 °C 1,6 km/h (1 Bft)
29.12.2017 07:17 -6,1 °C -6,1 °C 90 % 1014,0 hPa 0,0 mm 0,0 km/h (0 Bft) S-SW 204 ° 0 min 0,000 mm 0,0 UV-I 0 W/m² -7,5 °C -6,1 °C 0,0 km/h (0 Bft)
29.12.2017 07:18 -6,1 °C -6,1 °C 90 % 1014,0 hPa 0,0 mm 0,4 km/h (0 Bft) S-SW 204 ° 0 min 0,000 mm 0,0 UV-I 0 W/m² -7,5 °C -6,1 °C 1,6 km/h (1 Bft)
29.12.2017 07:19 -6,1 °C -6,1 °C 90 % 1014,0 hPa 0,0 mm 2,5 km/h (1 Bft) S-SW 204 ° 0 min 0,000 mm 0,0 UV-I 0 W/m² -7,5 °C -6,1 °C 3,2 km/h (1 Bft)
29.12.2017 07:20 -6,1 °C -6,1 °C 90 % 1013,9 hPa 0,0 mm 0,7 km/h (0 Bft) S-SW 204 ° 0 min 0,000 mm 0,0 UV-I 0 W/m² -7,5 °C -6,1 °C 3,2 km/h (1 Bft)
29.12.2017 07:21 -6,1 °C -6,1 °C 90 % 1013,9 hPa 0,0 mm 0,1 km/h (0 Bft) S-SW 204 ° 0 min 0,000 mm 0,0 UV-I 0 W/m² -7,5 °C -6,1 °C 1,6 km/h (1 Bft)
29.12.2017 07:22 -6,0 °C -6,0 °C 90 % 1013,9 hPa 0,0 mm 0,0 km/h (0 Bft) S-SW 204 ° 0 min 0,000 mm 0,0 UV-I 0 W/m² -7,4 °C -6,0 °C 0,0 km/h (0 Bft)
29.12.2017 07:23 -6,0 °C -6,0 °C 90 % 1013,9 hPa 0,0 mm 1,4 km/h (1 Bft) S-SW 204 ° 0 min 0,000 mm 0,0 UV-I 0 W/m² -7,4 °C -6,0 °C 3,2 km/h (1 Bft)
29.12.2017 07:24 -6,0 °C -6,0 °C 90 % 1013,9 hPa 0,0 mm 2,2 km/h (1 Bft) S-SW 204 ° 0 min 0,000 mm 0,0 UV-I 0 W/m² -7,4 °C -6,0 °C 4,8 km/h (1 Bft)
29.12.2017 07:25 -6,0 °C -6,0 °C 90 % 1013,9 hPa 0,0 mm 3,2 km/h (1 Bft) S-SW 204 ° 0 min 0,000 mm 0,0 UV-I 0 W/m² -7,4 °C -6,0 °C 4,8 km/h (1 Bft)
29.12.2017 07:26 -6,0 °C -6,0 °C 90 % 1013,9 hPa 0,0 mm 4,6 km/h (1 Bft) S-SW 204 ° 0 min 0,000 mm 0,0 UV-I 0 W/m² -7,4 °C -8,2 °C 6,4 km/h (2 Bft)
29.12.2017 07:27 -6,0 °C -6,0 °C 90 % 1013,9 hPa 0,0 mm 5,1 km/h (1 Bft) S-SW 204 ° 0 min 0,000 mm 0,0 UV-I 0 W/m² -7,4 °C -8,5 °C 6,4 km/h (2 Bft)
29.12.2017 07:28 -5,9 °C -5,9 °C 90 % 1013,9 hPa 0,0 mm 3,4 km/h (1 Bft) S-SW 204 ° 0 min 0,000 mm 0,0 UV-I 0 W/m² -7,3 °C -5,9 °C 4,8 km/h (1 Bft)
29.12.2017 07:29 -5,9 °C -5,9 °C 90 % 1013,9 hPa 0,0 mm 1,6 km/h (1 Bft) S-SW 204 ° 0 min 0,000 mm 0,0 UV-I 0 W/m² -7,3 °C -5,9 °C 3,2 km/h (1 Bft)
29.12.2017 07:30 -5,9 °C -5,9 °C 90 % 1013,9 hPa 0,0 mm 1,9 km/h (1 Bft) S-SW 204 ° 0 min 0,000 mm 0,0 UV-I 0 W/m² -7,3 °C -5,9 °C 4,8 km/h (1 Bft)
29.12.2017 07:31 -5,9 °C -5,9 °C 90 % 1013,9 hPa 0,0 mm 0,3 km/h (0 Bft) S-SW 204 ° 0 min 0,000 mm 0,0 UV-I 0 W/m² -7,3 °C -5,9 °C 1,6 km/h (1 Bft)
29.12.2017 07:32 -5,9 °C -5,9 °C 90 % 1013,9 hPa 0,0 mm 2,2 km/h (1 Bft) S-SW 204 ° 0 min 0,000 mm 0,0 UV-I 0 W/m² -7,3 °C -5,9 °C 3,2 km/h (1 Bft)
29.12.2017 07:33 -5,9 °C -5,9 °C 90 % 1013,9 hPa 0,0 mm 0,1 km/h (0 Bft) S-SW 204 ° 0 min 0,000 mm 0,0 UV-I 0 W/m² -7,3 °C -5,9 °C 1,6 km/h (1 Bft)
29.12.2017 07:34 -5,9 °C -5,9 °C 90 % 1013,9 hPa 0,0 mm 1,7 km/h (1 Bft) S-SW 204 ° 0 min 0,000 mm 0,0 UV-I 0 W/m² -7,3 °C -5,9 °C 3,2 km/h (1 Bft)
29.12.2017 07:35 -5,9 °C -5,9 °C 90 % 1013,9 hPa 0,0 mm 1,4 km/h (1 Bft) S-SW 204 ° 0 min 0,000 mm 0,0 UV-I 0 W/m² -7,3 °C -5,9 °C 1,6 km/h (1 Bft)
29.12.2017 07:36 -5,9 °C -5,9 °C 90 % 1014,0 hPa 0,0 mm 1,1 km/h (1 Bft) S-SW 204 ° 0 min 0,000 mm 0,0 UV-I 0 W/m² -7,3 °C -5,9 °C 3,2 km/h (1 Bft)
29.12.2017 07:37 -5,9 °C -5,9 °C 90 % 1014,0 hPa 0,0 mm 0,1 km/h (0 Bft) S-SW 204 ° 0 min 0,000 mm 0,0 UV-I 0 W/m² -7,3 °C -5,9 °C 1,6 km/h (1 Bft)
29.12.2017 07:38 -5,9 °C -5,9 °C 90 % 1014,0 hPa 0,0 mm 0,8 km/h (0 Bft) S-SW 204 ° 0 min 0,000 mm 0,0 UV-I 0 W/m² -7,3 °C -5,9 °C 3,2 km/h (1 Bft)
29.12.2017 07:39 -5,9 °C -5,9 °C 90 % 1014,0 hPa 0,0 mm 0,5 km/h (0 Bft) S-SW 204 ° 0 min 0,000 mm 0,0 UV-I 0 W/m² -7,3 °C -5,9 °C 1,6 km/h (1 Bft)
29.12.2017 07:40 -5,9 °C -5,9 °C 90 % 1014,0 hPa 0,0 mm 1,2 km/h (1 Bft) S-SW 204 ° 0 min 0,000 mm 0,0 UV-I 0 W/m² -7,3 °C -5,9 °C 1,6 km/h (1 Bft)
29.12.2017 07:41 -5,9 °C -5,9 °C 90 % 1014,0 hPa 0,0 mm 3,2 km/h (1 Bft) S-SW 204 ° 0 min 0,000 mm 0,0 UV-I 0 W/m² -7,3 °C -5,9 °C 6,4 km/h (2 Bft)
29.12.2017 07:42 -5,9 °C -5,9 °C 90 % 1014,0 hPa 0,0 mm 3,7 km/h (1 Bft) S-SW 204 ° 0 min 0,000 mm 0,0 UV-I 0 W/m² -7,3 °C -5,9 °C 4,8 km/h (1 Bft)
29.12.2017 07:43 -5,9 °C -5,9 °C 90 % 1014,0 hPa 0,0 mm 1,8 km/h (1 Bft) S-SW 204 ° 0 min 0,000 mm 0,0 UV-I 0 W/m² -7,3 °C -5,9 °C 3,2 km/h (1 Bft)
29.12.2017 07:44 -5,9 °C -5,9 °C 90 % 1014,0 hPa 0,0 mm 2,2 km/h (1 Bft) S-SW 204 ° 0 min 0,000 mm 0,0 UV-I 0 W/m² -7,3 °C -5,9 °C 3,2 km/h (1 Bft)
29.12.2017 07:45 -5,9 °C -5,9 °C 89 % 1014,0 hPa 0,0 mm 1,1 km/h (1 Bft) S-SW 204 ° 0 min 0,000 mm 0,0 UV-I 0 W/m² -7,4 °C -5,9 °C 3,2 km/h (1 Bft)
29.12.2017 07:46 -5,9 °C -5,9 °C 89 % 1014,0 hPa 0,0 mm 1,5 km/h (1 Bft) S-SW 204 ° 0 min 0,000 mm 0,0 UV-I 0 W/m² -7,4 °C -5,9 °C 3,2 km/h (1 Bft)
29.12.2017 07:47 -5,9 °C -5,9 °C 89 % 1014,0 hPa 0,0 mm 0,1 km/h (0 Bft) S-SW 204 ° 0 min 0,000 mm 0,0 UV-I 0 W/m² -7,4 °C -5,9 °C 1,6 km/h (1 Bft)
29.12.2017 07:48 -6,0 °C -5,9 °C 89 % 1014,0 hPa 0,0 mm 0,8 km/h (0 Bft) S-SW 204 ° 0 min 0,000 mm 0,0 UV-I 0 W/m² -7,5 °C -6,0 °C 1,6 km/h (1 Bft)
29.12.2017 07:49 -6,0 °C -5,9 °C 89 % 1014,1 hPa 0,0 mm 1,7 km/h (1 Bft) S-SW 204 ° 0 min 0,000 mm 0,0 UV-I 0 W/m² -7,5 °C -6,0 °C 3,2 km/h (1 Bft)
29.12.2017 07:50 -6,0 °C -6,0 °C 89 % 1014,1 hPa 0,0 mm 0,7 km/h (0 Bft) S-SW 204 ° 0 min 0,000 mm 0,0 UV-I 0 W/m² -7,5 °C -6,0 °C 3,2 km/h (1 Bft)
29.12.2017 07:51 -6,0 °C -6,0 °C 89 % 1014,1 hPa 0,0 mm 0,9 km/h (0 Bft) S-SW 204 ° 0 min 0,000 mm 0,0 UV-I 0 W/m² -7,5 °C -6,0 °C 1,6 km/h (1 Bft)
29.12.2017 07:52 -6,0 °C -6,0 °C 89 % 1014,1 hPa 0,0 mm 0,0 km/h (0 Bft) S-SW 204 ° 0 min 0,000 mm 0,0 UV-I 0 W/m² -7,5 °C -6,0 °C 0,0 km/h (0 Bft)
29.12.2017 07:53 -6,0 °C -6,0 °C 89 % 1014,1 hPa 0,0 mm 0,0 km/h (0 Bft) S-SW 204 ° 0 min 0,000 mm 0,0 UV-I 0 W/m² -7,5 °C -6,0 °C 0,0 km/h (0 Bft)
29.12.2017 07:54 -6,1 °C -6,0 °C 89 % 1014,1 hPa 0,0 mm 0,0 km/h (0 Bft) S-SW 204 ° 0 min 0,000 mm 0,0 UV-I 0 W/m² -7,6 °C -6,1 °C 0,0 km/h (0 Bft)
29.12.2017 07:55 -6,1 °C -6,1 °C 89 % 1014,1 hPa 0,0 mm 0,0 km/h (0 Bft) S-SW 204 ° 0 min 0,000 mm 0,0 UV-I 0 W/m² -7,6 °C -6,1 °C 0,0 km/h (0 Bft)
29.12.2017 07:56 -6,1 °C -6,1 °C 89 % 1014,1 hPa 0,0 mm 0,0 km/h (0 Bft) S-SW 204 ° 0 min 0,000 mm 0,0 UV-I 0 W/m² -7,6 °C -6,1 °C 0,0 km/h (0 Bft)
29.12.2017 07:57 -6,1 °C -6,1 °C 89 % 1014,1 hPa 0,0 mm 0,0 km/h (0 Bft) S-SW 204 ° 0 min 0,000 mm 0,0 UV-I 0 W/m² -7,6 °C -6,1 °C 0,0 km/h (0 Bft)
29.12.2017 07:58 -6,1 °C -6,1 °C 89 % 1014,2 hPa 0,0 mm 0,0 km/h (0 Bft) S-SW 204 ° 0 min 0,000 mm 0,0 UV-I 0 W/m² -7,6 °C -6,1 °C 0,0 km/h (0 Bft)
29.12.2017 07:59 -6,1 °C -6,1 °C 89 % 1014,1 hPa 0,0 mm 0,0 km/h (0 Bft) S-SO 161 ° 0 min 0,000 mm 0,0 UV-I 0 W/m² -7,6 °C -6,1 °C 0,0 km/h (0 Bft)
29.12.2017 08:00 -6,2 °C -6,1 °C 89 % 1014,1 hPa 0,0 mm 0,0 km/h (0 Bft) S-SO 161 ° 0 min 0,000 mm 0,0 UV-I 0 W/m² -7,7 °C -6,2 °C 0,0 km/h (0 Bft)
29.12.2017 08:01 -6,2 °C -6,2 °C 89 % 1014,1 hPa 0,0 mm 0,0 km/h (0 Bft) S-SO 161 ° 0 min 0,000 mm 0,0 UV-I 0 W/m² -7,7 °C -6,2 °C 0,0 km/h (0 Bft)
29.12.2017 08:02 -6,2 °C -6,2 °C 89 % 1014,1 hPa 0,0 mm 0,0 km/h (0 Bft) S-SO 161 ° 0 min 0,000 mm 0,0 UV-I 0 W/m² -7,7 °C -6,2 °C 0,0 km/h (0 Bft)
29.12.2017 08:03 -6,2 °C -6,2 °C 89 % 1014,1 hPa 0,0 mm 0,0 km/h (0 Bft) S-SO 161 ° 0 min 0,000 mm 0,0 UV-I 0 W/m² -7,7 °C -6,2 °C 0,0 km/h (0 Bft)
29.12.2017 08:04 -6,3 °C -6,2 °C 89 % 1014,0 hPa 0,0 mm 0,0 km/h (0 Bft) S-SO 161 ° 0 min 0,000 mm 0,0 UV-I 0 W/m² -7,8 °C -6,3 °C 0,0 km/h (0 Bft)
29.12.2017 08:05 -6,3 °C -6,2 °C 89 % 1014,0 hPa 0,0 mm 0,0 km/h (0 Bft) S-SO 161 ° 0 min 0,000 mm 0,0 UV-I 0 W/m² -7,8 °C -6,3 °C 0,0 km/h (0 Bft)
29.12.2017 08:06 -6,3 °C -6,3 °C 88 % 1014,0 hPa 0,0 mm 0,0 km/h (0 Bft) S-SO 161 ° 0 min 0,000 mm 0,0 UV-I 0 W/m² -8,0 °C -6,3 °C 0,0 km/h (0 Bft)
29.12.2017 08:07 -6,3 °C -6,3 °C 89 % 1014,0 hPa 0,0 mm 0,0 km/h (0 Bft) S-SO 161 ° 0 min 0,000 mm 0,0 UV-I 0 W/m² -7,8 °C -6,3 °C 0,0 km/h (0 Bft)
29.12.2017 08:08 -6,3 °C -6,3 °C 88 % 1014,0 hPa 0,0 mm 0,0 km/h (0 Bft) S-SO 161 ° 0 min 0,000 mm 0,0 UV-I 0 W/m² -8,0 °C -6,3 °C 0,0 km/h (0 Bft)
29.12.2017 08:09 -6,3 °C -6,3 °C 89 % 1014,0 hPa 0,0 mm 0,0 km/h (0 Bft) S-SO 161 ° 0 min 0,000 mm 0,0 UV-I 0 W/m² -7,8 °C -6,3 °C 0,0 km/h (0 Bft)
29.12.2017 08:10 -6,4 °C -6,3 °C 88 % 1014,0 hPa 0,0 mm 0,0 km/h (0 Bft) S-SO 161 ° 0 min 0,000 mm 0,0 UV-I 0 W/m² -8,1 °C -6,4 °C 0,0 km/h (0 Bft)
29.12.2017 08:11 -6,4 °C -6,4 °C 88 % 1014,0 hPa 0,0 mm 0,0 km/h (0 Bft) S-SO 161 ° 0 min 0,000 mm 0,0 UV-I 0 W/m² -8,1 °C -6,4 °C 0,0 km/h (0 Bft)
29.12.2017 08:12 -6,4 °C -6,4 °C 88 % 1014,0 hPa 0,0 mm 0,0 km/h (0 Bft) S-SO 161 ° 0 min 0,000 mm 0,0 UV-I 0 W/m² -8,1 °C -6,4 °C 0,0 km/h (0 Bft)
29.12.2017 08:13 -6,4 °C -6,4 °C 88 % 1014,0 hPa 0,0 mm 0,0 km/h (0 Bft) S-SO 161 ° 0 min 0,000 mm 0,0 UV-I 0 W/m² -8,1 °C -6,4 °C 0,0 km/h (0 Bft)
29.12.2017 08:14 -6,4 °C -6,4 °C 88 % 1014,0 hPa 0,0 mm 0,0 km/h (0 Bft) S-SO 161 ° 0 min 0,000 mm 0,0 UV-I 0 W/m² -8,1 °C -6,4 °C 0,0 km/h (0 Bft)
29.12.2017 08:15 -6,4 °C -6,4 °C 88 % 1014,0 hPa 0,0 mm 0,0 km/h (0 Bft) S-SO 161 ° 0 min 0,000 mm 0,0 UV-I 0 W/m² -8,1 °C -6,4 °C 0,0 km/h (0 Bft)
29.12.2017 08:16 -6,5 °C -6,4 °C 88 % 1014,0 hPa 0,0 mm 0,0 km/h (0 Bft) S-SO 161 ° 0 min 0,000 mm 0,0 UV-I 0 W/m² -8,1 °C -6,5 °C 0,0 km/h (0 Bft)
29.12.2017 08:17 -6,6 °C -6,5 °C 88 % 1014,0 hPa 0,0 mm 0,0 km/h (0 Bft) S-SO 161 ° 0 min 0,000 mm 0,0 UV-I 0 W/m² -8,2 °C -6,6 °C 0,0 km/h (0 Bft)
29.12.2017 08:18 -6,6 °C -6,5 °C 88 % 1014,0 hPa 0,0 mm 0,0 km/h (0 Bft) S-SO 161 ° 0 min 0,000 mm 0,0 UV-I 0 W/m² -8,2 °C -6,6 °C 0,0 km/h (0 Bft)
29.12.2017 08:19 -6,6 °C -6,6 °C 88 % 1014,1 hPa 0,0 mm 0,0 km/h (0 Bft) S-SO 161 ° 0 min 0,000 mm 0,0 UV-I 0 W/m² -8,2 °C -6,6 °C 0,0 km/h (0 Bft)
29.12.2017 08:20 -6,6 °C -6,6 °C 88 % 1014,1 hPa 0,0 mm 0,0 km/h (0 Bft) S-SO 161 ° 0 min 0,000 mm 0,0 UV-I 0 W/m² -8,2 °C -6,6 °C 0,0 km/h (0 Bft)
29.12.2017 08:21 -6,6 °C -6,6 °C 88 % 1014,1 hPa 0,0 mm 0,0 km/h (0 Bft) S-SO 161 ° 0 min 0,000 mm 0,0 UV-I 0 W/m² -8,2 °C -6,6 °C 0,0 km/h (0 Bft)
29.12.2017 08:22 -6,6 °C -6,6 °C 88 % 1014,2 hPa 0,0 mm 0,0 km/h (0 Bft) S-SO 161 ° 0 min 0,000 mm 0,0 UV-I 0 W/m² -8,2 °C -6,6 °C 0,0 km/h (0 Bft)
29.12.2017 08:23 -6,7 °C -6,6 °C 88 % 1014,1 hPa 0,0 mm 0,0 km/h (0 Bft) S-SO 161 ° 0 min 0,000 mm 0,0 UV-I 0 W/m² -8,3 °C -6,7 °C 0,0 km/h (0 Bft)
29.12.2017 08:24 -6,7 °C -6,7 °C 88 % 1014,2 hPa 0,0 mm 0,0 km/h (0 Bft) S-SO 161 ° 0 min 0,000 mm 0,0 UV-I 0 W/m² -8,3 °C -6,7 °C 0,0 km/h (0 Bft)
29.12.2017 08:25 -6,7 °C -6,7 °C 88 % 1014,2 hPa 0,0 mm 0,0 km/h (0 Bft) S-SO 161 ° 0 min 0,000 mm 0,0 UV-I 0 W/m² -8,3 °C -6,7 °C 0,0 km/h (0 Bft)
29.12.2017 08:26 -6,7 °C -6,7 °C 88 % 1014,2 hPa 0,0 mm 0,0 km/h (0 Bft) S-SO 161 ° 0 min 0,000 mm 0,0 UV-I 0 W/m² -8,3 °C -6,7 °C 0,0 km/h (0 Bft)
29.12.2017 08:27 -6,7 °C -6,7 °C 88 % 1014,2 hPa 0,0 mm 2,3 km/h (1 Bft) SW 236 ° 0 min 0,000 mm 0,0 UV-I 0 W/m² -8,3 °C -6,7 °C 4,8 km/h (1 Bft)
29.12.2017 08:28 -6,8 °C -6,7 °C 88 % 1014,2 hPa 0,0 mm 0,7 km/h (0 Bft) SW 236 ° 0 min 0,000 mm 0,0 UV-I 0 W/m² -8,4 °C -6,8 °C 1,6 km/h (1 Bft)
29.12.2017 08:29 -6,8 °C -6,8 °C 89 % 1014,2 hPa 0,0 mm 0,0 km/h (0 Bft) SW 236 ° 0 min 0,000 mm 0,0 UV-I 0 W/m² -8,3 °C -6,8 °C 0,0 km/h (0 Bft)
29.12.2017 08:30 -6,8 °C -6,8 °C 89 % 1014,2 hPa 0,0 mm 0,5 km/h (0 Bft) SW 236 ° 0 min 0,000 mm 0,0 UV-I 5 W/m² -8,3 °C -6,8 °C 1,6 km/h (1 Bft)
29.12.2017 08:31 -6,8 °C -6,8 °C 89 % 1014,2 hPa 0,0 mm 0,0 km/h (0 Bft) SW 236 ° 0 min 0,000 mm 0,0 UV-I 5 W/m² -8,3 °C -6,8 °C 0,0 km/h (0 Bft)
29.12.2017 08:32 -6,8 °C -6,8 °C 89 % 1014,2 hPa 0,0 mm 0,0 km/h (0 Bft) SW 236 ° 0 min 0,000 mm 0,0 UV-I 5 W/m² -8,3 °C -6,8 °C 0,0 km/h (0 Bft)
29.12.2017 08:33 -6,8 °C -6,8 °C 89 % 1014,2 hPa 0,0 mm 0,5 km/h (0 Bft) SW 236 ° 0 min 0,000 mm 0,0 UV-I 5 W/m² -8,3 °C -6,8 °C 1,6 km/h (1 Bft)
29.12.2017 08:34 -6,8 °C -6,8 °C 89 % 1014,2 hPa 0,0 mm 0,3 km/h (0 Bft) SW 236 ° 0 min 0,000 mm 0,0 UV-I 5 W/m² -8,3 °C -6,8 °C 1,6 km/h (1 Bft)
29.12.2017 08:35 -6,8 °C -6,8 °C 89 % 1014,2 hPa 0,0 mm 0,0 km/h (0 Bft) SW 236 ° 0 min 0,000 mm 0,0 UV-I 5 W/m² -8,3 °C -6,8 °C 0,0 km/h (0 Bft)
29.12.2017 08:36 -6,9 °C -6,8 °C 89 % 1014,2 hPa 0,0 mm 0,0 km/h (0 Bft) SW 236 ° 0 min 0,000 mm 0,0 UV-I 5 W/m² -8,4 °C -6,9 °C 0,0 km/h (0 Bft)
29.12.2017 08:37 -6,9 °C -6,8 °C 89 % 1014,2 hPa 0,0 mm 0,1 km/h (0 Bft) SW 236 ° 0 min 0,000 mm 0,0 UV-I 5 W/m² -8,4 °C -6,9 °C 1,6 km/h (1 Bft)
29.12.2017 08:38 -6,9 °C -6,8 °C 89 % 1014,3 hPa 0,0 mm 0,1 km/h (0 Bft) SW 236 ° 0 min 0,000 mm 0,0 UV-I 5 W/m² -8,4 °C -6,9 °C 1,6 km/h (1 Bft)
29.12.2017 08:39 -6,9 °C -6,9 °C 89 % 1014,2 hPa 0,0 mm 0,0 km/h (0 Bft) SW 236 ° 0 min 0,000 mm 0,0 UV-I 5 W/m² -8,4 °C -6,9 °C 0,0 km/h (0 Bft)
29.12.2017 08:40 -6,9 °C -6,9 °C 89 % 1014,3 hPa 0,0 mm 0,0 km/h (0 Bft) SW 236 ° 0 min 0,000 mm 0,0 UV-I 5 W/m² -8,4 °C -6,9 °C 0,0 km/h (0 Bft)
29.12.2017 08:41 -6,9 °C -6,9 °C 89 % 1014,2 hPa 0,0 mm 0,0 km/h (0 Bft) SW 236 ° 0 min 0,000 mm 0,0 UV-I 5 W/m² -8,4 °C -6,9 °C 0,0 km/h (0 Bft)
29.12.2017 08:42 -6,9 °C -6,9 °C 89 % 1014,3 hPa 0,0 mm 0,5 km/h (0 Bft) SW 236 ° 0 min 0,000 mm 0,0 UV-I 5 W/m² -8,4 °C -6,9 °C 1,6 km/h (1 Bft)
29.12.2017 08:43 -6,9 °C -6,9 °C 89 % 1014,3 hPa 0,0 mm 0,0 km/h (0 Bft) SW 236 ° 0 min 0,000 mm 0,0 UV-I 5 W/m² -8,4 °C -6,9 °C 0,0 km/h (0 Bft)
29.12.2017 08:44 -6,9 °C -6,9 °C 89 % 1014,2 hPa 0,0 mm 1,6 km/h (1 Bft) S-SW 208 ° 0 min 0,000 mm 0,0 UV-I 5 W/m² -8,4 °C -6,9 °C 4,8 km/h (1 Bft)
29.12.2017 08:45 -6,9 °C -6,9 °C 89 % 1014,3 hPa 0,0 mm 2,5 km/h (1 Bft) S-SW 209 ° 0 min 0,000 mm 0,0 UV-I 5 W/m² -8,4 °C -6,9 °C 3,2 km/h (1 Bft)
29.12.2017 08:46 -6,9 °C -6,9 °C 89 % 1014,3 hPa 0,0 mm 0,4 km/h (0 Bft) S-SW 209 ° 0 min 0,000 mm 0,0 UV-I 5 W/m² -8,4 °C -6,9 °C 1,6 km/h (1 Bft)
29.12.2017 08:47 -6,9 °C -6,9 °C 89 % 1014,3 hPa 0,0 mm 0,0 km/h (0 Bft) S-SW 209 ° 0 min 0,000 mm 0,0 UV-I 5 W/m² -8,4 °C -6,9 °C 0,0 km/h (0 Bft)
29.12.2017 08:48 -6,9 °C -6,9 °C 89 % 1014,4 hPa 0,0 mm 0,0 km/h (0 Bft) S-SW 209 ° 0 min 0,000 mm 0,0 UV-I 5 W/m² -8,4 °C -6,9 °C 0,0 km/h (0 Bft)
29.12.2017 08:49 -6,9 °C -6,9 °C 89 % 1014,4 hPa 0,0 mm 0,4 km/h (0 Bft) S-SW 209 ° 0 min 0,000 mm 0,0 UV-I 5 W/m² -8,4 °C -6,9 °C 1,6 km/h (1 Bft)
29.12.2017 08:50 -6,9 °C -6,9 °C 89 % 1014,4 hPa 0,0 mm 0,6 km/h (0 Bft) S-SW 209 ° 0 min 0,000 mm 0,0 UV-I 5 W/m² -8,4 °C -6,9 °C 3,2 km/h (1 Bft)
29.12.2017 08:51 -6,9 °C -6,9 °C 89 % 1014,4 hPa 0,0 mm 2,8 km/h (1 Bft) S 180 ° 0 min 0,000 mm 0,0 UV-I 5 W/m² -8,4 °C -6,9 °C 4,8 km/h (1 Bft)
29.12.2017 08:52 -6,9 °C -6,9 °C 89 % 1014,4 hPa 0,0 mm 3,6 km/h (1 Bft) S 180 ° 0 min 0,000 mm 0,0 UV-I 5 W/m² -8,4 °C -6,9 °C 4,8 km/h (1 Bft)
29.12.2017 08:53 -6,9 °C -6,9 °C 89 % 1014,4 hPa 0,0 mm 1,9 km/h (1 Bft) S 180 ° 0 min 0,000 mm 0,0 UV-I 5 W/m² -8,4 °C -6,9 °C 3,2 km/h (1 Bft)
29.12.2017 08:54 -6,9 °C -6,9 °C 89 % 1014,3 hPa 0,0 mm 0,0 km/h (0 Bft) S 180 ° 0 min 0,000 mm 0,0 UV-I 5 W/m² -8,4 °C -6,9 °C 0,0 km/h (0 Bft)
29.12.2017 08:55 -6,9 °C -6,9 °C 89 % 1014,4 hPa 0,0 mm 0,2 km/h (0 Bft) S 180 ° 0 min 0,000 mm 0,0 UV-I 5 W/m² -8,4 °C -6,9 °C 1,6 km/h (1 Bft)
29.12.2017 08:56 -6,9 °C -6,9 °C 89 % 1014,3 hPa 0,0 mm 3,8 km/h (1 Bft) S-SW 196 ° 0 min 0,000 mm 0,0 UV-I 5 W/m² -8,4 °C -6,9 °C 6,4 km/h (2 Bft)
29.12.2017 08:57 -6,9 °C -6,9 °C 90 % 1014,3 hPa 0,0 mm 2,0 km/h (1 Bft) S-SW 196 ° 0 min 0,000 mm 0,0 UV-I 5 W/m² -8,3 °C -6,9 °C 4,8 km/h (1 Bft)
29.12.2017 08:58 -6,9 °C -6,9 °C 90 % 1014,3 hPa 0,0 mm 2,3 km/h (1 Bft) S-SW 196 ° 0 min 0,000 mm 0,0 UV-I 5 W/m² -8,3 °C -6,9 °C 3,2 km/h (1 Bft)
29.12.2017 08:59 -6,9 °C -6,9 °C 90 % 1014,3 hPa 0,0 mm 1,3 km/h (1 Bft) S-SW 196 ° 0 min 0,000 mm 0,0 UV-I 5 W/m² -8,3 °C -6,9 °C 3,2 km/h (1 Bft)
29.12.2017 09:00 -6,9 °C -6,9 °C 90 % 1014,3 hPa 0,0 mm 2,7 km/h (1 Bft) S-SW 196 ° 0 min 0,000 mm 0,0 UV-I 5 W/m² -8,3 °C -6,9 °C 3,2 km/h (1 Bft)
29.12.2017 09:01 -6,9 °C -6,9 °C 90 % 1014,3 hPa 0,0 mm 1,7 km/h (1 Bft) S-SW 196 ° 0 min 0,000 mm 0,0 UV-I 5 W/m² -8,3 °C -6,9 °C 3,2 km/h (1 Bft)
29.12.2017 09:02 -6,9 °C -6,9 °C 90 % 1014,3 hPa 0,0 mm 0,7 km/h (0 Bft) S-SW 196 ° 0 min 0,000 mm 0,0 UV-I 5 W/m² -8,3 °C -6,9 °C 3,2 km/h (1 Bft)
29.12.2017 09:03 -6,9 °C -6,9 °C 90 % 1014,3 hPa 0,0 mm 1,1 km/h (1 Bft) S-SW 196 ° 0 min 0,000 mm 0,0 UV-I 5 W/m² -8,3 °C -6,9 °C 3,2 km/h (1 Bft)
29.12.2017 09:04 -6,9 °C -6,9 °C 90 % 1014,3 hPa 0,0 mm 0,0 km/h (0 Bft) S 188 ° 0 min 0,000 mm 0,0 UV-I 5 W/m² -8,3 °C -6,9 °C 0,0 km/h (0 Bft)
29.12.2017 09:05 -6,9 °C -6,9 °C 90 % 1014,3 hPa 0,0 mm 0,7 km/h (0 Bft) S 188 ° 0 min 0,000 mm 0,0 UV-I 5 W/m² -8,3 °C -6,9 °C 3,2 km/h (1 Bft)
29.12.2017 09:06 -6,9 °C -6,9 °C 90 % 1014,3 hPa 0,0 mm 2,2 km/h (1 Bft) S 188 ° 0 min 0,000 mm 0,0 UV-I 5 W/m² -8,3 °C -6,9 °C 3,2 km/h (1 Bft)
29.12.2017 09:07 -6,9 °C -6,9 °C 90 % 1014,3 hPa 0,0 mm 2,3 km/h (1 Bft) S 188 ° 0 min 0,000 mm 0,0 UV-I 5 W/m² -8,3 °C -6,9 °C 4,8 km/h (1 Bft)
29.12.2017 09:08 -6,9 °C -6,9 °C 90 % 1014,3 hPa 0,0 mm 2,2 km/h (1 Bft) S 188 ° 0 min 0,000 mm 0,0 UV-I 5 W/m² -8,3 °C -6,9 °C 4,8 km/h (1 Bft)
29.12.2017 09:09 -6,9 °C -6,9 °C 90 % 1014,4 hPa 0,0 mm 3,7 km/h (1 Bft) S-SW 209 ° 0 min 0,000 mm 0,0 UV-I 5 W/m² -8,3 °C -6,9 °C 6,4 km/h (2 Bft)
29.12.2017 09:10 -6,9 °C -6,9 °C 90 % 1014,4 hPa 0,0 mm 5,3 km/h (1 Bft) S-SW 206 ° 0 min 0,000 mm 0,0 UV-I 5 W/m² -8,3 °C -9,6 °C 11,3 km/h (2 Bft)
29.12.2017 09:11 -6,9 °C -6,9 °C 90 % 1014,4 hPa 0,0 mm 8,0 km/h (2 Bft) S-SW 211 ° 0 min 0,000 mm 0,0 UV-I 5 W/m² -8,3 °C -10,8 °C 9,7 km/h (2 Bft)
29.12.2017 09:12 -6,9 °C -6,9 °C 90 % 1014,4 hPa 0,0 mm 6,2 km/h (2 Bft) S-SW 204 ° 0 min 0,000 mm 0,0 UV-I 5 W/m² -8,3 °C -10,1 °C 8,0 km/h (2 Bft)
29.12.2017 09:13 -6,9 °C -6,9 °C 90 % 1014,4 hPa 0,0 mm 4,4 km/h (1 Bft) S 186 ° 0 min 0,000 mm 0,0 UV-I 5 W/m² -8,3 °C -6,9 °C 6,4 km/h (2 Bft)
29.12.2017 09:14 -6,9 °C -6,9 °C 89 % 1014,4 hPa 0,0 mm 3,7 km/h (1 Bft) S-SW 204 ° 0 min 0,000 mm 0,0 UV-I 5 W/m² -8,4 °C -6,9 °C 4,8 km/h (1 Bft)
29.12.2017 09:15 -6,9 °C -6,9 °C 89 % 1014,4 hPa 0,0 mm 5,4 km/h (1 Bft) S-SW 205 ° 0 min 0,000 mm 0,0 UV-I 5 W/m² -8,4 °C -9,6 °C 8,0 km/h (2 Bft)
29.12.2017 09:16 -7,0 °C -6,9 °C 89 % 1014,4 hPa 0,0 mm 4,8 km/h (1 Bft) S-SW 205 ° 0 min 0,000 mm 0,0 UV-I 5 W/m² -8,5 °C -9,4 °C 6,4 km/h (2 Bft)
29.12.2017 09:17 -7,0 °C -6,9 °C 89 % 1014,4 hPa 0,0 mm 6,7 km/h (2 Bft) S-SW 211 ° 0 min 0,000 mm 0,0 UV-I 7 W/m² -8,5 °C -10,4 °C 9,7 km/h (2 Bft)
29.12.2017 09:18 -6,9 °C -6,9 °C 89 % 1014,4 hPa 0,0 mm 4,3 km/h (1 Bft) S 185 ° 0 min 0,000 mm 0,0 UV-I 7 W/m² -8,4 °C -6,9 °C 6,4 km/h (2 Bft)
29.12.2017 09:19 -6,9 °C -6,9 °C 89 % 1014,5 hPa 0,0 mm 5,9 km/h (2 Bft) S-SW 202 ° 0 min 0,000 mm 0,0 UV-I 7 W/m² -8,4 °C -9,9 °C 8,0 km/h (2 Bft)
29.12.2017 09:20 -6,9 °C -6,9 °C 89 % 1014,5 hPa 0,0 mm 2,2 km/h (1 Bft) S 181 ° 0 min 0,000 mm 0,0 UV-I 7 W/m² -8,4 °C -6,9 °C 4,8 km/h (1 Bft)
29.12.2017 09:21 -6,9 °C -6,9 °C 89 % 1014,5 hPa 0,0 mm 2,3 km/h (1 Bft) S 179 ° 0 min 0,000 mm 0,0 UV-I 7 W/m² -8,4 °C -6,9 °C 4,8 km/h (1 Bft)
29.12.2017 09:22 -6,9 °C -6,9 °C 89 % 1014,5 hPa 0,0 mm 1,6 km/h (1 Bft) S 179 ° 0 min 0,000 mm 0,0 UV-I 7 W/m² -8,4 °C -6,9 °C 3,2 km/h (1 Bft)
29.12.2017 09:23 -6,9 °C -6,9 °C 89 % 1014,5 hPa 0,0 mm 2,9 km/h (1 Bft) S 179 ° 0 min 0,000 mm 0,0 UV-I 7 W/m² -8,4 °C -6,9 °C 4,8 km/h (1 Bft)
29.12.2017 09:24 -6,9 °C -6,9 °C 89 % 1014,5 hPa 0,0 mm 4,7 km/h (1 Bft) S-SO 167 ° 0 min 0,000 mm 0,0 UV-I 7 W/m² -8,4 °C -9,2 °C 6,4 km/h (2 Bft)
29.12.2017 09:25 -6,9 °C -6,9 °C 89 % 1014,5 hPa 0,0 mm 4,0 km/h (1 Bft) S 188 ° 0 min 0,000 mm 0,0 UV-I 7 W/m² -8,4 °C -6,9 °C 6,4 km/h (2 Bft)
29.12.2017 09:26 -6,9 °C -6,9 °C 89 % 1014,5 hPa 0,0 mm 2,9 km/h (1 Bft) S-SW 196 ° 0 min 0,000 mm 0,0 UV-I 7 W/m² -8,4 °C -6,9 °C 3,2 km/h (1 Bft)
29.12.2017 09:27 -6,9 °C -6,9 °C 89 % 1014,5 hPa 0,0 mm 2,5 km/h (1 Bft) S-SW 196 ° 0 min 0,000 mm 0,0 UV-I 7 W/m² -8,4 °C -6,9 °C 3,2 km/h (1 Bft)
29.12.2017 09:28 -6,9 °C -6,9 °C 89 % 1014,4 hPa 0,0 mm 2,1 km/h (1 Bft) S-SW 196 ° 0 min 0,000 mm 0,0 UV-I 7 W/m² -8,4 °C -6,9 °C 3,2 km/h (1 Bft)
29.12.2017 09:29 -6,9 °C -6,9 °C 89 % 1014,4 hPa 0,0 mm 2,1 km/h (1 Bft) S-SW 196 ° 0 min 0,000 mm 0,0 UV-I 7 W/m² -8,4 °C -6,9 °C 3,2 km/h (1 Bft)
29.12.2017 09:30 -6,9 °C -6,9 °C 89 % 1014,4 hPa 0,0 mm 1,6 km/h (1 Bft) S-SW 196 ° 0 min 0,000 mm 0,0 UV-I 7 W/m² -8,4 °C -6,9 °C 3,2 km/h (1 Bft)
29.12.2017 09:31 -6,9 °C -6,8 °C 90 % 1014,3 hPa 0,0 mm 2,2 km/h (1 Bft) S-SW 196 ° 0 min 0,000 mm 0,0 UV-I 7 W/m² -8,3 °C -6,9 °C 3,2 km/h (1 Bft)
29.12.2017 09:32 -6,8 °C -6,8 °C 89 % 1014,3 hPa 0,0 mm 1,6 km/h (1 Bft) S-SW 196 ° 0 min 0,000 mm 0,0 UV-I 7 W/m² -8,3 °C -6,8 °C 3,2 km/h (1 Bft)
29.12.2017 09:33 -6,8 °C -6,8 °C 90 % 1014,3 hPa 0,0 mm 1,0 km/h (0 Bft) S-SW 196 ° 0 min 0,000 mm 0,0 UV-I 7 W/m² -8,2 °C -6,8 °C 3,2 km/h (1 Bft)
29.12.2017 09:34 -6,8 °C -6,8 °C 90 % 1014,3 hPa 0,0 mm 0,0 km/h (0 Bft) S-SW 196 ° 0 min 0,000 mm 0,0 UV-I 7 W/m² -8,2 °C -6,8 °C 0,0 km/h (0 Bft)
29.12.2017 09:35 -6,8 °C -6,8 °C 90 % 1014,3 hPa 0,0 mm 0,0 km/h (0 Bft) S-SW 196 ° 0 min 0,000 mm 0,0 UV-I 7 W/m² -8,2 °C -6,8 °C 0,0 km/h (0 Bft)
29.12.2017 09:36 -6,8 °C -6,8 °C 90 % 1014,3 hPa 0,0 mm 0,0 km/h (0 Bft) S-SW 196 ° 0 min 0,000 mm 0,0 UV-I 7 W/m² -8,2 °C -6,8 °C 0,0 km/h (0 Bft)
29.12.2017 09:37 -6,8 °C -6,8 °C 90 % 1014,2 hPa 0,0 mm 0,0 km/h (0 Bft) S-SW 196 ° 0 min 0,000 mm 0,0 UV-I 7 W/m² -8,2 °C -6,8 °C 0,0 km/h (0 Bft)
29.12.2017 09:38 -6,8 °C -6,8 °C 90 % 1014,3 hPa 0,0 mm 0,0 km/h (0 Bft) S-SW 196 ° 0 min 0,000 mm 0,0 UV-I 7 W/m² -8,2 °C -6,8 °C 0,0 km/h (0 Bft)
29.12.2017 09:39 -6,8 °C -6,8 °C 89 % 1014,3 hPa 0,0 mm 0,0 km/h (0 Bft) S-SW 196 ° 0 min 0,000 mm 0,0 UV-I 7 W/m² -8,3 °C -6,8 °C 0,0 km/h (0 Bft)
29.12.2017 09:40 -6,8 °C -6,8 °C 89 % 1014,3 hPa 0,0 mm 0,2 km/h (0 Bft) S-SW 196 ° 0 min 0,000 mm 0,0 UV-I 7 W/m² -8,3 °C -6,8 °C 1,6 km/h (1 Bft)
29.12.2017 09:41 -6,8 °C -6,8 °C 89 % 1014,3 hPa 0,0 mm 0,0 km/h (0 Bft) S-SW 196 ° 0 min 0,000 mm 0,0 UV-I 7 W/m² -8,3 °C -6,8 °C 0,0 km/h (0 Bft)
29.12.2017 09:42 -6,8 °C -6,8 °C 89 % 1014,3 hPa 0,0 mm 1,0 km/h (0 Bft) S-SW 196 ° 0 min 0,000 mm 0,0 UV-I 7 W/m² -8,3 °C -6,8 °C 1,6 km/h (1 Bft)
29.12.2017 09:43 -6,8 °C -6,8 °C 89 % 1014,3 hPa 0,0 mm 0,2 km/h (0 Bft) S-SW 196 ° 0 min 0,000 mm 0,0 UV-I 7 W/m² -8,3 °C -6,8 °C 1,6 km/h (1 Bft)
29.12.2017 09:44 -6,8 °C -6,8 °C 89 % 1014,3 hPa 0,0 mm 0,0 km/h (0 Bft) S-SW 196 ° 0 min 0,000 mm 0,0 UV-I 7 W/m² -8,3 °C -6,8 °C 0,0 km/h (0 Bft)
29.12.2017 09:45 -6,8 °C -6,8 °C 89 % 1014,3 hPa 0,0 mm 0,0 km/h (0 Bft) S-SW 196 ° 0 min 0,000 mm 0,0 UV-I 7 W/m² -8,3 °C -6,8 °C 0,0 km/h (0 Bft)
29.12.2017 09:46 -6,8 °C -6,8 °C 89 % 1014,3 hPa 0,0 mm 0,0 km/h (0 Bft) S-SW 196 ° 0 min 0,000 mm 0,0 UV-I 7 W/m² -8,3 °C -6,8 °C 0,0 km/h (0 Bft)
29.12.2017 09:47 -6,8 °C -6,8 °C 89 % 1014,3 hPa 0,0 mm 0,0 km/h (0 Bft) S-SW 196 ° 0 min 0,000 mm 0,0 UV-I 7 W/m² -8,3 °C -6,8 °C 0,0 km/h (0 Bft)
29.12.2017 09:48 -6,8 °C -6,8 °C 89 % 1014,3 hPa 0,0 mm 0,0 km/h (0 Bft) S-SW 196 ° 0 min 0,000 mm 0,0 UV-I 7 W/m² -8,3 °C -6,8 °C 0,0 km/h (0 Bft)
29.12.2017 09:49 -6,8 °C -6,8 °C 89 % 1014,3 hPa 0,0 mm 0,0 km/h (0 Bft) S-SW 196 ° 0 min 0,000 mm 0,0 UV-I 7 W/m² -8,3 °C -6,8 °C 0,0 km/h (0 Bft)
29.12.2017 09:50 -6,8 °C -6,8 °C 89 % 1014,3 hPa 0,0 mm 0,0 km/h (0 Bft) S-SW 196 ° 0 min 0,000 mm 0,0 UV-I 7 W/m² -8,3 °C -6,8 °C 0,0 km/h (0 Bft)
29.12.2017 09:51 -6,8 °C -6,8 °C 89 % 1014,3 hPa 0,0 mm 0,0 km/h (0 Bft) S-SW 196 ° 0 min 0,000 mm 0,0 UV-I 7 W/m² -8,3 °C -6,8 °C 0,0 km/h (0 Bft)
29.12.2017 09:52 -6,8 °C -6,8 °C 89 % 1014,3 hPa 0,0 mm 0,0 km/h (0 Bft) S-SW 196 ° 0 min 0,000 mm 0,0 UV-I 7 W/m² -8,3 °C -6,8 °C 0,0 km/h (0 Bft)
29.12.2017 09:53 -6,8 °C -6,8 °C 89 % 1014,3 hPa 0,0 mm 0,0 km/h (0 Bft) S-SW 196 ° 0 min 0,000 mm 0,0 UV-I 7 W/m² -8,3 °C -6,8 °C 0,0 km/h (0 Bft)
29.12.2017 09:54 -6,8 °C -6,8 °C 89 % 1014,3 hPa 0,0 mm 0,1 km/h (0 Bft) S-SW 196 ° 0 min 0,000 mm 0,0 UV-I 7 W/m² -8,3 °C -6,8 °C 1,6 km/h (1 Bft)
29.12.2017 09:55 -6,8 °C -6,8 °C 89 % 1014,3 hPa 0,0 mm 0,8 km/h (0 Bft) S-SW 196 ° 0 min 0,000 mm 0,0 UV-I 7 W/m² -8,3 °C -6,8 °C 1,6 km/h (1 Bft)
29.12.2017 09:56 -6,8 °C -6,8 °C 89 % 1014,3 hPa 0,0 mm 0,0 km/h (0 Bft) S-SW 196 ° 0 min 0,000 mm 0,0 UV-I 7 W/m² -8,3 °C -6,8 °C 0,0 km/h (0 Bft)
29.12.2017 09:57 -6,8 °C -6,8 °C 90 % 1014,3 hPa 0,0 mm 1,1 km/h (1 Bft) S-SW 196 ° 0 min 0,000 mm 0,0 UV-I 7 W/m² -8,2 °C -6,8 °C 1,6 km/h (1 Bft)
29.12.2017 09:58 -6,8 °C -6,8 °C 90 % 1014,2 hPa 0,0 mm 2,5 km/h (1 Bft) S-SW 196 ° 0 min 0,000 mm 0,0 UV-I 7 W/m² -8,2 °C -6,8 °C 3,2 km/h (1 Bft)
29.12.2017 09:59 -6,7 °C -6,7 °C 90 % 1014,2 hPa 0,0 mm 0,3 km/h (0 Bft) S-SW 196 ° 0 min 0,000 mm 0,0 UV-I 7 W/m² -8,1 °C -6,7 °C 1,6 km/h (1 Bft)
29.12.2017 10:00 -6,8 °C -6,7 °C 90 % 1014,2 hPa 0,0 mm 0,0 km/h (0 Bft) S-SW 196 ° 0 min 0,000 mm 0,0 UV-I 7 W/m² -8,2 °C -6,8 °C 0,0 km/h (0 Bft)
29.12.2017 10:01 -6,8 °C -6,7 °C 90 % 1014,1 hPa 0,0 mm 0,0 km/h (0 Bft) S-SW 196 ° 0 min 0,000 mm 0,0 UV-I 7 W/m² -8,2 °C -6,8 °C 0,0 km/h (0 Bft)
29.12.2017 10:02 -6,7 °C -6,7 °C 90 % 1014,2 hPa 0,0 mm 0,4 km/h (0 Bft) S-SW 196 ° 0 min 0,000 mm 0,0 UV-I 7 W/m² -8,1 °C -6,7 °C 1,6 km/h (1 Bft)
29.12.2017 10:03 -6,7 °C -6,7 °C 90 % 1014,1 hPa 0,0 mm 0,0 km/h (0 Bft) S-SW 196 ° 0 min 0,000 mm 0,0 UV-I 7 W/m² -8,1 °C -6,7 °C 0,0 km/h (0 Bft)
29.12.2017 10:04 -6,7 °C -6,7 °C 90 % 1014,1 hPa 0,0 mm 0,0 km/h (0 Bft) S-SW 196 ° 0 min 0,000 mm 0,0 UV-I 7 W/m² -8,1 °C -6,7 °C 0,0 km/h (0 Bft)
29.12.2017 10:05 -6,7 °C -6,7 °C 90 % 1014,1 hPa 0,0 mm 0,0 km/h (0 Bft) S-SW 196 ° 0 min 0,000 mm 0,0 UV-I 7 W/m² -8,1 °C -6,7 °C 0,0 km/h (0 Bft)
29.12.2017 10:06 -6,7 °C -6,7 °C 90 % 1014,2 hPa 0,0 mm 0,0 km/h (0 Bft) S-SW 196 ° 0 min 0,000 mm 0,0 UV-I 7 W/m² -8,1 °C -6,7 °C 0,0 km/h (0 Bft)
29.12.2017 10:07 -6,7 °C -6,7 °C 90 % 1014,2 hPa 0,0 mm 0,5 km/h (0 Bft) S-SW 196 ° 0 min 0,000 mm 0,0 UV-I 7 W/m² -8,1 °C -6,7 °C 1,6 km/h (1 Bft)
29.12.2017 10:08 -6,7 °C -6,7 °C 90 % 1014,1 hPa 0,0 mm 0,0 km/h (0 Bft) S-SW 196 ° 0 min 0,000 mm 0,0 UV-I 7 W/m² -8,1 °C -6,7 °C 0,0 km/h (0 Bft)
29.12.2017 10:09 -6,7 °C -6,7 °C 90 % 1014,2 hPa 0,0 mm 0,0 km/h (0 Bft) S-SW 196 ° 0 min 0,000 mm 0,0 UV-I 7 W/m² -8,1 °C -6,7 °C 0,0 km/h (0 Bft)
29.12.2017 10:10 -6,7 °C -6,7 °C 90 % 1014,1 hPa 0,0 mm 0,4 km/h (0 Bft) S-SW 196 ° 0 min 0,000 mm 0,0 UV-I 7 W/m² -8,1 °C -6,7 °C 1,6 km/h (1 Bft)
29.12.2017 10:11 -6,7 °C -6,7 °C 90 % 1014,1 hPa 0,0 mm 1,6 km/h (1 Bft) S-SW 196 ° 0 min 0,000 mm 0,0 UV-I 7 W/m² -8,1 °C -6,7 °C 3,2 km/h (1 Bft)
29.12.2017 10:12 -6,7 °C -6,7 °C 90 % 1014,1 hPa 0,0 mm 0,9 km/h (0 Bft) S-SW 196 ° 0 min 0,000 mm 0,0 UV-I 7 W/m² -8,1 °C -6,7 °C 3,2 km/h (1 Bft)
29.12.2017 10:13 -6,6 °C -6,6 °C 90 % 1014,1 hPa 0,0 mm 0,8 km/h (0 Bft) S-SW 196 ° 0 min 0,000 mm 0,0 UV-I 7 W/m² -8,0 °C -6,6 °C 3,2 km/h (1 Bft)
29.12.2017 10:14 -6,6 °C -6,6 °C 90 % 1014,1 hPa 0,0 mm 1,3 km/h (1 Bft) S-SW 196 ° 0 min 0,000 mm 0,0 UV-I 7 W/m² -8,0 °C -6,6 °C 3,2 km/h (1 Bft)
29.12.2017 10:15 -6,6 °C -6,6 °C 90 % 1014,1 hPa 0,0 mm 1,9 km/h (1 Bft) S-SW 196 ° 0 min 0,000 mm 0,0 UV-I 7 W/m² -8,0 °C -6,6 °C 3,2 km/h (1 Bft)
29.12.2017 10:16 -6,6 °C -6,6 °C 90 % 1014,1 hPa 0,0 mm 0,1 km/h (0 Bft) S-SW 196 ° 0 min 0,000 mm 0,0 UV-I 7 W/m² -8,0 °C -6,6 °C 1,6 km/h (1 Bft)
29.12.2017 10:17 -6,5 °C -6,5 °C 90 % 1014,2 hPa 0,0 mm 0,2 km/h (0 Bft) S-SW 196 ° 0 min 0,000 mm 0,0 UV-I 7 W/m² -7,9 °C -6,5 °C 1,6 km/h (1 Bft)
29.12.2017 10:18 -6,5 °C -6,5 °C 90 % 1014,2 hPa 0,0 mm 0,0 km/h (0 Bft) S-SW 196 ° 0 min 0,000 mm 0,0 UV-I 7 W/m² -7,9 °C -6,5 °C 0,0 km/h (0 Bft)
29.12.2017 10:19 -6,4 °C -6,4 °C 90 % 1014,1 hPa 0,0 mm 0,9 km/h (0 Bft) S-SW 196 ° 0 min 0,000 mm 0,0 UV-I 7 W/m² -7,8 °C -6,4 °C 3,2 km/h (1 Bft)
29.12.2017 10:20 -6,4 °C -6,4 °C 90 % 1014,2 hPa 0,0 mm 0,7 km/h (0 Bft) S-SW 196 ° 0 min 0,000 mm 0,0 UV-I 7 W/m² -7,8 °C -6,4 °C 1,6 km/h (1 Bft)
29.12.2017 10:21 -6,4 °C -6,4 °C 90 % 1014,2 hPa 0,0 mm 0,0 km/h (0 Bft) S-SW 196 ° 0 min 0,000 mm 0,0 UV-I 7 W/m² -7,8 °C -6,4 °C 0,0 km/h (0 Bft)
29.12.2017 10:22 -6,4 °C -6,4 °C 90 % 1014,2 hPa 0,0 mm 0,0 km/h (0 Bft) S-SW 196 ° 0 min 0,000 mm 0,0 UV-I 7 W/m² -7,8 °C -6,4 °C 0,0 km/h (0 Bft)
29.12.2017 10:23 -6,4 °C -6,4 °C 90 % 1014,2 hPa 0,0 mm 0,0 km/h (0 Bft) S-SW 196 ° 0 min 0,000 mm 0,0 UV-I 7 W/m² -7,8 °C -6,4 °C 0,0 km/h (0 Bft)
29.12.2017 10:24 -6,4 °C -6,4 °C 90 % 1014,2 hPa 0,0 mm 0,0 km/h (0 Bft) S-SW 196 ° 0 min 0,000 mm 0,0 UV-I 7 W/m² -7,8 °C -6,4 °C 0,0 km/h (0 Bft)
29.12.2017 10:25 -6,4 °C -6,4 °C 90 % 1014,2 hPa 0,0 mm 0,0 km/h (0 Bft) S-SW 196 ° 0 min 0,000 mm 0,0 UV-I 7 W/m² -7,8 °C -6,4 °C 0,0 km/h (0 Bft)
29.12.2017 10:26 -6,4 °C -6,4 °C 90 % 1014,2 hPa 0,0 mm 0,0 km/h (0 Bft) S-SW 196 ° 0 min 0,000 mm 0,0 UV-I 7 W/m² -7,8 °C -6,4 °C 0,0 km/h (0 Bft)
29.12.2017 10:27 -6,4 °C -6,4 °C 90 % 1014,2 hPa 0,0 mm 0,0 km/h (0 Bft) S-SW 196 ° 0 min 0,000 mm 0,0 UV-I 7 W/m² -7,8 °C -6,4 °C 0,0 km/h (0 Bft)
29.12.2017 10:28 -6,4 °C -6,4 °C 90 % 1014,2 hPa 0,0 mm 0,0 km/h (0 Bft) S-SW 196 ° 0 min 0,000 mm 0,0 UV-I 7 W/m² -7,8 °C -6,4 °C 0,0 km/h (0 Bft)
29.12.2017 10:29 -6,4 °C -6,4 °C 90 % 1014,3 hPa 0,0 mm 0,0 km/h (0 Bft) S-SW 196 ° 0 min 0,000 mm 0,0 UV-I 7 W/m² -7,8 °C -6,4 °C 0,0 km/h (0 Bft)
29.12.2017 10:30 -6,4 °C -6,4 °C 90 % 1014,3 hPa 0,0 mm 0,0 km/h (0 Bft) S-SW 196 ° 0 min 0,000 mm 0,0 UV-I 7 W/m² -7,8 °C -6,4 °C 0,0 km/h (0 Bft)
29.12.2017 10:31 -6,4 °C -6,4 °C 90 % 1014,3 hPa 0,0 mm 0,0 km/h (0 Bft) S-SW 196 ° 0 min 0,000 mm 0,0 UV-I 7 W/m² -7,8 °C -6,4 °C 0,0 km/h (0 Bft)
29.12.2017 10:32 -6,4 °C -6,4 °C 90 % 1014,3 hPa 0,0 mm 0,0 km/h (0 Bft) S-SW 196 ° 0 min 0,000 mm 0,0 UV-I 7 W/m² -7,8 °C -6,4 °C 0,0 km/h (0 Bft)
29.12.2017 10:33 -6,4 °C -6,4 °C 90 % 1014,3 hPa 0,0 mm 0,0 km/h (0 Bft) S-SW 196 ° 0 min 0,000 mm 0,0 UV-I 7 W/m² -7,8 °C -6,4 °C 0,0 km/h (0 Bft)
29.12.2017 10:34 -6,4 °C -6,4 °C 90 % 1014,3 hPa 0,0 mm 0,0 km/h (0 Bft) S-SW 196 ° 0 min 0,000 mm 0,0 UV-I 9 W/m² -7,8 °C -6,4 °C 0,0 km/h (0 Bft)
29.12.2017 10:35 -6,4 °C -6,4 °C 90 % 1014,3 hPa 0,0 mm 0,0 km/h (0 Bft) S-SW 196 ° 0 min 0,000 mm 0,0 UV-I 9 W/m² -7,8 °C -6,4 °C 0,0 km/h (0 Bft)
29.12.2017 10:36 -6,4 °C -6,4 °C 90 % 1014,4 hPa 0,0 mm 0,0 km/h (0 Bft) S-SW 196 ° 0 min 0,000 mm 0,0 UV-I 9 W/m² -7,8 °C -6,4 °C 0,0 km/h (0 Bft)
29.12.2017 10:37 -6,4 °C -6,4 °C 90 % 1014,4 hPa 0,0 mm 0,0 km/h (0 Bft) S-SW 196 ° 0 min 0,000 mm 0,0 UV-I 9 W/m² -7,8 °C -6,4 °C 0,0 km/h (0 Bft)
29.12.2017 10:38 -6,4 °C -6,4 °C 90 % 1014,4 hPa 0,0 mm 0,0 km/h (0 Bft) S-SW 196 ° 0 min 0,000 mm 0,0 UV-I 9 W/m² -7,8 °C -6,4 °C 0,0 km/h (0 Bft)
29.12.2017 10:39 -6,4 °C -6,4 °C 90 % 1014,4 hPa 0,0 mm 0,0 km/h (0 Bft) S-SW 196 ° 0 min 0,000 mm 0,0 UV-I 9 W/m² -7,8 °C -6,4 °C 0,0 km/h (0 Bft)
29.12.2017 10:40 -6,4 °C -6,4 °C 90 % 1014,5 hPa 0,0 mm 0,5 km/h (0 Bft) S-SW 196 ° 0 min 0,000 mm 0,0 UV-I 9 W/m² -7,8 °C -6,4 °C 1,6 km/h (1 Bft)
29.12.2017 10:41 -6,4 °C -6,4 °C 89 % 1014,5 hPa 0,0 mm 0,2 km/h (0 Bft) S-SW 196 ° 0 min 0,000 mm 0,0 UV-I 9 W/m² -7,9 °C -6,4 °C 1,6 km/h (1 Bft)
29.12.2017 10:42 -6,4 °C -6,4 °C 90 % 1014,5 hPa 0,0 mm 0,5 km/h (0 Bft) S-SW 196 ° 0 min 0,000 mm 0,0 UV-I 9 W/m² -7,8 °C -6,4 °C 1,6 km/h (1 Bft)
29.12.2017 10:43 -6,4 °C -6,4 °C 90 % 1014,5 hPa 0,0 mm 1,1 km/h (1 Bft) S-SW 196 ° 0 min 0,000 mm 0,0 UV-I 9 W/m² -7,8 °C -6,4 °C 1,6 km/h (1 Bft)
29.12.2017 10:44 -6,4 °C -6,4 °C 90 % 1014,4 hPa 0,0 mm 0,0 km/h (0 Bft) S-SW 196 ° 0 min 0,000 mm 0,0 UV-I 9 W/m² -7,8 °C -6,4 °C 0,0 km/h (0 Bft)
29.12.2017 10:45 -6,4 °C -6,4 °C 90 % 1014,4 hPa 0,0 mm 0,0 km/h (0 Bft) S-SW 196 ° 0 min 0,000 mm 0,0 UV-I 9 W/m² -7,8 °C -6,4 °C 0,0 km/h (0 Bft)
29.12.2017 10:46 -6,4 °C -6,4 °C 90 % 1014,3 hPa 0,0 mm 0,0 km/h (0 Bft) S-SW 196 ° 0 min 0,000 mm 0,0 UV-I 9 W/m² -7,8 °C -6,4 °C 0,0 km/h (0 Bft)
29.12.2017 10:47 -6,4 °C -6,4 °C 90 % 1014,3 hPa 0,0 mm 0,7 km/h (0 Bft) S-SW 196 ° 0 min 0,000 mm 0,0 UV-I 9 W/m² -7,8 °C -6,4 °C 1,6 km/h (1 Bft)
29.12.2017 10:48 -6,4 °C -6,4 °C 90 % 1014,2 hPa 0,0 mm 0,4 km/h (0 Bft) S-SW 196 ° 0 min 0,000 mm 0,0 UV-I 9 W/m² -7,8 °C -6,4 °C 1,6 km/h (1 Bft)
29.12.2017 10:49 -6,4 °C -6,4 °C 90 % 1014,2 hPa 0,0 mm 0,0 km/h (0 Bft) S-SW 196 ° 0 min 0,000 mm 0,0 UV-I 9 W/m² -7,8 °C -6,4 °C 0,0 km/h (0 Bft)
29.12.2017 10:50 -6,4 °C -6,4 °C 90 % 1014,2 hPa 0,0 mm 0,0 km/h (0 Bft) S-SW 196 ° 0 min 0,000 mm 0,0 UV-I 9 W/m² -7,8 °C -6,4 °C 0,0 km/h (0 Bft)
29.12.2017 10:51 -6,4 °C -6,4 °C 90 % 1014,2 hPa 0,0 mm 1,6 km/h (1 Bft) S-SW 196 ° 0 min 0,000 mm 0,0 UV-I 9 W/m² -7,8 °C -6,4 °C 4,8 km/h (1 Bft)
29.12.2017 10:52 -6,4 °C -6,4 °C 90 % 1014,2 hPa 0,0 mm 2,4 km/h (1 Bft) S-SW 196 ° 0 min 0,000 mm 0,0 UV-I 9 W/m² -7,8 °C -6,4 °C 3,2 km/h (1 Bft)
29.12.2017 10:53 -6,4 °C -6,4 °C 90 % 1014,2 hPa 0,0 mm 2,7 km/h (1 Bft) S 188 ° 0 min 0,000 mm 0,0 UV-I 9 W/m² -7,8 °C -6,4 °C 4,8 km/h (1 Bft)
29.12.2017 10:54 -6,3 °C -6,3 °C 90 % 1014,2 hPa 0,0 mm 1,7 km/h (1 Bft) S 188 ° 0 min 0,000 mm 0,0 UV-I 9 W/m² -7,7 °C -6,3 °C 3,2 km/h (1 Bft)
29.12.2017 10:55 -6,3 °C -6,3 °C 91 % 1014,2 hPa 0,0 mm 2,1 km/h (1 Bft) S 188 ° 0 min 0,000 mm 0,0 UV-I 9 W/m² -7,5 °C -6,3 °C 3,2 km/h (1 Bft)
29.12.2017 10:56 -6,2 °C -6,2 °C 91 % 1014,2 hPa 0,0 mm 0,9 km/h (0 Bft) S 188 ° 0 min 0,000 mm 0,0 UV-I 9 W/m² -7,4 °C -6,2 °C 1,6 km/h (1 Bft)
29.12.2017 10:57 -6,2 °C -6,2 °C 91 % 1014,2 hPa 0,0 mm 1,0 km/h (0 Bft) S 188 ° 0 min 0,000 mm 0,0 UV-I 9 W/m² -7,4 °C -6,2 °C 1,6 km/h (1 Bft)
29.12.2017 10:58 -6,2 °C -6,2 °C 91 % 1014,2 hPa 0,0 mm 0,9 km/h (0 Bft) S 188 ° 0 min 0,000 mm 0,0 UV-I 9 W/m² -7,4 °C -6,2 °C 1,6 km/h (1 Bft)
29.12.2017 10:59 -6,2 °C -6,2 °C 91 % 1014,2 hPa 0,0 mm 0,2 km/h (0 Bft) S 188 ° 0 min 0,000 mm 0,0 UV-I 9 W/m² -7,4 °C -6,2 °C 1,6 km/h (1 Bft)
29.12.2017 11:00 -6,1 °C -6,1 °C 91 % 1014,2 hPa 0,0 mm 0,0 km/h (0 Bft) S 188 ° 0 min 0,000 mm 0,0 UV-I 9 W/m² -7,3 °C -6,1 °C 0,0 km/h (0 Bft)
29.12.2017 11:01 -6,1 °C -6,1 °C 91 % 1014,2 hPa 0,0 mm 0,0 km/h (0 Bft) S 188 ° 0 min 0,000 mm 0,0 UV-I 9 W/m² -7,3 °C -6,1 °C 0,0 km/h (0 Bft)
29.12.2017 11:02 -6,1 °C -6,1 °C 91 % 1014,2 hPa 0,0 mm 1,4 km/h (1 Bft) S 188 ° 0 min 0,000 mm 0,0 UV-I 9 W/m² -7,3 °C -6,1 °C 1,6 km/h (1 Bft)
29.12.2017 11:03 -6,1 °C -6,1 °C 91 % 1014,2 hPa 0,0 mm 0,0 km/h (0 Bft) S 188 ° 0 min 0,000 mm 0,0 UV-I 9 W/m² -7,3 °C -6,1 °C 0,0 km/h (0 Bft)
29.12.2017 11:04 -6,1 °C -6,1 °C 91 % 1014,2 hPa 0,0 mm 0,0 km/h (0 Bft) S 188 ° 0 min 0,000 mm 0,0 UV-I 9 W/m² -7,3 °C -6,1 °C 0,0 km/h (0 Bft)
29.12.2017 11:05 -6,1 °C -6,1 °C 91 % 1014,2 hPa 0,0 mm 0,0 km/h (0 Bft) S 188 ° 0 min 0,000 mm 0,0 UV-I 9 W/m² -7,3 °C -6,1 °C 0,0 km/h (0 Bft)
29.12.2017 11:06 -6,0 °C -6,0 °C 91 % 1014,1 hPa 0,0 mm 0,0 km/h (0 Bft) S 188 ° 0 min 0,000 mm 0,0 UV-I 9 W/m² -7,2 °C -6,0 °C 0,0 km/h (0 Bft)
29.12.2017 11:07 -6,0 °C -6,0 °C 91 % 1014,2 hPa 0,0 mm 0,0 km/h (0 Bft) S 188 ° 0 min 0,000 mm 0,0 UV-I 9 W/m² -7,2 °C -6,0 °C 0,0 km/h (0 Bft)
29.12.2017 11:08 -6,0 °C -6,0 °C 91 % 1014,2 hPa 0,0 mm 0,0 km/h (0 Bft) S 188 ° 0 min 0,000 mm 0,0 UV-I 9 W/m² -7,2 °C -6,0 °C 0,0 km/h (0 Bft)
29.12.2017 11:09 -5,9 °C -5,9 °C 91 % 1014,2 hPa 0,0 mm 0,0 km/h (0 Bft) S 188 ° 0 min 0,000 mm 0,0 UV-I 9 W/m² -7,1 °C -5,9 °C 0,0 km/h (0 Bft)
29.12.2017 11:10 -5,9 °C -5,9 °C 91 % 1014,2 hPa 0,0 mm 0,0 km/h (0 Bft) S 188 ° 0 min 0,000 mm 0,0 UV-I 9 W/m² -7,1 °C -5,9 °C 0,0 km/h (0 Bft)
29.12.2017 11:11 -5,9 °C -5,9 °C 91 % 1014,2 hPa 0,0 mm 0,0 km/h (0 Bft) S 188 ° 0 min 0,000 mm 0,0 UV-I 9 W/m² -7,1 °C -5,9 °C 0,0 km/h (0 Bft)
29.12.2017 11:12 -5,9 °C -5,9 °C 91 % 1014,2 hPa 0,0 mm 0,0 km/h (0 Bft) S 188 ° 0 min 0,000 mm 0,0 UV-I 9 W/m² -7,1 °C -5,9 °C 0,0 km/h (0 Bft)
29.12.2017 11:13 -5,9 °C -5,9 °C 91 % 1014,1 hPa 0,0 mm 0,0 km/h (0 Bft) S 188 ° 0 min 0,000 mm 0,0 UV-I 9 W/m² -7,1 °C -5,9 °C 0,0 km/h (0 Bft)
29.12.2017 11:14 -5,8 °C -5,8 °C 91 % 1014,1 hPa 0,0 mm 0,0 km/h (0 Bft) S 188 ° 0 min 0,000 mm 0,0 UV-I 9 W/m² -7,0 °C -5,8 °C 0,0 km/h (0 Bft)
29.12.2017 11:15 -5,8 °C -5,8 °C 91 % 1014,1 hPa 0,0 mm 0,0 km/h (0 Bft) S 188 ° 0 min 0,000 mm 0,0 UV-I 9 W/m² -7,0 °C -5,8 °C 0,0 km/h (0 Bft)
29.12.2017 11:16 -5,8 °C -5,8 °C 91 % 1014,1 hPa 0,0 mm 0,0 km/h (0 Bft) S 188 ° 0 min 0,000 mm 0,0 UV-I 9 W/m² -7,0 °C -5,8 °C 0,0 km/h (0 Bft)
29.12.2017 11:17 -5,8 °C -5,8 °C 91 % 1014,1 hPa 0,0 mm 0,0 km/h (0 Bft) S 188 ° 0 min 0,000 mm 0,0 UV-I 9 W/m² -7,0 °C -5,8 °C 0,0 km/h (0 Bft)
29.12.2017 11:18 -5,8 °C -5,8 °C 91 % 1014,1 hPa 0,0 mm 0,0 km/h (0 Bft) S 188 ° 0 min 0,000 mm 0,0 UV-I 9 W/m² -7,0 °C -5,8 °C 0,0 km/h (0 Bft)
29.12.2017 11:19 -5,8 °C -5,7 °C 91 % 1014,1 hPa 0,0 mm 0,1 km/h (0 Bft) S 186 ° 0 min 0,000 mm 0,0 UV-I 9 W/m² -7,0 °C -5,8 °C 1,6 km/h (1 Bft)
29.12.2017 11:20 -5,7 °C -5,7 °C 91 % 1014,0 hPa 0,0 mm 0,2 km/h (0 Bft) S 186 ° 0 min 0,000 mm 0,0 UV-I 9 W/m² -6,9 °C -5,7 °C 1,6 km/h (1 Bft)
29.12.2017 11:21 -5,7 °C -5,7 °C 91 % 1014,0 hPa 0,0 mm 0,0 km/h (0 Bft) S 186 ° 0 min 0,000 mm 0,0 UV-I 9 W/m² -6,9 °C -5,7 °C 0,0 km/h (0 Bft)
29.12.2017 11:22 -5,7 °C -5,7 °C 91 % 1014,0 hPa 0,0 mm 0,0 km/h (0 Bft) S 186 ° 0 min 0,000 mm 0,0 UV-I 9 W/m² -6,9 °C -5,7 °C 0,0 km/h (0 Bft)
29.12.2017 11:23 -5,7 °C -5,7 °C 91 % 1014,0 hPa 0,0 mm 0,0 km/h (0 Bft) S 186 ° 0 min 0,000 mm 0,0 UV-I 9 W/m² -6,9 °C -5,7 °C 0,0 km/h (0 Bft)
29.12.2017 11:24 -5,7 °C -5,7 °C 91 % 1014,0 hPa 0,0 mm 0,0 km/h (0 Bft) S 186 ° 0 min 0,000 mm 0,0 UV-I 9 W/m² -6,9 °C -5,7 °C 0,0 km/h (0 Bft)
29.12.2017 11:25 -5,7 °C -5,6 °C 91 % 1014,0 hPa 0,0 mm 0,0 km/h (0 Bft) S 186 ° 0 min 0,000 mm 0,0 UV-I 9 W/m² -6,9 °C -5,7 °C 0,0 km/h (0 Bft)
29.12.2017 11:26 -5,7 °C -5,6 °C 91 % 1014,0 hPa 0,0 mm 0,0 km/h (0 Bft) S 186 ° 0 min 0,000 mm 0,0 UV-I 9 W/m² -6,9 °C -5,7 °C 0,0 km/h (0 Bft)
29.12.2017 11:27 -5,7 °C -5,6 °C 91 % 1014,0 hPa 0,0 mm 0,3 km/h (0 Bft) S 186 ° 0 min 0,000 mm 0,0 UV-I 9 W/m² -6,9 °C -5,7 °C 1,6 km/h (1 Bft)
29.12.2017 11:28 -5,7 °C -5,6 °C 91 % 1014,0 hPa 0,0 mm 0,0 km/h (0 Bft) S 186 ° 0 min 0,000 mm 0,0 UV-I 9 W/m² -6,9 °C -5,7 °C 0,0 km/h (0 Bft)
29.12.2017 11:29 -5,7 °C -5,6 °C 90 % 1014,0 hPa 0,0 mm 0,0 km/h (0 Bft) S 186 ° 0 min 0,000 mm 0,0 UV-I 9 W/m² -7,1 °C -5,7 °C 0,0 km/h (0 Bft)
29.12.2017 11:30 -5,7 °C -5,6 °C 90 % 1014,1 hPa 0,0 mm 0,0 km/h (0 Bft) S 186 ° 0 min 0,000 mm 0,0 UV-I 9 W/m² -7,1 °C -5,7 °C 0,0 km/h (0 Bft)
29.12.2017 11:31 -5,6 °C -5,6 °C 90 % 1014,1 hPa 0,0 mm 0,0 km/h (0 Bft) S 186 ° 0 min 0,000 mm 0,0 UV-I 9 W/m² -7,0 °C -5,6 °C 0,0 km/h (0 Bft)
29.12.2017 11:32 -5,6 °C -5,6 °C 90 % 1014,1 hPa 0,0 mm 0,6 km/h (0 Bft) S 186 ° 0 min 0,000 mm 0,0 UV-I 9 W/m² -7,0 °C -5,6 °C 1,6 km/h (1 Bft)
29.12.2017 11:33 -5,6 °C -5,6 °C 90 % 1014,0 hPa 0,0 mm 0,0 km/h (0 Bft) S 186 ° 0 min 0,000 mm 0,0 UV-I 9 W/m² -7,0 °C -5,6 °C 0,0 km/h (0 Bft)
29.12.2017 11:34 -5,6 °C -5,6 °C 90 % 1014,0 hPa 0,0 mm 0,0 km/h (0 Bft) S 186 ° 0 min 0,000 mm 0,0 UV-I 9 W/m² -7,0 °C -5,6 °C 0,0 km/h (0 Bft)
29.12.2017 11:35 -5,6 °C -5,6 °C 90 % 1014,0 hPa 0,0 mm 0,0 km/h (0 Bft) S 186 ° 0 min 0,000 mm 0,0 UV-I 9 W/m² -7,0 °C -5,6 °C 0,0 km/h (0 Bft)
29.12.2017 11:36 -5,6 °C -5,6 °C 90 % 1014,0 hPa 0,0 mm 0,0 km/h (0 Bft) S 186 ° 0 min 0,000 mm 0,0 UV-I 9 W/m² -7,0 °C -5,6 °C 0,0 km/h (0 Bft)
29.12.2017 11:37 -5,6 °C -5,6 °C 90 % 1014,0 hPa 0,0 mm 0,0 km/h (0 Bft) S 186 ° 0 min 0,000 mm 0,0 UV-I 9 W/m² -7,0 °C -5,6 °C 0,0 km/h (0 Bft)
29.12.2017 11:38 -5,6 °C -5,6 °C 90 % 1014,0 hPa 0,0 mm 0,1 km/h (0 Bft) S 186 ° 0 min 0,000 mm 0,0 UV-I 9 W/m² -7,0 °C -5,6 °C 1,6 km/h (1 Bft)
29.12.2017 11:39 -5,5 °C -5,5 °C 90 % 1014,0 hPa 0,0 mm 2,2 km/h (1 Bft) S 186 ° 0 min 0,000 mm 0,0 UV-I 9 W/m² -6,9 °C -5,5 °C 3,2 km/h (1 Bft)
29.12.2017 11:40 -5,6 °C -5,5 °C 90 % 1014,0 hPa 0,0 mm 2,7 km/h (1 Bft) S 186 ° 0 min 0,000 mm 0,0 UV-I 9 W/m² -7,0 °C -5,6 °C 3,2 km/h (1 Bft)
29.12.2017 11:41 -5,5 °C -5,5 °C 90 % 1014,0 hPa 0,0 mm 1,9 km/h (1 Bft) S 186 ° 0 min 0,000 mm 0,0 UV-I 9 W/m² -6,9 °C -5,5 °C 3,2 km/h (1 Bft)
29.12.2017 11:42 -5,4 °C -5,4 °C 90 % 1014,0 hPa 0,0 mm 0,0 km/h (0 Bft) S 186 ° 0 min 0,000 mm 0,0 UV-I 9 W/m² -6,8 °C -5,4 °C 0,0 km/h (0 Bft)
29.12.2017 11:43 -5,4 °C -5,4 °C 90 % 1013,9 hPa 0,0 mm 0,2 km/h (0 Bft) S 187 ° 0 min 0,000 mm 0,0 UV-I 9 W/m² -6,8 °C -5,4 °C 1,6 km/h (1 Bft)
29.12.2017 11:44 -5,4 °C -5,4 °C 90 % 1013,9 hPa 0,0 mm 0,0 km/h (0 Bft) S 186 ° 0 min 0,000 mm 0,0 UV-I 9 W/m² -6,8 °C -5,4 °C 0,0 km/h (0 Bft)
29.12.2017 11:45 -5,4 °C -5,4 °C 90 % 1013,9 hPa 0,0 mm 0,7 km/h (0 Bft) S 187 ° 0 min 0,000 mm 0,0 UV-I 9 W/m² -6,8 °C -5,4 °C 3,2 km/h (1 Bft)
29.12.2017 11:46 -5,4 °C -5,4 °C 90 % 1013,9 hPa 0,0 mm 1,8 km/h (1 Bft) S 187 ° 0 min 0,000 mm 0,0 UV-I 9 W/m² -6,8 °C -5,4 °C 3,2 km/h (1 Bft)
29.12.2017 11:47 -5,4 °C -5,4 °C 90 % 1013,9 hPa 0,0 mm 1,4 km/h (1 Bft) S 187 ° 0 min 0,000 mm 0,0 UV-I 9 W/m² -6,8 °C -5,4 °C 3,2 km/h (1 Bft)
29.12.2017 11:48 -5,3 °C -5,3 °C 90 % 1013,9 hPa 0,0 mm 1,2 km/h (1 Bft) S 187 ° 0 min 0,000 mm 0,0 UV-I 9 W/m² -6,7 °C -5,3 °C 3,2 km/h (1 Bft)
29.12.2017 11:49 -5,3 °C -5,3 °C 90 % 1013,9 hPa 0,0 mm 0,8 km/h (0 Bft) S 186 ° 0 min 0,000 mm 0,0 UV-I 9 W/m² -6,7 °C -5,3 °C 3,2 km/h (1 Bft)
29.12.2017 11:50 -5,3 °C -5,3 °C 90 % 1013,9 hPa 0,0 mm 0,0 km/h (0 Bft) S 187 ° 0 min 0,000 mm 0,0 UV-I 9 W/m² -6,7 °C -5,3 °C 0,0 km/h (0 Bft)
29.12.2017 11:51 -5,3 °C -5,3 °C 89 % 1013,9 hPa 0,0 mm 0,0 km/h (0 Bft) S 187 ° 0 min 0,000 mm 0,0 UV-I 9 W/m² -6,8 °C -5,3 °C 0,0 km/h (0 Bft)
29.12.2017 11:52 -5,3 °C -5,3 °C 89 % 1013,9 hPa 0,0 mm 1,3 km/h (1 Bft) S 187 ° 0 min 0,000 mm 0,0 UV-I 9 W/m² -6,8 °C -5,3 °C 3,2 km/h (1 Bft)
29.12.2017 11:53 -5,3 °C -5,3 °C 89 % 1013,9 hPa 0,0 mm 0,6 km/h (0 Bft) S 186 ° 0 min 0,000 mm 0,0 UV-I 11 W/m² -6,8 °C -5,3 °C 1,6 km/h (1 Bft)
29.12.2017 11:54 -5,2 °C -5,2 °C 89 % 1013,9 hPa 0,0 mm 0,0 km/h (0 Bft) S 186 ° 0 min 0,000 mm 0,0 UV-I 11 W/m² -6,7 °C -5,2 °C 0,0 km/h (0 Bft)
29.12.2017 11:55 -5,2 °C -5,2 °C 90 % 1013,9 hPa 0,0 mm 0,0 km/h (0 Bft) S 186 ° 0 min 0,000 mm 0,0 UV-I 11 W/m² -6,6 °C -5,2 °C 0,0 km/h (0 Bft)
29.12.2017 11:56 -5,2 °C -5,2 °C 90 % 1013,9 hPa 0,0 mm 0,0 km/h (0 Bft) S 186 ° 0 min 0,000 mm 0,0 UV-I 33 W/m² -6,6 °C -5,2 °C 0,0 km/h (0 Bft)
29.12.2017 11:57 -5,1 °C -5,1 °C 90 % 1013,9 hPa 0,0 mm 0,0 km/h (0 Bft) S 187 ° 0 min 0,000 mm 0,0 UV-I 42 W/m² -6,5 °C -5,1 °C 0,0 km/h (0 Bft)
29.12.2017 11:58 -5,1 °C -5,1 °C 90 % 1013,9 hPa 0,0 mm 0,0 km/h (0 Bft) S 187 ° 0 min 0,000 mm 0,0 UV-I 35 W/m² -6,5 °C -5,1 °C 0,0 km/h (0 Bft)
29.12.2017 11:59 -5,1 °C -5,1 °C 90 % 1013,9 hPa 0,0 mm 0,0 km/h (0 Bft) S 186 ° 0 min 0,000 mm 0,0 UV-I 33 W/m² -6,5 °C -5,1 °C 0,0 km/h (0 Bft)
29.12.2017 12:00 -5,1 °C -5,1 °C 90 % 1013,8 hPa 0,0 mm 0,0 km/h (0 Bft) S 186 ° 0 min 0,000 mm 0,0 UV-I 35 W/m² -6,5 °C -5,1 °C 0,0 km/h (0 Bft)
29.12.2017 12:01 -5,1 °C -5,1 °C 90 % 1013,8 hPa 0,0 mm 0,3 km/h (0 Bft) S 187 ° 0 min 0,000 mm 0,0 UV-I 16 W/m² -6,5 °C -5,1 °C 3,2 km/h (1 Bft)
29.12.2017 12:02 -5,1 °C -5,1 °C 90 % 1013,8 hPa 0,0 mm 4,1 km/h (1 Bft) S-SW 198 ° 0 min 0,000 mm 0,0 UV-I 14 W/m² -6,5 °C -5,1 °C 6,4 km/h (2 Bft)
29.12.2017 12:03 -5,1 °C -5,1 °C 90 % 1013,8 hPa 0,0 mm 5,0 km/h (1 Bft) S-SW 197 ° 0 min 0,000 mm 0,0 UV-I 12 W/m² -6,5 °C -7,4 °C 6,4 km/h (2 Bft)
29.12.2017 12:04 -5,1 °C -5,1 °C 89 % 1013,8 hPa 0,0 mm 2,0 km/h (1 Bft) S-SW 197 ° 0 min 0,000 mm 0,0 UV-I 11 W/m² -6,6 °C -5,1 °C 3,2 km/h (1 Bft)
29.12.2017 12:05 -5,1 °C -5,0 °C 90 % 1013,8 hPa 0,0 mm 1,4 km/h (1 Bft) S-SW 197 ° 0 min 0,000 mm 0,0 UV-I 11 W/m² -6,5 °C -5,1 °C 1,6 km/h (1 Bft)
29.12.2017 12:06 -5,0 °C -5,0 °C 90 % 1013,7 hPa 0,0 mm 1,5 km/h (1 Bft) S-SW 197 ° 0 min 0,000 mm 0,0 UV-I 14 W/m² -6,4 °C -5,0 °C 3,2 km/h (1 Bft)
29.12.2017 12:07 -4,9 °C -4,9 °C 90 % 1013,7 hPa 0,0 mm 2,2 km/h (1 Bft) S-SW 197 ° 0 min 0,000 mm 0,0 UV-I 14 W/m² -6,3 °C -4,9 °C 3,2 km/h (1 Bft)
29.12.2017 12:08 -4,9 °C -4,9 °C 90 % 1013,7 hPa 0,0 mm 1,5 km/h (1 Bft) S-SW 197 ° 0 min 0,000 mm 0,0 UV-I 11 W/m² -6,3 °C -4,9 °C 3,2 km/h (1 Bft)
29.12.2017 12:09 -4,9 °C -4,9 °C 90 % 1013,6 hPa 0,0 mm 1,6 km/h (1 Bft) S-SW 197 ° 0 min 0,000 mm 0,0 UV-I 11 W/m² -6,3 °C -4,9 °C 3,2 km/h (1 Bft)
29.12.2017 12:10 -4,9 °C -4,9 °C 90 % 1013,6 hPa 0,0 mm 0,7 km/h (0 Bft) S-SW 197 ° 0 min 0,000 mm 0,0 UV-I 9 W/m² -6,3 °C -4,9 °C 3,2 km/h (1 Bft)
29.12.2017 12:11 -4,9 °C -4,9 °C 90 % 1013,6 hPa 0,0 mm 0,0 km/h (0 Bft) S-SW 197 ° 0 min 0,000 mm 0,0 UV-I 9 W/m² -6,3 °C -4,9 °C 0,0 km/h (0 Bft)
29.12.2017 12:12 -4,9 °C -4,9 °C 89 % 1013,6 hPa 0,0 mm 0,5 km/h (0 Bft) S-SW 197 ° 0 min 0,000 mm 0,0 UV-I 9 W/m² -6,4 °C -4,9 °C 1,6 km/h (1 Bft)
29.12.2017 12:13 -4,9 °C -4,9 °C 90 % 1013,5 hPa 0,0 mm 0,0 km/h (0 Bft) S-SW 197 ° 0 min 0,000 mm 0,0 UV-I 11 W/m² -6,3 °C -4,9 °C 0,0 km/h (0 Bft)
29.12.2017 12:14 -4,9 °C -4,9 °C 89 % 1013,5 hPa 0,0 mm 0,0 km/h (0 Bft) S-SW 197 ° 0 min 0,000 mm 0,0 UV-I 11 W/m² -6,4 °C -4,9 °C 0,0 km/h (0 Bft)
29.12.2017 12:15 -4,9 °C -4,9 °C 89 % 1013,5 hPa 0,0 mm 0,0 km/h (0 Bft) S-SW 197 ° 0 min 0,000 mm 0,0 UV-I 11 W/m² -6,4 °C -4,9 °C 0,0 km/h (0 Bft)
29.12.2017 12:16 -4,9 °C -4,9 °C 89 % 1013,5 hPa 0,0 mm 0,0 km/h (0 Bft) S-SW 197 ° 0 min 0,000 mm 0,0 UV-I 12 W/m² -6,4 °C -4,9 °C 0,0 km/h (0 Bft)
29.12.2017 12:17 -4,9 °C -4,9 °C 89 % 1013,5 hPa 0,0 mm 0,0 km/h (0 Bft) S-SW 197 ° 0 min 0,000 mm 0,0 UV-I 12 W/m² -6,4 °C -4,9 °C 0,0 km/h (0 Bft)
29.12.2017 12:18 -4,9 °C -4,9 °C 89 % 1013,5 hPa 0,0 mm 0,0 km/h (0 Bft) S-SW 197 ° 0 min 0,000 mm 0,0 UV-I 11 W/m² -6,4 °C -4,9 °C 0,0 km/h (0 Bft)
29.12.2017 12:19 -4,9 °C -4,9 °C 89 % 1013,5 hPa 0,0 mm 1,1 km/h (1 Bft) S-SW 197 ° 0 min 0,000 mm 0,0 UV-I 9 W/m² -6,4 °C -4,9 °C 3,2 km/h (1 Bft)
29.12.2017 12:20 -4,9 °C -4,9 °C 89 % 1013,5 hPa 0,0 mm 0,1 km/h (0 Bft) S-SW 197 ° 0 min 0,000 mm 0,0 UV-I 11 W/m² -6,4 °C -4,9 °C 1,6 km/h (1 Bft)
29.12.2017 12:21 -4,9 °C -4,9 °C 89 % 1013,5 hPa 0,0 mm 0,0 km/h (0 Bft) S-SW 197 ° 0 min 0,000 mm 0,0 UV-I 11 W/m² -6,4 °C -4,9 °C 0,0 km/h (0 Bft)
29.12.2017 12:22 -4,9 °C -4,9 °C 89 % 1013,5 hPa 0,0 mm 0,0 km/h (0 Bft) S-SW 197 ° 0 min 0,000 mm 0,0 UV-I 9 W/m² -6,4 °C -4,9 °C 0,0 km/h (0 Bft)
29.12.2017 12:23 -4,9 °C -4,9 °C 89 % 1013,5 hPa 0,0 mm 0,0 km/h (0 Bft) S-SW 197 ° 0 min 0,000 mm 0,0 UV-I 9 W/m² -6,4 °C -4,9 °C 0,0 km/h (0 Bft)
29.12.2017 12:24 -4,9 °C -4,9 °C 89 % 1013,4 hPa 0,0 mm 0,0 km/h (0 Bft) S-SW 197 ° 0 min 0,000 mm 0,0 UV-I 9 W/m² -6,4 °C -4,9 °C 0,0 km/h (0 Bft)
29.12.2017 12:25 -4,9 °C -4,9 °C 89 % 1013,3 hPa 0,0 mm 1,7 km/h (1 Bft) S 189 ° 0 min 0,000 mm 0,0 UV-I 9 W/m² -6,4 °C -4,9 °C 3,2 km/h (1 Bft)
29.12.2017 12:26 -4,9 °C -4,9 °C 89 % 1013,3 hPa 0,0 mm 2,5 km/h (1 Bft) S 178 ° 0 min 0,000 mm 0,0 UV-I 9 W/m² -6,4 °C -4,9 °C 3,2 km/h (1 Bft)
29.12.2017 12:27 -4,9 °C -4,9 °C 89 % 1013,2 hPa 0,0 mm 4,3 km/h (1 Bft) S-SO 165 ° 0 min 0,000 mm 0,0 UV-I 9 W/m² -6,4 °C -4,9 °C 6,4 km/h (2 Bft)
29.12.2017 12:28 -4,9 °C -4,9 °C 89 % 1013,3 hPa 0,0 mm 3,3 km/h (1 Bft) O-SO 113 ° 0 min 0,000 mm 0,0 UV-I 9 W/m² -6,4 °C -4,9 °C 4,8 km/h (1 Bft)
29.12.2017 12:29 -4,9 °C -4,9 °C 89 % 1013,2 hPa 0,0 mm 2,9 km/h (1 Bft) O-SO 113 ° 0 min 0,000 mm 0,0 UV-I 9 W/m² -6,4 °C -4,9 °C 4,8 km/h (1 Bft)
29.12.2017 12:30 -4,9 °C -4,9 °C 89 % 1013,3 hPa 0,0 mm 3,9 km/h (1 Bft) SO 145 ° 0 min 0,000 mm 0,0 UV-I 9 W/m² -6,4 °C -4,9 °C 4,8 km/h (1 Bft)
29.12.2017 12:31 -4,8 °C -4,8 °C 90 % 1013,1 hPa 0,0 mm 3,1 km/h (1 Bft) S 180 ° 0 min 0,000 mm 0,0 UV-I 12 W/m² -6,2 °C -4,8 °C 8,0 km/h (2 Bft)
29.12.2017 12:32 -4,9 °C -4,8 °C 90 % 1013,2 hPa 0,0 mm 0,0 km/h (0 Bft) S 180 ° 0 min 0,000 mm 0,0 UV-I 12 W/m² -6,3 °C -4,9 °C 0,0 km/h (0 Bft)
29.12.2017 12:33 -4,9 °C -4,8 °C 89 % 1013,2 hPa 0,0 mm 0,0 km/h (0 Bft) S 180 ° 0 min 0,000 mm 0,0 UV-I 11 W/m² -6,4 °C -4,9 °C 0,0 km/h (0 Bft)
29.12.2017 12:34 -4,9 °C -4,8 °C 89 % 1013,2 hPa 0,0 mm 0,0 km/h (0 Bft) S 180 ° 0 min 0,000 mm 0,0 UV-I 12 W/m² -6,4 °C -4,9 °C 0,0 km/h (0 Bft)
29.12.2017 12:35 -4,8 °C -4,8 °C 90 % 1013,1 hPa 0,0 mm 0,0 km/h (0 Bft) S 180 ° 0 min 0,000 mm 0,0 UV-I 30 W/m² -6,2 °C -4,8 °C 0,0 km/h (0 Bft)
29.12.2017 12:36 -4,8 °C -4,8 °C 90 % 1013,1 hPa 0,0 mm 0,9 km/h (0 Bft) S 180 ° 0 min 0,000 mm 0,0 UV-I 39 W/m² -6,2 °C -4,8 °C 3,2 km/h (1 Bft)
29.12.2017 12:37 -4,9 °C -4,8 °C 90 % 1013,1 hPa 0,0 mm 1,0 km/h (0 Bft) S 180 ° 0 min 0,000 mm 0,0 UV-I 12 W/m² -6,3 °C -4,9 °C 3,2 km/h (1 Bft)
29.12.2017 12:38 -4,8 °C -4,8 °C 90 % 1013,1 hPa 0,0 mm 1,4 km/h (1 Bft) S 180 ° 0 min 0,000 mm 0,0 UV-I 11 W/m² -6,2 °C -4,8 °C 3,2 km/h (1 Bft)
29.12.2017 12:39 -4,8 °C -4,8 °C 90 % 1013,1 hPa 0,0 mm 0,1 km/h (0 Bft) S 180 ° 0 min 0,000 mm 0,0 UV-I 11 W/m² -6,2 °C -4,8 °C 1,6 km/h (1 Bft)
29.12.2017 12:40 -4,8 °C -4,8 °C 90 % 1013,1 hPa 0,0 mm 1,6 km/h (1 Bft) S 180 ° 0 min 0,000 mm 0,0 UV-I 9 W/m² -6,2 °C -4,8 °C 3,2 km/h (1 Bft)
29.12.2017 12:41 -4,8 °C -4,8 °C 90 % 1013,1 hPa 0,0 mm 1,2 km/h (1 Bft) S 180 ° 0 min 0,000 mm 0,0 UV-I 9 W/m² -6,2 °C -4,8 °C 1,6 km/h (1 Bft)
29.12.2017 12:42 -4,8 °C -4,8 °C 90 % 1013,0 hPa 0,0 mm 1,5 km/h (1 Bft) S 180 ° 0 min 0,000 mm 0,0 UV-I 9 W/m² -6,2 °C -4,8 °C 3,2 km/h (1 Bft)
29.12.2017 12:43 -4,8 °C -4,8 °C 90 % 1013,0 hPa 0,0 mm 2,1 km/h (1 Bft) S 180 ° 0 min 0,000 mm 0,0 UV-I 9 W/m² -6,2 °C -4,8 °C 3,2 km/h (1 Bft)
29.12.2017 12:44 -4,8 °C -4,8 °C 90 % 1013,0 hPa 0,0 mm 1,4 km/h (1 Bft) S 180 ° 0 min 0,000 mm 0,0 UV-I 9 W/m² -6,2 °C -4,8 °C 3,2 km/h (1 Bft)
29.12.2017 12:45 -4,8 °C -4,8 °C 90 % 1013,0 hPa 0,0 mm 2,0 km/h (1 Bft) S 174 ° 0 min 0,000 mm 0,0 UV-I 9 W/m² -6,2 °C -4,8 °C 3,2 km/h (1 Bft)
29.12.2017 12:46 -4,8 °C -4,8 °C 90 % 1013,0 hPa 0,0 mm 3,8 km/h (1 Bft) SO 144 ° 0 min 0,000 mm 0,0 UV-I 9 W/m² -6,2 °C -4,8 °C 4,8 km/h (1 Bft)
29.12.2017 12:47 -4,7 °C -4,7 °C 90 % 1013,0 hPa 0,0 mm 2,6 km/h (1 Bft) SO 144 ° 0 min 0,000 mm 0,0 UV-I 12 W/m² -6,1 °C -4,7 °C 4,8 km/h (1 Bft)
29.12.2017 12:48 -4,7 °C -4,7 °C 90 % 1013,0 hPa 0,0 mm 2,8 km/h (1 Bft) SO 144 ° 0 min 0,000 mm 0,0 UV-I 11 W/m² -6,1 °C -4,7 °C 4,8 km/h (1 Bft)
29.12.2017 12:49 -4,7 °C -4,7 °C 90 % 1013,0 hPa 0,0 mm 3,6 km/h (1 Bft) SO 144 ° 0 min 0,000 mm 0,0 UV-I 9 W/m² -6,1 °C -4,7 °C 4,8 km/h (1 Bft)
29.12.2017 12:50 -4,7 °C -4,7 °C 89 % 1012,9 hPa 0,0 mm 2,0 km/h (1 Bft) SO 144 ° 0 min 0,000 mm 0,0 UV-I 9 W/m² -6,2 °C -4,7 °C 3,2 km/h (1 Bft)
29.12.2017 12:51 -4,7 °C -4,7 °C 89 % 1012,9 hPa 0,0 mm 2,0 km/h (1 Bft) SO 144 ° 0 min 0,000 mm 0,0 UV-I 9 W/m² -6,2 °C -4,7 °C 3,2 km/h (1 Bft)
29.12.2017 12:52 -4,7 °C -4,7 °C 89 % 1013,0 hPa 0,0 mm 0,2 km/h (0 Bft) SO 144 ° 0 min 0,000 mm 0,0 UV-I 9 W/m² -6,2 °C -4,7 °C 3,2 km/h (1 Bft)
29.12.2017 12:53 -4,7 °C -4,7 °C 89 % 1013,0 hPa 0,0 mm 1,8 km/h (1 Bft) SO 144 ° 0 min 0,000 mm 0,0 UV-I 9 W/m² -6,2 °C -4,7 °C 3,2 km/h (1 Bft)
29.12.2017 12:54 -4,7 °C -4,7 °C 89 % 1013,0 hPa 0,0 mm 0,4 km/h (0 Bft) SO 144 ° 0 min 0,000 mm 0,0 UV-I 9 W/m² -6,2 °C -4,7 °C 1,6 km/h (1 Bft)
29.12.2017 12:55 -4,6 °C -4,6 °C 89 % 1013,0 hPa 0,0 mm 1,9 km/h (1 Bft) SO 144 ° 0 min 0,000 mm 0,0 UV-I 9 W/m² -6,1 °C -4,6 °C 3,2 km/h (1 Bft)
29.12.2017 12:56 -4,6 °C -4,6 °C 89 % 1013,0 hPa 0,0 mm 1,3 km/h (1 Bft) SO 144 ° 0 min 0,000 mm 0,0 UV-I 9 W/m² -6,1 °C -4,6 °C 3,2 km/h (1 Bft)
29.12.2017 12:57 -4,6 °C -4,6 °C 89 % 1013,0 hPa 0,0 mm 0,4 km/h (0 Bft) SO 144 ° 0 min 0,000 mm 0,0 UV-I 9 W/m² -6,1 °C -4,6 °C 1,6 km/h (1 Bft)
29.12.2017 12:58 -4,6 °C -4,6 °C 89 % 1013,1 hPa 0,0 mm 0,8 km/h (0 Bft) SO 144 ° 0 min 0,000 mm 0,0 UV-I 9 W/m² -6,1 °C -4,6 °C 1,6 km/h (1 Bft)
29.12.2017 12:59 -4,6 °C -4,6 °C 89 % 1013,1 hPa 0,0 mm 1,3 km/h (1 Bft) SO 144 ° 0 min 0,000 mm 0,0 UV-I 9 W/m² -6,1 °C -4,6 °C 1,6 km/h (1 Bft)
29.12.2017 13:00 -4,6 °C -4,6 °C 89 % 1013,1 hPa 0,0 mm 0,6 km/h (0 Bft) SO 144 ° 0 min 0,000 mm 0,0 UV-I 11 W/m² -6,1 °C -4,6 °C 3,2 km/h (1 Bft)
29.12.2017 13:01 -4,5 °C -4,5 °C 89 % 1013,2 hPa 0,0 mm 0,3 km/h (0 Bft) SO 144 ° 0 min 0,000 mm 0,0 UV-I 11 W/m² -6,0 °C -4,5 °C 1,6 km/h (1 Bft)
29.12.2017 13:02 -4,5 °C -4,5 °C 89 % 1013,1 hPa 0,0 mm 0,0 km/h (0 Bft) SO 144 ° 0 min 0,000 mm 0,0 UV-I 11 W/m² -6,0 °C -4,5 °C 0,0 km/h (0 Bft)
29.12.2017 13:03 -4,5 °C -4,5 °C 89 % 1013,2 hPa 0,0 mm 0,0 km/h (0 Bft) SO 144 ° 0 min 0,000 mm 0,0 UV-I 11 W/m² -6,0 °C -4,5 °C 0,0 km/h (0 Bft)
29.12.2017 13:04 -4,5 °C -4,5 °C 89 % 1013,2 hPa 0,0 mm 0,0 km/h (0 Bft) SO 144 ° 0 min 0,000 mm 0,0 UV-I 11 W/m² -6,0 °C -4,5 °C 0,0 km/h (0 Bft)
29.12.2017 13:05 -4,5 °C -4,5 °C 89 % 1013,2 hPa 0,0 mm 0,0 km/h (0 Bft) SO 144 ° 0 min 0,000 mm 0,0 UV-I 9 W/m² -6,0 °C -4,5 °C 0,0 km/h (0 Bft)
29.12.2017 13:06 -4,5 °C -4,5 °C 89 % 1013,2 hPa 0,0 mm 0,0 km/h (0 Bft) SO 144 ° 0 min 0,000 mm 0,0 UV-I 11 W/m² -6,0 °C -4,5 °C 0,0 km/h (0 Bft)
29.12.2017 13:07 -4,5 °C -4,5 °C 89 % 1013,2 hPa 0,0 mm 0,0 km/h (0 Bft) SO 144 ° 0 min 0,000 mm 0,0 UV-I 11 W/m² -6,0 °C -4,5 °C 0,0 km/h (0 Bft)
29.12.2017 13:08 -4,5 °C -4,5 °C 89 % 1013,1 hPa 0,0 mm 0,0 km/h (0 Bft) SO 144 ° 0 min 0,000 mm 0,0 UV-I 11 W/m² -6,0 °C -4,5 °C 0,0 km/h (0 Bft)
29.12.2017 13:09 -4,5 °C -4,5 °C 88 % 1013,1 hPa 0,0 mm 0,0 km/h (0 Bft) SO 144 ° 0 min 0,000 mm 0,0 UV-I 11 W/m² -6,2 °C -4,5 °C 0,0 km/h (0 Bft)
29.12.2017 13:10 -4,5 °C -4,5 °C 88 % 1013,1 hPa 0,0 mm 0,0 km/h (0 Bft) SO 144 ° 0 min 0,000 mm 0,0 UV-I 12 W/m² -6,2 °C -4,5 °C 0,0 km/h (0 Bft)
29.12.2017 13:11 -4,5 °C -4,5 °C 88 % 1013,1 hPa 0,0 mm 0,0 km/h (0 Bft) SO 144 ° 0 min 0,000 mm 0,0 UV-I 16 W/m² -6,2 °C -4,5 °C 0,0 km/h (0 Bft)
29.12.2017 13:12 -4,5 °C -4,5 °C 88 % 1013,1 hPa 0,0 mm 0,4 km/h (0 Bft) SO 144 ° 0 min 0,000 mm 0,0 UV-I 11 W/m² -6,2 °C -4,5 °C 3,2 km/h (1 Bft)
29.12.2017 13:13 -4,5 °C -4,4 °C 88 % 1013,1 hPa 0,0 mm 1,4 km/h (1 Bft) SO 144 ° 0 min 0,000 mm 0,0 UV-I 11 W/m² -6,2 °C -4,5 °C 1,6 km/h (1 Bft)
29.12.2017 13:14 -4,4 °C -4,4 °C 88 % 1013,1 hPa 0,0 mm 0,9 km/h (0 Bft) SO 144 ° 0 min 0,000 mm 0,0 UV-I 9 W/m² -6,1 °C -4,4 °C 1,6 km/h (1 Bft)
29.12.2017 13:15 -4,4 °C -4,4 °C 88 % 1013,1 hPa 0,0 mm 0,0 km/h (0 Bft) SO 144 ° 0 min 0,000 mm 0,0 UV-I 9 W/m² -6,1 °C -4,4 °C 0,0 km/h (0 Bft)
29.12.2017 13:16 -4,5 °C -4,4 °C 88 % 1013,1 hPa 0,0 mm 0,0 km/h (0 Bft) SO 144 ° 0 min 0,000 mm 0,0 UV-I 9 W/m² -6,2 °C -4,5 °C 0,0 km/h (0 Bft)
29.12.2017 13:17 -4,4 °C -4,4 °C 88 % 1013,1 hPa 0,0 mm 0,0 km/h (0 Bft) SO 144 ° 0 min 0,000 mm 0,0 UV-I 9 W/m² -6,1 °C -4,4 °C 0,0 km/h (0 Bft)
29.12.2017 13:18 -4,4 °C -4,4 °C 88 % 1013,0 hPa 0,0 mm 1,5 km/h (1 Bft) SO 144 ° 0 min 0,000 mm 0,0 UV-I 9 W/m² -6,1 °C -4,4 °C 1,6 km/h (1 Bft)
29.12.2017 13:19 -4,4 °C -4,4 °C 88 % 1013,0 hPa 0,0 mm 1,7 km/h (1 Bft) SO 144 ° 0 min 0,000 mm 0,0 UV-I 9 W/m² -6,1 °C -4,4 °C 3,2 km/h (1 Bft)
29.12.2017 13:20 -4,4 °C -4,4 °C 88 % 1013,0 hPa 0,0 mm 1,3 km/h (1 Bft) SO 144 ° 0 min 0,000 mm 0,0 UV-I 9 W/m² -6,1 °C -4,4 °C 1,6 km/h (1 Bft)
29.12.2017 13:21 -4,3 °C -4,3 °C 88 % 1013,1 hPa 0,0 mm 0,7 km/h (0 Bft) SO 144 ° 0 min 0,000 mm 0,0 UV-I 9 W/m² -6,0 °C -4,3 °C 1,6 km/h (1 Bft)
29.12.2017 13:22 -4,3 °C -4,3 °C 88 % 1013,1 hPa 0,0 mm 1,3 km/h (1 Bft) SO 144 ° 0 min 0,000 mm 0,0 UV-I 9 W/m² -6,0 °C -4,3 °C 1,6 km/h (1 Bft)
29.12.2017 13:23 -4,2 °C -4,2 °C 88 % 1013,1 hPa 0,0 mm 2,5 km/h (1 Bft) SO 144 ° 0 min 0,000 mm 0,0 UV-I 9 W/m² -5,9 °C -4,2 °C 3,2 km/h (1 Bft)
29.12.2017 13:24 -4,2 °C -4,2 °C 88 % 1013,0 hPa 0,0 mm 3,1 km/h (1 Bft) SO 144 ° 0 min 0,000 mm 0,0 UV-I 9 W/m² -5,9 °C -4,2 °C 3,2 km/h (1 Bft)
29.12.2017 13:25 -4,2 °C -4,2 °C 88 % 1013,0 hPa 0,0 mm 2,3 km/h (1 Bft) SO 144 ° 0 min 0,000 mm 0,0 UV-I 9 W/m² -5,9 °C -4,2 °C 3,2 km/h (1 Bft)
29.12.2017 13:26 -4,2 °C -4,1 °C 88 % 1013,0 hPa 0,0 mm 2,5 km/h (1 Bft) SO 144 ° 0 min 0,000 mm 0,0 UV-I 9 W/m² -5,9 °C -4,2 °C 3,2 km/h (1 Bft)
29.12.2017 13:27 -4,1 °C -4,1 °C 87 % 1012,9 hPa 0,0 mm 2,2 km/h (1 Bft) SO 144 ° 0 min 0,000 mm 0,0 UV-I 9 W/m² -5,9 °C -4,1 °C 3,2 km/h (1 Bft)
29.12.2017 13:28 -4,1 °C -4,1 °C 87 % 1012,9 hPa 0,0 mm 2,1 km/h (1 Bft) SO 144 ° 0 min 0,000 mm 0,0 UV-I 9 W/m² -5,9 °C -4,1 °C 3,2 km/h (1 Bft)
29.12.2017 13:29 -4,1 °C -4,1 °C 87 % 1012,9 hPa 0,0 mm 1,6 km/h (1 Bft) SO 144 ° 0 min 0,000 mm 0,0 UV-I 9 W/m² -5,9 °C -4,1 °C 3,2 km/h (1 Bft)
29.12.2017 13:30 -4,0 °C -4,0 °C 87 % 1012,9 hPa 0,0 mm 1,3 km/h (1 Bft) SO 144 ° 0 min 0,000 mm 0,0 UV-I 9 W/m² -5,8 °C -4,0 °C 1,6 km/h (1 Bft)
29.12.2017 13:31 -4,0 °C -3,9 °C 87 % 1012,9 hPa 0,0 mm 0,6 km/h (0 Bft) SO 144 ° 0 min 0,000 mm 0,0 UV-I 9 W/m² -5,8 °C -4,0 °C 1,6 km/h (1 Bft)
29.12.2017 13:32 -3,9 °C -3,9 °C 87 % 1012,9 hPa 0,0 mm 0,0 km/h (0 Bft) SO 144 ° 0 min 0,000 mm 0,0 UV-I 11 W/m² -5,7 °C -3,9 °C 0,0 km/h (0 Bft)
29.12.2017 13:33 -3,9 °C -3,9 °C 87 % 1012,9 hPa 0,0 mm 0,5 km/h (0 Bft) SO 144 ° 0 min 0,000 mm 0,0 UV-I 9 W/m² -5,7 °C -3,9 °C 1,6 km/h (1 Bft)
29.12.2017 13:34 -3,9 °C -3,9 °C 87 % 1012,9 hPa 0,0 mm 1,0 km/h (0 Bft) SO 144 ° 0 min 0,000 mm 0,0 UV-I 9 W/m² -5,7 °C -3,9 °C 1,6 km/h (1 Bft)
29.12.2017 13:35 -3,9 °C -3,9 °C 87 % 1012,9 hPa 0,0 mm 1,9 km/h (1 Bft) SO 144 ° 0 min 0,000 mm 0,0 UV-I 9 W/m² -5,7 °C -3,9 °C 3,2 km/h (1 Bft)
29.12.2017 13:36 -3,9 °C -3,9 °C 87 % 1012,9 hPa 0,0 mm 1,8 km/h (1 Bft) SO 144 ° 0 min 0,000 mm 0,0 UV-I 9 W/m² -5,7 °C -3,9 °C 3,2 km/h (1 Bft)
29.12.2017 13:37 -3,9 °C -3,9 °C 87 % 1012,9 hPa 0,0 mm 0,3 km/h (0 Bft) SO 144 ° 0 min 0,000 mm 0,0 UV-I 9 W/m² -5,7 °C -3,9 °C 1,6 km/h (1 Bft)
29.12.2017 13:38 -4,0 °C -3,9 °C 87 % 1012,9 hPa 0,0 mm 1,3 km/h (1 Bft) SO 144 ° 0 min 0,000 mm 0,0 UV-I 9 W/m² -5,8 °C -4,0 °C 3,2 km/h (1 Bft)
29.12.2017 13:39 -4,0 °C -3,9 °C 86 % 1012,9 hPa 0,0 mm 2,3 km/h (1 Bft) SO 144 ° 0 min 0,000 mm 0,0 UV-I 9 W/m² -6,0 °C -4,0 °C 3,2 km/h (1 Bft)
29.12.2017 13:40 -4,0 °C -3,9 °C 86 % 1012,9 hPa 0,0 mm 2,1 km/h (1 Bft) SO 144 ° 0 min 0,000 mm 0,0 UV-I 9 W/m² -6,0 °C -4,0 °C 3,2 km/h (1 Bft)
29.12.2017 13:41 -4,0 °C -4,0 °C 85 % 1012,9 hPa 0,0 mm 1,9 km/h (1 Bft) SO 144 ° 0 min 0,000 mm 0,0 UV-I 9 W/m² -6,1 °C -4,0 °C 3,2 km/h (1 Bft)
29.12.2017 13:42 -4,0 °C -4,0 °C 85 % 1012,9 hPa 0,0 mm 1,5 km/h (1 Bft) SO 144 ° 0 min 0,000 mm 0,0 UV-I 11 W/m² -6,1 °C -4,0 °C 3,2 km/h (1 Bft)
29.12.2017 13:43 -4,0 °C -3,9 °C 85 % 1012,9 hPa 0,0 mm 0,2 km/h (0 Bft) SO 144 ° 0 min 0,000 mm 0,0 UV-I 11 W/m² -6,1 °C -4,0 °C 1,6 km/h (1 Bft)
29.12.2017 13:44 -4,0 °C -3,9 °C 84 % 1012,9 hPa 0,0 mm 0,0 km/h (0 Bft) SO 144 ° 0 min 0,000 mm 0,0 UV-I 12 W/m² -6,3 °C -4,0 °C 0,0 km/h (0 Bft)
29.12.2017 13:45 -4,0 °C -4,0 °C 85 % 1012,9 hPa 0,0 mm 0,0 km/h (0 Bft) SO 144 ° 0 min 0,000 mm 0,0 UV-I 14 W/m² -6,1 °C -4,0 °C 0,0 km/h (0 Bft)
29.12.2017 13:46 -4,0 °C -4,0 °C 85 % 1012,9 hPa 0,0 mm 0,0 km/h (0 Bft) SO 144 ° 0 min 0,000 mm 0,0 UV-I 18 W/m² -6,1 °C -4,0 °C 0,0 km/h (0 Bft)
29.12.2017 13:47 -3,9 °C -3,9 °C 85 % 1012,8 hPa 0,0 mm 0,0 km/h (0 Bft) SO 144 ° 0 min 0,000 mm 0,0 UV-I 18 W/m² -6,0 °C -3,9 °C 0,0 km/h (0 Bft)
29.12.2017 13:48 -3,9 °C -3,9 °C 85 % 1012,9 hPa 0,0 mm 0,0 km/h (0 Bft) SO 144 ° 0 min 0,000 mm 0,0 UV-I 19 W/m² -6,0 °C -3,9 °C 0,0 km/h (0 Bft)
29.12.2017 13:49 -3,9 °C -3,9 °C 85 % 1012,9 hPa 0,0 mm 0,0 km/h (0 Bft) SO 144 ° 0 min 0,000 mm 0,0 UV-I 26 W/m² -6,0 °C -3,9 °C 0,0 km/h (0 Bft)
29.12.2017 13:50 -3,9 °C -3,9 °C 84 % 1012,9 hPa 0,0 mm 0,0 km/h (0 Bft) SO 144 ° 0 min 0,000 mm 0,0 UV-I 51 W/m² -6,2 °C -3,9 °C 0,0 km/h (0 Bft)
29.12.2017 13:51 -3,9 °C -3,9 °C 85 % 1013,0 hPa 0,0 mm 0,5 km/h (0 Bft) SO 144 ° 0 min 0,000 mm 0,0 UV-I 86 W/m² -6,0 °C -3,9 °C 3,2 km/h (1 Bft)
29.12.2017 13:52 -3,9 °C -3,9 °C 85 % 1012,9 hPa 0,0 mm 3,1 km/h (1 Bft) SO 144 ° 0 min 0,000 mm 0,0 UV-I 113 W/m² -6,0 °C -3,9 °C 4,8 km/h (1 Bft)
29.12.2017 13:53 -3,8 °C -3,8 °C 85 % 1012,9 hPa 0,0 mm 2,7 km/h (1 Bft) SO 144 ° 0 min 0,000 mm 0,0 UV-I 141 W/m² -5,9 °C -3,8 °C 3,2 km/h (1 Bft)
29.12.2017 13:54 -3,8 °C -3,8 °C 85 % 1013,0 hPa 0,0 mm 1,9 km/h (1 Bft) SO 144 ° 0 min 0,000 mm 0,0 UV-I 148 W/m² -5,9 °C -3,8 °C 3,2 km/h (1 Bft)
29.12.2017 13:55 -3,7 °C -3,7 °C 86 % 1013,0 hPa 0,0 mm 1,7 km/h (1 Bft) SO 144 ° 0 min 0,000 mm 0,0 UV-I 149 W/m² -5,7 °C -3,7 °C 3,2 km/h (1 Bft)
29.12.2017 13:56 -3,7 °C -3,7 °C 86 % 1013,0 hPa 0,0 mm 1,8 km/h (1 Bft) SO 144 ° 0 min 0,000 mm 0,0 UV-I 148 W/m² -5,7 °C -3,7 °C 3,2 km/h (1 Bft)
29.12.2017 13:57 -3,6 °C -3,6 °C 86 % 1013,0 hPa 0,0 mm 2,0 km/h (1 Bft) SO 144 ° 0 min 0,000 mm 0,0 UV-I 149 W/m² -5,6 °C -3,6 °C 3,2 km/h (1 Bft)
29.12.2017 13:58 -3,5 °C -3,5 °C 85 % 1012,9 hPa 0,0 mm 2,0 km/h (1 Bft) SO 144 ° 0 min 0,000 mm 0,0 UV-I 148 W/m² -5,6 °C -3,5 °C 3,2 km/h (1 Bft)
29.12.2017 13:59 -3,4 °C -3,4 °C 85 % 1012,9 hPa 0,0 mm 2,3 km/h (1 Bft) SO 144 ° 0 min 0,000 mm 0,0 UV-I 146 W/m² -5,5 °C -3,4 °C 3,2 km/h (1 Bft)
29.12.2017 14:00 -3,3 °C -3,3 °C 84 % 1012,9 hPa 0,0 mm 2,2 km/h (1 Bft) SO 144 ° 0 min 0,000 mm 0,0 UV-I 148 W/m² -5,6 °C -3,3 °C 3,2 km/h (1 Bft)
29.12.2017 14:01 -3,3 °C -3,3 °C 84 % 1012,9 hPa 0,0 mm 1,6 km/h (1 Bft) SO 144 ° 0 min 0,000 mm 0,0 UV-I 148 W/m² -5,6 °C -3,3 °C 1,6 km/h (1 Bft)
29.12.2017 14:02 -3,2 °C -3,2 °C 84 % 1013,0 hPa 0,0 mm 2,3 km/h (1 Bft) SO 144 ° 0 min 0,000 mm 0,0 UV-I 144 W/m² -5,5 °C -3,2 °C 3,2 km/h (1 Bft)
29.12.2017 14:03 -3,2 °C -3,2 °C 84 % 1012,9 hPa 0,0 mm 1,8 km/h (1 Bft) SO 144 ° 0 min 0,000 mm 0,0 UV-I 137 W/m² -5,5 °C -3,2 °C 3,2 km/h (1 Bft)
29.12.2017 14:04 -3,2 °C -3,2 °C 83 % 1012,9 hPa 0,0 mm 0,9 km/h (0 Bft) SO 144 ° 0 min 0,000 mm 0,0 UV-I 118 W/m² -5,7 °C -3,2 °C 1,6 km/h (1 Bft)
29.12.2017 14:05 -3,2 °C -3,2 °C 83 % 1012,9 hPa 0,0 mm 0,2 km/h (0 Bft) SO 144 ° 0 min 0,000 mm 0,0 UV-I 23 W/m² -5,7 °C -3,2 °C 1,6 km/h (1 Bft)
29.12.2017 14:06 -3,2 °C -3,2 °C 83 % 1012,9 hPa 0,0 mm 0,8 km/h (0 Bft) SO 144 ° 0 min 0,000 mm 0,0 UV-I 9 W/m² -5,7 °C -3,2 °C 3,2 km/h (1 Bft)
29.12.2017 14:07 -3,2 °C -3,2 °C 83 % 1012,9 hPa 0,0 mm 2,6 km/h (1 Bft) SO 144 ° 0 min 0,000 mm 0,0 UV-I 9 W/m² -5,7 °C -3,2 °C 4,8 km/h (1 Bft)
29.12.2017 14:08 -3,1 °C -3,1 °C 83 % 1012,8 hPa 0,0 mm 2,9 km/h (1 Bft) SO 144 ° 0 min 0,000 mm 0,0 UV-I 11 W/m² -5,6 °C -3,1 °C 4,8 km/h (1 Bft)
29.12.2017 14:09 -3,2 °C -3,1 °C 83 % 1012,8 hPa 0,0 mm 3,1 km/h (1 Bft) SO 144 ° 0 min 0,000 mm 0,0 UV-I 11 W/m² -5,7 °C -3,2 °C 3,2 km/h (1 Bft)
29.12.2017 14:10 -3,1 °C -3,1 °C 83 % 1012,7 hPa 0,0 mm 2,8 km/h (1 Bft) SO 144 ° 0 min 0,000 mm 0,0 UV-I 12 W/m² -5,6 °C -3,1 °C 3,2 km/h (1 Bft)
29.12.2017 14:11 -3,2 °C -3,1 °C 83 % 1012,8 hPa 0,0 mm 2,3 km/h (1 Bft) SO 144 ° 0 min 0,000 mm 0,0 UV-I 11 W/m² -5,7 °C -3,2 °C 3,2 km/h (1 Bft)
29.12.2017 14:12 -3,2 °C -3,1 °C 83 % 1012,8 hPa 0,0 mm 0,9 km/h (0 Bft) SO 144 ° 0 min 0,000 mm 0,0 UV-I 9 W/m² -5,7 °C -3,2 °C 1,6 km/h (1 Bft)
29.12.2017 14:13 -3,2 °C -3,1 °C 83 % 1012,8 hPa 0,0 mm 1,4 km/h (1 Bft) SO 144 ° 0 min 0,000 mm 0,0 UV-I 9 W/m² -5,7 °C -3,2 °C 3,2 km/h (1 Bft)
29.12.2017 14:14 -3,2 °C -3,1 °C 83 % 1012,7 hPa 0,0 mm 0,1 km/h (0 Bft) SO 144 ° 0 min 0,000 mm 0,0 UV-I 9 W/m² -5,7 °C -3,2 °C 1,6 km/h (1 Bft)
29.12.2017 14:15 -3,2 °C -3,1 °C 83 % 1012,7 hPa 0,0 mm 0,0 km/h (0 Bft) SO 144 ° 0 min 0,000 mm 0,0 UV-I 9 W/m² -5,7 °C -3,2 °C 0,0 km/h (0 Bft)
29.12.2017 14:16 -3,2 °C -3,2 °C 83 % 1012,7 hPa 0,0 mm 0,0 km/h (0 Bft) SO 144 ° 0 min 0,000 mm 0,0 UV-I 9 W/m² -5,7 °C -3,2 °C 0,0 km/h (0 Bft)
29.12.2017 14:17 -3,2 °C -3,2 °C 83 % 1012,7 hPa 0,0 mm 0,0 km/h (0 Bft) SO 144 ° 0 min 0,000 mm 0,0 UV-I 9 W/m² -5,7 °C -3,2 °C 0,0 km/h (0 Bft)
29.12.2017 14:18 -3,2 °C -3,2 °C 83 % 1012,7 hPa 0,0 mm 0,4 km/h (0 Bft) SO 144 ° 0 min 0,000 mm 0,0 UV-I 9 W/m² -5,7 °C -3,2 °C 3,2 km/h (1 Bft)
29.12.2017 14:19 -3,2 °C -3,2 °C 83 % 1012,7 hPa 0,0 mm 1,6 km/h (1 Bft) SO 144 ° 0 min 0,000 mm 0,0 UV-I 9 W/m² -5,7 °C -3,2 °C 3,2 km/h (1 Bft)
29.12.2017 14:20 -3,2 °C -3,2 °C 83 % 1012,7 hPa 0,0 mm 0,9 km/h (0 Bft) SO 144 ° 0 min 0,000 mm 0,0 UV-I 9 W/m² -5,7 °C -3,2 °C 3,2 km/h (1 Bft)
29.12.2017 14:21 -3,2 °C -3,2 °C 83 % 1012,7 hPa 0,0 mm 0,5 km/h (0 Bft) SO 144 ° 0 min 0,000 mm 0,0 UV-I 9 W/m² -5,7 °C -3,2 °C 1,6 km/h (1 Bft)
29.12.2017 14:22 -3,2 °C -3,2 °C 84 % 1012,7 hPa 0,0 mm 1,4 km/h (1 Bft) SO 144 ° 0 min 0,000 mm 0,0 UV-I 9 W/m² -5,5 °C -3,2 °C 1,6 km/h (1 Bft)
29.12.2017 14:23 -3,2 °C -3,2 °C 84 % 1012,7 hPa 0,0 mm 1,4 km/h (1 Bft) SO 144 ° 0 min 0,000 mm 0,0 UV-I 9 W/m² -5,5 °C -3,2 °C 3,2 km/h (1 Bft)
29.12.2017 14:24 -3,2 °C -3,2 °C 84 % 1012,7 hPa 0,0 mm 0,9 km/h (0 Bft) SO 144 ° 0 min 0,000 mm 0,0 UV-I 9 W/m² -5,5 °C -3,2 °C 1,6 km/h (1 Bft)
29.12.2017 14:25 -3,2 °C -3,2 °C 84 % 1012,7 hPa 0,0 mm 0,0 km/h (0 Bft) SO 144 ° 0 min 0,000 mm 0,0 UV-I 9 W/m² -5,5 °C -3,2 °C 0,0 km/h (0 Bft)
29.12.2017 14:26 -3,2 °C -3,2 °C 84 % 1012,6 hPa 0,0 mm 0,0 km/h (0 Bft) SO 144 ° 0 min 0,000 mm 0,0 UV-I 9 W/m² -5,5 °C -3,2 °C 0,0 km/h (0 Bft)
29.12.2017 14:27 -3,3 °C -3,2 °C 84 % 1012,6 hPa 0,0 mm 0,6 km/h (0 Bft) SO 144 ° 0 min 0,000 mm 0,0 UV-I 9 W/m² -5,6 °C -3,3 °C 1,6 km/h (1 Bft)
29.12.2017 14:28 -3,3 °C -3,3 °C 85 % 1012,6 hPa 0,0 mm 1,3 km/h (1 Bft) SO 144 ° 0 min 0,000 mm 0,0 UV-I 9 W/m² -5,5 °C -3,3 °C 1,6 km/h (1 Bft)
29.12.2017 14:29 -3,3 °C -3,3 °C 85 % 1012,6 hPa 0,0 mm 2,0 km/h (1 Bft) SO 144 ° 0 min 0,000 mm 0,0 UV-I 9 W/m² -5,5 °C -3,3 °C 3,2 km/h (1 Bft)
29.12.2017 14:30 -3,3 °C -3,3 °C 85 % 1012,6 hPa 0,0 mm 2,6 km/h (1 Bft) SO 144 ° 0 min 0,000 mm 0,0 UV-I 9 W/m² -5,5 °C -3,3 °C 3,2 km/h (1 Bft)
29.12.2017 14:31 -3,3 °C -3,3 °C 85 % 1012,6 hPa 0,0 mm 2,5 km/h (1 Bft) SO 144 ° 0 min 0,000 mm 0,0 UV-I 9 W/m² -5,5 °C -3,3 °C 3,2 km/h (1 Bft)
29.12.2017 14:32 -3,3 °C -3,3 °C 85 % 1012,6 hPa 0,0 mm 1,2 km/h (1 Bft) SO 144 ° 0 min 0,000 mm 0,0 UV-I 9 W/m² -5,5 °C -3,3 °C 1,6 km/h (1 Bft)
29.12.2017 14:33 -3,3 °C -3,3 °C 85 % 1012,7 hPa 0,0 mm 0,3 km/h (0 Bft) SO 144 ° 0 min 0,000 mm 0,0 UV-I 9 W/m² -5,5 °C -3,3 °C 1,6 km/h (1 Bft)
29.12.2017 14:34 -3,3 °C -3,3 °C 85 % 1012,7 hPa 0,0 mm 0,1 km/h (0 Bft) SO 144 ° 0 min 0,000 mm 0,0 UV-I 9 W/m² -5,5 °C -3,3 °C 1,6 km/h (1 Bft)
29.12.2017 14:35 -3,3 °C -3,3 °C 86 % 1012,7 hPa 0,0 mm 1,6 km/h (1 Bft) SO 144 ° 0 min 0,000 mm 0,0 UV-I 9 W/m² -5,3 °C -3,3 °C 1,6 km/h (1 Bft)
29.12.2017 14:36 -3,3 °C -3,3 °C 86 % 1012,7 hPa 0,0 mm 1,5 km/h (1 Bft) SO 144 ° 0 min 0,000 mm 0,0 UV-I 11 W/m² -5,3 °C -3,3 °C 3,2 km/h (1 Bft)
29.12.2017 14:37 -3,4 °C -3,3 °C 86 % 1012,6 hPa 0,0 mm 2,2 km/h (1 Bft) SO 144 ° 0 min 0,000 mm 0,0 UV-I 9 W/m² -5,4 °C -3,4 °C 3,2 km/h (1 Bft)
29.12.2017 14:38 -3,3 °C -3,3 °C 86 % 1012,6 hPa 0,0 mm 2,5 km/h (1 Bft) SO 144 ° 0 min 0,000 mm 0,0 UV-I 11 W/m² -5,3 °C -3,3 °C 3,2 km/h (1 Bft)
29.12.2017 14:39 -3,4 °C -3,3 °C 86 % 1012,6 hPa 0,0 mm 1,9 km/h (1 Bft) SO 144 ° 0 min 0,000 mm 0,0 UV-I 9 W/m² -5,4 °C -3,4 °C 3,2 km/h (1 Bft)
29.12.2017 14:40 -3,4 °C -3,4 °C 86 % 1012,6 hPa 0,0 mm 1,1 km/h (1 Bft) SO 144 ° 0 min 0,000 mm 0,0 UV-I 9 W/m² -5,4 °C -3,4 °C 1,6 km/h (1 Bft)
29.12.2017 14:41 -3,4 °C -3,4 °C 86 % 1012,6 hPa 0,0 mm 0,1 km/h (0 Bft) SO 144 ° 0 min 0,000 mm 0,0 UV-I 9 W/m² -5,4 °C -3,4 °C 1,6 km/h (1 Bft)
29.12.2017 14:42 -3,4 °C -3,4 °C 86 % 1012,6 hPa 0,0 mm 0,0 km/h (0 Bft) SO 144 ° 0 min 0,000 mm 0,0 UV-I 11 W/m² -5,4 °C -3,4 °C 0,0 km/h (0 Bft)
29.12.2017 14:43 -3,5 °C -3,4 °C 86 % 1012,5 hPa 0,0 mm 0,0 km/h (0 Bft) SO 144 ° 0 min 0,000 mm 0,0 UV-I 11 W/m² -5,5 °C -3,5 °C 0,0 km/h (0 Bft)
29.12.2017 14:44 -3,4 °C -3,4 °C 86 % 1012,6 hPa 0,0 mm 0,0 km/h (0 Bft) SO 144 ° 0 min 0,000 mm 0,0 UV-I 11 W/m² -5,4 °C -3,4 °C 0,0 km/h (0 Bft)
29.12.2017 14:45 -3,5 °C -3,4 °C 86 % 1012,6 hPa 0,0 mm 0,0 km/h (0 Bft) SO 144 ° 0 min 0,000 mm 0,0 UV-I 11 W/m² -5,5 °C -3,5 °C 0,0 km/h (0 Bft)
29.12.2017 14:46 -3,5 °C -3,5 °C 85 % 1012,5 hPa 0,0 mm 0,0 km/h (0 Bft) SO 144 ° 0 min 0,000 mm 0,0 UV-I 11 W/m² -5,6 °C -3,5 °C 0,0 km/h (0 Bft)
29.12.2017 14:47 -3,6 °C -3,5 °C 85 % 1012,5 hPa 0,0 mm 0,8 km/h (0 Bft) SO 144 ° 0 min 0,000 mm 0,0 UV-I 11 W/m² -5,7 °C -3,6 °C 1,6 km/h (1 Bft)
29.12.2017 14:48 -3,6 °C -3,6 °C 85 % 1012,4 hPa 0,0 mm 1,0 km/h (0 Bft) SO 144 ° 0 min 0,000 mm 0,0 UV-I 11 W/m² -5,7 °C -3,6 °C 1,6 km/h (1 Bft)
29.12.2017 14:49 -3,6 °C -3,6 °C 85 % 1012,4 hPa 0,0 mm 1,5 km/h (1 Bft) SO 144 ° 0 min 0,000 mm 0,0 UV-I 11 W/m² -5,7 °C -3,6 °C 3,2 km/h (1 Bft)
29.12.2017 14:50 -3,6 °C -3,6 °C 85 % 1012,4 hPa 0,0 mm 1,7 km/h (1 Bft) SO 144 ° 0 min 0,000 mm 0,0 UV-I 11 W/m² -5,7 °C -3,6 °C 3,2 km/h (1 Bft)
29.12.2017 14:51 -3,6 °C -3,6 °C 86 % 1012,3 hPa 0,0 mm 1,3 km/h (1 Bft) SO 144 ° 0 min 0,000 mm 0,0 UV-I 11 W/m² -5,6 °C -3,6 °C 3,2 km/h (1 Bft)
29.12.2017 14:52 -3,6 °C -3,6 °C 86 % 1012,3 hPa 0,0 mm 1,0 km/h (0 Bft) SO 144 ° 0 min 0,000 mm 0,0 UV-I 11 W/m² -5,6 °C -3,6 °C 3,2 km/h (1 Bft)
29.12.2017 14:53 -3,7 °C -3,6 °C 85 % 1012,3 hPa 0,0 mm 2,2 km/h (1 Bft) SO 144 ° 0 min 0,000 mm 0,0 UV-I 11 W/m² -5,8 °C -3,7 °C 3,2 km/h (1 Bft)
29.12.2017 14:54 -3,7 °C -3,7 °C 85 % 1012,3 hPa 0,0 mm 1,1 km/h (1 Bft) SO 144 ° 0 min 0,000 mm 0,0 UV-I 11 W/m² -5,8 °C -3,7 °C 3,2 km/h (1 Bft)
29.12.2017 14:55 -3,7 °C -3,7 °C 85 % 1012,2 hPa 0,0 mm 0,5 km/h (0 Bft) SO 144 ° 0 min 0,000 mm 0,0 UV-I 11 W/m² -5,8 °C -3,7 °C 3,2 km/h (1 Bft)
29.12.2017 14:56 -3,7 °C -3,7 °C 85 % 1012,2 hPa 0,0 mm 2,7 km/h (1 Bft) SO 144 ° 0 min 0,000 mm 0,0 UV-I 11 W/m² -5,8 °C -3,7 °C 3,2 km/h (1 Bft)
29.12.2017 14:57 -3,7 °C -3,7 °C 85 % 1012,2 hPa 0,0 mm 2,3 km/h (1 Bft) SO 144 ° 0 min 0,000 mm 0,0 UV-I 11 W/m² -5,8 °C -3,7 °C 3,2 km/h (1 Bft)
29.12.2017 14:58 -3,7 °C -3,7 °C 85 % 1012,1 hPa 0,0 mm 1,3 km/h (1 Bft) SO 144 ° 0 min 0,000 mm 0,0 UV-I 11 W/m² -5,8 °C -3,7 °C 1,6 km/h (1 Bft)
29.12.2017 14:59 -3,7 °C -3,7 °C 85 % 1012,1 hPa 0,0 mm 1,0 km/h (0 Bft) SO 144 ° 0 min 0,000 mm 0,0 UV-I 11 W/m² -5,8 °C -3,7 °C 1,6 km/h (1 Bft)
29.12.2017 15:00 -3,8 °C -3,7 °C 85 % 1012,1 hPa 0,0 mm 2,2 km/h (1 Bft) SO 144 ° 0 min 0,000 mm 0,0 UV-I 11 W/m² -5,9 °C -3,8 °C 3,2 km/h (1 Bft)
29.12.2017 15:01 -3,8 °C -3,7 °C 85 % 1012,2 hPa 0,0 mm 1,9 km/h (1 Bft) SO 144 ° 0 min 0,000 mm 0,0 UV-I 11 W/m² -5,9 °C -3,8 °C 3,2 km/h (1 Bft)
29.12.2017 15:02 -3,8 °C -3,8 °C 85 % 1012,1 hPa 0,0 mm 1,7 km/h (1 Bft) SO 144 ° 0 min 0,000 mm 0,0 UV-I 9 W/m² -5,9 °C -3,8 °C 3,2 km/h (1 Bft)
29.12.2017 15:03 -3,8 °C -3,8 °C 85 % 1012,1 hPa 0,0 mm 2,5 km/h (1 Bft) SO 144 ° 0 min 0,000 mm 0,0 UV-I 9 W/m² -5,9 °C -3,8 °C 3,2 km/h (1 Bft)
29.12.2017 15:04 -3,8 °C -3,8 °C 85 % 1012,1 hPa 0,0 mm 1,7 km/h (1 Bft) SO 144 ° 0 min 0,000 mm 0,0 UV-I 9 W/m² -5,9 °C -3,8 °C 3,2 km/h (1 Bft)
29.12.2017 15:05 -3,8 °C -3,8 °C 85 % 1012,1 hPa 0,0 mm 2,7 km/h (1 Bft) SO 144 ° 0 min 0,000 mm 0,0 UV-I 9 W/m² -5,9 °C -3,8 °C 3,2 km/h (1 Bft)
29.12.2017 15:06 -3,8 °C -3,8 °C 85 % 1012,1 hPa 0,0 mm 1,8 km/h (1 Bft) SO 144 ° 0 min 0,000 mm 0,0 UV-I 9 W/m² -5,9 °C -3,8 °C 3,2 km/h (1 Bft)
29.12.2017 15:07 -3,8 °C -3,8 °C 85 % 1012,1 hPa 0,0 mm 1,4 km/h (1 Bft) SO 144 ° 0 min 0,000 mm 0,0 UV-I 9 W/m² -5,9 °C -3,8 °C 1,6 km/h (1 Bft)
29.12.2017 15:08 -3,8 °C -3,8 °C 85 % 1012,1 hPa 0,0 mm 1,6 km/h (1 Bft) SO 144 ° 0 min 0,000 mm 0,0 UV-I 9 W/m² -5,9 °C -3,8 °C 3,2 km/h (1 Bft)
29.12.2017 15:09 -3,8 °C -3,8 °C 85 % 1012,0 hPa 0,0 mm 1,3 km/h (1 Bft) SO 144 ° 0 min 0,000 mm 0,0 UV-I 9 W/m² -5,9 °C -3,8 °C 3,2 km/h (1 Bft)
29.12.2017 15:10 -3,9 °C -3,8 °C 85 % 1012,1 hPa 0,0 mm 1,9 km/h (1 Bft) SO 144 ° 0 min 0,000 mm 0,0 UV-I 9 W/m² -6,0 °C -3,9 °C 3,2 km/h (1 Bft)
29.12.2017 15:11 -3,9 °C -3,9 °C 85 % 1012,0 hPa 0,0 mm 1,9 km/h (1 Bft) SO 144 ° 0 min 0,000 mm 0,0 UV-I 9 W/m² -6,0 °C -3,9 °C 3,2 km/h (1 Bft)
29.12.2017 15:12 -3,9 °C -3,9 °C 85 % 1012,0 hPa 0,0 mm 2,4 km/h (1 Bft) SO 144 ° 0 min 0,000 mm 0,0 UV-I 9 W/m² -6,0 °C -3,9 °C 3,2 km/h (1 Bft)
29.12.2017 15:13 -3,9 °C -3,9 °C 85 % 1012,0 hPa 0,0 mm 1,7 km/h (1 Bft) SO 144 ° 0 min 0,000 mm 0,0 UV-I 9 W/m² -6,0 °C -3,9 °C 3,2 km/h (1 Bft)
29.12.2017 15:14 -3,9 °C -3,9 °C 85 % 1012,0 hPa 0,0 mm 2,1 km/h (1 Bft) SO 144 ° 0 min 0,000 mm 0,0 UV-I 9 W/m² -6,0 °C -3,9 °C 3,2 km/h (1 Bft)
29.12.2017 15:15 -3,9 °C -3,9 °C 85 % 1012,0 hPa 0,0 mm 1,3 km/h (1 Bft) SO 144 ° 0 min 0,000 mm 0,0 UV-I 9 W/m² -6,0 °C -3,9 °C 3,2 km/h (1 Bft)
29.12.2017 15:16 -4,0 °C -3,9 °C 85 % 1012,0 hPa 0,0 mm 1,1 km/h (1 Bft) SO 144 ° 0 min 0,000 mm 0,0 UV-I 9 W/m² -6,1 °C -4,0 °C 3,2 km/h (1 Bft)
29.12.2017 15:17 -4,1 °C -4,0 °C 85 % 1012,0 hPa 0,0 mm 0,1 km/h (0 Bft) SO 144 ° 0 min 0,000 mm 0,0 UV-I 9 W/m² -6,2 °C -4,1 °C 1,6 km/h (1 Bft)
29.12.2017 15:18 -4,1 °C -4,1 °C 85 % 1012,0 hPa 0,0 mm 0,0 km/h (0 Bft) SO 144 ° 0 min 0,000 mm 0,0 UV-I 9 W/m² -6,2 °C -4,1 °C 0,0 km/h (0 Bft)
29.12.2017 15:19 -4,1 °C -4,1 °C 85 % 1012,0 hPa 0,0 mm 0,4 km/h (0 Bft) SO 144 ° 0 min 0,000 mm 0,0 UV-I 9 W/m² -6,2 °C -4,1 °C 1,6 km/h (1 Bft)
29.12.2017 15:20 -4,1 °C -4,1 °C 85 % 1012,0 hPa 0,0 mm 0,5 km/h (0 Bft) SO 144 ° 0 min 0,000 mm 0,0 UV-I 7 W/m² -6,2 °C -4,1 °C 1,6 km/h (1 Bft)
29.12.2017 15:21 -4,1 °C -4,1 °C 85 % 1011,9 hPa 0,0 mm 1,7 km/h (1 Bft) SO 144 ° 0 min 0,000 mm 0,0 UV-I 7 W/m² -6,2 °C -4,1 °C 3,2 km/h (1 Bft)
29.12.2017 15:22 -4,2 °C -4,1 °C 86 % 1011,9 hPa 0,0 mm 3,0 km/h (1 Bft) SO 144 ° 0 min 0,000 mm 0,0 UV-I 7 W/m² -6,2 °C -4,2 °C 4,8 km/h (1 Bft)
29.12.2017 15:23 -4,2 °C -4,1 °C 86 % 1011,9 hPa 0,0 mm 2,5 km/h (1 Bft) SO 144 ° 0 min 0,000 mm 0,0 UV-I 7 W/m² -6,2 °C -4,2 °C 4,8 km/h (1 Bft)
29.12.2017 15:24 -4,2 °C -4,2 °C 86 % 1012,0 hPa 0,0 mm 1,2 km/h (1 Bft) SO 144 ° 0 min 0,000 mm 0,0 UV-I 7 W/m² -6,2 °C -4,2 °C 3,2 km/h (1 Bft)
29.12.2017 15:25 -4,2 °C -4,2 °C 86 % 1012,0 hPa 0,0 mm 0,3 km/h (0 Bft) SO 144 ° 0 min 0,000 mm 0,0 UV-I 7 W/m² -6,2 °C -4,2 °C 1,6 km/h (1 Bft)
29.12.2017 15:26 -4,2 °C -4,2 °C 86 % 1011,9 hPa 0,0 mm 1,0 km/h (0 Bft) SO 144 ° 0 min 0,000 mm 0,0 UV-I 7 W/m² -6,2 °C -4,2 °C 3,2 km/h (1 Bft)
29.12.2017 15:27 -4,2 °C -4,2 °C 85 % 1012,0 hPa 0,0 mm 1,1 km/h (1 Bft) SO 144 ° 0 min 0,000 mm 0,0 UV-I 7 W/m² -6,3 °C -4,2 °C 3,2 km/h (1 Bft)
29.12.2017 15:28 -4,3 °C -4,2 °C 85 % 1012,0 hPa 0,0 mm 0,4 km/h (0 Bft) SO 144 ° 0 min 0,000 mm 0,0 UV-I 7 W/m² -6,4 °C -4,3 °C 1,6 km/h (1 Bft)
29.12.2017 15:29 -4,3 °C -4,3 °C 85 % 1012,0 hPa 0,0 mm 1,5 km/h (1 Bft) SO 144 ° 0 min 0,000 mm 0,0 UV-I 7 W/m² -6,4 °C -4,3 °C 3,2 km/h (1 Bft)
29.12.2017 15:30 -4,3 °C -4,3 °C 85 % 1012,0 hPa 0,0 mm 1,4 km/h (1 Bft) SO 144 ° 0 min 0,000 mm 0,0 UV-I 7 W/m² -6,4 °C -4,3 °C 3,2 km/h (1 Bft)
29.12.2017 15:31 -4,3 °C -4,3 °C 85 % 1011,9 hPa 0,0 mm 0,9 km/h (0 Bft) SO 144 ° 0 min 0,000 mm 0,0 UV-I 7 W/m² -6,4 °C -4,3 °C 3,2 km/h (1 Bft)
29.12.2017 15:32 -4,4 °C -4,3 °C 85 % 1011,9 hPa 0,0 mm 1,6 km/h (1 Bft) SO 144 ° 0 min 0,000 mm 0,0 UV-I 7 W/m² -6,5 °C -4,4 °C 3,2 km/h (1 Bft)
29.12.2017 15:33 -4,4 °C -4,4 °C 85 % 1012,0 hPa 0,0 mm 1,3 km/h (1 Bft) SO 144 ° 0 min 0,000 mm 0,0 UV-I 7 W/m² -6,5 °C -4,4 °C 3,2 km/h (1 Bft)
29.12.2017 15:34 -4,4 °C -4,4 °C 85 % 1012,0 hPa 0,0 mm 1,3 km/h (1 Bft) SO 144 ° 0 min 0,000 mm 0,0 UV-I 7 W/m² -6,5 °C -4,4 °C 1,6 km/h (1 Bft)
29.12.2017 15:35 -4,4 °C -4,4 °C 85 % 1011,9 hPa 0,0 mm 0,5 km/h (0 Bft) SO 144 ° 0 min 0,000 mm 0,0 UV-I 9 W/m² -6,5 °C -4,4 °C 1,6 km/h (1 Bft)
29.12.2017 15:36 -4,5 °C -4,4 °C 85 % 1011,9 hPa 0,0 mm 0,5 km/h (0 Bft) SO 144 ° 0 min 0,000 mm 0,0 UV-I 9 W/m² -6,6 °C -4,5 °C 1,6 km/h (1 Bft)
29.12.2017 15:37 -4,5 °C -4,4 °C 85 % 1011,9 hPa 0,0 mm 0,0 km/h (0 Bft) SO 144 ° 0 min 0,000 mm 0,0 UV-I 9 W/m² -6,6 °C -4,5 °C 0,0 km/h (0 Bft)
29.12.2017 15:38 -4,5 °C -4,5 °C 85 % 1011,9 hPa 0,0 mm 1,2 km/h (1 Bft) SO 144 ° 0 min 0,000 mm 0,0 UV-I 9 W/m² -6,6 °C -4,5 °C 3,2 km/h (1 Bft)
29.12.2017 15:39 -4,5 °C -4,5 °C 85 % 1011,9 hPa 0,0 mm 1,4 km/h (1 Bft) SO 144 ° 0 min 0,000 mm 0,0 UV-I 9 W/m² -6,6 °C -4,5 °C 3,2 km/h (1 Bft)
29.12.2017 15:40 -4,6 °C -4,5 °C 85 % 1011,9 hPa 0,0 mm 1,1 km/h (1 Bft) SO 144 ° 0 min 0,000 mm 0,0 UV-I 9 W/m² -6,7 °C -4,6 °C 3,2 km/h (1 Bft)
29.12.2017 15:41 -4,6 °C -4,6 °C 84 % 1011,8 hPa 0,0 mm 1,6 km/h (1 Bft) SO 144 ° 0 min 0,000 mm 0,0 UV-I 9 W/m² -6,9 °C -4,6 °C 3,2 km/h (1 Bft)
29.12.2017 15:42 -4,6 °C -4,6 °C 84 % 1011,8 hPa 0,0 mm 0,7 km/h (0 Bft) SO 144 ° 0 min 0,000 mm 0,0 UV-I 9 W/m² -6,9 °C -4,6 °C 3,2 km/h (1 Bft)
29.12.2017 15:43 -4,6 °C -4,6 °C 84 % 1011,8 hPa 0,0 mm 2,1 km/h (1 Bft) SO 144 ° 0 min 0,000 mm 0,0 UV-I 9 W/m² -6,9 °C -4,6 °C 3,2 km/h (1 Bft)
29.12.2017 15:44 -4,7 °C -4,6 °C 85 % 1011,6 hPa 0,0 mm 1,7 km/h (1 Bft) SO 144 ° 0 min 0,000 mm 0,0 UV-I 9 W/m² -6,8 °C -4,7 °C 3,2 km/h (1 Bft)
29.12.2017 15:45 -4,7 °C -4,6 °C 85 % 1011,6 hPa 0,0 mm 2,5 km/h (1 Bft) SO 144 ° 0 min 0,000 mm 0,0 UV-I 9 W/m² -6,8 °C -4,7 °C 3,2 km/h (1 Bft)
29.12.2017 15:46 -4,7 °C -4,7 °C 85 % 1011,6 hPa 0,0 mm 1,9 km/h (1 Bft) SO 144 ° 0 min 0,000 mm 0,0 UV-I 9 W/m² -6,8 °C -4,7 °C 3,2 km/h (1 Bft)
29.12.2017 15:47 -4,7 °C -4,7 °C 85 % 1011,5 hPa 0,0 mm 0,6 km/h (0 Bft) SO 144 ° 0 min 0,000 mm 0,0 UV-I 9 W/m² -6,8 °C -4,7 °C 1,6 km/h (1 Bft)
29.12.2017 15:48 -4,7 °C -4,7 °C 85 % 1011,6 hPa 0,0 mm 0,4 km/h (0 Bft) SO 144 ° 0 min 0,000 mm 0,0 UV-I 9 W/m² -6,8 °C -4,7 °C 1,6 km/h (1 Bft)
29.12.2017 15:49 -4,7 °C -4,7 °C 85 % 1011,6 hPa 0,0 mm 2,0 km/h (1 Bft) SO 144 ° 0 min 0,000 mm 0,0 UV-I 9 W/m² -6,8 °C -4,7 °C 3,2 km/h (1 Bft)
29.12.2017 15:50 -4,7 °C -4,7 °C 85 % 1011,6 hPa 0,0 mm 0,0 km/h (0 Bft) SO 144 ° 0 min 0,000 mm 0,0 UV-I 9 W/m² -6,8 °C -4,7 °C 0,0 km/h (0 Bft)
29.12.2017 15:51 -4,8 °C -4,7 °C 85 % 1011,5 hPa 0,0 mm 0,0 km/h (0 Bft) SO 144 ° 0 min 0,000 mm 0,0 UV-I 9 W/m² -6,9 °C -4,8 °C 0,0 km/h (0 Bft)
29.12.2017 15:52 -4,8 °C -4,7 °C 85 % 1011,6 hPa 0,0 mm 0,0 km/h (0 Bft) SO 144 ° 0 min 0,000 mm 0,0 UV-I 9 W/m² -6,9 °C -4,8 °C 0,0 km/h (0 Bft)
29.12.2017 15:53 -4,8 °C -4,8 °C 85 % 1011,6 hPa 0,0 mm 0,1 km/h (0 Bft) SO 144 ° 0 min 0,000 mm 0,0 UV-I 9 W/m² -6,9 °C -4,8 °C 1,6 km/h (1 Bft)
29.12.2017 15:54 -4,8 °C -4,8 °C 85 % 1011,5 hPa 0,0 mm 0,0 km/h (0 Bft) SO 144 ° 0 min 0,000 mm 0,0 UV-I 9 W/m² -6,9 °C -4,8 °C 0,0 km/h (0 Bft)
29.12.2017 15:55 -4,8 °C -4,8 °C 85 % 1011,5 hPa 0,0 mm 0,0 km/h (0 Bft) SO 144 ° 0 min 0,000 mm 0,0 UV-I 7 W/m² -6,9 °C -4,8 °C 0,0 km/h (0 Bft)
29.12.2017 15:56 -4,8 °C -4,8 °C 85 % 1011,5 hPa 0,0 mm 0,0 km/h (0 Bft) SO 144 ° 0 min 0,000 mm 0,0 UV-I 7 W/m² -6,9 °C -4,8 °C 0,0 km/h (0 Bft)
29.12.2017 15:57 -4,9 °C -4,8 °C 85 % 1011,5 hPa 0,0 mm 0,0 km/h (0 Bft) SO 144 ° 0 min 0,000 mm 0,0 UV-I 7 W/m² -7,0 °C -4,9 °C 0,0 km/h (0 Bft)
29.12.2017 15:58 -4,9 °C -4,9 °C 85 % 1011,4 hPa 0,0 mm 0,0 km/h (0 Bft) SO 144 ° 0 min 0,000 mm 0,0 UV-I 7 W/m² -7,0 °C -4,9 °C 0,0 km/h (0 Bft)
29.12.2017 15:59 -4,9 °C -4,9 °C 85 % 1011,4 hPa 0,0 mm 0,0 km/h (0 Bft) SO 144 ° 0 min 0,000 mm 0,0 UV-I 7 W/m² -7,0 °C -4,9 °C 0,0 km/h (0 Bft)
29.12.2017 16:00 -4,9 °C -4,9 °C 85 % 1011,4 hPa 0,0 mm 0,0 km/h (0 Bft) SO 144 ° 0 min 0,000 mm 0,0 UV-I 7 W/m² -7,0 °C -4,9 °C 0,0 km/h (0 Bft)
29.12.2017 16:01 -4,9 °C -4,9 °C 85 % 1011,4 hPa 0,0 mm 0,0 km/h (0 Bft) SO 144 ° 0 min 0,000 mm 0,0 UV-I 7 W/m² -7,0 °C -4,9 °C 0,0 km/h (0 Bft)
29.12.2017 16:02 -4,9 °C -4,9 °C 85 % 1011,4 hPa 0,0 mm 0,3 km/h (0 Bft) SO 144 ° 0 min 0,000 mm 0,0 UV-I 5 W/m² -7,0 °C -4,9 °C 1,6 km/h (1 Bft)
29.12.2017 16:03 -4,9 °C -4,9 °C 85 % 1011,4 hPa 0,0 mm 0,0 km/h (0 Bft) SO 144 ° 0 min 0,000 mm 0,0 UV-I 5 W/m² -7,0 °C -4,9 °C 0,0 km/h (0 Bft)
29.12.2017 16:04 -4,9 °C -4,9 °C 85 % 1011,4 hPa 0,0 mm 0,0 km/h (0 Bft) SO 144 ° 0 min 0,000 mm 0,0 UV-I 5 W/m² -7,0 °C -4,9 °C 0,0 km/h (0 Bft)
29.12.2017 16:05 -4,9 °C -4,9 °C 85 % 1011,4 hPa 0,0 mm 0,0 km/h (0 Bft) SO 144 ° 0 min 0,000 mm 0,0 UV-I 5 W/m² -7,0 °C -4,9 °C 0,0 km/h (0 Bft)
29.12.2017 16:06 -5,0 °C -4,9 °C 85 % 1011,4 hPa 0,0 mm 0,0 km/h (0 Bft) SO 144 ° 0 min 0,000 mm 0,0 UV-I 5 W/m² -7,1 °C -5,0 °C 0,0 km/h (0 Bft)
29.12.2017 16:07 -5,1 °C -5,0 °C 85 % 1011,4 hPa 0,0 mm 0,0 km/h (0 Bft) SO 144 ° 0 min 0,000 mm 0,0 UV-I 5 W/m² -7,2 °C -5,1 °C 0,0 km/h (0 Bft)
29.12.2017 16:08 -5,1 °C -5,1 °C 85 % 1011,4 hPa 0,0 mm 0,1 km/h (0 Bft) SO 144 ° 0 min 0,000 mm 0,0 UV-I 5 W/m² -7,2 °C -5,1 °C 1,6 km/h (1 Bft)
29.12.2017 16:09 -5,1 °C -5,1 °C 85 % 1011,4 hPa 0,0 mm 0,0 km/h (0 Bft) SO 144 ° 0 min 0,000 mm 0,0 UV-I 5 W/m² -7,2 °C -5,1 °C 0,0 km/h (0 Bft)
29.12.2017 16:10 -5,1 °C -5,1 °C 85 % 1011,4 hPa 0,0 mm 0,0 km/h (0 Bft) SO 144 ° 0 min 0,000 mm 0,0 UV-I 5 W/m² -7,2 °C -5,1 °C 0,0 km/h (0 Bft)
29.12.2017 16:11 -5,1 °C -5,1 °C 85 % 1011,4 hPa 0,0 mm 0,0 km/h (0 Bft) SO 144 ° 0 min 0,000 mm 0,0 UV-I 0 W/m² -7,2 °C -5,1 °C 0,0 km/h (0 Bft)
29.12.2017 16:12 -5,2 °C -5,1 °C 85 % 1011,4 hPa 0,0 mm 0,0 km/h (0 Bft) SO 144 ° 0 min 0,000 mm 0,0 UV-I 0 W/m² -7,3 °C -5,2 °C 0,0 km/h (0 Bft)
29.12.2017 16:13 -5,2 °C -5,1 °C 85 % 1011,4 hPa 0,0 mm 0,0 km/h (0 Bft) SO 144 ° 0 min 0,000 mm 0,0 UV-I 0 W/m² -7,3 °C -5,2 °C 0,0 km/h (0 Bft)
29.12.2017 16:14 -5,2 °C -5,2 °C 85 % 1011,4 hPa 0,0 mm 0,0 km/h (0 Bft) SO 144 ° 0 min 0,000 mm 0,0 UV-I 0 W/m² -7,3 °C -5,2 °C 0,0 km/h (0 Bft)
29.12.2017 16:15 -5,2 °C -5,2 °C 85 % 1011,4 hPa 0,0 mm 0,1 km/h (0 Bft) SO 144 ° 0 min 0,000 mm 0,0 UV-I 0 W/m² -7,3 °C -5,2 °C 1,6 km/h (1 Bft)
29.12.2017 16:16 -5,2 °C -5,2 °C 85 % 1011,4 hPa 0,0 mm 0,0 km/h (0 Bft) SO 144 ° 0 min 0,000 mm 0,0 UV-I 0 W/m² -7,3 °C -5,2 °C 0,0 km/h (0 Bft)
29.12.2017 16:17 -5,2 °C -5,2 °C 86 % 1011,4 hPa 0,0 mm 0,0 km/h (0 Bft) SO 144 ° 0 min 0,000 mm 0,0 UV-I 0 W/m² -7,2 °C -5,2 °C 0,0 km/h (0 Bft)
29.12.2017 16:18 -5,2 °C -5,2 °C 86 % 1011,4 hPa 0,0 mm 0,0 km/h (0 Bft) SO 144 ° 0 min 0,000 mm 0,0 UV-I 0 W/m² -7,2 °C -5,2 °C 0,0 km/h (0 Bft)
29.12.2017 16:19 -5,3 °C -5,2 °C 86 % 1011,4 hPa 0,0 mm 0,0 km/h (0 Bft) SO 144 ° 0 min 0,000 mm 0,0 UV-I 0 W/m² -7,3 °C -5,3 °C 0,0 km/h (0 Bft)
29.12.2017 16:20 -5,3 °C -5,2 °C 86 % 1011,4 hPa 0,0 mm 0,0 km/h (0 Bft) SO 144 ° 0 min 0,000 mm 0,0 UV-I 0 W/m² -7,3 °C -5,3 °C 0,0 km/h (0 Bft)
29.12.2017 16:21 -5,3 °C -5,3 °C 86 % 1011,4 hPa 0,0 mm 1,7 km/h (1 Bft) SO 144 ° 0 min 0,000 mm 0,0 UV-I 0 W/m² -7,3 °C -5,3 °C 3,2 km/h (1 Bft)
29.12.2017 16:22 -5,3 °C -5,3 °C 86 % 1011,3 hPa 0,0 mm 1,5 km/h (1 Bft) SO 144 ° 0 min 0,000 mm 0,0 UV-I 0 W/m² -7,3 °C -5,3 °C 1,6 km/h (1 Bft)
29.12.2017 16:23 -5,3 °C -5,3 °C 86 % 1011,3 hPa 0,0 mm 0,3 km/h (0 Bft) SO 144 ° 0 min 0,000 mm 0,0 UV-I 0 W/m² -7,3 °C -5,3 °C 1,6 km/h (1 Bft)
29.12.2017 16:24 -5,3 °C -5,3 °C 86 % 1011,3 hPa 0,0 mm 0,0 km/h (0 Bft) SO 144 ° 0 min 0,000 mm 0,0 UV-I 0 W/m² -7,3 °C -5,3 °C 0,0 km/h (0 Bft)
29.12.2017 16:25 -5,3 °C -5,3 °C 86 % 1011,3 hPa 0,0 mm 0,0 km/h (0 Bft) SO 144 ° 0 min 0,000 mm 0,0 UV-I 0 W/m² -7,3 °C -5,3 °C 0,0 km/h (0 Bft)
29.12.2017 16:26 -5,3 °C -5,3 °C 86 % 1011,3 hPa 0,0 mm 0,0 km/h (0 Bft) SO 144 ° 0 min 0,000 mm 0,0 UV-I 0 W/m² -7,3 °C -5,3 °C 0,0 km/h (0 Bft)
29.12.2017 16:27 -5,3 °C -5,3 °C 86 % 1011,3 hPa 0,0 mm 0,0 km/h (0 Bft) SO 144 ° 0 min 0,000 mm 0,0 UV-I 0 W/m² -7,3 °C -5,3 °C 0,0 km/h (0 Bft)
29.12.2017 16:28 -5,3 °C -5,3 °C 86 % 1011,2 hPa 0,0 mm 0,0 km/h (0 Bft) SO 144 ° 0 min 0,000 mm 0,0 UV-I 0 W/m² -7,3 °C -5,3 °C 0,0 km/h (0 Bft)
29.12.2017 16:29 -5,3 °C -5,3 °C 86 % 1011,1 hPa 0,0 mm 1,3 km/h (1 Bft) SO 144 ° 0 min 0,000 mm 0,0 UV-I 0 W/m² -7,3 °C -5,3 °C 1,6 km/h (1 Bft)
29.12.2017 16:30 -5,3 °C -5,3 °C 86 % 1011,1 hPa 0,0 mm 0,0 km/h (0 Bft) SO 144 ° 0 min 0,000 mm 0,0 UV-I 0 W/m² -7,3 °C -5,3 °C 0,0 km/h (0 Bft)
29.12.2017 16:31 -5,4 °C -5,3 °C 86 % 1011,1 hPa 0,0 mm 0,0 km/h (0 Bft) SO 144 ° 0 min 0,000 mm 0,0 UV-I 0 W/m² -7,4 °C -5,4 °C 0,0 km/h (0 Bft)
29.12.2017 16:32 -5,4 °C -5,4 °C 86 % 1011,1 hPa 0,0 mm 0,0 km/h (0 Bft) SO 144 ° 0 min 0,000 mm 0,0 UV-I 0 W/m² -7,4 °C -5,4 °C 0,0 km/h (0 Bft)
29.12.2017 16:33 -5,4 °C -5,4 °C 86 % 1011,1 hPa 0,0 mm 0,0 km/h (0 Bft) SO 144 ° 0 min 0,000 mm 0,0 UV-I 0 W/m² -7,4 °C -5,4 °C 0,0 km/h (0 Bft)
29.12.2017 16:34 -5,4 °C -5,4 °C 86 % 1011,1 hPa 0,0 mm 0,0 km/h (0 Bft) SO 144 ° 0 min 0,000 mm 0,0 UV-I 0 W/m² -7,4 °C -5,4 °C 0,0 km/h (0 Bft)
29.12.2017 16:35 -5,4 °C -5,4 °C 86 % 1011,1 hPa 0,0 mm 0,0 km/h (0 Bft) SO 144 ° 0 min 0,000 mm 0,0 UV-I 0 W/m² -7,4 °C -5,4 °C 0,0 km/h (0 Bft)
29.12.2017 16:36 -5,4 °C -5,4 °C 86 % 1011,1 hPa 0,0 mm 0,0 km/h (0 Bft) SO 144 ° 0 min 0,000 mm 0,0 UV-I 0 W/m² -7,4 °C -5,4 °C 0,0 km/h (0 Bft)
29.12.2017 16:37 -5,4 °C -5,4 °C 86 % 1011,1 hPa 0,0 mm 0,0 km/h (0 Bft) SO 144 ° 0 min 0,000 mm 0,0 UV-I 0 W/m² -7,4 °C -5,4 °C 0,0 km/h (0 Bft)
29.12.2017 16:38 -5,5 °C -5,4 °C 85 % 1011,0 hPa 0,0 mm 0,0 km/h (0 Bft) SO 144 ° 0 min 0,000 mm 0,0 UV-I 0 W/m² -7,6 °C -5,5 °C 0,0 km/h (0 Bft)
29.12.2017 16:39 -5,5 °C -5,5 °C 85 % 1011,0 hPa 0,0 mm 0,0 km/h (0 Bft) SO 144 ° 0 min 0,000 mm 0,0 UV-I 0 W/m² -7,6 °C -5,5 °C 0,0 km/h (0 Bft)
29.12.2017 16:40 -5,6 °C -5,5 °C 85 % 1011,0 hPa 0,0 mm 0,0 km/h (0 Bft) SO 144 ° 0 min 0,000 mm 0,0 UV-I 0 W/m² -7,7 °C -5,6 °C 0,0 km/h (0 Bft)
29.12.2017 16:41 -5,6 °C -5,6 °C 85 % 1011,0 hPa 0,0 mm 0,0 km/h (0 Bft) SO 144 ° 0 min 0,000 mm 0,0 UV-I 0 W/m² -7,7 °C -5,6 °C 0,0 km/h (0 Bft)
29.12.2017 16:42 -5,6 °C -5,6 °C 85 % 1010,9 hPa 0,0 mm 0,0 km/h (0 Bft) SO 144 ° 0 min 0,000 mm 0,0 UV-I 0 W/m² -7,7 °C -5,6 °C 0,0 km/h (0 Bft)
29.12.2017 16:43 -5,6 °C -5,6 °C 84 % 1010,9 hPa 0,0 mm 0,0 km/h (0 Bft) SO 144 ° 0 min 0,000 mm 0,0 UV-I 0 W/m² -7,9 °C -5,6 °C 0,0 km/h (0 Bft)
29.12.2017 16:44 -5,7 °C -5,6 °C 84 % 1010,9 hPa 0,0 mm 0,0 km/h (0 Bft) SO 144 ° 0 min 0,000 mm 0,0 UV-I 0 W/m² -8,0 °C -5,7 °C 0,0 km/h (0 Bft)
29.12.2017 16:45 -5,7 °C -5,7 °C 84 % 1010,9 hPa 0,0 mm 0,0 km/h (0 Bft) SO 144 ° 0 min 0,000 mm 0,0 UV-I 0 W/m² -8,0 °C -5,7 °C 0,0 km/h (0 Bft)
29.12.2017 16:46 -5,7 °C -5,7 °C 84 % 1010,9 hPa 0,0 mm 0,0 km/h (0 Bft) SO 144 ° 0 min 0,000 mm 0,0 UV-I 0 W/m² -8,0 °C -5,7 °C 0,0 km/h (0 Bft)
29.12.2017 16:47 -5,8 °C -5,7 °C 84 % 1010,9 hPa 0,0 mm 0,0 km/h (0 Bft) SO 144 ° 0 min 0,000 mm 0,0 UV-I 0 W/m² -8,1 °C -5,8 °C 0,0 km/h (0 Bft)
29.12.2017 16:48 -5,8 °C -5,8 °C 84 % 1010,9 hPa 0,0 mm 0,0 km/h (0 Bft) SO 144 ° 0 min 0,000 mm 0,0 UV-I 0 W/m² -8,1 °C -5,8 °C 0,0 km/h (0 Bft)
29.12.2017 16:49 -5,8 °C -5,8 °C 84 % 1010,9 hPa 0,0 mm 0,0 km/h (0 Bft) SO 144 ° 0 min 0,000 mm 0,0 UV-I 0 W/m² -8,1 °C -5,8 °C 0,0 km/h (0 Bft)
29.12.2017 16:50 -5,8 °C -5,8 °C 84 % 1010,8 hPa 0,0 mm 0,0 km/h (0 Bft) SO 144 ° 0 min 0,000 mm 0,0 UV-I 0 W/m² -8,1 °C -5,8 °C 0,0 km/h (0 Bft)
29.12.2017 16:51 -5,8 °C -5,8 °C 84 % 1010,8 hPa 0,0 mm 0,4 km/h (0 Bft) SO 144 ° 0 min 0,000 mm 0,0 UV-I 0 W/m² -8,1 °C -5,8 °C 1,6 km/h (1 Bft)
29.12.2017 16:52 -5,9 °C -5,8 °C 84 % 1010,7 hPa 0,0 mm 0,2 km/h (0 Bft) SO 144 ° 0 min 0,000 mm 0,0 UV-I 0 W/m² -8,2 °C -5,9 °C 1,6 km/h (1 Bft)
29.12.2017 16:53 -5,9 °C -5,9 °C 84 % 1010,7 hPa 0,0 mm 0,0 km/h (0 Bft) SO 144 ° 0 min 0,000 mm 0,0 UV-I 0 W/m² -8,2 °C -5,9 °C 0,0 km/h (0 Bft)
29.12.2017 16:54 -5,9 °C -5,9 °C 84 % 1010,7 hPa 0,0 mm 0,0 km/h (0 Bft) SO 144 ° 0 min 0,000 mm 0,0 UV-I 0 W/m² -8,2 °C -5,9 °C 0,0 km/h (0 Bft)
29.12.2017 16:55 -5,9 °C -5,9 °C 85 % 1010,7 hPa 0,0 mm 0,0 km/h (0 Bft) SO 144 ° 0 min 0,000 mm 0,0 UV-I 0 W/m² -8,0 °C -5,9 °C 0,0 km/h (0 Bft)
29.12.2017 16:56 -6,0 °C -5,9 °C 85 % 1010,6 hPa 0,0 mm 0,0 km/h (0 Bft) SO 144 ° 0 min 0,000 mm 0,0 UV-I 0 W/m² -8,1 °C -6,0 °C 0,0 km/h (0 Bft)
29.12.2017 16:57 -6,1 °C -6,0 °C 85 % 1010,6 hPa 0,0 mm 0,0 km/h (0 Bft) SO 144 ° 0 min 0,000 mm 0,0 UV-I 0 W/m² -8,2 °C -6,1 °C 0,0 km/h (0 Bft)
29.12.2017 16:58 -6,1 °C -6,0 °C 85 % 1010,7 hPa 0,0 mm 0,0 km/h (0 Bft) SO 144 ° 0 min 0,000 mm 0,0 UV-I 0 W/m² -8,2 °C -6,1 °C 0,0 km/h (0 Bft)
29.12.2017 16:59 -6,1 °C -6,1 °C 85 % 1010,6 hPa 0,0 mm 0,0 km/h (0 Bft) SO 144 ° 0 min 0,000 mm 0,0 UV-I 0 W/m² -8,2 °C -6,1 °C 0,0 km/h (0 Bft)
29.12.2017 17:00 -6,1 °C -6,1 °C 85 % 1010,6 hPa 0,0 mm 0,0 km/h (0 Bft) SO 144 ° 0 min 0,000 mm 0,0 UV-I 0 W/m² -8,2 °C -6,1 °C 0,0 km/h (0 Bft)
29.12.2017 17:01 -6,1 °C -6,1 °C 85 % 1010,5 hPa 0,0 mm 0,0 km/h (0 Bft) SO 144 ° 0 min 0,000 mm 0,0 UV-I 0 W/m² -8,2 °C -6,1 °C 0,0 km/h (0 Bft)
29.12.2017 17:02 -6,2 °C -6,1 °C 85 % 1010,5 hPa 0,0 mm 0,0 km/h (0 Bft) SO 144 ° 0 min 0,000 mm 0,0 UV-I 0 W/m² -8,3 °C -6,2 °C 0,0 km/h (0 Bft)
29.12.2017 17:03 -6,2 °C -6,2 °C 85 % 1010,5 hPa 0,0 mm 0,0 km/h (0 Bft) SO 144 ° 0 min 0,000 mm 0,0 UV-I 0 W/m² -8,3 °C -6,2 °C 0,0 km/h (0 Bft)
29.12.2017 17:04 -6,2 °C -6,2 °C 86 % 1010,5 hPa 0,0 mm 0,0 km/h (0 Bft) SO 144 ° 0 min 0,000 mm 0,0 UV-I 0 W/m² -8,1 °C -6,2 °C 0,0 km/h (0 Bft)
29.12.2017 17:05 -6,2 °C -6,2 °C 86 % 1010,5 hPa 0,0 mm 0,0 km/h (0 Bft) SO 144 ° 0 min 0,000 mm 0,0 UV-I 0 W/m² -8,1 °C -6,2 °C 0,0 km/h (0 Bft)
29.12.2017 17:06 -6,3 °C -6,2 °C 86 % 1010,5 hPa 0,0 mm 0,0 km/h (0 Bft) SO 144 ° 0 min 0,000 mm 0,0 UV-I 0 W/m² -8,2 °C -6,3 °C 0,0 km/h (0 Bft)
29.12.2017 17:07 -6,3 °C -6,3 °C 86 % 1010,6 hPa 0,0 mm 0,0 km/h (0 Bft) SO 144 ° 0 min 0,000 mm 0,0 UV-I 0 W/m² -8,2 °C -6,3 °C 0,0 km/h (0 Bft)
29.12.2017 17:08 -6,3 °C -6,3 °C 86 % 1010,6 hPa 0,0 mm 0,0 km/h (0 Bft) SO 144 ° 0 min 0,000 mm 0,0 UV-I 0 W/m² -8,2 °C -6,3 °C 0,0 km/h (0 Bft)
29.12.2017 17:09 -6,3 °C -6,3 °C 86 % 1010,5 hPa 0,0 mm 0,0 km/h (0 Bft) SO 144 ° 0 min 0,000 mm 0,0 UV-I 0 W/m² -8,2 °C -6,3 °C 0,0 km/h (0 Bft)
29.12.2017 17:10 -6,3 °C -6,3 °C 86 % 1010,5 hPa 0,0 mm 0,0 km/h (0 Bft) SO 144 ° 0 min 0,000 mm 0,0 UV-I 0 W/m² -8,2 °C -6,3 °C 0,0 km/h (0 Bft)
29.12.2017 17:11 -6,4 °C -6,3 °C 86 % 1010,5 hPa 0,0 mm 0,0 km/h (0 Bft) SO 144 ° 0 min 0,000 mm 0,0 UV-I 0 W/m² -8,3 °C -6,4 °C 0,0 km/h (0 Bft)
29.12.2017 17:12 -6,4 °C -6,4 °C 86 % 1010,5 hPa 0,0 mm 0,0 km/h (0 Bft) SO 144 ° 0 min 0,000 mm 0,0 UV-I 0 W/m² -8,3 °C -6,4 °C 0,0 km/h (0 Bft)
29.12.2017 17:13 -6,4 °C -6,4 °C 87 % 1010,5 hPa 0,0 mm 0,0 km/h (0 Bft) SO 144 ° 0 min 0,000 mm 0,0 UV-I 0 W/m² -8,2 °C -6,4 °C 0,0 km/h (0 Bft)
29.12.2017 17:14 -6,4 °C -6,4 °C 87 % 1010,5 hPa 0,0 mm 0,0 km/h (0 Bft) SO 144 ° 0 min 0,000 mm 0,0 UV-I 0 W/m² -8,2 °C -6,4 °C 0,0 km/h (0 Bft)
29.12.2017 17:15 -6,4 °C -6,4 °C 87 % 1010,5 hPa 0,0 mm 0,0 km/h (0 Bft) SO 144 ° 0 min 0,000 mm 0,0 UV-I 0 W/m² -8,2 °C -6,4 °C 0,0 km/h (0 Bft)
29.12.2017 17:16 -6,4 °C -6,4 °C 87 % 1010,5 hPa 0,0 mm 0,0 km/h (0 Bft) SO 144 ° 0 min 0,000 mm 0,0 UV-I 0 W/m² -8,2 °C -6,4 °C 0,0 km/h (0 Bft)
29.12.2017 17:17 -6,5 °C -6,4 °C 87 % 1010,4 hPa 0,0 mm 0,0 km/h (0 Bft) SO 144 ° 0 min 0,000 mm 0,0 UV-I 0 W/m² -8,3 °C -6,5 °C 0,0 km/h (0 Bft)
29.12.2017 17:18 -6,5 °C -6,5 °C 87 % 1010,4 hPa 0,0 mm 0,0 km/h (0 Bft) SO 144 ° 0 min 0,000 mm 0,0 UV-I 0 W/m² -8,3 °C -6,5 °C 0,0 km/h (0 Bft)
29.12.2017 17:19 -6,5 °C -6,4 °C 87 % 1010,3 hPa 0,0 mm 0,0 km/h (0 Bft) SO 144 ° 0 min 0,000 mm 0,0 UV-I 0 W/m² -8,3 °C -6,5 °C 0,0 km/h (0 Bft)
29.12.2017 17:20 -6,5 °C -6,5 °C 87 % 1010,4 hPa 0,0 mm 0,0 km/h (0 Bft) SO 144 ° 0 min 0,000 mm 0,0 UV-I 0 W/m² -8,3 °C -6,5 °C 0,0 km/h (0 Bft)
29.12.2017 17:21 -6,6 °C -6,5 °C 87 % 1010,4 hPa 0,0 mm 0,0 km/h (0 Bft) SO 144 ° 0 min 0,000 mm 0,0 UV-I 0 W/m² -8,4 °C -6,6 °C 0,0 km/h (0 Bft)
29.12.2017 17:22 -6,6 °C -6,5 °C 87 % 1010,3 hPa 0,0 mm 0,0 km/h (0 Bft) SO 144 ° 0 min 0,000 mm 0,0 UV-I 0 W/m² -8,4 °C -6,6 °C 0,0 km/h (0 Bft)
29.12.2017 17:23 -6,6 °C -6,6 °C 87 % 1010,3 hPa 0,0 mm 0,0 km/h (0 Bft) SO 144 ° 0 min 0,000 mm 0,0 UV-I 0 W/m² -8,4 °C -6,6 °C 0,0 km/h (0 Bft)
29.12.2017 17:24 -6,6 °C -6,6 °C 87 % 1010,3 hPa 0,0 mm 0,5 km/h (0 Bft) SO 144 ° 0 min 0,000 mm 0,0 UV-I 0 W/m² -8,4 °C -6,6 °C 1,6 km/h (1 Bft)
29.12.2017 17:25 -6,6 °C -6,6 °C 87 % 1010,3 hPa 0,0 mm 0,0 km/h (0 Bft) SO 144 ° 0 min 0,000 mm 0,0 UV-I 0 W/m² -8,4 °C -6,6 °C 0,0 km/h (0 Bft)
29.12.2017 17:26 -6,6 °C -6,6 °C 87 % 1010,3 hPa 0,0 mm 0,5 km/h (0 Bft) SO 144 ° 0 min 0,000 mm 0,0 UV-I 0 W/m² -8,4 °C -6,6 °C 3,2 km/h (1 Bft)
29.12.2017 17:27 -6,6 °C -6,6 °C 88 % 1010,2 hPa 0,0 mm 2,6 km/h (1 Bft) SO 144 ° 0 min 0,000 mm 0,0 UV-I 0 W/m² -8,2 °C -6,6 °C 3,2 km/h (1 Bft)
29.12.2017 17:28 -6,6 °C -6,6 °C 88 % 1010,2 hPa 0,0 mm 2,4 km/h (1 Bft) S-SW 205 ° 0 min 0,000 mm 0,0 UV-I 0 W/m² -8,2 °C -6,6 °C 4,8 km/h (1 Bft)
29.12.2017 17:29 -6,6 °C -6,6 °C 88 % 1010,2 hPa 0,0 mm 0,7 km/h (0 Bft) S-SW 206 ° 0 min 0,000 mm 0,0 UV-I 0 W/m² -8,2 °C -6,6 °C 3,2 km/h (1 Bft)
29.12.2017 17:30 -6,6 °C -6,6 °C 88 % 1010,2 hPa 0,0 mm 0,1 km/h (0 Bft) S-SW 206 ° 0 min 0,000 mm 0,0 UV-I 0 W/m² -8,2 °C -6,6 °C 1,6 km/h (1 Bft)
29.12.2017 17:31 -6,7 °C -6,6 °C 88 % 1010,2 hPa 0,0 mm 0,1 km/h (0 Bft) S-SW 206 ° 0 min 0,000 mm 0,0 UV-I 0 W/m² -8,3 °C -6,7 °C 1,6 km/h (1 Bft)
29.12.2017 17:32 -6,7 °C -6,6 °C 88 % 1010,2 hPa 0,0 mm 0,0 km/h (0 Bft) S-SW 206 ° 0 min 0,000 mm 0,0 UV-I 0 W/m² -8,3 °C -6,7 °C 0,0 km/h (0 Bft)
29.12.2017 17:33 -6,7 °C -6,6 °C 88 % 1010,1 hPa 0,0 mm 0,0 km/h (0 Bft) S-SW 206 ° 0 min 0,000 mm 0,0 UV-I 0 W/m² -8,3 °C -6,7 °C 0,0 km/h (0 Bft)
29.12.2017 17:34 -6,7 °C -6,7 °C 88 % 1010,1 hPa 0,0 mm 0,5 km/h (0 Bft) S-SW 206 ° 0 min 0,000 mm 0,0 UV-I 0 W/m² -8,3 °C -6,7 °C 3,2 km/h (1 Bft)
29.12.2017 17:35 -6,7 °C -6,6 °C 88 % 1010,1 hPa 0,0 mm 1,0 km/h (0 Bft) S-SW 206 ° 0 min 0,000 mm 0,0 UV-I 0 W/m² -8,3 °C -6,7 °C 3,2 km/h (1 Bft)
29.12.2017 17:36 -6,7 °C -6,6 °C 88 % 1010,1 hPa 0,0 mm 0,0 km/h (0 Bft) S-SW 206 ° 0 min 0,000 mm 0,0 UV-I 0 W/m² -8,3 °C -6,7 °C 0,0 km/h (0 Bft)
29.12.2017 17:37 -6,7 °C -6,7 °C 88 % 1010,1 hPa 0,0 mm 0,0 km/h (0 Bft) S-SW 206 ° 0 min 0,000 mm 0,0 UV-I 0 W/m² -8,3 °C -6,7 °C 0,0 km/h (0 Bft)
29.12.2017 17:38 -6,7 °C -6,7 °C 88 % 1010,1 hPa 0,0 mm 0,4 km/h (0 Bft) S-SW 206 ° 0 min 0,000 mm 0,0 UV-I 0 W/m² -8,3 °C -6,7 °C 1,6 km/h (1 Bft)
29.12.2017 17:39 -6,7 °C -6,7 °C 88 % 1010,2 hPa 0,0 mm 1,3 km/h (1 Bft) SW 226 ° 0 min 0,000 mm 0,0 UV-I 0 W/m² -8,3 °C -6,7 °C 4,8 km/h (1 Bft)
29.12.2017 17:40 -6,7 °C -6,7 °C 88 % 1010,2 hPa 0,0 mm 1,8 km/h (1 Bft) NW 317 ° 0 min 0,000 mm 0,0 UV-I 0 W/m² -8,3 °C -6,7 °C 3,2 km/h (1 Bft)
29.12.2017 17:41 -6,6 °C -6,6 °C 89 % 1010,2 hPa 0,0 mm 1,3 km/h (1 Bft) NW 317 ° 0 min 0,000 mm 0,0 UV-I 0 W/m² -8,1 °C -6,6 °C 3,2 km/h (1 Bft)
29.12.2017 17:42 -6,7 °C -6,6 °C 89 % 1010,2 hPa 0,0 mm 0,3 km/h (0 Bft) NW 317 ° 0 min 0,000 mm 0,0 UV-I 0 W/m² -8,2 °C -6,7 °C 1,6 km/h (1 Bft)
29.12.2017 17:43 -6,6 °C -6,6 °C 88 % 1010,2 hPa 0,0 mm 0,0 km/h (0 Bft) NW 317 ° 0 min 0,000 mm 0,0 UV-I 0 W/m² -8,2 °C -6,6 °C 0,0 km/h (0 Bft)
29.12.2017 17:44 -6,6 °C -6,6 °C 89 % 1010,1 hPa 0,0 mm 0,7 km/h (0 Bft) NW 314 ° 0 min 0,000 mm 0,0 UV-I 0 W/m² -8,1 °C -6,6 °C 3,2 km/h (1 Bft)
29.12.2017 17:45 -6,6 °C -6,6 °C 89 % 1010,1 hPa 0,0 mm 1,8 km/h (1 Bft) NW 314 ° 0 min 0,000 mm 0,0 UV-I 0 W/m² -8,1 °C -6,6 °C 4,8 km/h (1 Bft)
29.12.2017 17:46 -6,6 °C -6,6 °C 89 % 1010,0 hPa 0,0 mm 0,9 km/h (0 Bft) W-NW 285 ° 0 min 0,000 mm 0,0 UV-I 0 W/m² -8,1 °C -6,6 °C 3,2 km/h (1 Bft)
29.12.2017 17:47 -6,6 °C -6,6 °C 89 % 1010,0 hPa 0,0 mm 0,8 km/h (0 Bft) W-SW 244 ° 0 min 0,000 mm 0,0 UV-I 0 W/m² -8,1 °C -6,6 °C 1,6 km/h (1 Bft)
29.12.2017 17:48 -6,5 °C -6,5 °C 89 % 1010,0 hPa 0,0 mm 1,5 km/h (1 Bft) S-SW 212 ° 0 min 0,000 mm 0,0 UV-I 0 W/m² -8,0 °C -6,5 °C 3,2 km/h (1 Bft)
29.12.2017 17:49 -6,4 °C -6,4 °C 89 % 1010,0 hPa 0,0 mm 1,8 km/h (1 Bft) S-SW 212 ° 0 min 0,000 mm 0,0 UV-I 0 W/m² -7,9 °C -6,4 °C 3,2 km/h (1 Bft)
29.12.2017 17:50 -6,4 °C -6,4 °C 89 % 1010,0 hPa 0,0 mm 0,3 km/h (0 Bft) S-SW 212 ° 0 min 0,000 mm 0,0 UV-I 0 W/m² -7,9 °C -6,4 °C 1,6 km/h (1 Bft)
29.12.2017 17:51 -6,4 °C -6,4 °C 89 % 1009,9 hPa 0,0 mm 0,0 km/h (0 Bft) S-SW 212 ° 0 min 0,000 mm 0,0 UV-I 0 W/m² -7,9 °C -6,4 °C 0,0 km/h (0 Bft)
29.12.2017 17:52 -6,4 °C -6,4 °C 89 % 1009,9 hPa 0,0 mm 0,0 km/h (0 Bft) S-SW 212 ° 0 min 0,000 mm 0,0 UV-I 0 W/m² -7,9 °C -6,4 °C 0,0 km/h (0 Bft)
29.12.2017 17:53 -6,4 °C -6,4 °C 89 % 1009,8 hPa 0,0 mm 0,0 km/h (0 Bft) S-SW 212 ° 0 min 0,000 mm 0,0 UV-I 0 W/m² -7,9 °C -6,4 °C 0,0 km/h (0 Bft)
29.12.2017 17:54 -6,3 °C -6,3 °C 89 % 1009,8 hPa 0,0 mm 0,0 km/h (0 Bft) S-SW 212 ° 0 min 0,000 mm 0,0 UV-I 0 W/m² -7,8 °C -6,3 °C 0,0 km/h (0 Bft)
29.12.2017 17:55 -6,3 °C -6,3 °C 89 % 1009,8 hPa 0,0 mm 0,9 km/h (0 Bft) NW 315 ° 0 min 0,000 mm 0,0 UV-I 0 W/m² -7,8 °C -6,3 °C 3,2 km/h (1 Bft)
29.12.2017 17:56 -6,3 °C -6,3 °C 89 % 1009,8 hPa 0,0 mm 2,5 km/h (1 Bft) N-NW 344 ° 0 min 0,000 mm 0,0 UV-I 0 W/m² -7,8 °C -6,3 °C 6,4 km/h (2 Bft)
29.12.2017 17:57 -6,3 °C -6,3 °C 89 % 1009,7 hPa 0,0 mm 1,3 km/h (1 Bft) W-NW 283 ° 0 min 0,000 mm 0,0 UV-I 0 W/m² -7,8 °C -6,3 °C 6,4 km/h (2 Bft)
29.12.2017 17:58 -6,2 °C -6,2 °C 89 % 1009,7 hPa 0,0 mm 0,0 km/h (0 Bft) W-NW 283 ° 0 min 0,000 mm 0,0 UV-I 0 W/m² -7,7 °C -6,2 °C 0,0 km/h (0 Bft)
29.12.2017 17:59 -6,2 °C -6,2 °C 89 % 1009,7 hPa 0,0 mm 0,0 km/h (0 Bft) W-NW 283 ° 0 min 0,000 mm 0,0 UV-I 0 W/m² -7,7 °C -6,2 °C 0,0 km/h (0 Bft)
29.12.2017 18:00 -6,2 °C -6,2 °C 90 % 1009,7 hPa 0,0 mm 0,9 km/h (0 Bft) NO 51 ° 0 min 0,000 mm 0,0 UV-I 0 W/m² -7,6 °C -6,2 °C 4,8 km/h (1 Bft)
29.12.2017 18:01 -6,1 °C -6,1 °C 90 % 1009,7 hPa 0,0 mm 0,1 km/h (0 Bft) NO 51 ° 0 min 0,000 mm 0,0 UV-I 0 W/m² -7,5 °C -6,1 °C 1,6 km/h (1 Bft)
29.12.2017 18:02 -6,1 °C -6,1 °C 90 % 1009,7 hPa 0,0 mm 0,8 km/h (0 Bft) NO 51 ° 0 min 0,000 mm 0,0 UV-I 0 W/m² -7,5 °C -6,1 °C 1,6 km/h (1 Bft)
29.12.2017 18:03 -6,1 °C -6,1 °C 90 % 1009,6 hPa 0,0 mm 0,0 km/h (0 Bft) NO 51 ° 0 min 0,000 mm 0,0 UV-I 0 W/m² -7,5 °C -6,1 °C 0,0 km/h (0 Bft)
29.12.2017 18:04 -6,1 °C -6,0 °C 90 % 1009,6 hPa 0,0 mm 0,0 km/h (0 Bft) NO 51 ° 0 min 0,000 mm 0,0 UV-I 0 W/m² -7,5 °C -6,1 °C 0,0 km/h (0 Bft)
29.12.2017 18:05 -6,0 °C -6,0 °C 90 % 1009,6 hPa 0,0 mm 0,0 km/h (0 Bft) NO 51 ° 0 min 0,000 mm 0,0 UV-I 0 W/m² -7,4 °C -6,0 °C 0,0 km/h (0 Bft)
29.12.2017 18:06 -5,9 °C -5,9 °C 90 % 1009,7 hPa 0,0 mm 0,0 km/h (0 Bft) NO 51 ° 0 min 0,000 mm 0,0 UV-I 0 W/m² -7,3 °C -5,9 °C 0,0 km/h (0 Bft)
29.12.2017 18:07 -5,9 °C -5,9 °C 90 % 1009,7 hPa 0,0 mm 0,0 km/h (0 Bft) NO 51 ° 0 min 0,000 mm 0,0 UV-I 0 W/m² -7,3 °C -5,9 °C 0,0 km/h (0 Bft)
29.12.2017 18:08 -5,9 °C -5,9 °C 90 % 1009,6 hPa 0,0 mm 0,9 km/h (0 Bft) NO 52 ° 0 min 0,000 mm 0,0 UV-I 0 W/m² -7,3 °C -5,9 °C 3,2 km/h (1 Bft)
29.12.2017 18:09 -5,9 °C -5,9 °C 90 % 1009,6 hPa 0,0 mm 1,5 km/h (1 Bft) NO 52 ° 0 min 0,000 mm 0,0 UV-I 0 W/m² -7,3 °C -5,9 °C 3,2 km/h (1 Bft)
29.12.2017 18:10 -5,8 °C -5,8 °C 90 % 1009,6 hPa 0,0 mm 1,3 km/h (1 Bft) O-NO 67 ° 0 min 0,000 mm 0,0 UV-I 0 W/m² -7,2 °C -5,8 °C 3,2 km/h (1 Bft)
29.12.2017 18:11 -5,8 °C -5,8 °C 91 % 1009,7 hPa 0,0 mm 0,4 km/h (0 Bft) O-NO 67 ° 0 min 0,000 mm 0,0 UV-I 0 W/m² -7,0 °C -5,8 °C 3,2 km/h (1 Bft)
29.12.2017 18:12 -5,8 °C -5,8 °C 91 % 1009,6 hPa 0,0 mm 0,0 km/h (0 Bft) O-NO 67 ° 0 min 0,000 mm 0,0 UV-I 0 W/m² -7,0 °C -5,8 °C 0,0 km/h (0 Bft)
29.12.2017 18:13 -5,7 °C -5,7 °C 91 % 1009,7 hPa 0,0 mm 0,0 km/h (0 Bft) O-NO 67 ° 0 min 0,000 mm 0,0 UV-I 0 W/m² -6,9 °C -5,7 °C 0,0 km/h (0 Bft)
29.12.2017 18:14 -5,7 °C -5,7 °C 91 % 1009,7 hPa 0,0 mm 2,1 km/h (1 Bft) N-NO 18 ° 0 min 0,000 mm 0,0 UV-I 0 W/m² -6,9 °C -5,7 °C 3,2 km/h (1 Bft)
29.12.2017 18:15 -5,7 °C -5,7 °C 91 % 1009,7 hPa 0,0 mm 0,1 km/h (0 Bft) N-NO 18 ° 0 min 0,000 mm 0,0 UV-I 0 W/m² -6,9 °C -5,7 °C 1,6 km/h (1 Bft)
29.12.2017 18:16 -5,7 °C -5,7 °C 91 % 1009,7 hPa 0,0 mm 0,0 km/h (0 Bft) N-NO 18 ° 0 min 0,000 mm 0,0 UV-I 0 W/m² -6,9 °C -5,7 °C 0,0 km/h (0 Bft)
29.12.2017 18:17 -5,7 °C -5,7 °C 91 % 1009,6 hPa 0,0 mm 0,0 km/h (0 Bft) N-NO 18 ° 0 min 0,000 mm 0,0 UV-I 0 W/m² -6,9 °C -5,7 °C 0,0 km/h (0 Bft)
29.12.2017 18:18 -5,6 °C -5,6 °C 91 % 1009,7 hPa 0,0 mm 1,6 km/h (1 Bft) N-NO 17 ° 0 min 0,000 mm 0,0 UV-I 0 W/m² -6,8 °C -5,6 °C 3,2 km/h (1 Bft)
29.12.2017 18:19 -5,6 °C -5,6 °C 91 % 1009,7 hPa 0,0 mm 0,5 km/h (0 Bft) N-NO 17 ° 0 min 0,000 mm 0,0 UV-I 0 W/m² -6,8 °C -5,6 °C 1,6 km/h (1 Bft)
29.12.2017 18:20 -5,6 °C -5,6 °C 91 % 1009,7 hPa 0,0 mm 1,6 km/h (1 Bft) N-NO 29 ° 0 min 0,000 mm 0,0 UV-I 0 W/m² -6,8 °C -5,6 °C 3,2 km/h (1 Bft)
29.12.2017 18:21 -5,6 °C -5,6 °C 91 % 1009,7 hPa 0,0 mm 0,2 km/h (0 Bft) N-NO 29 ° 0 min 0,000 mm 0,0 UV-I 0 W/m² -6,8 °C -5,6 °C 1,6 km/h (1 Bft)
29.12.2017 18:22 -5,6 °C -5,6 °C 91 % 1009,6 hPa 0,0 mm 1,9 km/h (1 Bft) N-NO 29 ° 0 min 0,000 mm 0,0 UV-I 0 W/m² -6,8 °C -5,6 °C 4,8 km/h (1 Bft)
29.12.2017 18:23 -5,5 °C -5,5 °C 91 % 1009,7 hPa 0,0 mm 1,7 km/h (1 Bft) N-NO 29 ° 0 min 0,000 mm 0,0 UV-I 0 W/m² -6,7 °C -5,5 °C 3,2 km/h (1 Bft)
29.12.2017 18:24 -5,5 °C -5,5 °C 91 % 1009,6 hPa 0,0 mm 0,0 km/h (0 Bft) N-NO 29 ° 0 min 0,000 mm 0,0 UV-I 0 W/m² -6,7 °C -5,5 °C 0,0 km/h (0 Bft)
29.12.2017 18:25 -5,4 °C -5,4 °C 91 % 1009,6 hPa 0,0 mm 0,3 km/h (0 Bft) N-NO 26 ° 0 min 0,000 mm 0,0 UV-I 0 W/m² -6,6 °C -5,4 °C 1,6 km/h (1 Bft)
29.12.2017 18:26 -5,4 °C -5,4 °C 91 % 1009,5 hPa 0,0 mm 1,5 km/h (1 Bft) N 360 ° 0 min 0,000 mm 0,0 UV-I 0 W/m² -6,6 °C -5,4 °C 3,2 km/h (1 Bft)
29.12.2017 18:27 -5,4 °C -5,4 °C 91 % 1009,5 hPa 0,0 mm 0,3 km/h (0 Bft) N 360 ° 0 min 0,000 mm 0,0 UV-I 0 W/m² -6,6 °C -5,4 °C 1,6 km/h (1 Bft)
29.12.2017 18:28 -5,4 °C -5,3 °C 91 % 1009,5 hPa 0,0 mm 0,0 km/h (0 Bft) N 360 ° 0 min 0,000 mm 0,0 UV-I 0 W/m² -6,6 °C -5,4 °C 0,0 km/h (0 Bft)
29.12.2017 18:29 -5,4 °C -5,3 °C 91 % 1009,7 hPa 0,0 mm 0,0 km/h (0 Bft) N 360 ° 0 min 0,000 mm 0,0 UV-I 0 W/m² -6,6 °C -5,4 °C 0,0 km/h (0 Bft)
29.12.2017 18:30 -5,3 °C -5,3 °C 91 % 1009,7 hPa 0,0 mm 0,9 km/h (0 Bft) N 355 ° 0 min 0,000 mm 0,0 UV-I 0 W/m² -6,5 °C -5,3 °C 3,2 km/h (1 Bft)
29.12.2017 18:31 -5,2 °C -5,2 °C 91 % 1009,7 hPa 0,0 mm 0,4 km/h (0 Bft) N 355 ° 0 min 0,000 mm 0,0 UV-I 0 W/m² -6,4 °C -5,2 °C 1,6 km/h (1 Bft)
29.12.2017 18:32 -5,2 °C -5,2 °C 91 % 1009,6 hPa 0,0 mm 2,1 km/h (1 Bft) NO 44 ° 0 min 0,000 mm 0,0 UV-I 0 W/m² -6,4 °C -5,2 °C 4,8 km/h (1 Bft)
29.12.2017 18:33 -5,2 °C -5,2 °C 91 % 1009,5 hPa 0,0 mm 1,8 km/h (1 Bft) O-SO 105 ° 0 min 0,000 mm 0,0 UV-I 0 W/m² -6,4 °C -5,2 °C 4,8 km/h (1 Bft)
29.12.2017 18:34 -5,1 °C -5,1 °C 91 % 1009,7 hPa 0,0 mm 4,8 km/h (1 Bft) NW 317 ° 0 min 0,000 mm 0,0 UV-I 0 W/m² -6,3 °C -7,3 °C 8,0 km/h (2 Bft)
29.12.2017 18:35 -5,1 °C -5,1 °C 91 % 1009,6 hPa 0,0 mm 1,5 km/h (1 Bft) N-NO 31 ° 0 min 0,000 mm 0,0 UV-I 0 W/m² -6,3 °C -5,1 °C 4,8 km/h (1 Bft)
29.12.2017 18:36 -5,1 °C -5,1 °C 91 % 1009,5 hPa 0,0 mm 2,5 km/h (1 Bft) N-NO 31 ° 0 min 0,000 mm 0,0 UV-I 0 W/m² -6,3 °C -5,1 °C 4,8 km/h (1 Bft)
29.12.2017 18:37 -5,0 °C -5,0 °C 91 % 1009,6 hPa 0,0 mm 0,8 km/h (0 Bft) N-NO 31 ° 0 min 0,000 mm 0,0 UV-I 0 W/m² -6,2 °C -5,0 °C 1,6 km/h (1 Bft)
29.12.2017 18:38 -4,9 °C -4,9 °C 91 % 1009,7 hPa 0,0 mm 4,5 km/h (1 Bft) NW 323 ° 0 min 0,000 mm 0,0 UV-I 0 W/m² -6,1 °C -4,9 °C 6,4 km/h (2 Bft)
29.12.2017 18:39 -4,9 °C -4,9 °C 90 % 1009,7 hPa 0,0 mm 2,4 km/h (1 Bft) N 5 ° 0 min 0,000 mm 0,0 UV-I 0 W/m² -6,3 °C -4,9 °C 6,4 km/h (2 Bft)
29.12.2017 18:40 -4,9 °C -4,9 °C 90 % 1009,5 hPa 0,0 mm 5,8 km/h (2 Bft) NO 54 ° 0 min 0,000 mm 0,0 UV-I 0 W/m² -6,3 °C -7,6 °C 8,0 km/h (2 Bft)
29.12.2017 18:41 -4,8 °C -4,8 °C 90 % 1009,4 hPa 0,0 mm 3,6 km/h (1 Bft) NO 51 ° 0 min 0,000 mm 0,0 UV-I 0 W/m² -6,2 °C -4,8 °C 6,4 km/h (2 Bft)
29.12.2017 18:42 -4,8 °C -4,8 °C 90 % 1009,4 hPa 0,0 mm 1,0 km/h (0 Bft) NO 51 ° 0 min 0,000 mm 0,0 UV-I 0 W/m² -6,2 °C -4,8 °C 3,2 km/h (1 Bft)
29.12.2017 18:43 -4,8 °C -4,7 °C 90 % 1009,4 hPa 0,0 mm 0,6 km/h (0 Bft) NO 51 ° 0 min 0,000 mm 0,0 UV-I 0 W/m² -6,2 °C -4,8 °C 1,6 km/h (1 Bft)
29.12.2017 18:44 -4,7 °C -4,7 °C 90 % 1009,5 hPa 0,0 mm 0,9 km/h (0 Bft) N 11 ° 0 min 0,000 mm 0,0 UV-I 0 W/m² -6,1 °C -4,7 °C 3,2 km/h (1 Bft)
29.12.2017 18:45 -4,7 °C -4,7 °C 90 % 1009,5 hPa 0,0 mm 4,5 km/h (1 Bft) W 273 ° 0 min 0,000 mm 0,0 UV-I 0 W/m² -6,1 °C -4,7 °C 4,8 km/h (1 Bft)
29.12.2017 18:46 -4,6 °C -4,6 °C 90 % 1009,5 hPa 0,0 mm 2,2 km/h (1 Bft) W 273 ° 0 min 0,000 mm 0,0 UV-I 0 W/m² -6,0 °C -4,6 °C 3,2 km/h (1 Bft)
29.12.2017 18:47 -4,6 °C -4,6 °C 89 % 1009,5 hPa 0,0 mm 2,7 km/h (1 Bft) W 280 ° 0 min 0,000 mm 0,0 UV-I 0 W/m² -6,1 °C -4,6 °C 3,2 km/h (1 Bft)
29.12.2017 18:48 -4,6 °C -4,6 °C 89 % 1009,5 hPa 0,0 mm 0,6 km/h (0 Bft) W 280 ° 0 min 0,000 mm 0,0 UV-I 0 W/m² -6,1 °C -4,6 °C 1,6 km/h (1 Bft)
29.12.2017 18:49 -4,6 °C -4,6 °C 89 % 1009,5 hPa 0,0 mm 0,5 km/h (0 Bft) W 280 ° 0 min 0,000 mm 0,0 UV-I 0 W/m² -6,1 °C -4,6 °C 1,6 km/h (1 Bft)
29.12.2017 18:50 -4,5 °C -4,5 °C 89 % 1009,4 hPa 0,0 mm 0,6 km/h (0 Bft) SW 223 ° 0 min 0,000 mm 0,0 UV-I 0 W/m² -6,0 °C -4,5 °C 3,2 km/h (1 Bft)
29.12.2017 18:51 -4,5 °C -4,5 °C 89 % 1009,4 hPa 0,0 mm 1,0 km/h (0 Bft) SW 223 ° 0 min 0,000 mm 0,0 UV-I 0 W/m² -6,0 °C -4,5 °C 3,2 km/h (1 Bft)
29.12.2017 18:52 -4,4 °C -4,4 °C 89 % 1009,3 hPa 0,0 mm 0,5 km/h (0 Bft) SW 223 ° 0 min 0,000 mm 0,0 UV-I 0 W/m² -5,9 °C -4,4 °C 1,6 km/h (1 Bft)
29.12.2017 18:53 -4,4 °C -4,4 °C 89 % 1009,3 hPa 0,0 mm 2,6 km/h (1 Bft) SW 223 ° 0 min 0,000 mm 0,0 UV-I 0 W/m² -5,9 °C -4,4 °C 3,2 km/h (1 Bft)
29.12.2017 18:54 -4,4 °C -4,4 °C 89 % 1009,2 hPa 0,0 mm 0,5 km/h (0 Bft) SW 223 ° 0 min 0,000 mm 0,0 UV-I 0 W/m² -5,9 °C -4,4 °C 1,6 km/h (1 Bft)
29.12.2017 18:55 -4,3 °C -4,3 °C 90 % 1009,2 hPa 0,0 mm 1,2 km/h (1 Bft) SW 223 ° 0 min 0,000 mm 0,0 UV-I 0 W/m² -5,7 °C -4,3 °C 3,2 km/h (1 Bft)
29.12.2017 18:56 -4,3 °C -4,3 °C 90 % 1009,0 hPa 0,0 mm 2,0 km/h (1 Bft) N 5 ° 0 min 0,000 mm 0,0 UV-I 0 W/m² -5,7 °C -4,3 °C 3,2 km/h (1 Bft)
29.12.2017 18:57 -4,3 °C -4,3 °C 90 % 1009,0 hPa 0,0 mm 0,1 km/h (0 Bft) N 5 ° 0 min 0,000 mm 0,0 UV-I 0 W/m² -5,7 °C -4,3 °C 1,6 km/h (1 Bft)
29.12.2017 18:58 -4,3 °C -4,3 °C 90 % 1009,0 hPa 0,0 mm 0,0 km/h (0 Bft) N 5 ° 0 min 0,000 mm 0,0 UV-I 0 W/m² -5,7 °C -4,3 °C 0,0 km/h (0 Bft)
29.12.2017 18:59 -4,3 °C -4,3 °C 90 % 1009,0 hPa 0,0 mm 1,9 km/h (1 Bft) N 5 ° 0 min 0,000 mm 0,0 UV-I 0 W/m² -5,7 °C -4,3 °C 4,8 km/h (1 Bft)
29.12.2017 19:00 -4,3 °C -4,2 °C 90 % 1008,9 hPa 0,0 mm 0,8 km/h (0 Bft) N 5 ° 0 min 0,000 mm 0,0 UV-I 0 W/m² -5,7 °C -4,3 °C 3,2 km/h (1 Bft)
29.12.2017 19:01 -4,2 °C -4,2 °C 90 % 1008,9 hPa 0,0 mm 0,9 km/h (0 Bft) N 5 ° 0 min 0,000 mm 0,0 UV-I 0 W/m² -5,6 °C -4,2 °C 3,2 km/h (1 Bft)
29.12.2017 19:02 -4,2 °C -4,2 °C 90 % 1008,9 hPa 0,0 mm 0,6 km/h (0 Bft) N 5 ° 0 min 0,000 mm 0,0 UV-I 0 W/m² -5,6 °C -4,2 °C 1,6 km/h (1 Bft)
29.12.2017 19:03 -4,2 °C -4,2 °C 90 % 1008,7 hPa 0,0 mm 0,2 km/h (0 Bft) N 5 ° 0 min 0,000 mm 0,0 UV-I 0 W/m² -5,6 °C -4,2 °C 1,6 km/h (1 Bft)
29.12.2017 19:04 -4,2 °C -4,2 °C 90 % 1008,7 hPa 0,0 mm 0,0 km/h (0 Bft) N 5 ° 0 min 0,000 mm 0,0 UV-I 0 W/m² -5,6 °C -4,2 °C 0,0 km/h (0 Bft)
29.12.2017 19:05 -4,2 °C -4,2 °C 90 % 1008,7 hPa 0,0 mm 0,0 km/h (0 Bft) N 5 ° 0 min 0,000 mm 0,0 UV-I 0 W/m² -5,6 °C -4,2 °C 0,0 km/h (0 Bft)
29.12.2017 19:06 -4,2 °C -4,2 °C 90 % 1008,7 hPa 0,0 mm 0,0 km/h (0 Bft) N 5 ° 0 min 0,000 mm 0,0 UV-I 0 W/m² -5,6 °C -4,2 °C 0,0 km/h (0 Bft)
29.12.2017 19:07 -4,2 °C -4,2 °C 90 % 1008,7 hPa 0,0 mm 0,0 km/h (0 Bft) N 5 ° 0 min 0,000 mm 0,0 UV-I 0 W/m² -5,6 °C -4,2 °C 0,0 km/h (0 Bft)
29.12.2017 19:08 -4,2 °C -4,2 °C 90 % 1008,6 hPa 0,0 mm 0,0 km/h (0 Bft) N 5 ° 0 min 0,000 mm 0,0 UV-I 0 W/m² -5,6 °C -4,2 °C 0,0 km/h (0 Bft)
29.12.2017 19:09 -4,1 °C -4,1 °C 90 % 1008,6 hPa 0,0 mm 0,5 km/h (0 Bft) N 5 ° 0 min 0,000 mm 0,0 UV-I 0 W/m² -5,5 °C -4,1 °C 1,6 km/h (1 Bft)
29.12.2017 19:10 -4,1 °C -4,1 °C 90 % 1008,6 hPa 0,0 mm 0,7 km/h (0 Bft) N 360 ° 0 min 0,000 mm 0,0 UV-I 0 W/m² -5,5 °C -4,1 °C 3,2 km/h (1 Bft)
29.12.2017 19:11 -4,1 °C -4,1 °C 90 % 1008,5 hPa 0,0 mm 0,0 km/h (0 Bft) N 360 ° 0 min 0,000 mm 0,0 UV-I 0 W/m² -5,5 °C -4,1 °C 0,0 km/h (0 Bft)
29.12.2017 19:12 -4,1 °C -4,1 °C 90 % 1008,5 hPa 0,0 mm 2,8 km/h (1 Bft) W-SW 253 ° 0 min 0,000 mm 0,0 UV-I 0 W/m² -5,5 °C -4,1 °C 4,8 km/h (1 Bft)
29.12.2017 19:13 -4,1 °C -4,1 °C 90 % 1008,5 hPa 0,0 mm 0,3 km/h (0 Bft) SW 219 ° 0 min 0,000 mm 0,0 UV-I 0 W/m² -5,5 °C -4,1 °C 1,6 km/h (1 Bft)
29.12.2017 19:14 -4,1 °C -4,1 °C 90 % 1008,5 hPa 0,0 mm 0,1 km/h (0 Bft) W 265 ° 0 min 0,000 mm 0,0 UV-I 0 W/m² -5,5 °C -4,1 °C 1,6 km/h (1 Bft)
29.12.2017 19:15 -4,1 °C -4,1 °C 90 % 1008,5 hPa 0,0 mm 0,5 km/h (0 Bft) W-NW 296 ° 0 min 0,000 mm 0,0 UV-I 0 W/m² -5,5 °C -4,1 °C 1,6 km/h (1 Bft)
29.12.2017 19:16 -4,1 °C -4,1 °C 90 % 1008,5 hPa 0,0 mm 0,1 km/h (0 Bft) W-NW 296 ° 0 min 0,000 mm 0,0 UV-I 0 W/m² -5,5 °C -4,1 °C 1,6 km/h (1 Bft)
29.12.2017 19:17 -4,1 °C -4,1 °C 90 % 1008,5 hPa 0,0 mm 0,1 km/h (0 Bft) W-NW 296 ° 0 min 0,000 mm 0,0 UV-I 0 W/m² -5,5 °C -4,1 °C 1,6 km/h (1 Bft)
29.12.2017 19:18 -4,1 °C -4,1 °C 90 % 1008,4 hPa 0,0 mm 1,7 km/h (1 Bft) NW 318 ° 0 min 0,000 mm 0,0 UV-I 0 W/m² -5,5 °C -4,1 °C 4,8 km/h (1 Bft)
29.12.2017 19:19 -4,1 °C -4,1 °C 90 % 1008,5 hPa 0,0 mm 0,0 km/h (0 Bft) NW 317 ° 0 min 0,000 mm 0,0 UV-I 0 W/m² -5,5 °C -4,1 °C 0,0 km/h (0 Bft)
29.12.2017 19:20 -4,1 °C -4,1 °C 90 % 1008,5 hPa 0,0 mm 0,4 km/h (0 Bft) S-SW 195 ° 0 min 0,000 mm 0,0 UV-I 0 W/m² -5,5 °C -4,1 °C 1,6 km/h (1 Bft)
29.12.2017 19:21 -4,1 °C -4,0 °C 90 % 1008,5 hPa 0,0 mm 0,2 km/h (0 Bft) W-NW 284 ° 0 min 0,000 mm 0,0 UV-I 0 W/m² -5,5 °C -4,1 °C 1,6 km/h (1 Bft)
29.12.2017 19:22 -4,0 °C -4,0 °C 90 % 1008,5 hPa 0,0 mm 2,1 km/h (1 Bft) O 100 ° 0 min 0,000 mm 0,0 UV-I 0 W/m² -5,4 °C -4,0 °C 4,8 km/h (1 Bft)
29.12.2017 19:23 -4,0 °C -4,0 °C 90 % 1008,4 hPa 0,0 mm 1,3 km/h (1 Bft) O-NO 62 ° 0 min 0,000 mm 0,0 UV-I 0 W/m² -5,4 °C -4,0 °C 3,2 km/h (1 Bft)
29.12.2017 19:24 -4,0 °C -4,0 °C 90 % 1008,4 hPa 0,0 mm 1,4 km/h (1 Bft) O-NO 78 ° 0 min 0,000 mm 0,0 UV-I 0 W/m² -5,4 °C -4,0 °C 3,2 km/h (1 Bft)
29.12.2017 19:25 -3,9 °C -3,9 °C 90 % 1008,4 hPa 0,0 mm 1,0 km/h (0 Bft) O-NO 78 ° 0 min 0,000 mm 0,0 UV-I 0 W/m² -5,3 °C -3,9 °C 3,2 km/h (1 Bft)
29.12.2017 19:26 -4,0 °C -3,9 °C 90 % 1008,3 hPa 0,0 mm 0,3 km/h (0 Bft) O-NO 78 ° 0 min 0,000 mm 0,0 UV-I 0 W/m² -5,4 °C -4,0 °C 1,6 km/h (1 Bft)
29.12.2017 19:27 -4,0 °C -3,9 °C 90 % 1008,3 hPa 0,0 mm 0,8 km/h (0 Bft) O-NO 78 ° 0 min 0,000 mm 0,0 UV-I 0 W/m² -5,4 °C -4,0 °C 1,6 km/h (1 Bft)
29.12.2017 19:28 -3,9 °C -3,9 °C 90 % 1008,3 hPa 0,0 mm 0,5 km/h (0 Bft) O-NO 78 ° 0 min 0,000 mm 0,0 UV-I 0 W/m² -5,3 °C -3,9 °C 1,6 km/h (1 Bft)
29.12.2017 19:29 -3,9 °C -3,9 °C 90 % 1008,3 hPa 0,0 mm 0,9 km/h (0 Bft) O-NO 78 ° 0 min 0,000 mm 0,0 UV-I 0 W/m² -5,3 °C -3,9 °C 3,2 km/h (1 Bft)
29.12.2017 19:30 -3,9 °C -3,9 °C 90 % 1008,3 hPa 0,0 mm 0,8 km/h (0 Bft) O-NO 78 ° 0 min 0,000 mm 0,0 UV-I 0 W/m² -5,3 °C -3,9 °C 1,6 km/h (1 Bft)
29.12.2017 19:31 -3,9 °C -3,9 °C 90 % 1008,2 hPa 0,0 mm 0,2 km/h (0 Bft) O-NO 78 ° 0 min 0,000 mm 0,0 UV-I 0 W/m² -5,3 °C -3,9 °C 1,6 km/h (1 Bft)
29.12.2017 19:32 -3,9 °C -3,9 °C 90 % 1008,2 hPa 0,0 mm 0,0 km/h (0 Bft) O-NO 78 ° 0 min 0,000 mm 0,0 UV-I 0 W/m² -5,3 °C -3,9 °C 0,0 km/h (0 Bft)
29.12.2017 19:33 -3,9 °C -3,9 °C 90 % 1008,2 hPa 0,0 mm 0,7 km/h (0 Bft) O-NO 78 ° 0 min 0,000 mm 0,0 UV-I 0 W/m² -5,3 °C -3,9 °C 1,6 km/h (1 Bft)
29.12.2017 19:34 -3,9 °C -3,9 °C 90 % 1008,1 hPa 0,0 mm 0,3 km/h (0 Bft) O-NO 78 ° 0 min 0,000 mm 0,0 UV-I 0 W/m² -5,3 °C -3,9 °C 1,6 km/h (1 Bft)
29.12.2017 19:35 -3,9 °C -3,9 °C 90 % 1008,1 hPa 0,0 mm 1,2 km/h (1 Bft) O-NO 78 ° 0 min 0,000 mm 0,0 UV-I 0 W/m² -5,3 °C -3,9 °C 3,2 km/h (1 Bft)
29.12.2017 19:36 -3,9 °C -3,9 °C 90 % 1008,1 hPa 0,0 mm 0,0 km/h (0 Bft) O-NO 78 ° 0 min 0,000 mm 0,0 UV-I 0 W/m² -5,3 °C -3,9 °C 0,0 km/h (0 Bft)
29.12.2017 19:37 -3,9 °C -3,9 °C 90 % 1008,2 hPa 0,0 mm 0,0 km/h (0 Bft) O-NO 78 ° 0 min 0,000 mm 0,0 UV-I 0 W/m² -5,3 °C -3,9 °C 0,0 km/h (0 Bft)
29.12.2017 19:38 -3,9 °C -3,9 °C 90 % 1008,1 hPa 0,0 mm 0,0 km/h (0 Bft) O-NO 78 ° 0 min 0,000 mm 0,0 UV-I 0 W/m² -5,3 °C -3,9 °C 0,0 km/h (0 Bft)
29.12.2017 19:39 -3,9 °C -3,9 °C 90 % 1008,1 hPa 0,0 mm 0,0 km/h (0 Bft) O-NO 78 ° 0 min 0,000 mm 0,0 UV-I 0 W/m² -5,3 °C -3,9 °C 0,0 km/h (0 Bft)
29.12.2017 19:40 -3,9 °C -3,9 °C 90 % 1008,1 hPa 0,0 mm 0,0 km/h (0 Bft) O-NO 78 ° 0 min 0,000 mm 0,0 UV-I 0 W/m² -5,3 °C -3,9 °C 0,0 km/h (0 Bft)
29.12.2017 19:41 -3,9 °C -3,9 °C 90 % 1008,1 hPa 0,0 mm 0,0 km/h (0 Bft) O-NO 78 ° 0 min 0,000 mm 0,0 UV-I 0 W/m² -5,3 °C -3,9 °C 0,0 km/h (0 Bft)
29.12.2017 19:42 -3,9 °C -3,9 °C 90 % 1008,1 hPa 0,0 mm 0,0 km/h (0 Bft) O-NO 78 ° 0 min 0,000 mm 0,0 UV-I 0 W/m² -5,3 °C -3,9 °C 0,0 km/h (0 Bft)
29.12.2017 19:43 -3,9 °C -3,9 °C 90 % 1008,0 hPa 0,0 mm 0,3 km/h (0 Bft) O-NO 78 ° 0 min 0,000 mm 0,0 UV-I 0 W/m² -5,3 °C -3,9 °C 1,6 km/h (1 Bft)
29.12.2017 19:44 -3,9 °C -3,9 °C 90 % 1007,9 hPa 0,0 mm 0,0 km/h (0 Bft) O-NO 78 ° 0 min 0,000 mm 0,0 UV-I 0 W/m² -5,3 °C -3,9 °C 0,0 km/h (0 Bft)
29.12.2017 19:45 -3,9 °C -3,9 °C 90 % 1007,9 hPa 0,0 mm 0,0 km/h (0 Bft) O-NO 78 ° 0 min 0,000 mm 0,0 UV-I 0 W/m² -5,3 °C -3,9 °C 0,0 km/h (0 Bft)
29.12.2017 19:46 -3,9 °C -3,8 °C 90 % 1007,8 hPa 0,0 mm 0,0 km/h (0 Bft) O-NO 78 ° 0 min 0,000 mm 0,0 UV-I 0 W/m² -5,3 °C -3,9 °C 0,0 km/h (0 Bft)
29.12.2017 19:47 -3,8 °C -3,8 °C 90 % 1007,8 hPa 0,0 mm 0,0 km/h (0 Bft) O-NO 78 ° 0 min 0,000 mm 0,0 UV-I 0 W/m² -5,2 °C -3,8 °C 0,0 km/h (0 Bft)
29.12.2017 19:48 -3,9 °C -3,8 °C 90 % 1007,8 hPa 0,0 mm 0,3 km/h (0 Bft) O-NO 78 ° 0 min 0,000 mm 0,0 UV-I 0 W/m² -5,3 °C -3,9 °C 1,6 km/h (1 Bft)
29.12.2017 19:49 -3,9 °C -3,8 °C 90 % 1007,8 hPa 0,0 mm 1,3 km/h (1 Bft) O-NO 78 ° 0 min 0,000 mm 0,0 UV-I 0 W/m² -5,3 °C -3,9 °C 3,2 km/h (1 Bft)
29.12.2017 19:50 -3,9 °C -3,8 °C 90 % 1007,8 hPa 0,0 mm 1,1 km/h (1 Bft) O-NO 78 ° 0 min 0,000 mm 0,0 UV-I 0 W/m² -5,3 °C -3,9 °C 1,6 km/h (1 Bft)
29.12.2017 19:51 -3,8 °C -3,8 °C 90 % 1007,8 hPa 0,0 mm 0,0 km/h (0 Bft) O-NO 78 ° 0 min 0,000 mm 0,0 UV-I 0 W/m² -5,2 °C -3,8 °C 0,0 km/h (0 Bft)
29.12.2017 19:52 -3,8 °C -3,8 °C 89 % 1007,7 hPa 0,0 mm 0,0 km/h (0 Bft) O-NO 78 ° 0 min 0,000 mm 0,0 UV-I 0 W/m² -5,3 °C -3,8 °C 0,0 km/h (0 Bft)
29.12.2017 19:53 -3,8 °C -3,8 °C 89 % 1007,7 hPa 0,0 mm 0,0 km/h (0 Bft) O-NO 78 ° 0 min 0,000 mm 0,0 UV-I 0 W/m² -5,3 °C -3,8 °C 0,0 km/h (0 Bft)
29.12.2017 19:54 -3,8 °C -3,8 °C 90 % 1007,7 hPa 0,0 mm 0,0 km/h (0 Bft) O-NO 78 ° 0 min 0,000 mm 0,0 UV-I 0 W/m² -5,2 °C -3,8 °C 0,0 km/h (0 Bft)
29.12.2017 19:55 -3,8 °C -3,8 °C 90 % 1007,7 hPa 0,0 mm 0,0 km/h (0 Bft) O-NO 78 ° 0 min 0,000 mm 0,0 UV-I 0 W/m² -5,2 °C -3,8 °C 0,0 km/h (0 Bft)
29.12.2017 19:56 -3,8 °C -3,8 °C 90 % 1007,7 hPa 0,0 mm 0,7 km/h (0 Bft) N-NW 347 ° 0 min 0,000 mm 0,0 UV-I 0 W/m² -5,2 °C -3,8 °C 3,2 km/h (1 Bft)
29.12.2017 19:57 -3,8 °C -3,8 °C 90 % 1007,7 hPa 0,0 mm 2,3 km/h (1 Bft) N-NW 344 ° 0 min 0,000 mm 0,0 UV-I 0 W/m² -5,2 °C -3,8 °C 3,2 km/h (1 Bft)
29.12.2017 19:58 -3,8 °C -3,8 °C 89 % 1007,7 hPa 0,0 mm 0,8 km/h (0 Bft) N-NW 344 ° 0 min 0,000 mm 0,0 UV-I 0 W/m² -5,3 °C -3,8 °C 1,6 km/h (1 Bft)
29.12.2017 19:59 -3,8 °C -3,8 °C 89 % 1007,6 hPa 0,0 mm 0,9 km/h (0 Bft) N-NW 344 ° 0 min 0,000 mm 0,0 UV-I 0 W/m² -5,3 °C -3,8 °C 3,2 km/h (1 Bft)
29.12.2017 20:00 -3,8 °C -3,8 °C 89 % 1007,6 hPa 0,0 mm 0,0 km/h (0 Bft) N-NW 344 ° 0 min 0,000 mm 0,0 UV-I 0 W/m² -5,3 °C -3,8 °C 0,0 km/h (0 Bft)
29.12.2017 20:01 -3,8 °C -3,8 °C 89 % 1007,6 hPa 0,0 mm 0,0 km/h (0 Bft) N-NW 344 ° 0 min 0,000 mm 0,0 UV-I 0 W/m² -5,3 °C -3,8 °C 0,0 km/h (0 Bft)
29.12.2017 20:02 -3,8 °C -3,8 °C 89 % 1007,5 hPa 0,0 mm 0,0 km/h (0 Bft) N-NW 344 ° 0 min 0,000 mm 0,0 UV-I 0 W/m² -5,3 °C -3,8 °C 0,0 km/h (0 Bft)
29.12.2017 20:03 -3,8 °C -3,8 °C 89 % 1007,5 hPa 0,0 mm 0,0 km/h (0 Bft) N-NW 344 ° 0 min 0,000 mm 0,0 UV-I 0 W/m² -5,3 °C -3,8 °C 0,0 km/h (0 Bft)
29.12.2017 20:04 -3,8 °C -3,8 °C 89 % 1007,6 hPa 0,0 mm 0,0 km/h (0 Bft) N-NW 344 ° 0 min 0,000 mm 0,0 UV-I 0 W/m² -5,3 °C -3,8 °C 0,0 km/h (0 Bft)
29.12.2017 20:05 -3,8 °C -3,8 °C 89 % 1007,5 hPa 0,0 mm 1,3 km/h (1 Bft) O-NO 77 ° 0 min 0,000 mm 0,0 UV-I 0 W/m² -5,3 °C -3,8 °C 3,2 km/h (1 Bft)
29.12.2017 20:06 -3,8 °C -3,8 °C 89 % 1007,5 hPa 0,0 mm 1,3 km/h (1 Bft) O-NO 77 ° 0 min 0,000 mm 0,0 UV-I 0 W/m² -5,3 °C -3,8 °C 3,2 km/h (1 Bft)
29.12.2017 20:07 -3,8 °C -3,8 °C 89 % 1007,6 hPa 0,0 mm 1,8 km/h (1 Bft) O-NO 77 ° 0 min 0,000 mm 0,0 UV-I 0 W/m² -5,3 °C -3,8 °C 3,2 km/h (1 Bft)
29.12.2017 20:08 -3,8 °C -3,8 °C 89 % 1007,5 hPa 0,0 mm 0,0 km/h (0 Bft) O-NO 77 ° 0 min 0,000 mm 0,0 UV-I 0 W/m² -5,3 °C -3,8 °C 0,0 km/h (0 Bft)
29.12.2017 20:09 -3,8 °C -3,8 °C 88 % 1007,5 hPa 0,0 mm 0,0 km/h (0 Bft) O-NO 77 ° 0 min 0,000 mm 0,0 UV-I 0 W/m² -5,5 °C -3,8 °C 0,0 km/h (0 Bft)
29.12.2017 20:10 -3,8 °C -3,7 °C 88 % 1007,5 hPa 0,0 mm 0,0 km/h (0 Bft) O-NO 77 ° 0 min 0,000 mm 0,0 UV-I 0 W/m² -5,5 °C -3,8 °C 0,0 km/h (0 Bft)
29.12.2017 20:11 -3,7 °C -3,7 °C 88 % 1007,4 hPa 0,0 mm 0,0 km/h (0 Bft) O-NO 77 ° 0 min 0,000 mm 0,0 UV-I 0 W/m² -5,4 °C -3,7 °C 0,0 km/h (0 Bft)
29.12.2017 20:12 -3,7 °C -3,7 °C 88 % 1007,4 hPa 0,0 mm 0,2 km/h (0 Bft) O-NO 77 ° 0 min 0,000 mm 0,0 UV-I 0 W/m² -5,4 °C -3,7 °C 1,6 km/h (1 Bft)
29.12.2017 20:13 -3,7 °C -3,7 °C 88 % 1007,3 hPa 0,0 mm 0,0 km/h (0 Bft) O-NO 77 ° 0 min 0,000 mm 0,0 UV-I 0 W/m² -5,4 °C -3,7 °C 0,0 km/h (0 Bft)
29.12.2017 20:14 -3,7 °C -3,7 °C 88 % 1007,3 hPa 0,0 mm 0,0 km/h (0 Bft) O-NO 77 ° 0 min 0,000 mm 0,0 UV-I 0 W/m² -5,4 °C -3,7 °C 0,0 km/h (0 Bft)
29.12.2017 20:15 -3,7 °C -3,7 °C 88 % 1007,3 hPa 0,0 mm 0,0 km/h (0 Bft) O-NO 77 ° 0 min 0,000 mm 0,0 UV-I 0 W/m² -5,4 °C -3,7 °C 0,0 km/h (0 Bft)
29.12.2017 20:16 -3,7 °C -3,7 °C 88 % 1007,4 hPa 0,0 mm 0,6 km/h (0 Bft) O-NO 77 ° 0 min 0,000 mm 0,0 UV-I 0 W/m² -5,4 °C -3,7 °C 3,2 km/h (1 Bft)
29.12.2017 20:17 -3,7 °C -3,7 °C 88 % 1007,3 hPa 0,0 mm 2,2 km/h (1 Bft) O-NO 77 ° 0 min 0,000 mm 0,0 UV-I 0 W/m² -5,4 °C -3,7 °C 3,2 km/h (1 Bft)
29.12.2017 20:18 -3,7 °C -3,7 °C 88 % 1007,3 hPa 0,0 mm 0,1 km/h (0 Bft) O-NO 77 ° 0 min 0,000 mm 0,0 UV-I 0 W/m² -5,4 °C -3,7 °C 1,6 km/h (1 Bft)
29.12.2017 20:19 -3,7 °C -3,7 °C 88 % 1007,2 hPa 0,0 mm 0,0 km/h (0 Bft) O-NO 77 ° 0 min 0,000 mm 0,0 UV-I 0 W/m² -5,4 °C -3,7 °C 0,0 km/h (0 Bft)
29.12.2017 20:20 -3,7 °C -3,7 °C 88 % 1007,2 hPa 0,0 mm 0,0 km/h (0 Bft) O-NO 77 ° 0 min 0,000 mm 0,0 UV-I 0 W/m² -5,4 °C -3,7 °C 0,0 km/h (0 Bft)
29.12.2017 20:21 -3,7 °C -3,7 °C 88 % 1007,1 hPa 0,0 mm 0,0 km/h (0 Bft) O-NO 77 ° 0 min 0,000 mm 0,0 UV-I 0 W/m² -5,4 °C -3,7 °C 0,0 km/h (0 Bft)
29.12.2017 20:22 -3,7 °C -3,7 °C 88 % 1007,2 hPa 0,0 mm 0,0 km/h (0 Bft) O-NO 77 ° 0 min 0,000 mm 0,0 UV-I 0 W/m² -5,4 °C -3,7 °C 0,0 km/h (0 Bft)
29.12.2017 20:23 -3,7 °C -3,7 °C 87 % 1007,2 hPa 0,0 mm 0,0 km/h (0 Bft) O-NO 77 ° 0 min 0,000 mm 0,0 UV-I 0 W/m² -5,5 °C -3,7 °C 0,0 km/h (0 Bft)
29.12.2017 20:24 -3,7 °C -3,7 °C 87 % 1007,3 hPa 0,0 mm 0,0 km/h (0 Bft) O-NO 77 ° 0 min 0,000 mm 0,0 UV-I 0 W/m² -5,5 °C -3,7 °C 0,0 km/h (0 Bft)
29.12.2017 20:25 -3,7 °C -3,7 °C 87 % 1007,2 hPa 0,0 mm 0,0 km/h (0 Bft) O-NO 77 ° 0 min 0,000 mm 0,0 UV-I 0 W/m² -5,5 °C -3,7 °C 0,0 km/h (0 Bft)
29.12.2017 20:26 -3,7 °C -3,7 °C 87 % 1007,2 hPa 0,0 mm 0,0 km/h (0 Bft) O-NO 77 ° 0 min 0,000 mm 0,0 UV-I 0 W/m² -5,5 °C -3,7 °C 0,0 km/h (0 Bft)
29.12.2017 20:27 -3,7 °C -3,6 °C 87 % 1007,2 hPa 0,0 mm 0,0 km/h (0 Bft) O-NO 77 ° 0 min 0,000 mm 0,0 UV-I 0 W/m² -5,5 °C -3,7 °C 0,0 km/h (0 Bft)
29.12.2017 20:28 -3,7 °C -3,7 °C 87 % 1007,1 hPa 0,0 mm 0,0 km/h (0 Bft) O-NO 77 ° 0 min 0,000 mm 0,0 UV-I 0 W/m² -5,5 °C -3,7 °C 0,0 km/h (0 Bft)
29.12.2017 20:29 -3,7 °C -3,6 °C 87 % 1007,2 hPa 0,0 mm 0,0 km/h (0 Bft) O-NO 77 ° 0 min 0,000 mm 0,0 UV-I 0 W/m² -5,5 °C -3,7 °C 0,0 km/h (0 Bft)
29.12.2017 20:30 -3,7 °C -3,6 °C 87 % 1007,1 hPa 0,0 mm 0,0 km/h (0 Bft) O-NO 77 ° 0 min 0,000 mm 0,0 UV-I 0 W/m² -5,5 °C -3,7 °C 0,0 km/h (0 Bft)
29.12.2017 20:31 -3,7 °C -3,6 °C 87 % 1007,1 hPa 0,0 mm 0,0 km/h (0 Bft) O-NO 77 ° 0 min 0,000 mm 0,0 UV-I 0 W/m² -5,5 °C -3,7 °C 0,0 km/h (0 Bft)
29.12.2017 20:32 -3,7 °C -3,6 °C 87 % 1007,1 hPa 0,0 mm 0,0 km/h (0 Bft) O-NO 77 ° 0 min 0,000 mm 0,0 UV-I 0 W/m² -5,5 °C -3,7 °C 0,0 km/h (0 Bft)
29.12.2017 20:33 -3,7 °C -3,7 °C 87 % 1007,0 hPa 0,0 mm 0,0 km/h (0 Bft) O-NO 77 ° 0 min 0,000 mm 0,0 UV-I 0 W/m² -5,5 °C -3,7 °C 0,0 km/h (0 Bft)
29.12.2017 20:34 -3,7 °C -3,7 °C 87 % 1007,0 hPa 0,0 mm 0,0 km/h (0 Bft) O-NO 77 ° 0 min 0,000 mm 0,0 UV-I 0 W/m² -5,5 °C -3,7 °C 0,0 km/h (0 Bft)
29.12.2017 20:35 -3,7 °C -3,7 °C 87 % 1007,0 hPa 0,0 mm 0,0 km/h (0 Bft) O-NO 77 ° 0 min 0,000 mm 0,0 UV-I 0 W/m² -5,5 °C -3,7 °C 0,0 km/h (0 Bft)
29.12.2017 20:36 -3,7 °C -3,7 °C 87 % 1007,0 hPa 0,0 mm 0,0 km/h (0 Bft) O-NO 77 ° 0 min 0,000 mm 0,0 UV-I 0 W/m² -5,5 °C -3,7 °C 0,0 km/h (0 Bft)
29.12.2017 20:37 -3,7 °C -3,7 °C 87 % 1007,0 hPa 0,0 mm 0,0 km/h (0 Bft) O-NO 77 ° 0 min 0,000 mm 0,0 UV-I 0 W/m² -5,5 °C -3,7 °C 0,0 km/h (0 Bft)
29.12.2017 20:38 -3,7 °C -3,7 °C 87 % 1007,0 hPa 0,0 mm 0,0 km/h (0 Bft) O-NO 77 ° 0 min 0,000 mm 0,0 UV-I 0 W/m² -5,5 °C -3,7 °C 0,0 km/h (0 Bft)
29.12.2017 20:39 -3,7 °C -3,7 °C 87 % 1007,1 hPa 0,0 mm 0,9 km/h (0 Bft) O-NO 77 ° 0 min 0,000 mm 0,0 UV-I 0 W/m² -5,5 °C -3,7 °C 3,2 km/h (1 Bft)
29.12.2017 20:40 -3,7 °C -3,7 °C 87 % 1007,1 hPa 0,0 mm 3,1 km/h (1 Bft) O-NO 77 ° 0 min 0,000 mm 0,0 UV-I 0 W/m² -5,5 °C -3,7 °C 4,8 km/h (1 Bft)
29.12.2017 20:41 -3,7 °C -3,7 °C 87 % 1007,1 hPa 0,0 mm 4,0 km/h (1 Bft) W-SW 242 ° 0 min 0,000 mm 0,0 UV-I 0 W/m² -5,5 °C -3,7 °C 4,8 km/h (1 Bft)
29.12.2017 20:42 -3,7 °C -3,7 °C 87 % 1007,0 hPa 0,0 mm 1,6 km/h (1 Bft) SW 217 ° 0 min 0,000 mm 0,0 UV-I 0 W/m² -5,5 °C -3,7 °C 3,2 km/h (1 Bft)
29.12.2017 20:43 -3,7 °C -3,7 °C 87 % 1007,0 hPa 0,0 mm 2,2 km/h (1 Bft) S-SW 213 ° 0 min 0,000 mm 0,0 UV-I 0 W/m² -5,5 °C -3,7 °C 3,2 km/h (1 Bft)
29.12.2017 20:44 -3,7 °C -3,7 °C 87 % 1007,0 hPa 0,0 mm 1,0 km/h (0 Bft) S-SW 213 ° 0 min 0,000 mm 0,0 UV-I 0 W/m² -5,5 °C -3,7 °C 3,2 km/h (1 Bft)
29.12.2017 20:45 -3,7 °C -3,7 °C 87 % 1006,9 hPa 0,0 mm 0,0 km/h (0 Bft) S-SW 213 ° 0 min 0,000 mm 0,0 UV-I 0 W/m² -5,5 °C -3,7 °C 0,0 km/h (0 Bft)
29.12.2017 20:46 -3,7 °C -3,7 °C 87 % 1006,9 hPa 0,0 mm 0,0 km/h (0 Bft) S-SW 213 ° 0 min 0,000 mm 0,0 UV-I 0 W/m² -5,5 °C -3,7 °C 0,0 km/h (0 Bft)
29.12.2017 20:47 -3,7 °C -3,7 °C 88 % 1006,9 hPa 0,0 mm 0,0 km/h (0 Bft) S-SW 213 ° 0 min 0,000 mm 0,0 UV-I 0 W/m² -5,4 °C -3,7 °C 0,0 km/h (0 Bft)
29.12.2017 20:48 -3,7 °C -3,7 °C 88 % 1006,9 hPa 0,0 mm 0,0 km/h (0 Bft) S-SW 213 ° 0 min 0,000 mm 0,0 UV-I 0 W/m² -5,4 °C -3,7 °C 0,0 km/h (0 Bft)
29.12.2017 20:49 -3,8 °C -3,7 °C 88 % 1006,9 hPa 0,0 mm 0,0 km/h (0 Bft) S-SW 213 ° 0 min 0,000 mm 0,0 UV-I 0 W/m² -5,5 °C -3,8 °C 0,0 km/h (0 Bft)
29.12.2017 20:50 -3,8 °C -3,7 °C 88 % 1007,0 hPa 0,0 mm 0,0 km/h (0 Bft) S-SW 213 ° 0 min 0,000 mm 0,0 UV-I 0 W/m² -5,5 °C -3,8 °C 0,0 km/h (0 Bft)
29.12.2017 20:51 -3,8 °C -3,8 °C 88 % 1007,0 hPa 0,0 mm 0,0 km/h (0 Bft) S-SW 213 ° 0 min 0,000 mm 0,0 UV-I 0 W/m² -5,5 °C -3,8 °C 0,0 km/h (0 Bft)
29.12.2017 20:52 -3,8 °C -3,8 °C 88 % 1006,9 hPa 0,0 mm 0,0 km/h (0 Bft) S-SW 213 ° 0 min 0,000 mm 0,0 UV-I 0 W/m² -5,5 °C -3,8 °C 0,0 km/h (0 Bft)
29.12.2017 20:53 -3,8 °C -3,8 °C 88 % 1007,0 hPa 0,0 mm 0,0 km/h (0 Bft) S-SW 213 ° 0 min 0,000 mm 0,0 UV-I 0 W/m² -5,5 °C -3,8 °C 0,0 km/h (0 Bft)
29.12.2017 20:54 -3,8 °C -3,8 °C 88 % 1007,1 hPa 0,0 mm 0,0 km/h (0 Bft) W-SW 238 ° 0 min 0,000 mm 0,0 UV-I 0 W/m² -5,5 °C -3,8 °C 0,0 km/h (0 Bft)
29.12.2017 20:55 -3,8 °C -3,8 °C 88 % 1007,2 hPa 0,0 mm 0,0 km/h (0 Bft) W-SW 238 ° 0 min 0,000 mm 0,0 UV-I 0 W/m² -5,5 °C -3,8 °C 0,0 km/h (0 Bft)
29.12.2017 20:56 -3,8 °C -3,8 °C 88 % 1007,1 hPa 0,0 mm 0,0 km/h (0 Bft) SW 219 ° 0 min 0,000 mm 0,0 UV-I 0 W/m² -5,5 °C -3,8 °C 0,0 km/h (0 Bft)
29.12.2017 20:57 -3,8 °C -3,8 °C 88 % 1007,1 hPa 0,0 mm 0,0 km/h (0 Bft) SW 219 ° 0 min 0,000 mm 0,0 UV-I 0 W/m² -5,5 °C -3,8 °C 0,0 km/h (0 Bft)
29.12.2017 20:58 -3,8 °C -3,8 °C 88 % 1007,3 hPa 0,0 mm 0,0 km/h (0 Bft) SW 219 ° 0 min 0,000 mm 0,0 UV-I 0 W/m² -5,5 °C -3,8 °C 0,0 km/h (0 Bft)
29.12.2017 20:59 -3,8 °C -3,8 °C 88 % 1007,3 hPa 0,0 mm 2,7 km/h (1 Bft) W 277 ° 0 min 0,000 mm 0,0 UV-I 0 W/m² -5,5 °C -3,8 °C 4,8 km/h (1 Bft)
29.12.2017 21:00 -3,8 °C -3,8 °C 88 % 1007,3 hPa 0,0 mm 1,4 km/h (1 Bft) W 277 ° 0 min 0,000 mm 0,0 UV-I 0 W/m² -5,5 °C -3,8 °C 3,2 km/h (1 Bft)
29.12.2017 21:01 -3,8 °C -3,8 °C 88 % 1007,2 hPa 0,0 mm 0,0 km/h (0 Bft) W 277 ° 0 min 0,000 mm 0,0 UV-I 0 W/m² -5,5 °C -3,8 °C 0,0 km/h (0 Bft)
29.12.2017 21:02 -3,9 °C -3,8 °C 88 % 1007,3 hPa 0,0 mm 0,6 km/h (0 Bft) W 277 ° 0 min 0,000 mm 0,0 UV-I 0 W/m² -5,6 °C -3,9 °C 1,6 km/h (1 Bft)
29.12.2017 21:03 -3,9 °C -3,8 °C 89 % 1007,3 hPa 0,0 mm 0,0 km/h (0 Bft) W 277 ° 0 min 0,000 mm 0,0 UV-I 0 W/m² -5,4 °C -3,9 °C 0,0 km/h (0 Bft)
29.12.2017 21:04 -3,8 °C -3,8 °C 89 % 1007,2 hPa 0,0 mm 0,0 km/h (0 Bft) W 277 ° 0 min 0,000 mm 0,0 UV-I 0 W/m² -5,3 °C -3,8 °C 0,0 km/h (0 Bft)
29.12.2017 21:05 -3,9 °C -3,8 °C 89 % 1007,1 hPa 0,0 mm 0,0 km/h (0 Bft) W 277 ° 0 min 0,000 mm 0,0 UV-I 0 W/m² -5,4 °C -3,9 °C 0,0 km/h (0 Bft)
29.12.2017 21:06 -3,8 °C -3,8 °C 89 % 1007,1 hPa 0,0 mm 0,0 km/h (0 Bft) W 277 ° 0 min 0,000 mm 0,0 UV-I 0 W/m² -5,3 °C -3,8 °C 0,0 km/h (0 Bft)
29.12.2017 21:07 -3,9 °C -3,8 °C 89 % 1007,1 hPa 0,0 mm 3,2 km/h (1 Bft) W-NW 292 ° 0 min 0,000 mm 0,0 UV-I 0 W/m² -5,4 °C -3,9 °C 6,4 km/h (2 Bft)
29.12.2017 21:08 -3,8 °C -3,8 °C 89 % 1007,2 hPa 0,0 mm 1,7 km/h (1 Bft) W-NW 292 ° 0 min 0,000 mm 0,0 UV-I 0 W/m² -5,3 °C -3,8 °C 3,2 km/h (1 Bft)
29.12.2017 21:09 -3,8 °C -3,8 °C 89 % 1007,2 hPa 0,0 mm 0,3 km/h (0 Bft) W-NW 292 ° 0 min 0,000 mm 0,0 UV-I 0 W/m² -5,3 °C -3,8 °C 1,6 km/h (1 Bft)
29.12.2017 21:10 -3,9 °C -3,8 °C 89 % 1007,2 hPa 0,0 mm 0,0 km/h (0 Bft) W-NW 292 ° 0 min 0,000 mm 0,0 UV-I 0 W/m² -5,4 °C -3,9 °C 0,0 km/h (0 Bft)
29.12.2017 21:11 -3,9 °C -3,9 °C 89 % 1007,2 hPa 0,0 mm 0,0 km/h (0 Bft) W-NW 292 ° 0 min 0,000 mm 0,0 UV-I 0 W/m² -5,4 °C -3,9 °C 0,0 km/h (0 Bft)
29.12.2017 21:12 -3,9 °C -3,9 °C 89 % 1007,3 hPa 0,0 mm 0,0 km/h (0 Bft) W-NW 292 ° 0 min 0,000 mm 0,0 UV-I 0 W/m² -5,4 °C -3,9 °C 0,0 km/h (0 Bft)
29.12.2017 21:13 -3,9 °C -3,9 °C 89 % 1007,3 hPa 0,0 mm 0,0 km/h (0 Bft) W-NW 292 ° 0 min 0,000 mm 0,0 UV-I 0 W/m² -5,4 °C -3,9 °C 0,0 km/h (0 Bft)
29.12.2017 21:14 -3,8 °C -3,8 °C 89 % 1007,3 hPa 0,0 mm 0,0 km/h (0 Bft) W-NW 292 ° 0 min 0,000 mm 0,0 UV-I 0 W/m² -5,3 °C -3,8 °C 0,0 km/h (0 Bft)
29.12.2017 21:15 -3,8 °C -3,8 °C 90 % 1007,3 hPa 0,0 mm 0,0 km/h (0 Bft) W-NW 292 ° 0 min 0,000 mm 0,0 UV-I 0 W/m² -5,2 °C -3,8 °C 0,0 km/h (0 Bft)
29.12.2017 21:16 -3,9 °C -3,8 °C 90 % 1007,4 hPa 0,0 mm 0,0 km/h (0 Bft) W-NW 292 ° 0 min 0,000 mm 0,0 UV-I 0 W/m² -5,3 °C -3,9 °C 0,0 km/h (0 Bft)
29.12.2017 21:17 -3,8 °C -3,8 °C 90 % 1007,4 hPa 0,0 mm 0,0 km/h (0 Bft) W-NW 292 ° 0 min 0,000 mm 0,0 UV-I 0 W/m² -5,2 °C -3,8 °C 0,0 km/h (0 Bft)
29.12.2017 21:18 -3,8 °C -3,8 °C 90 % 1007,5 hPa 0,0 mm 0,0 km/h (0 Bft) W-NW 292 ° 0 min 0,000 mm 0,0 UV-I 0 W/m² -5,2 °C -3,8 °C 0,0 km/h (0 Bft)
29.12.2017 21:19 -3,8 °C -3,8 °C 90 % 1007,6 hPa 0,0 mm 2,1 km/h (1 Bft) SW 221 ° 0 min 0,000 mm 0,0 UV-I 0 W/m² -5,2 °C -3,8 °C 3,2 km/h (1 Bft)
29.12.2017 21:20 -3,8 °C -3,8 °C 90 % 1007,7 hPa 0,0 mm 3,0 km/h (1 Bft) SW 219 ° 0 min 0,000 mm 0,0 UV-I 0 W/m² -5,2 °C -3,8 °C 4,8 km/h (1 Bft)
29.12.2017 21:21 -3,8 °C -3,7 °C 90 % 1007,7 hPa 0,0 mm 5,9 km/h (2 Bft) SW 219 ° 0 min 0,000 mm 0,0 UV-I 0 W/m² -5,2 °C -6,3 °C 9,7 km/h (2 Bft)
29.12.2017 21:22 -3,7 °C -3,7 °C 91 % 1007,7 hPa 0,0 mm 6,2 km/h (2 Bft) S 190 ° 0 min 0,000 mm 0,0 UV-I 0 W/m² -4,9 °C -6,4 °C 9,7 km/h (2 Bft)
29.12.2017 21:23 -3,7 °C -3,7 °C 91 % 1007,7 hPa 0,0 mm 6,8 km/h (2 Bft) S-SW 198 ° 0 min 0,000 mm 0,0 UV-I 0 W/m² -4,9 °C -6,6 °C 9,7 km/h (2 Bft)
29.12.2017 21:24 -3,6 °C -3,6 °C 91 % 1007,8 hPa 0,0 mm 4,4 km/h (1 Bft) S-SW 206 ° 0 min 0,000 mm 0,0 UV-I 0 W/m² -4,8 °C -3,6 °C 6,4 km/h (2 Bft)
29.12.2017 21:25 -3,5 °C -3,5 °C 91 % 1007,8 hPa 0,0 mm 5,2 km/h (1 Bft) S-SW 206 ° 0 min 0,000 mm 0,0 UV-I 0 W/m² -4,8 °C -5,7 °C 8,0 km/h (2 Bft)
29.12.2017 21:26 -3,4 °C -3,4 °C 91 % 1007,8 hPa 0,0 mm 4,8 km/h (1 Bft) W-SW 243 ° 0 min 0,000 mm 0,0 UV-I 0 W/m² -4,7 °C -5,3 °C 8,0 km/h (2 Bft)
29.12.2017 21:27 -3,4 °C -3,4 °C 91 % 1007,8 hPa 0,0 mm 4,2 km/h (1 Bft) SW 222 ° 0 min 0,000 mm 0,0 UV-I 0 W/m² -4,7 °C -3,4 °C 9,7 km/h (2 Bft)
29.12.2017 21:28 -3,3 °C -3,3 °C 91 % 1007,8 hPa 0,0 mm 2,8 km/h (1 Bft) SW 222 ° 0 min 0,000 mm 0,0 UV-I 0 W/m² -4,6 °C -3,3 °C 3,2 km/h (1 Bft)
29.12.2017 21:29 -3,2 °C -3,2 °C 91 % 1007,8 hPa 0,0 mm 2,6 km/h (1 Bft) SW 217 ° 0 min 0,000 mm 0,0 UV-I 0 W/m² -4,5 °C -3,2 °C 6,4 km/h (2 Bft)
29.12.2017 21:30 -3,2 °C -3,2 °C 91 % 1007,8 hPa 0,0 mm 1,1 km/h (1 Bft) SW 217 ° 0 min 0,000 mm 0,0 UV-I 0 W/m² -4,5 °C -3,2 °C 1,6 km/h (1 Bft)
29.12.2017 21:31 -3,1 °C -3,1 °C 91 % 1007,9 hPa 0,0 mm 1,9 km/h (1 Bft) SW 217 ° 0 min 0,000 mm 0,0 UV-I 0 W/m² -4,4 °C -3,1 °C 3,2 km/h (1 Bft)
29.12.2017 21:32 -2,9 °C -2,9 °C 91 % 1008,0 hPa 0,0 mm 2,7 km/h (1 Bft) SW 227 ° 0 min 0,000 mm 0,0 UV-I 0 W/m² -4,2 °C -2,9 °C 4,8 km/h (1 Bft)
29.12.2017 21:33 -2,9 °C -2,9 °C 91 % 1008,0 hPa 0,0 mm 1,4 km/h (1 Bft) SW 227 ° 0 min 0,000 mm 0,0 UV-I 0 W/m² -4,2 °C -2,9 °C 3,2 km/h (1 Bft)
29.12.2017 21:34 -2,9 °C -2,9 °C 91 % 1008,0 hPa 0,0 mm 3,2 km/h (1 Bft) W-SW 254 ° 0 min 0,000 mm 0,0 UV-I 0 W/m² -4,2 °C -2,9 °C 4,8 km/h (1 Bft)
29.12.2017 21:35 -2,8 °C -2,8 °C 91 % 1008,0 hPa 0,0 mm 2,2 km/h (1 Bft) W-SW 254 ° 0 min 0,000 mm 0,0 UV-I 0 W/m² -4,1 °C -2,8 °C 4,8 km/h (1 Bft)
29.12.2017 21:36 -2,8 °C -2,8 °C 91 % 1007,9 hPa 0,0 mm 0,5 km/h (0 Bft) W-SW 254 ° 0 min 0,000 mm 0,0 UV-I 0 W/m² -4,1 °C -2,8 °C 1,6 km/h (1 Bft)
29.12.2017 21:37 -2,7 °C -2,7 °C 92 % 1007,9 hPa 0,0 mm 0,1 km/h (0 Bft) W-SW 254 ° 0 min 0,000 mm 0,0 UV-I 0 W/m² -3,8 °C -2,7 °C 1,6 km/h (1 Bft)
29.12.2017 21:38 -2,7 °C -2,7 °C 91 % 1008,1 hPa 0,0 mm 1,9 km/h (1 Bft) W-SW 254 ° 0 min 0,000 mm 0,0 UV-I 0 W/m² -4,0 °C -2,7 °C 3,2 km/h (1 Bft)
29.12.2017 21:39 -2,7 °C -2,7 °C 92 % 1008,2 hPa 0,0 mm 1,1 km/h (1 Bft) W-SW 254 ° 0 min 0,000 mm 0,0 UV-I 0 W/m² -3,8 °C -2,7 °C 3,2 km/h (1 Bft)
29.12.2017 21:40 -2,6 °C -2,6 °C 92 % 1008,0 hPa 0,0 mm 3,2 km/h (1 Bft) S-SW 213 ° 0 min 0,000 mm 0,0 UV-I 0 W/m² -3,7 °C -2,6 °C 4,8 km/h (1 Bft)
29.12.2017 21:41 -2,6 °C -2,6 °C 92 % 1008,0 hPa 0,0 mm 4,4 km/h (1 Bft) W-SW 245 ° 0 min 0,000 mm 0,0 UV-I 0 W/m² -3,7 °C -2,6 °C 6,4 km/h (2 Bft)
29.12.2017 21:42 -2,5 °C -2,5 °C 92 % 1007,9 hPa 0,0 mm 2,0 km/h (1 Bft) S 179 ° 0 min 0,000 mm 0,0 UV-I 0 W/m² -3,6 °C -2,5 °C 4,8 km/h (1 Bft)
29.12.2017 21:43 -2,5 °C -2,5 °C 92 % 1007,9 hPa 0,0 mm 0,0 km/h (0 Bft) S 179 ° 0 min 0,000 mm 0,0 UV-I 0 W/m² -3,6 °C -2,5 °C 0,0 km/h (0 Bft)
29.12.2017 21:44 -2,5 °C -2,4 °C 92 % 1008,0 hPa 0,0 mm 0,3 km/h (0 Bft) S 179 ° 0 min 0,000 mm 0,0 UV-I 0 W/m² -3,6 °C -2,5 °C 1,6 km/h (1 Bft)
29.12.2017 21:45 -2,4 °C -2,4 °C 92 % 1008,0 hPa 0,0 mm 0,0 km/h (0 Bft) S 179 ° 0 min 0,000 mm 0,0 UV-I 0 W/m² -3,5 °C -2,4 °C 0,0 km/h (0 Bft)
29.12.2017 21:46 -2,4 °C -2,4 °C 92 % 1008,0 hPa 0,0 mm 0,0 km/h (0 Bft) S 179 ° 0 min 0,000 mm 0,0 UV-I 0 W/m² -3,5 °C -2,4 °C 0,0 km/h (0 Bft)
29.12.2017 21:47 -2,4 °C -2,4 °C 92 % 1008,0 hPa 0,0 mm 2,3 km/h (1 Bft) S-SW 211 ° 0 min 0,000 mm 0,0 UV-I 0 W/m² -3,5 °C -2,4 °C 4,8 km/h (1 Bft)
29.12.2017 21:48 -2,4 °C -2,4 °C 92 % 1008,1 hPa 0,0 mm 3,4 km/h (1 Bft) W 281 ° 0 min 0,000 mm 0,0 UV-I 0 W/m² -3,5 °C -2,4 °C 4,8 km/h (1 Bft)
29.12.2017 21:49 -2,4 °C -2,4 °C 92 % 1008,1 hPa 0,0 mm 3,0 km/h (1 Bft) W 281 ° 0 min 0,000 mm 0,0 UV-I 0 W/m² -3,5 °C -2,4 °C 4,8 km/h (1 Bft)
29.12.2017 21:50 -2,3 °C -2,3 °C 92 % 1007,8 hPa 0,0 mm 2,2 km/h (1 Bft) W 263 ° 0 min 0,000 mm 0,0 UV-I 0 W/m² -3,4 °C -2,3 °C 8,0 km/h (2 Bft)
29.12.2017 21:51 -2,3 °C -2,3 °C 92 % 1007,9 hPa 0,0 mm 2,7 km/h (1 Bft) W 263 ° 0 min 0,000 mm 0,0 UV-I 0 W/m² -3,4 °C -2,3 °C 4,8 km/h (1 Bft)
29.12.2017 21:52 -2,3 °C -2,3 °C 92 % 1008,0 hPa 0,0 mm 2,6 km/h (1 Bft) W 263 ° 0 min 0,000 mm 0,0 UV-I 0 W/m² -3,4 °C -2,3 °C 3,2 km/h (1 Bft)
29.12.2017 21:53 -2,3 °C -2,2 °C 92 % 1007,8 hPa 0,0 mm 0,0 km/h (0 Bft) W 263 ° 0 min 0,000 mm 0,0 UV-I 0 W/m² -3,4 °C -2,3 °C 0,0 km/h (0 Bft)
29.12.2017 21:54 -2,2 °C -2,2 °C 92 % 1007,8 hPa 0,0 mm 0,6 km/h (0 Bft) W 263 ° 0 min 0,000 mm 0,0 UV-I 0 W/m² -3,3 °C -2,2 °C 3,2 km/h (1 Bft)
29.12.2017 21:55 -2,2 °C -2,2 °C 92 % 1007,9 hPa 0,0 mm 0,3 km/h (0 Bft) W-NW 288 ° 0 min 0,000 mm 0,0 UV-I 0 W/m² -3,3 °C -2,2 °C 1,6 km/h (1 Bft)
29.12.2017 21:56 -2,2 °C -2,2 °C 92 % 1007,9 hPa 0,0 mm 1,6 km/h (1 Bft) W-NW 288 ° 0 min 0,000 mm 0,0 UV-I 0 W/m² -3,3 °C -2,2 °C 4,8 km/h (1 Bft)
29.12.2017 21:57 -2,2 °C -2,2 °C 92 % 1007,8 hPa 0,0 mm 0,3 km/h (0 Bft) W-NW 288 ° 0 min 0,000 mm 0,0 UV-I 0 W/m² -3,3 °C -2,2 °C 1,6 km/h (1 Bft)
29.12.2017 21:58 -2,2 °C -2,2 °C 92 % 1007,8 hPa 0,0 mm 0,0 km/h (0 Bft) W-NW 288 ° 0 min 0,000 mm 0,0 UV-I 0 W/m² -3,3 °C -2,2 °C 0,0 km/h (0 Bft)
29.12.2017 21:59 -2,2 °C -2,1 °C 93 % 1007,8 hPa 0,0 mm 0,0 km/h (0 Bft) W-NW 288 ° 0 min 0,000 mm 0,0 UV-I 0 W/m² -3,2 °C -2,2 °C 0,0 km/h (0 Bft)
29.12.2017 22:00 -2,1 °C -2,1 °C 93 % 1007,8 hPa 0,0 mm 0,3 km/h (0 Bft) W 265 ° 0 min 0,000 mm 0,0 UV-I 0 W/m² -3,1 °C -2,1 °C 1,6 km/h (1 Bft)
29.12.2017 22:01 -2,1 °C -2,1 °C 93 % 1007,8 hPa 0,0 mm 2,0 km/h (1 Bft) S-SO 167 ° 0 min 0,000 mm 0,0 UV-I 0 W/m² -3,1 °C -2,1 °C 4,8 km/h (1 Bft)
29.12.2017 22:02 -2,1 °C -2,1 °C 93 % 1007,8 hPa 0,0 mm 2,5 km/h (1 Bft) S-SW 205 ° 0 min 0,000 mm 0,0 UV-I 0 W/m² -3,1 °C -2,1 °C 4,8 km/h (1 Bft)
29.12.2017 22:03 -2,0 °C -2,0 °C 93 % 1007,9 hPa 0,0 mm 4,1 km/h (1 Bft) W 273 ° 0 min 0,000 mm 0,0 UV-I 0 W/m² -3,0 °C -2,0 °C 9,7 km/h (2 Bft)
29.12.2017 22:04 -1,9 °C -1,9 °C 93 % 1007,9 hPa 0,0 mm 3,7 km/h (1 Bft) W-NW 292 ° 0 min 0,000 mm 0,0 UV-I 0 W/m² -2,9 °C -1,9 °C 6,4 km/h (2 Bft)
29.12.2017 22:05 -1,9 °C -1,9 °C 93 % 1007,8 hPa 0,0 mm 3,8 km/h (1 Bft) W 264 ° 0 min 0,000 mm 0,0 UV-I 0 W/m² -2,9 °C -1,9 °C 9,7 km/h (2 Bft)
29.12.2017 22:06 -1,9 °C -1,9 °C 93 % 1007,9 hPa 0,0 mm 4,0 km/h (1 Bft) SW 236 ° 0 min 0,000 mm 0,0 UV-I 0 W/m² -2,9 °C -1,9 °C 9,7 km/h (2 Bft)
29.12.2017 22:07 -1,8 °C -1,8 °C 93 % 1007,9 hPa 0,0 mm 2,8 km/h (1 Bft) SW 224 ° 0 min 0,000 mm 0,0 UV-I 0 W/m² -2,8 °C -1,8 °C 4,8 km/h (1 Bft)
29.12.2017 22:08 -1,8 °C -1,8 °C 93 % 1007,9 hPa 0,0 mm 2,7 km/h (1 Bft) SW 234 ° 0 min 0,000 mm 0,0 UV-I 0 W/m² -2,8 °C -1,8 °C 4,8 km/h (1 Bft)
29.12.2017 22:09 -1,7 °C -1,7 °C 93 % 1007,9 hPa 0,0 mm 6,2 km/h (2 Bft) W-SW 238 ° 0 min 0,000 mm 0,0 UV-I 0 W/m² -2,7 °C -4,1 °C 9,7 km/h (2 Bft)
29.12.2017 22:10 -1,6 °C -1,6 °C 93 % 1008,0 hPa 0,0 mm 4,3 km/h (1 Bft) SW 227 ° 0 min 0,000 mm 0,0 UV-I 0 W/m² -2,6 °C -1,6 °C 8,0 km/h (2 Bft)
29.12.2017 22:11 -1,6 °C -1,6 °C 93 % 1008,0 hPa 0,0 mm 8,8 km/h (2 Bft) SW 221 ° 0 min 0,000 mm 0,0 UV-I 0 W/m² -2,6 °C -4,9 °C 16,1 km/h (3 Bft)
29.12.2017 22:12 -1,4 °C -1,4 °C 93 % 1008,1 hPa 0,0 mm 6,4 km/h (2 Bft) S-SW 202 ° 0 min 0,000 mm 0,0 UV-I 0 W/m² -2,4 °C -3,8 °C 9,7 km/h (2 Bft)
29.12.2017 22:13 -1,3 °C -1,3 °C 94 % 1008,2 hPa 0,0 mm 6,0 km/h (2 Bft) SW 234 ° 0 min 0,000 mm 0,0 UV-I 0 W/m² -2,1 °C -3,5 °C 11,3 km/h (2 Bft)
29.12.2017 22:14 -1,2 °C -1,2 °C 94 % 1008,2 hPa 0,0 mm 7,9 km/h (2 Bft) SW 228 ° 0 min 0,000 mm 0,0 UV-I 0 W/m² -2,0 °C -4,1 °C 14,5 km/h (3 Bft)
29.12.2017 22:15 -1,1 °C -1,1 °C 94 % 1008,3 hPa 0,0 mm 5,6 km/h (1 Bft) SW 216 ° 0 min 0,000 mm 0,0 UV-I 0 W/m² -1,9 °C -3,1 °C 11,3 km/h (2 Bft)
29.12.2017 22:16 -1,0 °C -1,0 °C 94 % 1008,3 hPa 0,0 mm 6,3 km/h (2 Bft) W-SW 240 ° 0 min 0,000 mm 0,0 UV-I 0 W/m² -1,8 °C -3,3 °C 11,3 km/h (2 Bft)
29.12.2017 22:17 -0,9 °C -0,9 °C 94 % 1008,4 hPa 0,0 mm 16,9 km/h (3 Bft) SW 234 ° 0 min 0,000 mm 0,0 UV-I 0 W/m² -1,7 °C -5,9 °C 24,1 km/h (4 Bft)
29.12.2017 22:18 -0,8 °C -0,8 °C 94 % 1008,3 hPa 0,0 mm 10,5 km/h (2 Bft) SW 214 ° 0 min 0,000 mm 0,0 UV-I 0 W/m² -1,6 °C -4,4 °C 14,5 km/h (3 Bft)
29.12.2017 22:19 -0,7 °C -0,7 °C 94 % 1008,3 hPa 0,0 mm 17,6 km/h (3 Bft) S-SW 209 ° 0 min 0,000 mm 0,0 UV-I 0 W/m² -1,5 °C -5,7 °C 30,6 km/h (5 Bft)
29.12.2017 22:20 -0,6 °C -0,6 °C 94 % 1008,4 hPa 0,0 mm 12,7 km/h (3 Bft) SW 233 ° 0 min 0,000 mm 0,0 UV-I 0 W/m² -1,4 °C -4,7 °C 20,9 km/h (4 Bft)
29.12.2017 22:21 -0,5 °C -0,5 °C 94 % 1008,4 hPa 0,0 mm 12,1 km/h (2 Bft) W 274 ° 0 min 0,000 mm 0,0 UV-I 0 W/m² -1,3 °C -4,4 °C 16,1 km/h (3 Bft)
29.12.2017 22:22 -0,4 °C -0,4 °C 94 % 1008,3 hPa 0,0 mm 14,1 km/h (3 Bft) W 272 ° 0 min 0,000 mm 0,0 UV-I 0 W/m² -1,2 °C -4,7 °C 24,1 km/h (4 Bft)
29.12.2017 22:23 -0,3 °C -0,3 °C 94 % 1008,4 hPa 0,0 mm 14,6 km/h (3 Bft) W 264 ° 0 min 0,000 mm 0,0 UV-I 0 W/m² -1,1 °C -4,7 °C 22,5 km/h (4 Bft)
29.12.2017 22:24 -0,3 °C -0,3 °C 94 % 1008,3 hPa 0,0 mm 13,3 km/h (3 Bft) W 276 ° 0 min 0,000 mm 0,0 UV-I 0 W/m² -1,1 °C -4,4 °C 24,1 km/h (4 Bft)
29.12.2017 22:25 -0,2 °C -0,2 °C 94 % 1008,4 hPa 0,0 mm 17,3 km/h (3 Bft) W 278 ° 0 min 0,000 mm 0,0 UV-I 0 W/m² -1,0 °C -5,1 °C 24,1 km/h (4 Bft)
29.12.2017 22:26 -0,1 °C -0,1 °C 94 % 1008,5 hPa 0,0 mm 16,0 km/h (3 Bft) W 273 ° 0 min 0,000 mm 0,0 UV-I 0 W/m² -0,9 °C -4,7 °C 24,1 km/h (4 Bft)
29.12.2017 22:27 -0,1 °C -0,1 °C 94 % 1008,4 hPa 0,0 mm 19,6 km/h (3 Bft) W-SW 258 ° 0 min 0,000 mm 0,0 UV-I 0 W/m² -0,9 °C -5,3 °C 32,2 km/h (5 Bft)
29.12.2017 22:28 -0,1 °C 0,0 °C 94 % 1008,6 hPa 0,0 mm 24,9 km/h (4 Bft) W 263 ° 0 min 0,000 mm 0,0 UV-I 0 W/m² -0,9 °C -6,0 °C 29,0 km/h (5 Bft)
29.12.2017 22:29 0,1 °C 0,1 °C 94 % 1008,5 hPa 0,0 mm 17,1 km/h (3 Bft) SW 227 ° 0 min 0,000 mm 0,0 UV-I 0 W/m² -0,7 °C -4,7 °C 27,4 km/h (4 Bft)
29.12.2017 22:30 0,1 °C 0,1 °C 94 % 1008,7 hPa 0,0 mm 16,3 km/h (3 Bft) W 259 ° 0 min 0,000 mm 0,0 UV-I 0 W/m² -0,7 °C -4,5 °C 25,7 km/h (4 Bft)
29.12.2017 22:31 0,2 °C 0,2 °C 94 % 1008,6 hPa 0,0 mm 12,5 km/h (3 Bft) W 277 ° 0 min 0,000 mm 0,0 UV-I 0 W/m² -0,6 °C -3,7 °C 22,5 km/h (4 Bft)
29.12.2017 22:32 0,2 °C 0,2 °C 94 % 1008,5 hPa 0,0 mm 14,1 km/h (3 Bft) W-SW 246 ° 0 min 0,000 mm 0,0 UV-I 0 W/m² -0,6 °C -4,0 °C 20,9 km/h (4 Bft)
29.12.2017 22:33 0,3 °C 0,3 °C 94 % 1008,8 hPa 0,0 mm 11,9 km/h (2 Bft) W 277 ° 0 min 0,000 mm 0,0 UV-I 0 W/m² -0,5 °C -3,4 °C 22,5 km/h (4 Bft)
29.12.2017 22:34 0,3 °C 0,3 °C 94 % 1008,6 hPa 0,0 mm 20,4 km/h (4 Bft) W 259 ° 0 min 0,000 mm 0,0 UV-I 0 W/m² -0,5 °C -4,9 °C 24,1 km/h (4 Bft)
29.12.2017 22:35 0,3 °C 0,3 °C 94 % 1008,5 hPa 0,0 mm 15,8 km/h (3 Bft) W 269 ° 0 min 0,000 mm 0,0 UV-I 0 W/m² -0,5 °C -4,2 °C 20,9 km/h (4 Bft)
29.12.2017 22:36 0,3 °C 0,3 °C 94 % 1008,7 hPa 0,0 mm 21,9 km/h (4 Bft) W 261 ° 0 min 0,000 mm 0,0 UV-I 0 W/m² -0,5 °C -5,1 °C 37,0 km/h (5 Bft)
29.12.2017 22:37 0,3 °C 0,3 °C 94 % 1008,8 hPa 0,0 mm 20,9 km/h (4 Bft) W-SW 246 ° 0 min 0,000 mm 0,0 UV-I 0 W/m² -0,5 °C -5,0 °C 37,0 km/h (5 Bft)
29.12.2017 22:38 0,4 °C 0,4 °C 94 % 1008,6 hPa 0,0 mm 21,1 km/h (4 Bft) W 277 ° 0 min 0,000 mm 0,0 UV-I 0 W/m² -0,5 °C -4,9 °C 33,8 km/h (5 Bft)
29.12.2017 22:39 0,4 °C 0,4 °C 93 % 1008,6 hPa 0,0 mm 17,9 km/h (3 Bft) W-SW 248 ° 0 min 0,000 mm 0,0 UV-I 0 W/m² -0,6 °C -4,4 °C 24,1 km/h (4 Bft)
29.12.2017 22:40 0,4 °C 0,4 °C 93 % 1008,7 hPa 0,0 mm 27,9 km/h (4 Bft) W 265 ° 0 min 0,000 mm 0,0 UV-I 0 W/m² -0,6 °C -5,7 °C 43,5 km/h (6 Bft)
29.12.2017 22:41 0,4 °C 0,4 °C 93 % 1008,6 hPa 0,0 mm 24,7 km/h (4 Bft) SW 236 ° 0 min 0,000 mm 0,0 UV-I 0 W/m² -0,6 °C -5,4 °C 43,5 km/h (6 Bft)
29.12.2017 22:42 0,5 °C 0,5 °C 93 % 1008,8 hPa 0,0 mm 22,2 km/h (4 Bft) W 261 ° 0 min 0,000 mm 0,0 UV-I 0 W/m² -0,5 °C -4,9 °C 37,0 km/h (5 Bft)
29.12.2017 22:43 0,5 °C 0,6 °C 93 % 1008,8 hPa 0,0 mm 22,0 km/h (4 Bft) W 272 ° 0 min 0,000 mm 0,0 UV-I 0 W/m² -0,5 °C -4,9 °C 27,4 km/h (4 Bft)
29.12.2017 22:44 0,6 °C 0,6 °C 93 % 1008,9 hPa 0,0 mm 24,4 km/h (4 Bft) W 274 ° 0 min 0,000 mm 0,0 UV-I 0 W/m² -0,4 °C -5,1 °C 35,4 km/h (5 Bft)
29.12.2017 22:45 0,6 °C 0,6 °C 93 % 1009,0 hPa 0,0 mm 24,7 km/h (4 Bft) SW 234 ° 0 min 0,000 mm 0,0 UV-I 0 W/m² -0,4 °C -5,1 °C 41,8 km/h (6 Bft)
29.12.2017 22:46 0,6 °C 0,7 °C 93 % 1009,0 hPa 0,0 mm 21,1 km/h (4 Bft) NW 312 ° 0 min 0,000 mm 0,0 UV-I 0 W/m² -0,4 °C -4,6 °C 30,6 km/h (5 Bft)
29.12.2017 22:47 0,7 °C 0,7 °C 93 % 1008,9 hPa 0,0 mm 22,0 km/h (4 Bft) W-SW 251 ° 0 min 0,000 mm 0,0 UV-I 0 W/m² -0,3 °C -4,6 °C 27,4 km/h (4 Bft)
29.12.2017 22:48 0,7 °C 0,7 °C 93 % 1009,2 hPa 0,0 mm 30,4 km/h (5 Bft) W 259 ° 0 min 0,000 mm 0,0 UV-I 0 W/m² -0,3 °C -5,6 °C 53,1 km/h (7 Bft)
29.12.2017 22:49 0,7 °C 0,7 °C 92 % 1009,2 hPa 0,0 mm 32,6 km/h (5 Bft) W 275 ° 0 min 0,000 mm 0,0 UV-I 0 W/m² -0,4 °C -5,8 °C 51,5 km/h (7 Bft)
29.12.2017 22:50 0,8 °C 0,8 °C 92 % 1009,0 hPa 0,0 mm 24,1 km/h (4 Bft) W 271 ° 0 min 0,000 mm 0,0 UV-I 0 W/m² -0,3 °C -4,8 °C 38,6 km/h (5 Bft)
29.12.2017 22:51 0,8 °C 0,8 °C 92 % 1009,2 hPa 0,0 mm 23,3 km/h (4 Bft) SW 233 ° 0 min 0,000 mm 0,0 UV-I 0 W/m² -0,3 °C -4,7 °C 40,2 km/h (6 Bft)
29.12.2017 22:52 0,8 °C 0,8 °C 92 % 1009,2 hPa 0,0 mm 18,0 km/h (3 Bft) W-SW 246 ° 0 min 0,000 mm 0,0 UV-I 0 W/m² -0,3 °C -3,9 °C 25,7 km/h (4 Bft)
29.12.2017 22:53 0,8 °C 0,8 °C 92 % 1009,3 hPa 0,0 mm 16,5 km/h (3 Bft) W 281 ° 0 min 0,000 mm 0,0 UV-I 0 W/m² -0,3 °C -3,7 °C 22,5 km/h (4 Bft)
29.12.2017 22:54 0,8 °C 0,8 °C 92 % 1009,3 hPa 0,0 mm 13,4 km/h (3 Bft) SW 225 ° 0 min 0,000 mm 0,0 UV-I 0 W/m² -0,3 °C -3,1 °C 27,4 km/h (4 Bft)
29.12.2017 22:55 0,8 °C 0,8 °C 92 % 1009,3 hPa 0,0 mm 16,4 km/h (3 Bft) W 265 ° 0 min 0,000 mm 0,0 UV-I 0 W/m² -0,3 °C -3,7 °C 25,7 km/h (4 Bft)
29.12.2017 22:56 0,8 °C 0,8 °C 92 % 1009,3 hPa 0,0 mm 20,0 km/h (4 Bft) W 262 ° 0 min 0,000 mm 0,0 UV-I 0 W/m² -0,3 °C -4,2 °C 25,7 km/h (4 Bft)
29.12.2017 22:57 0,8 °C 0,8 °C 92 % 1009,3 hPa 0,0 mm 12,6 km/h (3 Bft) W-SW 252 ° 0 min 0,000 mm 0,0 UV-I 0 W/m² -0,3 °C -3,0 °C 17,7 km/h (3 Bft)
29.12.2017 22:58 0,8 °C 0,8 °C 92 % 1009,4 hPa 0,0 mm 15,1 km/h (3 Bft) NW 307 ° 0 min 0,000 mm 0,0 UV-I 0 W/m² -0,3 °C -3,4 °C 19,3 km/h (3 Bft)
29.12.2017 22:59 0,8 °C 0,9 °C 91 % 1009,4 hPa 0,0 mm 14,2 km/h (3 Bft) W-SW 254 ° 0 min 0,000 mm 0,0 UV-I 0 W/m² -0,5 °C -3,3 °C 20,9 km/h (4 Bft)
29.12.2017 23:00 0,8 °C 0,8 °C 91 % 1009,4 hPa 0,0 mm 17,0 km/h (3 Bft) W-SW 253 ° 0 min 0,000 mm 0,0 UV-I 0 W/m² -0,5 °C -3,8 °C 27,4 km/h (4 Bft)
29.12.2017 23:01 0,8 °C 0,8 °C 91 % 1009,4 hPa 0,0 mm 11,2 km/h (2 Bft) W-NW 288 ° 0 min 0,000 mm 0,0 UV-I 0 W/m² -0,5 °C -2,7 °C 17,7 km/h (3 Bft)
29.12.2017 23:02 0,8 °C 0,9 °C 92 % 1009,3 hPa 0,0 mm 14,1 km/h (3 Bft) W 259 ° 0 min 0,000 mm 0,0 UV-I 0 W/m² -0,3 °C -3,3 °C 27,4 km/h (4 Bft)
29.12.2017 23:03 0,8 °C 0,9 °C 91 % 1009,5 hPa 0,0 mm 18,6 km/h (3 Bft) W-SW 244 ° 0 min 0,000 mm 0,0 UV-I 0 W/m² -0,5 °C -4,0 °C 32,2 km/h (5 Bft)
29.12.2017 23:04 0,8 °C 0,8 °C 91 % 1009,4 hPa 0,0 mm 22,3 km/h (4 Bft) W 267 ° 0 min 0,000 mm 0,0 UV-I 0 W/m² -0,5 °C -4,5 °C 32,2 km/h (5 Bft)
29.12.2017 23:05 0,9 °C 0,9 °C 91 % 1009,5 hPa 0,0 mm 16,7 km/h (3 Bft) W 272 ° 0 min 0,000 mm 0,0 UV-I 0 W/m² -0,4 °C -3,6 °C 27,4 km/h (4 Bft)
29.12.2017 23:06 0,9 °C 0,9 °C 91 % 1009,5 hPa 0,0 mm 13,8 km/h (3 Bft) W 267 ° 0 min 0,000 mm 0,0 UV-I 0 W/m² -0,4 °C -3,1 °C 20,9 km/h (4 Bft)
29.12.2017 23:07 0,9 °C 0,9 °C 91 % 1009,6 hPa 0,0 mm 11,8 km/h (2 Bft) W 271 ° 0 min 0,000 mm 0,0 UV-I 0 W/m² -0,4 °C -2,7 °C 25,7 km/h (4 Bft)
29.12.2017 23:08 0,9 °C 0,9 °C 91 % 1009,5 hPa 0,0 mm 16,5 km/h (3 Bft) SW 234 ° 0 min 0,000 mm 0,0 UV-I 0 W/m² -0,4 °C -3,6 °C 27,4 km/h (4 Bft)
29.12.2017 23:09 0,9 °C 0,9 °C 91 % 1009,4 hPa 0,0 mm 19,0 km/h (3 Bft) SW 216 ° 0 min 0,000 mm 0,0 UV-I 0 W/m² -0,4 °C -4,0 °C 27,4 km/h (4 Bft)
29.12.2017 23:10 0,9 °C 0,9 °C 91 % 1009,4 hPa 0,0 mm 19,7 km/h (3 Bft) W 267 ° 0 min 0,000 mm 0,0 UV-I 0 W/m² -0,4 °C -4,1 °C 30,6 km/h (5 Bft)
29.12.2017 23:11 0,9 °C 0,9 °C 91 % 1009,5 hPa 0,0 mm 13,1 km/h (3 Bft) W-SW 254 ° 0 min 0,000 mm 0,0 UV-I 0 W/m² -0,4 °C -2,9 °C 17,7 km/h (3 Bft)
29.12.2017 23:12 0,9 °C 0,9 °C 91 % 1009,5 hPa 0,0 mm 14,3 km/h (3 Bft) W 269 ° 0 min 0,000 mm 0,0 UV-I 0 W/m² -0,4 °C -3,2 °C 30,6 km/h (5 Bft)
29.12.2017 23:13 0,9 °C 0,9 °C 91 % 1009,5 hPa 0,0 mm 19,1 km/h (3 Bft) W 264 ° 0 min 0,000 mm 0,0 UV-I 0 W/m² -0,4 °C -4,0 °C 27,4 km/h (4 Bft)
29.12.2017 23:14 0,9 °C 1,0 °C 91 % 1009,5 hPa 0,0 mm 17,0 km/h (3 Bft) W 269 ° 0 min 0,000 mm 0,0 UV-I 0 W/m² -0,4 °C -3,7 °C 33,8 km/h (5 Bft)
29.12.2017 23:15 0,9 °C 1,0 °C 91 % 1009,5 hPa 0,0 mm 18,0 km/h (3 Bft) W 270 ° 0 min 0,000 mm 0,0 UV-I 0 W/m² -0,4 °C -3,8 °C 27,4 km/h (4 Bft)
29.12.2017 23:16 0,9 °C 1,0 °C 91 % 1009,5 hPa 0,0 mm 10,7 km/h (2 Bft) W 265 ° 0 min 0,000 mm 0,0 UV-I 0 W/m² -0,4 °C -2,4 °C 14,5 km/h (3 Bft)
29.12.2017 23:17 0,9 °C 1,0 °C 91 % 1009,5 hPa 0,0 mm 13,7 km/h (3 Bft) W 270 ° 0 min 0,000 mm 0,0 UV-I 0 W/m² -0,4 °C -3,1 °C 19,3 km/h (3 Bft)
29.12.2017 23:18 0,9 °C 1,0 °C 91 % 1009,6 hPa 0,0 mm 16,2 km/h (3 Bft) W 266 ° 0 min 0,000 mm 0,0 UV-I 0 W/m² -0,4 °C -3,5 °C 24,1 km/h (4 Bft)
29.12.2017 23:19 1,0 °C 1,0 °C 91 % 1009,6 hPa 0,0 mm 12,5 km/h (3 Bft) W 265 ° 0 min 0,000 mm 0,0 UV-I 0 W/m² -0,3 °C -2,7 °C 16,1 km/h (3 Bft)
29.12.2017 23:20 1,0 °C 1,0 °C 91 % 1009,5 hPa 0,0 mm 12,0 km/h (2 Bft) W 267 ° 0 min 0,000 mm 0,0 UV-I 0 W/m² -0,3 °C -2,6 °C 22,5 km/h (4 Bft)
29.12.2017 23:21 0,9 °C 1,0 °C 91 % 1009,7 hPa 0,0 mm 14,6 km/h (3 Bft) W-SW 257 ° 0 min 0,000 mm 0,0 UV-I 0 W/m² -0,4 °C -3,2 °C 35,4 km/h (5 Bft)
29.12.2017 23:22 0,9 °C 1,0 °C 91 % 1009,8 hPa 0,0 mm 19,6 km/h (3 Bft) W-SW 250 ° 0 min 0,000 mm 0,0 UV-I 0 W/m² -0,4 °C -4,0 °C 30,6 km/h (5 Bft)
29.12.2017 23:23 0,9 °C 1,0 °C 91 % 1009,9 hPa 0,0 mm 18,8 km/h (3 Bft) W 272 ° 0 min 0,000 mm 0,0 UV-I 0 W/m² -0,4 °C -3,9 °C 27,4 km/h (4 Bft)
29.12.2017 23:24 0,9 °C 1,0 °C 91 % 1009,9 hPa 0,0 mm 19,2 km/h (3 Bft) W 265 ° 0 min 0,000 mm 0,0 UV-I 0 W/m² -0,4 °C -4,0 °C 33,8 km/h (5 Bft)
29.12.2017 23:25 0,9 °C 0,9 °C 91 % 1009,9 hPa 0,0 mm 25,3 km/h (4 Bft) W 269 ° 0 min 0,000 mm 0,0 UV-I 0 W/m² -0,4 °C -4,8 °C 37,0 km/h (5 Bft)
29.12.2017 23:26 0,9 °C 1,0 °C 91 % 1009,9 hPa 0,0 mm 23,6 km/h (4 Bft) W-SW 246 ° 0 min 0,000 mm 0,0 UV-I 0 W/m² -0,4 °C -4,6 °C 37,0 km/h (5 Bft)
29.12.2017 23:27 1,0 °C 1,0 °C 91 % 1010,0 hPa 0,0 mm 16,3 km/h (3 Bft) W-SW 254 ° 0 min 0,000 mm 0,0 UV-I 0 W/m² -0,3 °C -3,4 °C 20,9 km/h (4 Bft)
29.12.2017 23:28 0,9 °C 1,0 °C 91 % 1010,0 hPa 0,0 mm 12,5 km/h (3 Bft) SW 215 ° 0 min 0,000 mm 0,0 UV-I 0 W/m² -0,4 °C -2,8 °C 20,9 km/h (4 Bft)
29.12.2017 23:29 0,9 °C 0,9 °C 92 % 1010,0 hPa 0,0 mm 13,9 km/h (3 Bft) W-NW 283 ° 0 min 0,000 mm 0,0 UV-I 0 W/m² -0,2 °C -3,1 °C 22,5 km/h (4 Bft)
29.12.2017 23:30 0,9 °C 0,9 °C 92 % 1010,0 hPa 0,0 mm 16,1 km/h (3 Bft) W-SW 258 ° 0 min 0,000 mm 0,0 UV-I 0 W/m² -0,2 °C -3,5 °C 24,1 km/h (4 Bft)
29.12.2017 23:31 0,9 °C 1,0 °C 92 % 1010,0 hPa 0,0 mm 13,7 km/h (3 Bft) W-SW 244 ° 0 min 0,000 mm 0,0 UV-I 0 W/m² -0,2 °C -3,1 °C 20,9 km/h (4 Bft)
29.12.2017 23:32 0,9 °C 0,9 °C 92 % 1010,0 hPa 0,0 mm 15,0 km/h (3 Bft) W-SW 258 ° 0 min 0,000 mm 0,0 UV-I 0 W/m² -0,2 °C -3,3 °C 20,9 km/h (4 Bft)
29.12.2017 23:33 0,9 °C 0,9 °C 92 % 1010,0 hPa 0,0 mm 12,7 km/h (3 Bft) W-SW 254 ° 0 min 0,000 mm 0,0 UV-I 0 W/m² -0,2 °C -2,9 °C 17,7 km/h (3 Bft)
29.12.2017 23:34 0,9 °C 0,9 °C 92 % 1010,1 hPa 0,0 mm 19,5 km/h (3 Bft) W-SW 250 ° 0 min 0,000 mm 0,0 UV-I 0 W/m² -0,2 °C -4,0 °C 29,0 km/h (5 Bft)
29.12.2017 23:35 0,9 °C 0,9 °C 92 % 1010,1 hPa 0,0 mm 13,0 km/h (3 Bft) W 261 ° 0 min 0,000 mm 0,0 UV-I 0 W/m² -0,2 °C -2,9 °C 19,3 km/h (3 Bft)
29.12.2017 23:36 0,9 °C 0,9 °C 92 % 1010,1 hPa 0,0 mm 11,7 km/h (2 Bft) W 267 ° 0 min 0,000 mm 0,0 UV-I 0 W/m² -0,2 °C -2,6 °C 19,3 km/h (3 Bft)
29.12.2017 23:37 0,9 °C 0,9 °C 92 % 1010,1 hPa 0,0 mm 10,4 km/h (2 Bft) W 265 ° 0 min 0,000 mm 0,0 UV-I 0 W/m² -0,2 °C -2,3 °C 14,5 km/h (3 Bft)
29.12.2017 23:38 0,9 °C 0,9 °C 92 % 1010,4 hPa 0,0 mm 11,9 km/h (2 Bft) W 259 ° 0 min 0,000 mm 0,0 UV-I 0 W/m² -0,2 °C -2,7 °C 19,3 km/h (3 Bft)
29.12.2017 23:39 0,9 °C 0,9 °C 92 % 1010,2 hPa 0,0 mm 11,9 km/h (2 Bft) W-NW 298 ° 0 min 0,000 mm 0,0 UV-I 0 W/m² -0,2 °C -2,7 °C 17,7 km/h (3 Bft)
29.12.2017 23:40 0,9 °C 0,9 °C 92 % 1010,2 hPa 0,0 mm 13,9 km/h (3 Bft) W 270 ° 0 min 0,000 mm 0,0 UV-I 0 W/m² -0,2 °C -3,1 °C 19,3 km/h (3 Bft)
29.12.2017 23:41 0,9 °C 0,9 °C 92 % 1010,2 hPa 0,0 mm 14,1 km/h (3 Bft) W 270 ° 0 min 0,000 mm 0,0 UV-I 0 W/m² -0,2 °C -3,1 °C 20,9 km/h (4 Bft)
29.12.2017 23:42 0,9 °C 0,9 °C 92 % 1010,2 hPa 0,0 mm 9,1 km/h (2 Bft) W 278 ° 0 min 0,000 mm 0,0 UV-I 0 W/m² -0,2 °C -2,0 °C 16,1 km/h (3 Bft)
29.12.2017 23:43 0,9 °C 0,9 °C 92 % 1010,1 hPa 0,0 mm 19,0 km/h (3 Bft) NW 311 ° 0 min 0,000 mm 0,0 UV-I 0 W/m² -0,2 °C -4,0 °C 30,6 km/h (5 Bft)
29.12.2017 23:44 0,9 °C 0,9 °C 92 % 1010,2 hPa 0,0 mm 26,5 km/h (4 Bft) W-SW 251 ° 0 min 0,000 mm 0,0 UV-I 0 W/m² -0,2 °C -4,9 °C 40,2 km/h (6 Bft)
29.12.2017 23:45 1,0 °C 1,0 °C 92 % 1010,3 hPa 0,0 mm 23,1 km/h (4 Bft) W 271 ° 0 min 0,000 mm 0,0 UV-I 0 W/m² -0,2 °C -4,4 °C 38,6 km/h (5 Bft)
29.12.2017 23:46 1,0 °C 1,0 °C 91 % 1010,3 hPa 0,0 mm 15,5 km/h (3 Bft) W-NW 289 ° 0 min 0,000 mm 0,0 UV-I 0 W/m² -0,3 °C -3,3 °C 25,7 km/h (4 Bft)
29.12.2017 23:47 1,1 °C 1,1 °C 91 % 1010,2 hPa 0,0 mm 25,5 km/h (4 Bft) W-NW 298 ° 0 min 0,000 mm 0,0 UV-I 0 W/m² -0,2 °C -4,6 °C 35,4 km/h (5 Bft)
29.12.2017 23:48 1,1 °C 1,1 °C 91 % 1010,3 hPa 0,0 mm 21,4 km/h (4 Bft) W 263 ° 0 min 0,000 mm 0,0 UV-I 0 W/m² -0,2 °C -4,0 °C 32,2 km/h (5 Bft)
29.12.2017 23:49 1,1 °C 1,1 °C 91 % 1010,3 hPa 0,0 mm 15,8 km/h (3 Bft) W 273 ° 0 min 0,000 mm 0,0 UV-I 0 W/m² -0,2 °C -3,2 °C 22,5 km/h (4 Bft)
29.12.2017 23:50 1,2 °C 1,2 °C 90 % 1010,3 hPa 0,0 mm 14,8 km/h (3 Bft) W 275 ° 0 min 0,000 mm 0,0 UV-I 0 W/m² -0,3 °C -2,9 °C 19,3 km/h (3 Bft)
29.12.2017 23:51 1,2 °C 1,2 °C 90 % 1010,3 hPa 0,0 mm 12,7 km/h (3 Bft) W-NW 295 ° 0 min 0,000 mm 0,0 UV-I 0 W/m² -0,3 °C -2,5 °C 22,5 km/h (4 Bft)
29.12.2017 23:52 1,2 °C 1,2 °C 90 % 1010,3 hPa 0,0 mm 16,9 km/h (3 Bft) W-NW 292 ° 0 min 0,000 mm 0,0 UV-I 0 W/m² -0,3 °C -3,3 °C 25,7 km/h (4 Bft)
29.12.2017 23:53 1,2 °C 1,2 °C 90 % 1010,3 hPa 0,0 mm 16,1 km/h (3 Bft) W 261 ° 0 min 0,000 mm 0,0 UV-I 0 W/m² -0,3 °C -3,1 °C 22,5 km/h (4 Bft)
29.12.2017 23:54 1,3 °C 1,3 °C 90 % 1010,4 hPa 0,0 mm 25,1 km/h (4 Bft) W 266 ° 0 min 0,000 mm 0,0 UV-I 0 W/m² -0,2 °C -4,3 °C 40,2 km/h (6 Bft)
29.12.2017 23:55 1,3 °C 1,3 °C 90 % 1010,5 hPa 0,0 mm 25,2 km/h (4 Bft) W-SW 252 ° 0 min 0,000 mm 0,0 UV-I 0 W/m² -0,2 °C -4,3 °C 37,0 km/h (5 Bft)
29.12.2017 23:56 1,3 °C 1,3 °C 90 % 1010,5 hPa 0,0 mm 13,5 km/h (3 Bft) W-NW 297 ° 0 min 0,000 mm 0,0 UV-I 0 W/m² -0,2 °C -2,5 °C 19,3 km/h (3 Bft)
29.12.2017 23:57 1,3 °C 1,3 °C 90 % 1010,6 hPa 0,0 mm 15,6 km/h (3 Bft) W-NW 298 ° 0 min 0,000 mm 0,0 UV-I 0 W/m² -0,2 °C -2,9 °C 25,7 km/h (4 Bft)
29.12.2017 23:58 1,3 °C 1,3 °C 90 % 1010,6 hPa 0,0 mm 20,1 km/h (4 Bft) W-SW 246 ° 0 min 0,000 mm 0,0 UV-I 0 W/m² -0,2 °C -3,6 °C 29,0 km/h (5 Bft)
29.12.2017 23:59 1,3 °C 1,3 °C 90 % 1010,7 hPa 0,0 mm 16,4 km/h (3 Bft) W-SW 257 ° 0 min 0,000 mm 0,0 UV-I 0 W/m² -0,2 °C -3,1 °C 24,1 km/h (4 Bft)
_ Min-Zeit 09:17 09:30 14:21 20:52 - 21:59 - - - - - - 09:17 09:11 21:59
Minimum _ -7,0 °C -6,9 °C 83 % 1006,9 hPa - 0,0 km/h (0 Bft) - - - - - - -8,5 °C -10,8 °C 0,0 km/h (0 Bft)
_ Max-Zeit 23:59 23:59 22:38 10:43 23:59 22:49 - - 23:59 23:59 23:59 13:57 23:45 22:10 22:48
Maximum _ 1,3 °C 1,3 °C 94 % 1014,5 hPa 0,0 mm 32,6 km/h
W (5 Bft)
- - 0 min 0,000 mm 0,0 UV-I 149 W/m² -0,2 °C -1,6 °C 53,1 km/h
W-NW (7 Bft)
Durchschnitt _ -4,6 °C -4,6 °C 89 % 1011,7 hPa #0,0 mm 3,9 km/h (1 Bft) S-SW - #0 min. #0,000 mm 0,0 UV-I 4 W/m² -6,1 °C -5,7 °C 6,2 km/h (2 Bft)